<?xml version="1.0" encoding="UTF-8" standalone="no" ?>
<gpx xmlns="http://www.topografix.com/GPX/1/1" xmlns:xsi="http://www.w3.org/2001/XMLSchema-instance" xsi:schemaLocation="http://www.topografix.com/GPX/1/1 http://www.topografix.com/GPX/1/1/gpx.xsd" version="1.1" creator="VisuGPX - https://www.visugpx.com">
  <metadata>
    <name>150128ROBMinots</name>
    <desc><![CDATA[Sortie et exercices]]></desc>
  </metadata>
  <trk>
    <name><![CDATA[150128ROBMinots]]></name>
    <trkseg>
      <trkpt lat="43.41563" lon="6.07121">
        <ele>196.19999694824</ele>
        <time>2015-01-28T12:43:58Z</time>
      </trkpt>
      <trkpt lat="43.41559" lon="6.07121">
        <ele>196.60000610352</ele>
        <time>2015-01-28T12:43:59Z</time>
      </trkpt>
      <trkpt lat="43.41549" lon="6.07116">
        <ele>196.39999389648</ele>
        <time>2015-01-28T12:44:02Z</time>
      </trkpt>
      <trkpt lat="43.41548" lon="6.07101">
        <ele>196.19999694824</ele>
        <time>2015-01-28T12:44:05Z</time>
      </trkpt>
      <trkpt lat="43.41539" lon="6.07079">
        <ele>195.39999389648</ele>
        <time>2015-01-28T12:44:10Z</time>
      </trkpt>
      <trkpt lat="43.41535" lon="6.07079">
        <ele>195.19999694824</ele>
        <time>2015-01-28T12:44:11Z</time>
      </trkpt>
      <trkpt lat="43.41526" lon="6.0708">
        <ele>194.80000305176</ele>
        <time>2015-01-28T12:44:13Z</time>
      </trkpt>
      <trkpt lat="43.41517" lon="6.07083">
        <ele>194.60000610352</ele>
        <time>2015-01-28T12:44:15Z</time>
      </trkpt>
      <trkpt lat="43.41506" lon="6.07087">
        <ele>194.39999389648</ele>
        <time>2015-01-28T12:44:18Z</time>
      </trkpt>
      <trkpt lat="43.41504" lon="6.07087">
        <ele>194.60000610352</ele>
        <time>2015-01-28T12:44:19Z</time>
      </trkpt>
      <trkpt lat="43.41501" lon="6.07086">
        <ele>194.39999389648</ele>
        <time>2015-01-28T12:44:21Z</time>
      </trkpt>
      <trkpt lat="43.41501" lon="6.07086">
        <ele>194.19999694824</ele>
        <time>2015-01-28T12:44:22Z</time>
      </trkpt>
      <trkpt lat="43.41501" lon="6.07086">
        <ele>194.19999694824</ele>
        <time>2015-01-28T12:44:33Z</time>
      </trkpt>
      <trkpt lat="43.41499" lon="6.07087">
        <ele>194.19999694824</ele>
        <time>2015-01-28T12:44:35Z</time>
      </trkpt>
      <trkpt lat="43.41497" lon="6.07092">
        <ele>194.19999694824</ele>
        <time>2015-01-28T12:44:38Z</time>
      </trkpt>
      <trkpt lat="43.41497" lon="6.07095">
        <ele>194</ele>
        <time>2015-01-28T12:44:39Z</time>
      </trkpt>
      <trkpt lat="43.41496" lon="6.07108">
        <ele>194</ele>
        <time>2015-01-28T12:44:43Z</time>
      </trkpt>
      <trkpt lat="43.4149" lon="6.07127">
        <ele>194.19999694824</ele>
        <time>2015-01-28T12:44:48Z</time>
      </trkpt>
      <trkpt lat="43.41484" lon="6.07139">
        <ele>194</ele>
        <time>2015-01-28T12:44:51Z</time>
      </trkpt>
      <trkpt lat="43.41484" lon="6.07151">
        <ele>194</ele>
        <time>2015-01-28T12:44:53Z</time>
      </trkpt>
      <trkpt lat="43.41486" lon="6.07172">
        <ele>193.60000610352</ele>
        <time>2015-01-28T12:44:57Z</time>
      </trkpt>
      <trkpt lat="43.41487" lon="6.07178">
        <ele>193.39999389648</ele>
        <time>2015-01-28T12:44:58Z</time>
      </trkpt>
      <trkpt lat="43.41488" lon="6.07183">
        <ele>193.60000610352</ele>
        <time>2015-01-28T12:44:59Z</time>
      </trkpt>
      <trkpt lat="43.41498" lon="6.0719">
        <ele>193.39999389648</ele>
        <time>2015-01-28T12:45:02Z</time>
      </trkpt>
      <trkpt lat="43.41505" lon="6.0719">
        <ele>193.19999694824</ele>
        <time>2015-01-28T12:45:04Z</time>
      </trkpt>
      <trkpt lat="43.41513" lon="6.0719">
        <ele>193.80000305176</ele>
        <time>2015-01-28T12:45:07Z</time>
      </trkpt>
      <trkpt lat="43.41518" lon="6.07195">
        <ele>193.80000305176</ele>
        <time>2015-01-28T12:45:12Z</time>
      </trkpt>
      <trkpt lat="43.4152" lon="6.07196">
        <ele>193.39999389648</ele>
        <time>2015-01-28T12:45:18Z</time>
      </trkpt>
      <trkpt lat="43.41521" lon="6.07196">
        <ele>193.60000610352</ele>
        <time>2015-01-28T12:45:25Z</time>
      </trkpt>
      <trkpt lat="43.41524" lon="6.07199">
        <ele>193.19999694824</ele>
        <time>2015-01-28T12:45:31Z</time>
      </trkpt>
      <trkpt lat="43.41526" lon="6.07202">
        <ele>192.80000305176</ele>
        <time>2015-01-28T12:45:33Z</time>
      </trkpt>
      <trkpt lat="43.41526" lon="6.07205">
        <ele>192.60000610352</ele>
        <time>2015-01-28T12:45:34Z</time>
      </trkpt>
      <trkpt lat="43.41526" lon="6.07208">
        <ele>192.60000610352</ele>
        <time>2015-01-28T12:45:36Z</time>
      </trkpt>
      <trkpt lat="43.41526" lon="6.07224">
        <ele>192</ele>
        <time>2015-01-28T12:45:42Z</time>
      </trkpt>
      <trkpt lat="43.41527" lon="6.07246">
        <ele>192</ele>
        <time>2015-01-28T12:45:47Z</time>
      </trkpt>
      <trkpt lat="43.41527" lon="6.07279">
        <ele>192.60000610352</ele>
        <time>2015-01-28T12:45:54Z</time>
      </trkpt>
      <trkpt lat="43.41532" lon="6.0731">
        <ele>192.39999389648</ele>
        <time>2015-01-28T12:46:01Z</time>
      </trkpt>
      <trkpt lat="43.41528" lon="6.07331">
        <ele>192.60000610352</ele>
        <time>2015-01-28T12:46:07Z</time>
      </trkpt>
      <trkpt lat="43.41517" lon="6.07336">
        <ele>193</ele>
        <time>2015-01-28T12:46:11Z</time>
      </trkpt>
      <trkpt lat="43.41497" lon="6.07346">
        <ele>193.19999694824</ele>
        <time>2015-01-28T12:46:19Z</time>
      </trkpt>
      <trkpt lat="43.41496" lon="6.07348">
        <ele>193.19999694824</ele>
        <time>2015-01-28T12:46:23Z</time>
      </trkpt>
      <trkpt lat="43.41496" lon="6.07351">
        <ele>193</ele>
        <time>2015-01-28T12:46:26Z</time>
      </trkpt>
      <trkpt lat="43.41495" lon="6.07357">
        <ele>193.19999694824</ele>
        <time>2015-01-28T12:46:29Z</time>
      </trkpt>
      <trkpt lat="43.41496" lon="6.07362">
        <ele>193</ele>
        <time>2015-01-28T12:46:31Z</time>
      </trkpt>
      <trkpt lat="43.41499" lon="6.07366">
        <ele>192.80000305176</ele>
        <time>2015-01-28T12:46:33Z</time>
      </trkpt>
      <trkpt lat="43.41504" lon="6.07371">
        <ele>192.80000305176</ele>
        <time>2015-01-28T12:46:36Z</time>
      </trkpt>
      <trkpt lat="43.41508" lon="6.07378">
        <ele>192.80000305176</ele>
        <time>2015-01-28T12:46:40Z</time>
      </trkpt>
      <trkpt lat="43.41519" lon="6.07392">
        <ele>193</ele>
        <time>2015-01-28T12:46:46Z</time>
      </trkpt>
      <trkpt lat="43.41531" lon="6.07417">
        <ele>193.19999694824</ele>
        <time>2015-01-28T12:46:52Z</time>
      </trkpt>
      <trkpt lat="43.41539" lon="6.07437">
        <ele>193.80000305176</ele>
        <time>2015-01-28T12:46:56Z</time>
      </trkpt>
      <trkpt lat="43.41547" lon="6.07447">
        <ele>194.19999694824</ele>
        <time>2015-01-28T12:46:59Z</time>
      </trkpt>
      <trkpt lat="43.4155" lon="6.07448">
        <ele>194.39999389648</ele>
        <time>2015-01-28T12:47:00Z</time>
      </trkpt>
      <trkpt lat="43.41554" lon="6.07447">
        <ele>194.39999389648</ele>
        <time>2015-01-28T12:47:01Z</time>
      </trkpt>
      <trkpt lat="43.41561" lon="6.07446">
        <ele>194.60000610352</ele>
        <time>2015-01-28T12:47:03Z</time>
      </trkpt>
      <trkpt lat="43.41574" lon="6.07444">
        <ele>195.39999389648</ele>
        <time>2015-01-28T12:47:07Z</time>
      </trkpt>
      <trkpt lat="43.41587" lon="6.07441">
        <ele>196.19999694824</ele>
        <time>2015-01-28T12:47:11Z</time>
      </trkpt>
      <trkpt lat="43.41594" lon="6.0744">
        <ele>196.60000610352</ele>
        <time>2015-01-28T12:47:13Z</time>
      </trkpt>
      <trkpt lat="43.41605" lon="6.07438">
        <ele>197.39999389648</ele>
        <time>2015-01-28T12:47:16Z</time>
      </trkpt>
      <trkpt lat="43.41612" lon="6.07437">
        <ele>197.80000305176</ele>
        <time>2015-01-28T12:47:18Z</time>
      </trkpt>
      <trkpt lat="43.41616" lon="6.07437">
        <ele>197.80000305176</ele>
        <time>2015-01-28T12:47:19Z</time>
      </trkpt>
      <trkpt lat="43.41647" lon="6.07434">
        <ele>198.60000610352</ele>
        <time>2015-01-28T12:47:28Z</time>
      </trkpt>
      <trkpt lat="43.41666" lon="6.07431">
        <ele>198.60000610352</ele>
        <time>2015-01-28T12:47:35Z</time>
      </trkpt>
      <trkpt lat="43.41671" lon="6.07431">
        <ele>199</ele>
        <time>2015-01-28T12:47:37Z</time>
      </trkpt>
      <trkpt lat="43.41684" lon="6.07429">
        <ele>200</ele>
        <time>2015-01-28T12:47:42Z</time>
      </trkpt>
      <trkpt lat="43.41687" lon="6.07429">
        <ele>200.39999389648</ele>
        <time>2015-01-28T12:47:43Z</time>
      </trkpt>
      <trkpt lat="43.41695" lon="6.07428">
        <ele>201</ele>
        <time>2015-01-28T12:47:46Z</time>
      </trkpt>
      <trkpt lat="43.41703" lon="6.07426">
        <ele>201.39999389648</ele>
        <time>2015-01-28T12:47:49Z</time>
      </trkpt>
      <trkpt lat="43.41713" lon="6.07423">
        <ele>202.39999389648</ele>
        <time>2015-01-28T12:47:53Z</time>
      </trkpt>
      <trkpt lat="43.41724" lon="6.07421">
        <ele>203.60000610352</ele>
        <time>2015-01-28T12:47:58Z</time>
      </trkpt>
      <trkpt lat="43.4173" lon="6.0742">
        <ele>204.60000610352</ele>
        <time>2015-01-28T12:48:01Z</time>
      </trkpt>
      <trkpt lat="43.4174" lon="6.07418">
        <ele>205.80000305176</ele>
        <time>2015-01-28T12:48:06Z</time>
      </trkpt>
      <trkpt lat="43.41747" lon="6.07417">
        <ele>206.19999694824</ele>
        <time>2015-01-28T12:48:09Z</time>
      </trkpt>
      <trkpt lat="43.4175" lon="6.07416">
        <ele>206.80000305176</ele>
        <time>2015-01-28T12:48:11Z</time>
      </trkpt>
      <trkpt lat="43.4176" lon="6.07415">
        <ele>207.80000305176</ele>
        <time>2015-01-28T12:48:16Z</time>
      </trkpt>
      <trkpt lat="43.41762" lon="6.07414">
        <ele>208</ele>
        <time>2015-01-28T12:48:17Z</time>
      </trkpt>
      <trkpt lat="43.41768" lon="6.07412">
        <ele>209.19999694824</ele>
        <time>2015-01-28T12:48:20Z</time>
      </trkpt>
      <trkpt lat="43.41777" lon="6.07411">
        <ele>210</ele>
        <time>2015-01-28T12:48:25Z</time>
      </trkpt>
      <trkpt lat="43.41779" lon="6.0741">
        <ele>210.39999389648</ele>
        <time>2015-01-28T12:48:26Z</time>
      </trkpt>
      <trkpt lat="43.41789" lon="6.0741">
        <ele>211.19999694824</ele>
        <time>2015-01-28T12:48:32Z</time>
      </trkpt>
      <trkpt lat="43.41792" lon="6.07411">
        <ele>211.60000610352</ele>
        <time>2015-01-28T12:48:34Z</time>
      </trkpt>
      <trkpt lat="43.418" lon="6.07412">
        <ele>211.80000305176</ele>
        <time>2015-01-28T12:48:39Z</time>
      </trkpt>
      <trkpt lat="43.41804" lon="6.07416">
        <ele>212.60000610352</ele>
        <time>2015-01-28T12:48:42Z</time>
      </trkpt>
      <trkpt lat="43.41807" lon="6.07422">
        <ele>213.19999694824</ele>
        <time>2015-01-28T12:48:45Z</time>
      </trkpt>
      <trkpt lat="43.41811" lon="6.07431">
        <ele>213.80000305176</ele>
        <time>2015-01-28T12:48:50Z</time>
      </trkpt>
      <trkpt lat="43.41812" lon="6.07433">
        <ele>214</ele>
        <time>2015-01-28T12:48:51Z</time>
      </trkpt>
      <trkpt lat="43.41819" lon="6.07442">
        <ele>215</ele>
        <time>2015-01-28T12:48:57Z</time>
      </trkpt>
      <trkpt lat="43.4182" lon="6.07444">
        <ele>215</ele>
        <time>2015-01-28T12:48:59Z</time>
      </trkpt>
      <trkpt lat="43.41824" lon="6.07446">
        <ele>215.39999389648</ele>
        <time>2015-01-28T12:49:04Z</time>
      </trkpt>
      <trkpt lat="43.41825" lon="6.07447">
        <ele>215.19999694824</ele>
        <time>2015-01-28T12:49:07Z</time>
      </trkpt>
      <trkpt lat="43.41825" lon="6.07447">
        <ele>215.19999694824</ele>
        <time>2015-01-28T12:49:12Z</time>
      </trkpt>
      <trkpt lat="43.41825" lon="6.07447">
        <ele>215.19999694824</ele>
        <time>2015-01-28T12:49:14Z</time>
      </trkpt>
      <trkpt lat="43.41825" lon="6.07447">
        <ele>215.19999694824</ele>
        <time>2015-01-28T12:49:18Z</time>
      </trkpt>
      <trkpt lat="43.41825" lon="6.07447">
        <ele>215.19999694824</ele>
        <time>2015-01-28T12:49:20Z</time>
      </trkpt>
      <trkpt lat="43.41825" lon="6.07447">
        <ele>215.39999389648</ele>
        <time>2015-01-28T12:49:27Z</time>
      </trkpt>
      <trkpt lat="43.41825" lon="6.07447">
        <ele>215.80000305176</ele>
        <time>2015-01-28T12:49:30Z</time>
      </trkpt>
      <trkpt lat="43.41825" lon="6.07447">
        <ele>215.60000610352</ele>
        <time>2015-01-28T12:49:33Z</time>
      </trkpt>
      <trkpt lat="43.41825" lon="6.07447">
        <ele>215.39999389648</ele>
        <time>2015-01-28T12:49:36Z</time>
      </trkpt>
      <trkpt lat="43.41825" lon="6.07447">
        <ele>215.39999389648</ele>
        <time>2015-01-28T12:49:49Z</time>
      </trkpt>
      <trkpt lat="43.41825" lon="6.07447">
        <ele>215.39999389648</ele>
        <time>2015-01-28T12:49:50Z</time>
      </trkpt>
      <trkpt lat="43.41825" lon="6.07447">
        <ele>215.39999389648</ele>
        <time>2015-01-28T12:49:52Z</time>
      </trkpt>
      <trkpt lat="43.41825" lon="6.07447">
        <ele>215.39999389648</ele>
        <time>2015-01-28T12:49:56Z</time>
      </trkpt>
      <trkpt lat="43.41825" lon="6.07447">
        <ele>215.39999389648</ele>
        <time>2015-01-28T12:49:58Z</time>
      </trkpt>
      <trkpt lat="43.41825" lon="6.07447">
        <ele>215.19999694824</ele>
        <time>2015-01-28T12:50:03Z</time>
      </trkpt>
      <trkpt lat="43.41825" lon="6.07447">
        <ele>215.60000610352</ele>
        <time>2015-01-28T12:50:05Z</time>
      </trkpt>
      <trkpt lat="43.41825" lon="6.07447">
        <ele>215.60000610352</ele>
        <time>2015-01-28T12:50:08Z</time>
      </trkpt>
      <trkpt lat="43.41825" lon="6.07447">
        <ele>215.39999389648</ele>
        <time>2015-01-28T12:50:28Z</time>
      </trkpt>
      <trkpt lat="43.41825" lon="6.07447">
        <ele>215.39999389648</ele>
        <time>2015-01-28T12:50:42Z</time>
      </trkpt>
      <trkpt lat="43.41825" lon="6.07447">
        <ele>215.80000305176</ele>
        <time>2015-01-28T12:50:49Z</time>
      </trkpt>
      <trkpt lat="43.41825" lon="6.07447">
        <ele>215.80000305176</ele>
        <time>2015-01-28T12:50:52Z</time>
      </trkpt>
      <trkpt lat="43.41827" lon="6.07447">
        <ele>215.80000305176</ele>
        <time>2015-01-28T12:50:59Z</time>
      </trkpt>
      <trkpt lat="43.41827" lon="6.07447">
        <ele>215.80000305176</ele>
        <time>2015-01-28T12:51:02Z</time>
      </trkpt>
      <trkpt lat="43.41827" lon="6.07447">
        <ele>215.80000305176</ele>
        <time>2015-01-28T12:51:06Z</time>
      </trkpt>
      <trkpt lat="43.41829" lon="6.07447">
        <ele>215.80000305176</ele>
        <time>2015-01-28T12:51:07Z</time>
      </trkpt>
      <trkpt lat="43.41832" lon="6.07445">
        <ele>215.80000305176</ele>
        <time>2015-01-28T12:51:09Z</time>
      </trkpt>
      <trkpt lat="43.41844" lon="6.07443">
        <ele>216.19999694824</ele>
        <time>2015-01-28T12:51:14Z</time>
      </trkpt>
      <trkpt lat="43.41866" lon="6.07442">
        <ele>216.19999694824</ele>
        <time>2015-01-28T12:51:20Z</time>
      </trkpt>
      <trkpt lat="43.41878" lon="6.07442">
        <ele>216.80000305176</ele>
        <time>2015-01-28T12:51:23Z</time>
      </trkpt>
      <trkpt lat="43.41885" lon="6.07442">
        <ele>217.19999694824</ele>
        <time>2015-01-28T12:51:25Z</time>
      </trkpt>
      <trkpt lat="43.41893" lon="6.07441">
        <ele>217.60000610352</ele>
        <time>2015-01-28T12:51:27Z</time>
      </trkpt>
      <trkpt lat="43.419" lon="6.07442">
        <ele>218.39999389648</ele>
        <time>2015-01-28T12:51:29Z</time>
      </trkpt>
      <trkpt lat="43.4191" lon="6.07442">
        <ele>219.39999389648</ele>
        <time>2015-01-28T12:51:32Z</time>
      </trkpt>
      <trkpt lat="43.41912" lon="6.07442">
        <ele>219.80000305176</ele>
        <time>2015-01-28T12:51:33Z</time>
      </trkpt>
      <trkpt lat="43.41921" lon="6.07442">
        <ele>220.60000610352</ele>
        <time>2015-01-28T12:51:36Z</time>
      </trkpt>
      <trkpt lat="43.41926" lon="6.07442">
        <ele>221</ele>
        <time>2015-01-28T12:51:38Z</time>
      </trkpt>
      <trkpt lat="43.41934" lon="6.07442">
        <ele>221.60000610352</ele>
        <time>2015-01-28T12:51:41Z</time>
      </trkpt>
      <trkpt lat="43.4194" lon="6.0744">
        <ele>222.19999694824</ele>
        <time>2015-01-28T12:51:43Z</time>
      </trkpt>
      <trkpt lat="43.41942" lon="6.07439">
        <ele>222.39999389648</ele>
        <time>2015-01-28T12:51:44Z</time>
      </trkpt>
      <trkpt lat="43.41952" lon="6.07436">
        <ele>223.39999389648</ele>
        <time>2015-01-28T12:51:48Z</time>
      </trkpt>
      <trkpt lat="43.41965" lon="6.07431">
        <ele>224.60000610352</ele>
        <time>2015-01-28T12:51:53Z</time>
      </trkpt>
      <trkpt lat="43.41983" lon="6.07429">
        <ele>225.60000610352</ele>
        <time>2015-01-28T12:52:00Z</time>
      </trkpt>
      <trkpt lat="43.41993" lon="6.07428">
        <ele>226.19999694824</ele>
        <time>2015-01-28T12:52:04Z</time>
      </trkpt>
      <trkpt lat="43.42001" lon="6.07434">
        <ele>226.39999389648</ele>
        <time>2015-01-28T12:52:10Z</time>
      </trkpt>
      <trkpt lat="43.42003" lon="6.07442">
        <ele>226.60000610352</ele>
        <time>2015-01-28T12:52:13Z</time>
      </trkpt>
      <trkpt lat="43.42004" lon="6.07449">
        <ele>226.60000610352</ele>
        <time>2015-01-28T12:52:15Z</time>
      </trkpt>
      <trkpt lat="43.42005" lon="6.07452">
        <ele>226.60000610352</ele>
        <time>2015-01-28T12:52:16Z</time>
      </trkpt>
      <trkpt lat="43.42011" lon="6.07479">
        <ele>226.80000305176</ele>
        <time>2015-01-28T12:52:23Z</time>
      </trkpt>
      <trkpt lat="43.42019" lon="6.07495">
        <ele>227.39999389648</ele>
        <time>2015-01-28T12:52:28Z</time>
      </trkpt>
      <trkpt lat="43.42031" lon="6.07501">
        <ele>227.60000610352</ele>
        <time>2015-01-28T12:52:33Z</time>
      </trkpt>
      <trkpt lat="43.4206" lon="6.075">
        <ele>227.80000305176</ele>
        <time>2015-01-28T12:52:42Z</time>
      </trkpt>
      <trkpt lat="43.42085" lon="6.07499">
        <ele>227.80000305176</ele>
        <time>2015-01-28T12:52:49Z</time>
      </trkpt>
      <trkpt lat="43.42088" lon="6.07499">
        <ele>227.80000305176</ele>
        <time>2015-01-28T12:52:50Z</time>
      </trkpt>
      <trkpt lat="43.42095" lon="6.07499">
        <ele>227.60000610352</ele>
        <time>2015-01-28T12:52:52Z</time>
      </trkpt>
      <trkpt lat="43.42104" lon="6.07499">
        <ele>227.19999694824</ele>
        <time>2015-01-28T12:52:54Z</time>
      </trkpt>
      <trkpt lat="43.42114" lon="6.07497">
        <ele>226.60000610352</ele>
        <time>2015-01-28T12:52:56Z</time>
      </trkpt>
      <trkpt lat="43.42119" lon="6.07495">
        <ele>226.19999694824</ele>
        <time>2015-01-28T12:52:57Z</time>
      </trkpt>
      <trkpt lat="43.42124" lon="6.07491">
        <ele>225.60000610352</ele>
        <time>2015-01-28T12:52:58Z</time>
      </trkpt>
      <trkpt lat="43.42128" lon="6.07485">
        <ele>225.19999694824</ele>
        <time>2015-01-28T12:52:59Z</time>
      </trkpt>
      <trkpt lat="43.42133" lon="6.07469">
        <ele>224.39999389648</ele>
        <time>2015-01-28T12:53:01Z</time>
      </trkpt>
      <trkpt lat="43.42135" lon="6.07459">
        <ele>224</ele>
        <time>2015-01-28T12:53:02Z</time>
      </trkpt>
      <trkpt lat="43.42137" lon="6.0745">
        <ele>224</ele>
        <time>2015-01-28T12:53:03Z</time>
      </trkpt>
      <trkpt lat="43.42141" lon="6.07432">
        <ele>223.39999389648</ele>
        <time>2015-01-28T12:53:05Z</time>
      </trkpt>
      <trkpt lat="43.42145" lon="6.07406">
        <ele>223</ele>
        <time>2015-01-28T12:53:08Z</time>
      </trkpt>
      <trkpt lat="43.42147" lon="6.0739">
        <ele>222.80000305176</ele>
        <time>2015-01-28T12:53:10Z</time>
      </trkpt>
      <trkpt lat="43.42154" lon="6.07337">
        <ele>222.39999389648</ele>
        <time>2015-01-28T12:53:17Z</time>
      </trkpt>
      <trkpt lat="43.42154" lon="6.0733">
        <ele>222.19999694824</ele>
        <time>2015-01-28T12:53:18Z</time>
      </trkpt>
      <trkpt lat="43.42163" lon="6.07279">
        <ele>222.19999694824</ele>
        <time>2015-01-28T12:53:25Z</time>
      </trkpt>
      <trkpt lat="43.42168" lon="6.07247">
        <ele>223</ele>
        <time>2015-01-28T12:53:30Z</time>
      </trkpt>
      <trkpt lat="43.42171" lon="6.07229">
        <ele>223.39999389648</ele>
        <time>2015-01-28T12:53:33Z</time>
      </trkpt>
      <trkpt lat="43.42174" lon="6.07213">
        <ele>224</ele>
        <time>2015-01-28T12:53:36Z</time>
      </trkpt>
      <trkpt lat="43.42177" lon="6.07182">
        <ele>223.39999389648</ele>
        <time>2015-01-28T12:53:41Z</time>
      </trkpt>
      <trkpt lat="43.42179" lon="6.0716">
        <ele>222.60000610352</ele>
        <time>2015-01-28T12:53:44Z</time>
      </trkpt>
      <trkpt lat="43.42179" lon="6.07152">
        <ele>222.39999389648</ele>
        <time>2015-01-28T12:53:45Z</time>
      </trkpt>
      <trkpt lat="43.42178" lon="6.07144">
        <ele>222.19999694824</ele>
        <time>2015-01-28T12:53:46Z</time>
      </trkpt>
      <trkpt lat="43.42171" lon="6.07113">
        <ele>221.60000610352</ele>
        <time>2015-01-28T12:53:50Z</time>
      </trkpt>
      <trkpt lat="43.4217" lon="6.07105">
        <ele>221.60000610352</ele>
        <time>2015-01-28T12:53:51Z</time>
      </trkpt>
      <trkpt lat="43.42168" lon="6.0709">
        <ele>221.60000610352</ele>
        <time>2015-01-28T12:53:53Z</time>
      </trkpt>
      <trkpt lat="43.42163" lon="6.07077">
        <ele>221.60000610352</ele>
        <time>2015-01-28T12:53:55Z</time>
      </trkpt>
      <trkpt lat="43.42163" lon="6.07066">
        <ele>221.80000305176</ele>
        <time>2015-01-28T12:53:57Z</time>
      </trkpt>
      <trkpt lat="43.42165" lon="6.07062">
        <ele>222.19999694824</ele>
        <time>2015-01-28T12:53:58Z</time>
      </trkpt>
      <trkpt lat="43.42177" lon="6.0706">
        <ele>222.80000305176</ele>
        <time>2015-01-28T12:54:01Z</time>
      </trkpt>
      <trkpt lat="43.42191" lon="6.07062">
        <ele>223.39999389648</ele>
        <time>2015-01-28T12:54:05Z</time>
      </trkpt>
      <trkpt lat="43.42194" lon="6.07062">
        <ele>223.60000610352</ele>
        <time>2015-01-28T12:54:06Z</time>
      </trkpt>
      <trkpt lat="43.42197" lon="6.07061">
        <ele>223.80000305176</ele>
        <time>2015-01-28T12:54:07Z</time>
      </trkpt>
      <trkpt lat="43.4221" lon="6.07065">
        <ele>224.19999694824</ele>
        <time>2015-01-28T12:54:12Z</time>
      </trkpt>
      <trkpt lat="43.42211" lon="6.07065">
        <ele>224.39999389648</ele>
        <time>2015-01-28T12:54:13Z</time>
      </trkpt>
      <trkpt lat="43.42215" lon="6.07066">
        <ele>224.80000305176</ele>
        <time>2015-01-28T12:54:14Z</time>
      </trkpt>
      <trkpt lat="43.42225" lon="6.07066">
        <ele>224.80000305176</ele>
        <time>2015-01-28T12:54:17Z</time>
      </trkpt>
      <trkpt lat="43.42236" lon="6.07081">
        <ele>224.80000305176</ele>
        <time>2015-01-28T12:54:21Z</time>
      </trkpt>
      <trkpt lat="43.42237" lon="6.07086">
        <ele>224.39999389648</ele>
        <time>2015-01-28T12:54:22Z</time>
      </trkpt>
      <trkpt lat="43.42237" lon="6.07099">
        <ele>223.60000610352</ele>
        <time>2015-01-28T12:54:24Z</time>
      </trkpt>
      <trkpt lat="43.42237" lon="6.07106">
        <ele>223.39999389648</ele>
        <time>2015-01-28T12:54:25Z</time>
      </trkpt>
      <trkpt lat="43.42231" lon="6.07155">
        <ele>223</ele>
        <time>2015-01-28T12:54:32Z</time>
      </trkpt>
      <trkpt lat="43.42225" lon="6.07207">
        <ele>223.19999694824</ele>
        <time>2015-01-28T12:54:40Z</time>
      </trkpt>
      <trkpt lat="43.4222" lon="6.07259">
        <ele>223.80000305176</ele>
        <time>2015-01-28T12:54:48Z</time>
      </trkpt>
      <trkpt lat="43.42214" lon="6.07291">
        <ele>223.19999694824</ele>
        <time>2015-01-28T12:54:53Z</time>
      </trkpt>
      <trkpt lat="43.42214" lon="6.07297">
        <ele>223.39999389648</ele>
        <time>2015-01-28T12:54:54Z</time>
      </trkpt>
      <trkpt lat="43.42206" lon="6.07349">
        <ele>223.60000610352</ele>
        <time>2015-01-28T12:55:03Z</time>
      </trkpt>
      <trkpt lat="43.42199" lon="6.074">
        <ele>223.80000305176</ele>
        <time>2015-01-28T12:55:11Z</time>
      </trkpt>
      <trkpt lat="43.42192" lon="6.07454">
        <ele>223.80000305176</ele>
        <time>2015-01-28T12:55:19Z</time>
      </trkpt>
      <trkpt lat="43.42183" lon="6.07492">
        <ele>224.19999694824</ele>
        <time>2015-01-28T12:55:25Z</time>
      </trkpt>
      <trkpt lat="43.42179" lon="6.07511">
        <ele>224.19999694824</ele>
        <time>2015-01-28T12:55:28Z</time>
      </trkpt>
      <trkpt lat="43.42174" lon="6.07534">
        <ele>225.39999389648</ele>
        <time>2015-01-28T12:55:32Z</time>
      </trkpt>
      <trkpt lat="43.4217" lon="6.07559">
        <ele>225.19999694824</ele>
        <time>2015-01-28T12:55:36Z</time>
      </trkpt>
      <trkpt lat="43.42167" lon="6.07572">
        <ele>225.19999694824</ele>
        <time>2015-01-28T12:55:38Z</time>
      </trkpt>
      <trkpt lat="43.4216" lon="6.07611">
        <ele>226.19999694824</ele>
        <time>2015-01-28T12:55:44Z</time>
      </trkpt>
      <trkpt lat="43.42158" lon="6.07616">
        <ele>226.39999389648</ele>
        <time>2015-01-28T12:55:45Z</time>
      </trkpt>
      <trkpt lat="43.42157" lon="6.07622">
        <ele>226.60000610352</ele>
        <time>2015-01-28T12:55:46Z</time>
      </trkpt>
      <trkpt lat="43.4215" lon="6.07649">
        <ele>227</ele>
        <time>2015-01-28T12:55:51Z</time>
      </trkpt>
      <trkpt lat="43.42146" lon="6.07664">
        <ele>227.39999389648</ele>
        <time>2015-01-28T12:55:54Z</time>
      </trkpt>
      <trkpt lat="43.42142" lon="6.07674">
        <ele>227.60000610352</ele>
        <time>2015-01-28T12:55:56Z</time>
      </trkpt>
      <trkpt lat="43.42138" lon="6.07688">
        <ele>228.39999389648</ele>
        <time>2015-01-28T12:55:59Z</time>
      </trkpt>
      <trkpt lat="43.42136" lon="6.07692">
        <ele>228.60000610352</ele>
        <time>2015-01-28T12:56:00Z</time>
      </trkpt>
      <trkpt lat="43.42133" lon="6.07701">
        <ele>229.19999694824</ele>
        <time>2015-01-28T12:56:02Z</time>
      </trkpt>
      <trkpt lat="43.42131" lon="6.0771">
        <ele>229.80000305176</ele>
        <time>2015-01-28T12:56:04Z</time>
      </trkpt>
      <trkpt lat="43.42126" lon="6.07726">
        <ele>230.39999389648</ele>
        <time>2015-01-28T12:56:08Z</time>
      </trkpt>
      <trkpt lat="43.42125" lon="6.07729">
        <ele>230.39999389648</ele>
        <time>2015-01-28T12:56:09Z</time>
      </trkpt>
      <trkpt lat="43.42124" lon="6.07733">
        <ele>230.80000305176</ele>
        <time>2015-01-28T12:56:10Z</time>
      </trkpt>
      <trkpt lat="43.4212" lon="6.07748">
        <ele>231.80000305176</ele>
        <time>2015-01-28T12:56:14Z</time>
      </trkpt>
      <trkpt lat="43.42118" lon="6.07754">
        <ele>232</ele>
        <time>2015-01-28T12:56:16Z</time>
      </trkpt>
      <trkpt lat="43.42113" lon="6.07769">
        <ele>232.80000305176</ele>
        <time>2015-01-28T12:56:20Z</time>
      </trkpt>
      <trkpt lat="43.4211" lon="6.07781">
        <ele>233.39999389648</ele>
        <time>2015-01-28T12:56:23Z</time>
      </trkpt>
      <trkpt lat="43.42107" lon="6.07793">
        <ele>234.19999694824</ele>
        <time>2015-01-28T12:56:26Z</time>
      </trkpt>
      <trkpt lat="43.42102" lon="6.07811">
        <ele>235.19999694824</ele>
        <time>2015-01-28T12:56:31Z</time>
      </trkpt>
      <trkpt lat="43.42099" lon="6.07821">
        <ele>235.60000610352</ele>
        <time>2015-01-28T12:56:34Z</time>
      </trkpt>
      <trkpt lat="43.42097" lon="6.07833">
        <ele>236.19999694824</ele>
        <time>2015-01-28T12:56:38Z</time>
      </trkpt>
      <trkpt lat="43.42096" lon="6.07842">
        <ele>237.19999694824</ele>
        <time>2015-01-28T12:56:41Z</time>
      </trkpt>
      <trkpt lat="43.42096" lon="6.07868">
        <ele>237.60000610352</ele>
        <time>2015-01-28T12:56:49Z</time>
      </trkpt>
      <trkpt lat="43.42101" lon="6.07881">
        <ele>237.39999389648</ele>
        <time>2015-01-28T12:56:52Z</time>
      </trkpt>
      <trkpt lat="43.42105" lon="6.07886">
        <ele>237</ele>
        <time>2015-01-28T12:56:53Z</time>
      </trkpt>
      <trkpt lat="43.42113" lon="6.0789">
        <ele>236.19999694824</ele>
        <time>2015-01-28T12:56:55Z</time>
      </trkpt>
      <trkpt lat="43.42118" lon="6.0789">
        <ele>236</ele>
        <time>2015-01-28T12:56:56Z</time>
      </trkpt>
      <trkpt lat="43.42123" lon="6.0789">
        <ele>235.39999389648</ele>
        <time>2015-01-28T12:56:57Z</time>
      </trkpt>
      <trkpt lat="43.42128" lon="6.07889">
        <ele>234.80000305176</ele>
        <time>2015-01-28T12:56:58Z</time>
      </trkpt>
      <trkpt lat="43.42147" lon="6.07888">
        <ele>233.39999389648</ele>
        <time>2015-01-28T12:57:01Z</time>
      </trkpt>
      <trkpt lat="43.42162" lon="6.07887">
        <ele>231.80000305176</ele>
        <time>2015-01-28T12:57:03Z</time>
      </trkpt>
      <trkpt lat="43.42183" lon="6.07885">
        <ele>231</ele>
        <time>2015-01-28T12:57:06Z</time>
      </trkpt>
      <trkpt lat="43.42197" lon="6.07887">
        <ele>230.60000610352</ele>
        <time>2015-01-28T12:57:08Z</time>
      </trkpt>
      <trkpt lat="43.42208" lon="6.0789">
        <ele>230.19999694824</ele>
        <time>2015-01-28T12:57:10Z</time>
      </trkpt>
      <trkpt lat="43.42216" lon="6.07893">
        <ele>230.19999694824</ele>
        <time>2015-01-28T12:57:12Z</time>
      </trkpt>
      <trkpt lat="43.42226" lon="6.07897">
        <ele>231.19999694824</ele>
        <time>2015-01-28T12:57:15Z</time>
      </trkpt>
      <trkpt lat="43.42233" lon="6.07897">
        <ele>231.60000610352</ele>
        <time>2015-01-28T12:57:18Z</time>
      </trkpt>
      <trkpt lat="43.42234" lon="6.07899">
        <ele>231.80000305176</ele>
        <time>2015-01-28T12:57:19Z</time>
      </trkpt>
      <trkpt lat="43.42235" lon="6.079">
        <ele>231.80000305176</ele>
        <time>2015-01-28T12:57:24Z</time>
      </trkpt>
      <trkpt lat="43.42238" lon="6.07901">
        <ele>232.19999694824</ele>
        <time>2015-01-28T12:57:32Z</time>
      </trkpt>
      <trkpt lat="43.42238" lon="6.07902">
        <ele>232.39999389648</ele>
        <time>2015-01-28T12:57:35Z</time>
      </trkpt>
      <trkpt lat="43.42238" lon="6.07901">
        <ele>232.19999694824</ele>
        <time>2015-01-28T12:57:39Z</time>
      </trkpt>
      <trkpt lat="43.42238" lon="6.07901">
        <ele>232.19999694824</ele>
        <time>2015-01-28T12:57:47Z</time>
      </trkpt>
      <trkpt lat="43.42238" lon="6.07901">
        <ele>232</ele>
        <time>2015-01-28T12:57:55Z</time>
      </trkpt>
      <trkpt lat="43.42238" lon="6.07901">
        <ele>232</ele>
        <time>2015-01-28T12:58:01Z</time>
      </trkpt>
      <trkpt lat="43.42238" lon="6.07901">
        <ele>232.19999694824</ele>
        <time>2015-01-28T12:58:14Z</time>
      </trkpt>
      <trkpt lat="43.42238" lon="6.07901">
        <ele>232</ele>
        <time>2015-01-28T12:58:17Z</time>
      </trkpt>
      <trkpt lat="43.42238" lon="6.07901">
        <ele>232</ele>
        <time>2015-01-28T12:58:20Z</time>
      </trkpt>
      <trkpt lat="43.42238" lon="6.07901">
        <ele>231.80000305176</ele>
        <time>2015-01-28T12:58:26Z</time>
      </trkpt>
      <trkpt lat="43.42238" lon="6.07901">
        <ele>232</ele>
        <time>2015-01-28T12:58:31Z</time>
      </trkpt>
      <trkpt lat="43.42238" lon="6.07901">
        <ele>231.80000305176</ele>
        <time>2015-01-28T12:58:36Z</time>
      </trkpt>
      <trkpt lat="43.42238" lon="6.07901">
        <ele>231.39999389648</ele>
        <time>2015-01-28T12:58:41Z</time>
      </trkpt>
      <trkpt lat="43.42238" lon="6.07901">
        <ele>231.19999694824</ele>
        <time>2015-01-28T12:58:42Z</time>
      </trkpt>
      <trkpt lat="43.42238" lon="6.07901">
        <ele>231.39999389648</ele>
        <time>2015-01-28T12:58:48Z</time>
      </trkpt>
      <trkpt lat="43.42238" lon="6.07903">
        <ele>231.60000610352</ele>
        <time>2015-01-28T12:58:57Z</time>
      </trkpt>
      <trkpt lat="43.42238" lon="6.07904">
        <ele>231.80000305176</ele>
        <time>2015-01-28T12:58:58Z</time>
      </trkpt>
      <trkpt lat="43.42241" lon="6.07915">
        <ele>232.19999694824</ele>
        <time>2015-01-28T12:59:02Z</time>
      </trkpt>
      <trkpt lat="43.42241" lon="6.07919">
        <ele>232.19999694824</ele>
        <time>2015-01-28T12:59:03Z</time>
      </trkpt>
      <trkpt lat="43.42241" lon="6.07922">
        <ele>232.39999389648</ele>
        <time>2015-01-28T12:59:04Z</time>
      </trkpt>
      <trkpt lat="43.42245" lon="6.07943">
        <ele>232</ele>
        <time>2015-01-28T12:59:09Z</time>
      </trkpt>
      <trkpt lat="43.4225" lon="6.07963">
        <ele>230.60000610352</ele>
        <time>2015-01-28T12:59:13Z</time>
      </trkpt>
      <trkpt lat="43.42253" lon="6.07968">
        <ele>230.39999389648</ele>
        <time>2015-01-28T12:59:14Z</time>
      </trkpt>
      <trkpt lat="43.42263" lon="6.07969">
        <ele>230</ele>
        <time>2015-01-28T12:59:17Z</time>
      </trkpt>
      <trkpt lat="43.42266" lon="6.07968">
        <ele>230.19999694824</ele>
        <time>2015-01-28T12:59:18Z</time>
      </trkpt>
      <trkpt lat="43.42277" lon="6.07965">
        <ele>230.80000305176</ele>
        <time>2015-01-28T12:59:21Z</time>
      </trkpt>
      <trkpt lat="43.42283" lon="6.07964">
        <ele>231.19999694824</ele>
        <time>2015-01-28T12:59:23Z</time>
      </trkpt>
      <trkpt lat="43.42289" lon="6.07965">
        <ele>231.80000305176</ele>
        <time>2015-01-28T12:59:25Z</time>
      </trkpt>
      <trkpt lat="43.42292" lon="6.07967">
        <ele>232</ele>
        <time>2015-01-28T12:59:26Z</time>
      </trkpt>
      <trkpt lat="43.42299" lon="6.07974">
        <ele>231.80000305176</ele>
        <time>2015-01-28T12:59:28Z</time>
      </trkpt>
      <trkpt lat="43.42313" lon="6.07994">
        <ele>231.19999694824</ele>
        <time>2015-01-28T12:59:33Z</time>
      </trkpt>
      <trkpt lat="43.42323" lon="6.08004">
        <ele>232.60000610352</ele>
        <time>2015-01-28T12:59:37Z</time>
      </trkpt>
      <trkpt lat="43.42325" lon="6.08006">
        <ele>233</ele>
        <time>2015-01-28T12:59:38Z</time>
      </trkpt>
      <trkpt lat="43.42327" lon="6.08006">
        <ele>233.19999694824</ele>
        <time>2015-01-28T12:59:39Z</time>
      </trkpt>
      <trkpt lat="43.42335" lon="6.08004">
        <ele>233.60000610352</ele>
        <time>2015-01-28T12:59:43Z</time>
      </trkpt>
      <trkpt lat="43.42339" lon="6.07998">
        <ele>234</ele>
        <time>2015-01-28T12:59:46Z</time>
      </trkpt>
      <trkpt lat="43.42342" lon="6.0799">
        <ele>235</ele>
        <time>2015-01-28T12:59:50Z</time>
      </trkpt>
      <trkpt lat="43.42342" lon="6.07988">
        <ele>235.19999694824</ele>
        <time>2015-01-28T12:59:51Z</time>
      </trkpt>
      <trkpt lat="43.42346" lon="6.07981">
        <ele>236.60000610352</ele>
        <time>2015-01-28T12:59:55Z</time>
      </trkpt>
      <trkpt lat="43.42349" lon="6.07975">
        <ele>237.19999694824</ele>
        <time>2015-01-28T12:59:58Z</time>
      </trkpt>
      <trkpt lat="43.42354" lon="6.0797">
        <ele>237.60000610352</ele>
        <time>2015-01-28T13:00:02Z</time>
      </trkpt>
      <trkpt lat="43.42356" lon="6.07967">
        <ele>237.60000610352</ele>
        <time>2015-01-28T13:00:05Z</time>
      </trkpt>
      <trkpt lat="43.42358" lon="6.07966">
        <ele>237.39999389648</ele>
        <time>2015-01-28T13:00:11Z</time>
      </trkpt>
      <trkpt lat="43.42358" lon="6.07966">
        <ele>237.39999389648</ele>
        <time>2015-01-28T13:00:15Z</time>
      </trkpt>
      <trkpt lat="43.42358" lon="6.07966">
        <ele>237.19999694824</ele>
        <time>2015-01-28T13:00:19Z</time>
      </trkpt>
      <trkpt lat="43.42358" lon="6.07966">
        <ele>237.39999389648</ele>
        <time>2015-01-28T13:00:21Z</time>
      </trkpt>
      <trkpt lat="43.42358" lon="6.07966">
        <ele>237.39999389648</ele>
        <time>2015-01-28T13:00:26Z</time>
      </trkpt>
      <trkpt lat="43.42358" lon="6.07966">
        <ele>237.19999694824</ele>
        <time>2015-01-28T13:00:34Z</time>
      </trkpt>
      <trkpt lat="43.42358" lon="6.07965">
        <ele>237.60000610352</ele>
        <time>2015-01-28T13:00:38Z</time>
      </trkpt>
      <trkpt lat="43.42358" lon="6.07965">
        <ele>237.60000610352</ele>
        <time>2015-01-28T13:00:40Z</time>
      </trkpt>
      <trkpt lat="43.42358" lon="6.07965">
        <ele>237.60000610352</ele>
        <time>2015-01-28T13:00:42Z</time>
      </trkpt>
      <trkpt lat="43.42358" lon="6.07965">
        <ele>237.60000610352</ele>
        <time>2015-01-28T13:00:47Z</time>
      </trkpt>
      <trkpt lat="43.42359" lon="6.07963">
        <ele>237.80000305176</ele>
        <time>2015-01-28T13:00:52Z</time>
      </trkpt>
      <trkpt lat="43.42366" lon="6.07955">
        <ele>237.19999694824</ele>
        <time>2015-01-28T13:00:57Z</time>
      </trkpt>
      <trkpt lat="43.4238" lon="6.07939">
        <ele>237.60000610352</ele>
        <time>2015-01-28T13:01:02Z</time>
      </trkpt>
      <trkpt lat="43.42385" lon="6.07931">
        <ele>237.60000610352</ele>
        <time>2015-01-28T13:01:04Z</time>
      </trkpt>
      <trkpt lat="43.42393" lon="6.07924">
        <ele>238</ele>
        <time>2015-01-28T13:01:06Z</time>
      </trkpt>
      <trkpt lat="43.42397" lon="6.07921">
        <ele>238</ele>
        <time>2015-01-28T13:01:07Z</time>
      </trkpt>
      <trkpt lat="43.42416" lon="6.07917">
        <ele>237.60000610352</ele>
        <time>2015-01-28T13:01:12Z</time>
      </trkpt>
      <trkpt lat="43.42439" lon="6.07919">
        <ele>238.19999694824</ele>
        <time>2015-01-28T13:01:17Z</time>
      </trkpt>
      <trkpt lat="43.42459" lon="6.0792">
        <ele>238.39999389648</ele>
        <time>2015-01-28T13:01:23Z</time>
      </trkpt>
      <trkpt lat="43.42471" lon="6.0791">
        <ele>238.39999389648</ele>
        <time>2015-01-28T13:01:28Z</time>
      </trkpt>
      <trkpt lat="43.42483" lon="6.07904">
        <ele>239</ele>
        <time>2015-01-28T13:01:32Z</time>
      </trkpt>
      <trkpt lat="43.42494" lon="6.079">
        <ele>239.60000610352</ele>
        <time>2015-01-28T13:01:36Z</time>
      </trkpt>
      <trkpt lat="43.425" lon="6.07899">
        <ele>240</ele>
        <time>2015-01-28T13:01:38Z</time>
      </trkpt>
      <trkpt lat="43.42503" lon="6.07899">
        <ele>240.39999389648</ele>
        <time>2015-01-28T13:01:39Z</time>
      </trkpt>
      <trkpt lat="43.42516" lon="6.07897">
        <ele>241.39999389648</ele>
        <time>2015-01-28T13:01:44Z</time>
      </trkpt>
      <trkpt lat="43.42518" lon="6.07896">
        <ele>241.60000610352</ele>
        <time>2015-01-28T13:01:45Z</time>
      </trkpt>
      <trkpt lat="43.42535" lon="6.07895">
        <ele>242.60000610352</ele>
        <time>2015-01-28T13:01:52Z</time>
      </trkpt>
      <trkpt lat="43.42538" lon="6.07896">
        <ele>243</ele>
        <time>2015-01-28T13:01:53Z</time>
      </trkpt>
      <trkpt lat="43.4255" lon="6.07904">
        <ele>244</ele>
        <time>2015-01-28T13:01:58Z</time>
      </trkpt>
      <trkpt lat="43.42551" lon="6.07906">
        <ele>244.19999694824</ele>
        <time>2015-01-28T13:01:59Z</time>
      </trkpt>
      <trkpt lat="43.42553" lon="6.07909">
        <ele>244.19999694824</ele>
        <time>2015-01-28T13:02:00Z</time>
      </trkpt>
      <trkpt lat="43.42557" lon="6.07923">
        <ele>244.19999694824</ele>
        <time>2015-01-28T13:02:04Z</time>
      </trkpt>
      <trkpt lat="43.42558" lon="6.07926">
        <ele>244.19999694824</ele>
        <time>2015-01-28T13:02:05Z</time>
      </trkpt>
      <trkpt lat="43.42566" lon="6.0794">
        <ele>245</ele>
        <time>2015-01-28T13:02:10Z</time>
      </trkpt>
      <trkpt lat="43.4258" lon="6.07953">
        <ele>245.19999694824</ele>
        <time>2015-01-28T13:02:16Z</time>
      </trkpt>
      <trkpt lat="43.42582" lon="6.07954">
        <ele>245.80000305176</ele>
        <time>2015-01-28T13:02:17Z</time>
      </trkpt>
      <trkpt lat="43.42585" lon="6.07956">
        <ele>246.39999389648</ele>
        <time>2015-01-28T13:02:19Z</time>
      </trkpt>
      <trkpt lat="43.42588" lon="6.07959">
        <ele>246.80000305176</ele>
        <time>2015-01-28T13:02:21Z</time>
      </trkpt>
      <trkpt lat="43.42591" lon="6.07963">
        <ele>247.19999694824</ele>
        <time>2015-01-28T13:02:23Z</time>
      </trkpt>
      <trkpt lat="43.42595" lon="6.07967">
        <ele>247.60000610352</ele>
        <time>2015-01-28T13:02:25Z</time>
      </trkpt>
      <trkpt lat="43.426" lon="6.07973">
        <ele>248</ele>
        <time>2015-01-28T13:02:28Z</time>
      </trkpt>
      <trkpt lat="43.42614" lon="6.0799">
        <ele>248.19999694824</ele>
        <time>2015-01-28T13:02:35Z</time>
      </trkpt>
      <trkpt lat="43.42617" lon="6.08">
        <ele>248.80000305176</ele>
        <time>2015-01-28T13:02:38Z</time>
      </trkpt>
      <trkpt lat="43.42617" lon="6.08006">
        <ele>249</ele>
        <time>2015-01-28T13:02:40Z</time>
      </trkpt>
      <trkpt lat="43.42619" lon="6.08026">
        <ele>249.80000305176</ele>
        <time>2015-01-28T13:02:47Z</time>
      </trkpt>
      <trkpt lat="43.42619" lon="6.08029">
        <ele>250</ele>
        <time>2015-01-28T13:02:48Z</time>
      </trkpt>
      <trkpt lat="43.4262" lon="6.08049">
        <ele>250.60000610352</ele>
        <time>2015-01-28T13:02:54Z</time>
      </trkpt>
      <trkpt lat="43.4262" lon="6.08061">
        <ele>251</ele>
        <time>2015-01-28T13:02:59Z</time>
      </trkpt>
      <trkpt lat="43.4262" lon="6.08063">
        <ele>251.39999389648</ele>
        <time>2015-01-28T13:03:00Z</time>
      </trkpt>
      <trkpt lat="43.42625" lon="6.08076">
        <ele>252.19999694824</ele>
        <time>2015-01-28T13:03:05Z</time>
      </trkpt>
      <trkpt lat="43.42626" lon="6.08078">
        <ele>252.39999389648</ele>
        <time>2015-01-28T13:03:06Z</time>
      </trkpt>
      <trkpt lat="43.4264" lon="6.08083">
        <ele>252.60000610352</ele>
        <time>2015-01-28T13:03:12Z</time>
      </trkpt>
      <trkpt lat="43.42654" lon="6.08072">
        <ele>252.39999389648</ele>
        <time>2015-01-28T13:03:19Z</time>
      </trkpt>
      <trkpt lat="43.42667" lon="6.08071">
        <ele>252.60000610352</ele>
        <time>2015-01-28T13:03:24Z</time>
      </trkpt>
      <trkpt lat="43.42678" lon="6.08082">
        <ele>253</ele>
        <time>2015-01-28T13:03:29Z</time>
      </trkpt>
      <trkpt lat="43.4268" lon="6.08084">
        <ele>253</ele>
        <time>2015-01-28T13:03:30Z</time>
      </trkpt>
      <trkpt lat="43.42686" lon="6.0809">
        <ele>253.39999389648</ele>
        <time>2015-01-28T13:03:33Z</time>
      </trkpt>
      <trkpt lat="43.42693" lon="6.08097">
        <ele>253.80000305176</ele>
        <time>2015-01-28T13:03:37Z</time>
      </trkpt>
      <trkpt lat="43.42706" lon="6.08105">
        <ele>254.60000610352</ele>
        <time>2015-01-28T13:03:43Z</time>
      </trkpt>
      <trkpt lat="43.4271" lon="6.08108">
        <ele>254.80000305176</ele>
        <time>2015-01-28T13:03:45Z</time>
      </trkpt>
      <trkpt lat="43.42728" lon="6.08122">
        <ele>255.39999389648</ele>
        <time>2015-01-28T13:03:54Z</time>
      </trkpt>
      <trkpt lat="43.42729" lon="6.08125">
        <ele>255.60000610352</ele>
        <time>2015-01-28T13:03:55Z</time>
      </trkpt>
      <trkpt lat="43.42739" lon="6.0814">
        <ele>256.20001220703</ele>
        <time>2015-01-28T13:04:02Z</time>
      </trkpt>
      <trkpt lat="43.42746" lon="6.08144">
        <ele>256.39999389648</ele>
        <time>2015-01-28T13:04:05Z</time>
      </trkpt>
      <trkpt lat="43.4275" lon="6.08144">
        <ele>256.39999389648</ele>
        <time>2015-01-28T13:04:07Z</time>
      </trkpt>
      <trkpt lat="43.42757" lon="6.08146">
        <ele>256.79998779297</ele>
        <time>2015-01-28T13:04:10Z</time>
      </trkpt>
      <trkpt lat="43.42761" lon="6.08154">
        <ele>257.20001220703</ele>
        <time>2015-01-28T13:04:13Z</time>
      </trkpt>
      <trkpt lat="43.42772" lon="6.08169">
        <ele>257.79998779297</ele>
        <time>2015-01-28T13:04:20Z</time>
      </trkpt>
      <trkpt lat="43.42781" lon="6.08184">
        <ele>258.79998779297</ele>
        <time>2015-01-28T13:04:27Z</time>
      </trkpt>
      <trkpt lat="43.42785" lon="6.08201">
        <ele>259</ele>
        <time>2015-01-28T13:04:33Z</time>
      </trkpt>
      <trkpt lat="43.42786" lon="6.08222">
        <ele>259.79998779297</ele>
        <time>2015-01-28T13:04:40Z</time>
      </trkpt>
      <trkpt lat="43.42788" lon="6.08231">
        <ele>260.39999389648</ele>
        <time>2015-01-28T13:04:43Z</time>
      </trkpt>
      <trkpt lat="43.4279" lon="6.08239">
        <ele>260.79998779297</ele>
        <time>2015-01-28T13:04:46Z</time>
      </trkpt>
      <trkpt lat="43.42791" lon="6.08244">
        <ele>260.79998779297</ele>
        <time>2015-01-28T13:04:48Z</time>
      </trkpt>
      <trkpt lat="43.42792" lon="6.08249">
        <ele>261.39999389648</ele>
        <time>2015-01-28T13:04:50Z</time>
      </trkpt>
      <trkpt lat="43.42793" lon="6.08252">
        <ele>261.79998779297</ele>
        <time>2015-01-28T13:04:51Z</time>
      </trkpt>
      <trkpt lat="43.42797" lon="6.08257">
        <ele>261.79998779297</ele>
        <time>2015-01-28T13:04:54Z</time>
      </trkpt>
      <trkpt lat="43.42801" lon="6.08257">
        <ele>262.20001220703</ele>
        <time>2015-01-28T13:04:56Z</time>
      </trkpt>
      <trkpt lat="43.42808" lon="6.08257">
        <ele>262.20001220703</ele>
        <time>2015-01-28T13:04:59Z</time>
      </trkpt>
      <trkpt lat="43.4281" lon="6.08257">
        <ele>262.79998779297</ele>
        <time>2015-01-28T13:05:00Z</time>
      </trkpt>
      <trkpt lat="43.42812" lon="6.08256">
        <ele>263</ele>
        <time>2015-01-28T13:05:01Z</time>
      </trkpt>
      <trkpt lat="43.42826" lon="6.08265">
        <ele>263.20001220703</ele>
        <time>2015-01-28T13:05:07Z</time>
      </trkpt>
      <trkpt lat="43.42836" lon="6.08288">
        <ele>262.20001220703</ele>
        <time>2015-01-28T13:05:12Z</time>
      </trkpt>
      <trkpt lat="43.42837" lon="6.08294">
        <ele>262</ele>
        <time>2015-01-28T13:05:13Z</time>
      </trkpt>
      <trkpt lat="43.42838" lon="6.08309">
        <ele>262.79998779297</ele>
        <time>2015-01-28T13:05:16Z</time>
      </trkpt>
      <trkpt lat="43.42839" lon="6.08314">
        <ele>262.60000610352</ele>
        <time>2015-01-28T13:05:17Z</time>
      </trkpt>
      <trkpt lat="43.42843" lon="6.08333">
        <ele>263.20001220703</ele>
        <time>2015-01-28T13:05:22Z</time>
      </trkpt>
      <trkpt lat="43.42849" lon="6.08358">
        <ele>263.39999389648</ele>
        <time>2015-01-28T13:05:29Z</time>
      </trkpt>
      <trkpt lat="43.42855" lon="6.08383">
        <ele>264.20001220703</ele>
        <time>2015-01-28T13:05:35Z</time>
      </trkpt>
      <trkpt lat="43.42856" lon="6.08387">
        <ele>264.39999389648</ele>
        <time>2015-01-28T13:05:36Z</time>
      </trkpt>
      <trkpt lat="43.42862" lon="6.0841">
        <ele>264.79998779297</ele>
        <time>2015-01-28T13:05:43Z</time>
      </trkpt>
      <trkpt lat="43.42874" lon="6.08429">
        <ele>265</ele>
        <time>2015-01-28T13:05:49Z</time>
      </trkpt>
      <trkpt lat="43.42881" lon="6.08438">
        <ele>265.20001220703</ele>
        <time>2015-01-28T13:05:52Z</time>
      </trkpt>
      <trkpt lat="43.42893" lon="6.08457">
        <ele>265.60000610352</ele>
        <time>2015-01-28T13:05:58Z</time>
      </trkpt>
      <trkpt lat="43.42914" lon="6.08489">
        <ele>265.79998779297</ele>
        <time>2015-01-28T13:06:08Z</time>
      </trkpt>
      <trkpt lat="43.42927" lon="6.08499">
        <ele>266.20001220703</ele>
        <time>2015-01-28T13:06:12Z</time>
      </trkpt>
      <trkpt lat="43.42934" lon="6.08507">
        <ele>266.20001220703</ele>
        <time>2015-01-28T13:06:14Z</time>
      </trkpt>
      <trkpt lat="43.4294" lon="6.08515">
        <ele>265.60000610352</ele>
        <time>2015-01-28T13:06:16Z</time>
      </trkpt>
      <trkpt lat="43.42945" lon="6.0853">
        <ele>265.20001220703</ele>
        <time>2015-01-28T13:06:19Z</time>
      </trkpt>
      <trkpt lat="43.42947" lon="6.08536">
        <ele>265.60000610352</ele>
        <time>2015-01-28T13:06:20Z</time>
      </trkpt>
      <trkpt lat="43.42955" lon="6.08562">
        <ele>266.39999389648</ele>
        <time>2015-01-28T13:06:26Z</time>
      </trkpt>
      <trkpt lat="43.42956" lon="6.08566">
        <ele>266.39999389648</ele>
        <time>2015-01-28T13:06:27Z</time>
      </trkpt>
      <trkpt lat="43.42965" lon="6.086">
        <ele>266.39999389648</ele>
        <time>2015-01-28T13:06:35Z</time>
      </trkpt>
      <trkpt lat="43.42973" lon="6.08634">
        <ele>266.79998779297</ele>
        <time>2015-01-28T13:06:43Z</time>
      </trkpt>
      <trkpt lat="43.42979" lon="6.0866">
        <ele>267.79998779297</ele>
        <time>2015-01-28T13:06:49Z</time>
      </trkpt>
      <trkpt lat="43.42983" lon="6.08678">
        <ele>268</ele>
        <time>2015-01-28T13:06:53Z</time>
      </trkpt>
      <trkpt lat="43.42995" lon="6.08715">
        <ele>267.79998779297</ele>
        <time>2015-01-28T13:07:02Z</time>
      </trkpt>
      <trkpt lat="43.43003" lon="6.08733">
        <ele>269</ele>
        <time>2015-01-28T13:07:07Z</time>
      </trkpt>
      <trkpt lat="43.43007" lon="6.08742">
        <ele>269.20001220703</ele>
        <time>2015-01-28T13:07:10Z</time>
      </trkpt>
      <trkpt lat="43.43013" lon="6.08762">
        <ele>269.39999389648</ele>
        <time>2015-01-28T13:07:16Z</time>
      </trkpt>
      <trkpt lat="43.43014" lon="6.08778">
        <ele>270</ele>
        <time>2015-01-28T13:07:20Z</time>
      </trkpt>
      <trkpt lat="43.43014" lon="6.08786">
        <ele>270.20001220703</ele>
        <time>2015-01-28T13:07:22Z</time>
      </trkpt>
      <trkpt lat="43.43018" lon="6.08816">
        <ele>271</ele>
        <time>2015-01-28T13:07:29Z</time>
      </trkpt>
      <trkpt lat="43.43023" lon="6.08842">
        <ele>271</ele>
        <time>2015-01-28T13:07:36Z</time>
      </trkpt>
      <trkpt lat="43.43023" lon="6.08845">
        <ele>271.60000610352</ele>
        <time>2015-01-28T13:07:37Z</time>
      </trkpt>
      <trkpt lat="43.43022" lon="6.08862">
        <ele>272</ele>
        <time>2015-01-28T13:07:42Z</time>
      </trkpt>
      <trkpt lat="43.4302" lon="6.0887">
        <ele>272.60000610352</ele>
        <time>2015-01-28T13:07:45Z</time>
      </trkpt>
      <trkpt lat="43.4302" lon="6.0888">
        <ele>273</ele>
        <time>2015-01-28T13:07:48Z</time>
      </trkpt>
      <trkpt lat="43.43021" lon="6.08898">
        <ele>273</ele>
        <time>2015-01-28T13:07:53Z</time>
      </trkpt>
      <trkpt lat="43.43016" lon="6.08918">
        <ele>273.39999389648</ele>
        <time>2015-01-28T13:08:00Z</time>
      </trkpt>
      <trkpt lat="43.43016" lon="6.08927">
        <ele>273.60000610352</ele>
        <time>2015-01-28T13:08:05Z</time>
      </trkpt>
      <trkpt lat="43.43016" lon="6.08928">
        <ele>273.39999389648</ele>
        <time>2015-01-28T13:08:06Z</time>
      </trkpt>
      <trkpt lat="43.43016" lon="6.08929">
        <ele>273.60000610352</ele>
        <time>2015-01-28T13:08:11Z</time>
      </trkpt>
      <trkpt lat="43.43016" lon="6.08929">
        <ele>273.79998779297</ele>
        <time>2015-01-28T13:08:12Z</time>
      </trkpt>
      <trkpt lat="43.43016" lon="6.08929">
        <ele>273.79998779297</ele>
        <time>2015-01-28T13:08:15Z</time>
      </trkpt>
      <trkpt lat="43.43016" lon="6.08929">
        <ele>273.60000610352</ele>
        <time>2015-01-28T13:08:20Z</time>
      </trkpt>
      <trkpt lat="43.43016" lon="6.08929">
        <ele>273.79998779297</ele>
        <time>2015-01-28T13:08:24Z</time>
      </trkpt>
      <trkpt lat="43.43016" lon="6.08929">
        <ele>273.79998779297</ele>
        <time>2015-01-28T13:08:31Z</time>
      </trkpt>
      <trkpt lat="43.43016" lon="6.08929">
        <ele>272.79998779297</ele>
        <time>2015-01-28T13:08:35Z</time>
      </trkpt>
      <trkpt lat="43.43016" lon="6.08929">
        <ele>272.39999389648</ele>
        <time>2015-01-28T13:08:37Z</time>
      </trkpt>
      <trkpt lat="43.43016" lon="6.08929">
        <ele>272.60000610352</ele>
        <time>2015-01-28T13:09:00Z</time>
      </trkpt>
      <trkpt lat="43.43016" lon="6.08929">
        <ele>272.60000610352</ele>
        <time>2015-01-28T13:09:10Z</time>
      </trkpt>
      <trkpt lat="43.43016" lon="6.08929">
        <ele>272.39999389648</ele>
        <time>2015-01-28T13:09:16Z</time>
      </trkpt>
      <trkpt lat="43.43016" lon="6.08929">
        <ele>272.39999389648</ele>
        <time>2015-01-28T13:09:36Z</time>
      </trkpt>
      <trkpt lat="43.43016" lon="6.08929">
        <ele>272.60000610352</ele>
        <time>2015-01-28T13:09:48Z</time>
      </trkpt>
      <trkpt lat="43.43016" lon="6.08929">
        <ele>272.60000610352</ele>
        <time>2015-01-28T13:09:52Z</time>
      </trkpt>
      <trkpt lat="43.43016" lon="6.08929">
        <ele>272.60000610352</ele>
        <time>2015-01-28T13:10:07Z</time>
      </trkpt>
      <trkpt lat="43.43016" lon="6.08929">
        <ele>272.60000610352</ele>
        <time>2015-01-28T13:10:10Z</time>
      </trkpt>
      <trkpt lat="43.43016" lon="6.08929">
        <ele>272.20001220703</ele>
        <time>2015-01-28T13:10:27Z</time>
      </trkpt>
      <trkpt lat="43.43016" lon="6.08929">
        <ele>272.20001220703</ele>
        <time>2015-01-28T13:10:32Z</time>
      </trkpt>
      <trkpt lat="43.43016" lon="6.0893">
        <ele>272.79998779297</ele>
        <time>2015-01-28T13:10:47Z</time>
      </trkpt>
      <trkpt lat="43.43016" lon="6.0893">
        <ele>272.79998779297</ele>
        <time>2015-01-28T13:10:56Z</time>
      </trkpt>
      <trkpt lat="43.43016" lon="6.0893">
        <ele>272.39999389648</ele>
        <time>2015-01-28T13:11:13Z</time>
      </trkpt>
      <trkpt lat="43.43016" lon="6.0893">
        <ele>272.60000610352</ele>
        <time>2015-01-28T13:11:18Z</time>
      </trkpt>
      <trkpt lat="43.43016" lon="6.0893">
        <ele>273</ele>
        <time>2015-01-28T13:11:24Z</time>
      </trkpt>
      <trkpt lat="43.43016" lon="6.0893">
        <ele>272.39999389648</ele>
        <time>2015-01-28T13:11:30Z</time>
      </trkpt>
      <trkpt lat="43.43016" lon="6.0893">
        <ele>272.39999389648</ele>
        <time>2015-01-28T13:11:31Z</time>
      </trkpt>
      <trkpt lat="43.43016" lon="6.0893">
        <ele>272.60000610352</ele>
        <time>2015-01-28T13:11:55Z</time>
      </trkpt>
      <trkpt lat="43.43016" lon="6.0893">
        <ele>272.60000610352</ele>
        <time>2015-01-28T13:12:19Z</time>
      </trkpt>
      <trkpt lat="43.43016" lon="6.0893">
        <ele>272.79998779297</ele>
        <time>2015-01-28T13:12:35Z</time>
      </trkpt>
      <trkpt lat="43.43016" lon="6.0893">
        <ele>272.60000610352</ele>
        <time>2015-01-28T13:12:42Z</time>
      </trkpt>
      <trkpt lat="43.43016" lon="6.08929">
        <ele>272.60000610352</ele>
        <time>2015-01-28T13:12:46Z</time>
      </trkpt>
      <trkpt lat="43.43017" lon="6.0893">
        <ele>272.60000610352</ele>
        <time>2015-01-28T13:12:53Z</time>
      </trkpt>
      <trkpt lat="43.43017" lon="6.0893">
        <ele>272.39999389648</ele>
        <time>2015-01-28T13:13:07Z</time>
      </trkpt>
      <trkpt lat="43.43017" lon="6.0893">
        <ele>272.39999389648</ele>
        <time>2015-01-28T13:13:09Z</time>
      </trkpt>
      <trkpt lat="43.43019" lon="6.08931">
        <ele>272.39999389648</ele>
        <time>2015-01-28T13:13:16Z</time>
      </trkpt>
      <trkpt lat="43.4302" lon="6.08932">
        <ele>272.20001220703</ele>
        <time>2015-01-28T13:13:17Z</time>
      </trkpt>
      <trkpt lat="43.43021" lon="6.08934">
        <ele>272.20001220703</ele>
        <time>2015-01-28T13:13:18Z</time>
      </trkpt>
      <trkpt lat="43.43024" lon="6.08946">
        <ele>272.39999389648</ele>
        <time>2015-01-28T13:13:22Z</time>
      </trkpt>
      <trkpt lat="43.43024" lon="6.08949">
        <ele>272.39999389648</ele>
        <time>2015-01-28T13:13:23Z</time>
      </trkpt>
      <trkpt lat="43.43024" lon="6.08967">
        <ele>273</ele>
        <time>2015-01-28T13:13:27Z</time>
      </trkpt>
      <trkpt lat="43.43024" lon="6.08971">
        <ele>273.20001220703</ele>
        <time>2015-01-28T13:13:28Z</time>
      </trkpt>
      <trkpt lat="43.43024" lon="6.08981">
        <ele>273.79998779297</ele>
        <time>2015-01-28T13:13:30Z</time>
      </trkpt>
      <trkpt lat="43.43024" lon="6.0899">
        <ele>273.60000610352</ele>
        <time>2015-01-28T13:13:32Z</time>
      </trkpt>
      <trkpt lat="43.43024" lon="6.08994">
        <ele>274</ele>
        <time>2015-01-28T13:13:33Z</time>
      </trkpt>
      <trkpt lat="43.43024" lon="6.09003">
        <ele>274.79998779297</ele>
        <time>2015-01-28T13:13:35Z</time>
      </trkpt>
      <trkpt lat="43.43024" lon="6.09007">
        <ele>275</ele>
        <time>2015-01-28T13:13:36Z</time>
      </trkpt>
      <trkpt lat="43.43023" lon="6.09012">
        <ele>275.60000610352</ele>
        <time>2015-01-28T13:13:37Z</time>
      </trkpt>
      <trkpt lat="43.43022" lon="6.09021">
        <ele>275.60000610352</ele>
        <time>2015-01-28T13:13:39Z</time>
      </trkpt>
      <trkpt lat="43.43019" lon="6.09033">
        <ele>276.39999389648</ele>
        <time>2015-01-28T13:13:42Z</time>
      </trkpt>
      <trkpt lat="43.43017" lon="6.09037">
        <ele>276.60000610352</ele>
        <time>2015-01-28T13:13:43Z</time>
      </trkpt>
      <trkpt lat="43.43007" lon="6.0905">
        <ele>276.39999389648</ele>
        <time>2015-01-28T13:13:47Z</time>
      </trkpt>
      <trkpt lat="43.43005" lon="6.09053">
        <ele>276.20001220703</ele>
        <time>2015-01-28T13:13:48Z</time>
      </trkpt>
      <trkpt lat="43.42993" lon="6.09062">
        <ele>276.79998779297</ele>
        <time>2015-01-28T13:13:53Z</time>
      </trkpt>
      <trkpt lat="43.42988" lon="6.09071">
        <ele>277.39999389648</ele>
        <time>2015-01-28T13:13:59Z</time>
      </trkpt>
      <trkpt lat="43.42987" lon="6.09072">
        <ele>277.60000610352</ele>
        <time>2015-01-28T13:14:00Z</time>
      </trkpt>
      <trkpt lat="43.42987" lon="6.09073">
        <ele>278</ele>
        <time>2015-01-28T13:14:06Z</time>
      </trkpt>
      <trkpt lat="43.42987" lon="6.09073">
        <ele>277.79998779297</ele>
        <time>2015-01-28T13:14:08Z</time>
      </trkpt>
      <trkpt lat="43.42987" lon="6.09073">
        <ele>277.79998779297</ele>
        <time>2015-01-28T13:14:13Z</time>
      </trkpt>
      <trkpt lat="43.42987" lon="6.09074">
        <ele>277.79998779297</ele>
        <time>2015-01-28T13:14:18Z</time>
      </trkpt>
      <trkpt lat="43.42986" lon="6.09075">
        <ele>278</ele>
        <time>2015-01-28T13:14:28Z</time>
      </trkpt>
      <trkpt lat="43.42985" lon="6.09076">
        <ele>277.79998779297</ele>
        <time>2015-01-28T13:14:33Z</time>
      </trkpt>
      <trkpt lat="43.42985" lon="6.09077">
        <ele>277.79998779297</ele>
        <time>2015-01-28T13:14:35Z</time>
      </trkpt>
      <trkpt lat="43.42977" lon="6.09082">
        <ele>277.79998779297</ele>
        <time>2015-01-28T13:14:40Z</time>
      </trkpt>
      <trkpt lat="43.42962" lon="6.09088">
        <ele>276.60000610352</ele>
        <time>2015-01-28T13:14:44Z</time>
      </trkpt>
      <trkpt lat="43.42957" lon="6.09094">
        <ele>275.20001220703</ele>
        <time>2015-01-28T13:14:46Z</time>
      </trkpt>
      <trkpt lat="43.42955" lon="6.09098">
        <ele>275</ele>
        <time>2015-01-28T13:14:47Z</time>
      </trkpt>
      <trkpt lat="43.42954" lon="6.091">
        <ele>274</ele>
        <time>2015-01-28T13:14:48Z</time>
      </trkpt>
      <trkpt lat="43.42954" lon="6.09101">
        <ele>273.20001220703</ele>
        <time>2015-01-28T13:14:50Z</time>
      </trkpt>
      <trkpt lat="43.42954" lon="6.09101">
        <ele>273</ele>
        <time>2015-01-28T13:14:51Z</time>
      </trkpt>
      <trkpt lat="43.42953" lon="6.09103">
        <ele>272.79998779297</ele>
        <time>2015-01-28T13:14:57Z</time>
      </trkpt>
      <trkpt lat="43.42953" lon="6.09103">
        <ele>272.39999389648</ele>
        <time>2015-01-28T13:15:08Z</time>
      </trkpt>
      <trkpt lat="43.42953" lon="6.09104">
        <ele>272.79998779297</ele>
        <time>2015-01-28T13:15:16Z</time>
      </trkpt>
      <trkpt lat="43.42953" lon="6.09104">
        <ele>272.60000610352</ele>
        <time>2015-01-28T13:15:27Z</time>
      </trkpt>
      <trkpt lat="43.42953" lon="6.09104">
        <ele>272.39999389648</ele>
        <time>2015-01-28T13:15:36Z</time>
      </trkpt>
      <trkpt lat="43.42953" lon="6.09104">
        <ele>272.79998779297</ele>
        <time>2015-01-28T13:15:45Z</time>
      </trkpt>
      <trkpt lat="43.42953" lon="6.09104">
        <ele>272.60000610352</ele>
        <time>2015-01-28T13:15:49Z</time>
      </trkpt>
      <trkpt lat="43.42953" lon="6.09104">
        <ele>272.79998779297</ele>
        <time>2015-01-28T13:15:54Z</time>
      </trkpt>
      <trkpt lat="43.42953" lon="6.09104">
        <ele>273</ele>
        <time>2015-01-28T13:15:58Z</time>
      </trkpt>
      <trkpt lat="43.42953" lon="6.09104">
        <ele>272.79998779297</ele>
        <time>2015-01-28T13:16:04Z</time>
      </trkpt>
      <trkpt lat="43.42952" lon="6.09104">
        <ele>272.79998779297</ele>
        <time>2015-01-28T13:16:10Z</time>
      </trkpt>
      <trkpt lat="43.42949" lon="6.09106">
        <ele>272.60000610352</ele>
        <time>2015-01-28T13:16:14Z</time>
      </trkpt>
      <trkpt lat="43.42947" lon="6.09108">
        <ele>272.39999389648</ele>
        <time>2015-01-28T13:16:15Z</time>
      </trkpt>
      <trkpt lat="43.42942" lon="6.09115">
        <ele>272.20001220703</ele>
        <time>2015-01-28T13:16:17Z</time>
      </trkpt>
      <trkpt lat="43.42939" lon="6.09122">
        <ele>272</ele>
        <time>2015-01-28T13:16:18Z</time>
      </trkpt>
      <trkpt lat="43.42935" lon="6.09147">
        <ele>271.20001220703</ele>
        <time>2015-01-28T13:16:21Z</time>
      </trkpt>
      <trkpt lat="43.42935" lon="6.09166">
        <ele>269.39999389648</ele>
        <time>2015-01-28T13:16:23Z</time>
      </trkpt>
      <trkpt lat="43.42933" lon="6.09185">
        <ele>267.20001220703</ele>
        <time>2015-01-28T13:16:25Z</time>
      </trkpt>
      <trkpt lat="43.42931" lon="6.09192">
        <ele>266.39999389648</ele>
        <time>2015-01-28T13:16:26Z</time>
      </trkpt>
      <trkpt lat="43.42927" lon="6.09196">
        <ele>265.79998779297</ele>
        <time>2015-01-28T13:16:27Z</time>
      </trkpt>
      <trkpt lat="43.42918" lon="6.09202">
        <ele>265.39999389648</ele>
        <time>2015-01-28T13:16:29Z</time>
      </trkpt>
      <trkpt lat="43.42913" lon="6.09207">
        <ele>264.79998779297</ele>
        <time>2015-01-28T13:16:30Z</time>
      </trkpt>
      <trkpt lat="43.42907" lon="6.0922">
        <ele>264</ele>
        <time>2015-01-28T13:16:32Z</time>
      </trkpt>
      <trkpt lat="43.42904" lon="6.0923">
        <ele>263.60000610352</ele>
        <time>2015-01-28T13:16:35Z</time>
      </trkpt>
      <trkpt lat="43.42904" lon="6.09234">
        <ele>262.79998779297</ele>
        <time>2015-01-28T13:16:39Z</time>
      </trkpt>
      <trkpt lat="43.42904" lon="6.09235">
        <ele>263</ele>
        <time>2015-01-28T13:16:44Z</time>
      </trkpt>
      <trkpt lat="43.42904" lon="6.09242">
        <ele>263</ele>
        <time>2015-01-28T13:16:48Z</time>
      </trkpt>
      <trkpt lat="43.42907" lon="6.09259">
        <ele>262.39999389648</ele>
        <time>2015-01-28T13:16:51Z</time>
      </trkpt>
      <trkpt lat="43.42907" lon="6.09266">
        <ele>262</ele>
        <time>2015-01-28T13:16:52Z</time>
      </trkpt>
      <trkpt lat="43.42911" lon="6.09299">
        <ele>261.20001220703</ele>
        <time>2015-01-28T13:16:56Z</time>
      </trkpt>
      <trkpt lat="43.4291" lon="6.09307">
        <ele>260.60000610352</ele>
        <time>2015-01-28T13:16:57Z</time>
      </trkpt>
      <trkpt lat="43.42909" lon="6.09315">
        <ele>260.20001220703</ele>
        <time>2015-01-28T13:16:58Z</time>
      </trkpt>
      <trkpt lat="43.42904" lon="6.09354">
        <ele>259.60000610352</ele>
        <time>2015-01-28T13:17:03Z</time>
      </trkpt>
      <trkpt lat="43.42904" lon="6.09362">
        <ele>259.20001220703</ele>
        <time>2015-01-28T13:17:04Z</time>
      </trkpt>
      <trkpt lat="43.42904" lon="6.0937">
        <ele>259</ele>
        <time>2015-01-28T13:17:05Z</time>
      </trkpt>
      <trkpt lat="43.42903" lon="6.09377">
        <ele>258.60000610352</ele>
        <time>2015-01-28T13:17:06Z</time>
      </trkpt>
      <trkpt lat="43.42901" lon="6.09385">
        <ele>258.39999389648</ele>
        <time>2015-01-28T13:17:07Z</time>
      </trkpt>
      <trkpt lat="43.42897" lon="6.09407">
        <ele>258.39999389648</ele>
        <time>2015-01-28T13:17:10Z</time>
      </trkpt>
      <trkpt lat="43.42893" lon="6.09422">
        <ele>258.20001220703</ele>
        <time>2015-01-28T13:17:12Z</time>
      </trkpt>
      <trkpt lat="43.42892" lon="6.0943">
        <ele>258</ele>
        <time>2015-01-28T13:17:13Z</time>
      </trkpt>
      <trkpt lat="43.42896" lon="6.09456">
        <ele>258.20001220703</ele>
        <time>2015-01-28T13:17:17Z</time>
      </trkpt>
      <trkpt lat="43.42903" lon="6.09478">
        <ele>257.20001220703</ele>
        <time>2015-01-28T13:17:20Z</time>
      </trkpt>
      <trkpt lat="43.42904" lon="6.09485">
        <ele>256.60000610352</ele>
        <time>2015-01-28T13:17:21Z</time>
      </trkpt>
      <trkpt lat="43.42898" lon="6.09512">
        <ele>255.60000610352</ele>
        <time>2015-01-28T13:17:25Z</time>
      </trkpt>
      <trkpt lat="43.42896" lon="6.09519">
        <ele>255.39999389648</ele>
        <time>2015-01-28T13:17:26Z</time>
      </trkpt>
      <trkpt lat="43.42894" lon="6.09525">
        <ele>255.60000610352</ele>
        <time>2015-01-28T13:17:27Z</time>
      </trkpt>
      <trkpt lat="43.42893" lon="6.09546">
        <ele>254.80000305176</ele>
        <time>2015-01-28T13:17:30Z</time>
      </trkpt>
      <trkpt lat="43.42895" lon="6.09554">
        <ele>254.19999694824</ele>
        <time>2015-01-28T13:17:31Z</time>
      </trkpt>
      <trkpt lat="43.42899" lon="6.09577">
        <ele>254</ele>
        <time>2015-01-28T13:17:34Z</time>
      </trkpt>
      <trkpt lat="43.42896" lon="6.09597">
        <ele>253.39999389648</ele>
        <time>2015-01-28T13:17:37Z</time>
      </trkpt>
      <trkpt lat="43.42892" lon="6.09603">
        <ele>253.19999694824</ele>
        <time>2015-01-28T13:17:38Z</time>
      </trkpt>
      <trkpt lat="43.4288" lon="6.09618">
        <ele>253.19999694824</ele>
        <time>2015-01-28T13:17:41Z</time>
      </trkpt>
      <trkpt lat="43.42873" lon="6.09636">
        <ele>252.39999389648</ele>
        <time>2015-01-28T13:17:44Z</time>
      </trkpt>
      <trkpt lat="43.4287" lon="6.09642">
        <ele>252.39999389648</ele>
        <time>2015-01-28T13:17:45Z</time>
      </trkpt>
      <trkpt lat="43.4286" lon="6.09665">
        <ele>251.39999389648</ele>
        <time>2015-01-28T13:17:49Z</time>
      </trkpt>
      <trkpt lat="43.42857" lon="6.0967">
        <ele>251</ele>
        <time>2015-01-28T13:17:50Z</time>
      </trkpt>
      <trkpt lat="43.42837" lon="6.09706">
        <ele>249.80000305176</ele>
        <time>2015-01-28T13:17:56Z</time>
      </trkpt>
      <trkpt lat="43.42827" lon="6.09722">
        <ele>249</ele>
        <time>2015-01-28T13:17:59Z</time>
      </trkpt>
      <trkpt lat="43.42823" lon="6.09728">
        <ele>249</ele>
        <time>2015-01-28T13:18:01Z</time>
      </trkpt>
      <trkpt lat="43.4282" lon="6.0973">
        <ele>248.60000610352</ele>
        <time>2015-01-28T13:18:02Z</time>
      </trkpt>
      <trkpt lat="43.42813" lon="6.09741">
        <ele>248</ele>
        <time>2015-01-28T13:18:06Z</time>
      </trkpt>
      <trkpt lat="43.42797" lon="6.09763">
        <ele>247.39999389648</ele>
        <time>2015-01-28T13:18:12Z</time>
      </trkpt>
      <trkpt lat="43.42785" lon="6.09769">
        <ele>247.80000305176</ele>
        <time>2015-01-28T13:18:15Z</time>
      </trkpt>
      <trkpt lat="43.42781" lon="6.0977">
        <ele>247.19999694824</ele>
        <time>2015-01-28T13:18:16Z</time>
      </trkpt>
      <trkpt lat="43.42767" lon="6.09774">
        <ele>246.19999694824</ele>
        <time>2015-01-28T13:18:19Z</time>
      </trkpt>
      <trkpt lat="43.42762" lon="6.09774">
        <ele>245.80000305176</ele>
        <time>2015-01-28T13:18:20Z</time>
      </trkpt>
      <trkpt lat="43.42756" lon="6.09772">
        <ele>246</ele>
        <time>2015-01-28T13:18:21Z</time>
      </trkpt>
      <trkpt lat="43.42742" lon="6.09763">
        <ele>244.60000610352</ele>
        <time>2015-01-28T13:18:24Z</time>
      </trkpt>
      <trkpt lat="43.42737" lon="6.0976">
        <ele>243.60000610352</ele>
        <time>2015-01-28T13:18:25Z</time>
      </trkpt>
      <trkpt lat="43.42732" lon="6.09758">
        <ele>242.60000610352</ele>
        <time>2015-01-28T13:18:26Z</time>
      </trkpt>
      <trkpt lat="43.42715" lon="6.09756">
        <ele>242.60000610352</ele>
        <time>2015-01-28T13:18:29Z</time>
      </trkpt>
      <trkpt lat="43.42704" lon="6.09757">
        <ele>242.39999389648</ele>
        <time>2015-01-28T13:18:31Z</time>
      </trkpt>
      <trkpt lat="43.42698" lon="6.09758">
        <ele>242.39999389648</ele>
        <time>2015-01-28T13:18:32Z</time>
      </trkpt>
      <trkpt lat="43.42687" lon="6.09761">
        <ele>242</ele>
        <time>2015-01-28T13:18:34Z</time>
      </trkpt>
      <trkpt lat="43.42682" lon="6.09765">
        <ele>242</ele>
        <time>2015-01-28T13:18:35Z</time>
      </trkpt>
      <trkpt lat="43.42677" lon="6.09768">
        <ele>241.80000305176</ele>
        <time>2015-01-28T13:18:36Z</time>
      </trkpt>
      <trkpt lat="43.42674" lon="6.09773">
        <ele>241.80000305176</ele>
        <time>2015-01-28T13:18:37Z</time>
      </trkpt>
      <trkpt lat="43.42672" lon="6.09782">
        <ele>241</ele>
        <time>2015-01-28T13:18:40Z</time>
      </trkpt>
      <trkpt lat="43.42671" lon="6.09785">
        <ele>240.80000305176</ele>
        <time>2015-01-28T13:18:41Z</time>
      </trkpt>
      <trkpt lat="43.42671" lon="6.09787">
        <ele>240.80000305176</ele>
        <time>2015-01-28T13:18:43Z</time>
      </trkpt>
      <trkpt lat="43.4267" lon="6.09787">
        <ele>241</ele>
        <time>2015-01-28T13:18:44Z</time>
      </trkpt>
      <trkpt lat="43.4267" lon="6.09788">
        <ele>240.80000305176</ele>
        <time>2015-01-28T13:18:47Z</time>
      </trkpt>
      <trkpt lat="43.4267" lon="6.09788">
        <ele>240.60000610352</ele>
        <time>2015-01-28T13:18:48Z</time>
      </trkpt>
      <trkpt lat="43.4267" lon="6.09788">
        <ele>240.80000305176</ele>
        <time>2015-01-28T13:19:00Z</time>
      </trkpt>
      <trkpt lat="43.4267" lon="6.09788">
        <ele>241</ele>
        <time>2015-01-28T13:19:09Z</time>
      </trkpt>
      <trkpt lat="43.4267" lon="6.09789">
        <ele>240.80000305176</ele>
        <time>2015-01-28T13:19:13Z</time>
      </trkpt>
      <trkpt lat="43.4267" lon="6.09789">
        <ele>241.19999694824</ele>
        <time>2015-01-28T13:19:22Z</time>
      </trkpt>
      <trkpt lat="43.42669" lon="6.09793">
        <ele>241.19999694824</ele>
        <time>2015-01-28T13:19:28Z</time>
      </trkpt>
      <trkpt lat="43.42667" lon="6.09795">
        <ele>241.19999694824</ele>
        <time>2015-01-28T13:19:29Z</time>
      </trkpt>
      <trkpt lat="43.42662" lon="6.09802">
        <ele>241.39999389648</ele>
        <time>2015-01-28T13:19:32Z</time>
      </trkpt>
      <trkpt lat="43.42659" lon="6.09805">
        <ele>241.19999694824</ele>
        <time>2015-01-28T13:19:33Z</time>
      </trkpt>
      <trkpt lat="43.42648" lon="6.09823">
        <ele>240.19999694824</ele>
        <time>2015-01-28T13:19:37Z</time>
      </trkpt>
      <trkpt lat="43.42647" lon="6.09837">
        <ele>239.60000610352</ele>
        <time>2015-01-28T13:19:39Z</time>
      </trkpt>
      <trkpt lat="43.42647" lon="6.09844">
        <ele>239.39999389648</ele>
        <time>2015-01-28T13:19:40Z</time>
      </trkpt>
      <trkpt lat="43.42646" lon="6.09851">
        <ele>239.60000610352</ele>
        <time>2015-01-28T13:19:41Z</time>
      </trkpt>
      <trkpt lat="43.42646" lon="6.09865">
        <ele>239.60000610352</ele>
        <time>2015-01-28T13:19:43Z</time>
      </trkpt>
      <trkpt lat="43.42646" lon="6.09881">
        <ele>238.60000610352</ele>
        <time>2015-01-28T13:19:45Z</time>
      </trkpt>
      <trkpt lat="43.42647" lon="6.09887">
        <ele>238.60000610352</ele>
        <time>2015-01-28T13:19:46Z</time>
      </trkpt>
      <trkpt lat="43.42651" lon="6.09895">
        <ele>237</ele>
        <time>2015-01-28T13:19:48Z</time>
      </trkpt>
      <trkpt lat="43.42658" lon="6.09898">
        <ele>236.60000610352</ele>
        <time>2015-01-28T13:19:51Z</time>
      </trkpt>
      <trkpt lat="43.42661" lon="6.09899">
        <ele>236.80000305176</ele>
        <time>2015-01-28T13:19:52Z</time>
      </trkpt>
      <trkpt lat="43.42665" lon="6.09901">
        <ele>237.19999694824</ele>
        <time>2015-01-28T13:19:54Z</time>
      </trkpt>
      <trkpt lat="43.42669" lon="6.09904">
        <ele>237.39999389648</ele>
        <time>2015-01-28T13:19:56Z</time>
      </trkpt>
      <trkpt lat="43.42672" lon="6.09907">
        <ele>238</ele>
        <time>2015-01-28T13:19:58Z</time>
      </trkpt>
      <trkpt lat="43.42677" lon="6.09912">
        <ele>238.19999694824</ele>
        <time>2015-01-28T13:20:01Z</time>
      </trkpt>
      <trkpt lat="43.42679" lon="6.09919">
        <ele>239.19999694824</ele>
        <time>2015-01-28T13:20:04Z</time>
      </trkpt>
      <trkpt lat="43.4268" lon="6.09921">
        <ele>239.39999389648</ele>
        <time>2015-01-28T13:20:05Z</time>
      </trkpt>
      <trkpt lat="43.42682" lon="6.0993">
        <ele>240</ele>
        <time>2015-01-28T13:20:09Z</time>
      </trkpt>
      <trkpt lat="43.42682" lon="6.09934">
        <ele>240.19999694824</ele>
        <time>2015-01-28T13:20:11Z</time>
      </trkpt>
      <trkpt lat="43.42681" lon="6.09937">
        <ele>240.19999694824</ele>
        <time>2015-01-28T13:20:12Z</time>
      </trkpt>
      <trkpt lat="43.42678" lon="6.09948">
        <ele>240.60000610352</ele>
        <time>2015-01-28T13:20:17Z</time>
      </trkpt>
      <trkpt lat="43.42673" lon="6.0996">
        <ele>241.39999389648</ele>
        <time>2015-01-28T13:20:22Z</time>
      </trkpt>
      <trkpt lat="43.42671" lon="6.09969">
        <ele>242.19999694824</ele>
        <time>2015-01-28T13:20:25Z</time>
      </trkpt>
      <trkpt lat="43.42671" lon="6.09972">
        <ele>242.39999389648</ele>
        <time>2015-01-28T13:20:26Z</time>
      </trkpt>
      <trkpt lat="43.42672" lon="6.09984">
        <ele>242.80000305176</ele>
        <time>2015-01-28T13:20:31Z</time>
      </trkpt>
      <trkpt lat="43.42673" lon="6.09993">
        <ele>243.60000610352</ele>
        <time>2015-01-28T13:20:35Z</time>
      </trkpt>
      <trkpt lat="43.42673" lon="6.09996">
        <ele>244.39999389648</ele>
        <time>2015-01-28T13:20:37Z</time>
      </trkpt>
      <trkpt lat="43.42673" lon="6.09998">
        <ele>244.80000305176</ele>
        <time>2015-01-28T13:20:38Z</time>
      </trkpt>
      <trkpt lat="43.42676" lon="6.10007">
        <ele>245.60000610352</ele>
        <time>2015-01-28T13:20:43Z</time>
      </trkpt>
      <trkpt lat="43.42676" lon="6.10011">
        <ele>246</ele>
        <time>2015-01-28T13:20:45Z</time>
      </trkpt>
      <trkpt lat="43.42677" lon="6.10017">
        <ele>246.39999389648</ele>
        <time>2015-01-28T13:20:48Z</time>
      </trkpt>
      <trkpt lat="43.42679" lon="6.10023">
        <ele>247</ele>
        <time>2015-01-28T13:20:51Z</time>
      </trkpt>
      <trkpt lat="43.42682" lon="6.10028">
        <ele>247.19999694824</ele>
        <time>2015-01-28T13:20:54Z</time>
      </trkpt>
      <trkpt lat="43.42686" lon="6.10032">
        <ele>247.39999389648</ele>
        <time>2015-01-28T13:20:57Z</time>
      </trkpt>
      <trkpt lat="43.42696" lon="6.10037">
        <ele>248.19999694824</ele>
        <time>2015-01-28T13:21:03Z</time>
      </trkpt>
      <trkpt lat="43.42707" lon="6.10041">
        <ele>249.19999694824</ele>
        <time>2015-01-28T13:21:09Z</time>
      </trkpt>
      <trkpt lat="43.42712" lon="6.10041">
        <ele>249.60000610352</ele>
        <time>2015-01-28T13:21:11Z</time>
      </trkpt>
      <trkpt lat="43.42715" lon="6.10042">
        <ele>250.39999389648</ele>
        <time>2015-01-28T13:21:13Z</time>
      </trkpt>
      <trkpt lat="43.42723" lon="6.10042">
        <ele>250.19999694824</ele>
        <time>2015-01-28T13:21:17Z</time>
      </trkpt>
      <trkpt lat="43.42733" lon="6.10042">
        <ele>251.19999694824</ele>
        <time>2015-01-28T13:21:23Z</time>
      </trkpt>
      <trkpt lat="43.42735" lon="6.10042">
        <ele>251.39999389648</ele>
        <time>2015-01-28T13:21:25Z</time>
      </trkpt>
      <trkpt lat="43.42744" lon="6.10042">
        <ele>252.60000610352</ele>
        <time>2015-01-28T13:21:30Z</time>
      </trkpt>
      <trkpt lat="43.42747" lon="6.10041">
        <ele>252.80000305176</ele>
        <time>2015-01-28T13:21:32Z</time>
      </trkpt>
      <trkpt lat="43.42756" lon="6.10043">
        <ele>254.19999694824</ele>
        <time>2015-01-28T13:21:38Z</time>
      </trkpt>
      <trkpt lat="43.42757" lon="6.10043">
        <ele>254.60000610352</ele>
        <time>2015-01-28T13:21:39Z</time>
      </trkpt>
      <trkpt lat="43.42763" lon="6.10048">
        <ele>255.19999694824</ele>
        <time>2015-01-28T13:21:45Z</time>
      </trkpt>
      <trkpt lat="43.42764" lon="6.10049">
        <ele>255.19999694824</ele>
        <time>2015-01-28T13:21:46Z</time>
      </trkpt>
      <trkpt lat="43.42772" lon="6.10055">
        <ele>256.39999389648</ele>
        <time>2015-01-28T13:21:53Z</time>
      </trkpt>
      <trkpt lat="43.42781" lon="6.1006">
        <ele>257.20001220703</ele>
        <time>2015-01-28T13:21:59Z</time>
      </trkpt>
      <trkpt lat="43.42782" lon="6.10061">
        <ele>257.60000610352</ele>
        <time>2015-01-28T13:22:00Z</time>
      </trkpt>
      <trkpt lat="43.42791" lon="6.10064">
        <ele>258.39999389648</ele>
        <time>2015-01-28T13:22:06Z</time>
      </trkpt>
      <trkpt lat="43.42792" lon="6.10065">
        <ele>258.39999389648</ele>
        <time>2015-01-28T13:22:07Z</time>
      </trkpt>
      <trkpt lat="43.42793" lon="6.10066">
        <ele>258.60000610352</ele>
        <time>2015-01-28T13:22:08Z</time>
      </trkpt>
      <trkpt lat="43.42801" lon="6.10069">
        <ele>259</ele>
        <time>2015-01-28T13:22:14Z</time>
      </trkpt>
      <trkpt lat="43.42802" lon="6.1007">
        <ele>259.20001220703</ele>
        <time>2015-01-28T13:22:15Z</time>
      </trkpt>
      <trkpt lat="43.42804" lon="6.10075">
        <ele>259.79998779297</ele>
        <time>2015-01-28T13:22:18Z</time>
      </trkpt>
      <trkpt lat="43.42806" lon="6.10079">
        <ele>259.79998779297</ele>
        <time>2015-01-28T13:22:20Z</time>
      </trkpt>
      <trkpt lat="43.42807" lon="6.10086">
        <ele>260.79998779297</ele>
        <time>2015-01-28T13:22:24Z</time>
      </trkpt>
      <trkpt lat="43.42808" lon="6.1009">
        <ele>260.60000610352</ele>
        <time>2015-01-28T13:22:26Z</time>
      </trkpt>
      <trkpt lat="43.42808" lon="6.10096">
        <ele>261</ele>
        <time>2015-01-28T13:22:29Z</time>
      </trkpt>
      <trkpt lat="43.42808" lon="6.10103">
        <ele>261.60000610352</ele>
        <time>2015-01-28T13:22:33Z</time>
      </trkpt>
      <trkpt lat="43.42808" lon="6.10109">
        <ele>262.20001220703</ele>
        <time>2015-01-28T13:22:36Z</time>
      </trkpt>
      <trkpt lat="43.4281" lon="6.10118">
        <ele>262.79998779297</ele>
        <time>2015-01-28T13:22:42Z</time>
      </trkpt>
      <trkpt lat="43.42811" lon="6.10123">
        <ele>263.39999389648</ele>
        <time>2015-01-28T13:22:45Z</time>
      </trkpt>
      <trkpt lat="43.42813" lon="6.10131">
        <ele>264.39999389648</ele>
        <time>2015-01-28T13:22:50Z</time>
      </trkpt>
      <trkpt lat="43.42814" lon="6.10133">
        <ele>264.39999389648</ele>
        <time>2015-01-28T13:22:51Z</time>
      </trkpt>
      <trkpt lat="43.42816" lon="6.1014">
        <ele>265.39999389648</ele>
        <time>2015-01-28T13:22:56Z</time>
      </trkpt>
      <trkpt lat="43.42818" lon="6.10145">
        <ele>266.39999389648</ele>
        <time>2015-01-28T13:22:59Z</time>
      </trkpt>
      <trkpt lat="43.4282" lon="6.10153">
        <ele>266.60000610352</ele>
        <time>2015-01-28T13:23:04Z</time>
      </trkpt>
      <trkpt lat="43.42821" lon="6.1016">
        <ele>267.20001220703</ele>
        <time>2015-01-28T13:23:08Z</time>
      </trkpt>
      <trkpt lat="43.42822" lon="6.10167">
        <ele>267.60000610352</ele>
        <time>2015-01-28T13:23:12Z</time>
      </trkpt>
      <trkpt lat="43.42824" lon="6.10177">
        <ele>268</ele>
        <time>2015-01-28T13:23:17Z</time>
      </trkpt>
      <trkpt lat="43.42824" lon="6.10187">
        <ele>268</ele>
        <time>2015-01-28T13:23:22Z</time>
      </trkpt>
      <trkpt lat="43.42823" lon="6.1019">
        <ele>268.20001220703</ele>
        <time>2015-01-28T13:23:24Z</time>
      </trkpt>
      <trkpt lat="43.42823" lon="6.10195">
        <ele>268.79998779297</ele>
        <time>2015-01-28T13:23:28Z</time>
      </trkpt>
      <trkpt lat="43.42823" lon="6.10199">
        <ele>269</ele>
        <time>2015-01-28T13:23:32Z</time>
      </trkpt>
      <trkpt lat="43.42823" lon="6.102">
        <ele>269</ele>
        <time>2015-01-28T13:23:37Z</time>
      </trkpt>
      <trkpt lat="43.42823" lon="6.102">
        <ele>269.20001220703</ele>
        <time>2015-01-28T13:23:39Z</time>
      </trkpt>
      <trkpt lat="43.42823" lon="6.102">
        <ele>269.20001220703</ele>
        <time>2015-01-28T13:23:42Z</time>
      </trkpt>
      <trkpt lat="43.42823" lon="6.102">
        <ele>269.20001220703</ele>
        <time>2015-01-28T13:23:46Z</time>
      </trkpt>
      <trkpt lat="43.42823" lon="6.102">
        <ele>269.39999389648</ele>
        <time>2015-01-28T13:23:48Z</time>
      </trkpt>
      <trkpt lat="43.42823" lon="6.102">
        <ele>269.39999389648</ele>
        <time>2015-01-28T13:23:50Z</time>
      </trkpt>
      <trkpt lat="43.42823" lon="6.102">
        <ele>269.20001220703</ele>
        <time>2015-01-28T13:23:52Z</time>
      </trkpt>
      <trkpt lat="43.42823" lon="6.102">
        <ele>269.20001220703</ele>
        <time>2015-01-28T13:23:55Z</time>
      </trkpt>
      <trkpt lat="43.42823" lon="6.10201">
        <ele>269.20001220703</ele>
        <time>2015-01-28T13:24:03Z</time>
      </trkpt>
      <trkpt lat="43.42823" lon="6.10201">
        <ele>269.20001220703</ele>
        <time>2015-01-28T13:24:07Z</time>
      </trkpt>
      <trkpt lat="43.42823" lon="6.10205">
        <ele>269.39999389648</ele>
        <time>2015-01-28T13:24:14Z</time>
      </trkpt>
      <trkpt lat="43.42825" lon="6.10207">
        <ele>269.60000610352</ele>
        <time>2015-01-28T13:24:15Z</time>
      </trkpt>
      <trkpt lat="43.42826" lon="6.10209">
        <ele>269.79998779297</ele>
        <time>2015-01-28T13:24:16Z</time>
      </trkpt>
      <trkpt lat="43.42827" lon="6.10211">
        <ele>269.79998779297</ele>
        <time>2015-01-28T13:24:17Z</time>
      </trkpt>
      <trkpt lat="43.42829" lon="6.10213">
        <ele>270.20001220703</ele>
        <time>2015-01-28T13:24:19Z</time>
      </trkpt>
      <trkpt lat="43.4283" lon="6.10214">
        <ele>270.60000610352</ele>
        <time>2015-01-28T13:24:20Z</time>
      </trkpt>
      <trkpt lat="43.42831" lon="6.10217">
        <ele>271</ele>
        <time>2015-01-28T13:24:22Z</time>
      </trkpt>
      <trkpt lat="43.42832" lon="6.10218">
        <ele>271.39999389648</ele>
        <time>2015-01-28T13:24:23Z</time>
      </trkpt>
      <trkpt lat="43.42832" lon="6.10218">
        <ele>271.79998779297</ele>
        <time>2015-01-28T13:24:25Z</time>
      </trkpt>
      <trkpt lat="43.42832" lon="6.10219">
        <ele>272.39999389648</ele>
        <time>2015-01-28T13:24:33Z</time>
      </trkpt>
      <trkpt lat="43.42833" lon="6.1022">
        <ele>272.79998779297</ele>
        <time>2015-01-28T13:24:35Z</time>
      </trkpt>
      <trkpt lat="43.42833" lon="6.1022">
        <ele>273</ele>
        <time>2015-01-28T13:24:37Z</time>
      </trkpt>
      <trkpt lat="43.42833" lon="6.1022">
        <ele>272.79998779297</ele>
        <time>2015-01-28T13:24:43Z</time>
      </trkpt>
      <trkpt lat="43.42832" lon="6.1022">
        <ele>272.79998779297</ele>
        <time>2015-01-28T13:24:49Z</time>
      </trkpt>
      <trkpt lat="43.42832" lon="6.10221">
        <ele>273</ele>
        <time>2015-01-28T13:24:56Z</time>
      </trkpt>
      <trkpt lat="43.42832" lon="6.10221">
        <ele>272.79998779297</ele>
        <time>2015-01-28T13:24:59Z</time>
      </trkpt>
      <trkpt lat="43.42832" lon="6.10221">
        <ele>272.39999389648</ele>
        <time>2015-01-28T13:25:09Z</time>
      </trkpt>
      <trkpt lat="43.42832" lon="6.10221">
        <ele>272.60000610352</ele>
        <time>2015-01-28T13:25:14Z</time>
      </trkpt>
      <trkpt lat="43.42832" lon="6.10221">
        <ele>272.39999389648</ele>
        <time>2015-01-28T13:25:16Z</time>
      </trkpt>
      <trkpt lat="43.42832" lon="6.10221">
        <ele>272.60000610352</ele>
        <time>2015-01-28T13:25:24Z</time>
      </trkpt>
      <trkpt lat="43.42832" lon="6.10221">
        <ele>272.60000610352</ele>
        <time>2015-01-28T13:25:27Z</time>
      </trkpt>
      <trkpt lat="43.42832" lon="6.10221">
        <ele>272.79998779297</ele>
        <time>2015-01-28T13:25:48Z</time>
      </trkpt>
      <trkpt lat="43.42832" lon="6.10221">
        <ele>272.20001220703</ele>
        <time>2015-01-28T13:26:13Z</time>
      </trkpt>
      <trkpt lat="43.42832" lon="6.10221">
        <ele>272.39999389648</ele>
        <time>2015-01-28T13:26:21Z</time>
      </trkpt>
      <trkpt lat="43.42832" lon="6.10221">
        <ele>272.20001220703</ele>
        <time>2015-01-28T13:26:52Z</time>
      </trkpt>
      <trkpt lat="43.42832" lon="6.10221">
        <ele>272.60000610352</ele>
        <time>2015-01-28T13:26:57Z</time>
      </trkpt>
      <trkpt lat="43.42832" lon="6.10221">
        <ele>272.79998779297</ele>
        <time>2015-01-28T13:27:13Z</time>
      </trkpt>
      <trkpt lat="43.42832" lon="6.10221">
        <ele>272.79998779297</ele>
        <time>2015-01-28T13:27:15Z</time>
      </trkpt>
      <trkpt lat="43.42832" lon="6.10221">
        <ele>272.39999389648</ele>
        <time>2015-01-28T13:27:35Z</time>
      </trkpt>
      <trkpt lat="43.42832" lon="6.10221">
        <ele>273</ele>
        <time>2015-01-28T13:27:58Z</time>
      </trkpt>
      <trkpt lat="43.42832" lon="6.10221">
        <ele>272.60000610352</ele>
        <time>2015-01-28T13:28:04Z</time>
      </trkpt>
      <trkpt lat="43.42832" lon="6.10221">
        <ele>272.60000610352</ele>
        <time>2015-01-28T13:28:06Z</time>
      </trkpt>
      <trkpt lat="43.42832" lon="6.10221">
        <ele>272.39999389648</ele>
        <time>2015-01-28T13:28:10Z</time>
      </trkpt>
      <trkpt lat="43.42832" lon="6.10221">
        <ele>272.79998779297</ele>
        <time>2015-01-28T13:28:15Z</time>
      </trkpt>
      <trkpt lat="43.42832" lon="6.10221">
        <ele>273</ele>
        <time>2015-01-28T13:28:20Z</time>
      </trkpt>
      <trkpt lat="43.42832" lon="6.10221">
        <ele>273</ele>
        <time>2015-01-28T13:28:26Z</time>
      </trkpt>
      <trkpt lat="43.42832" lon="6.10221">
        <ele>273.20001220703</ele>
        <time>2015-01-28T13:28:29Z</time>
      </trkpt>
      <trkpt lat="43.42832" lon="6.10221">
        <ele>273.39999389648</ele>
        <time>2015-01-28T13:28:32Z</time>
      </trkpt>
      <trkpt lat="43.42832" lon="6.10221">
        <ele>273.39999389648</ele>
        <time>2015-01-28T13:28:34Z</time>
      </trkpt>
      <trkpt lat="43.42832" lon="6.10221">
        <ele>273.39999389648</ele>
        <time>2015-01-28T13:28:43Z</time>
      </trkpt>
      <trkpt lat="43.42832" lon="6.10221">
        <ele>273.60000610352</ele>
        <time>2015-01-28T13:28:47Z</time>
      </trkpt>
      <trkpt lat="43.42832" lon="6.10221">
        <ele>273.39999389648</ele>
        <time>2015-01-28T13:28:52Z</time>
      </trkpt>
      <trkpt lat="43.42832" lon="6.10221">
        <ele>273.39999389648</ele>
        <time>2015-01-28T13:28:54Z</time>
      </trkpt>
      <trkpt lat="43.42831" lon="6.10221">
        <ele>273.20001220703</ele>
        <time>2015-01-28T13:28:58Z</time>
      </trkpt>
      <trkpt lat="43.42831" lon="6.10221">
        <ele>273.20001220703</ele>
        <time>2015-01-28T13:29:04Z</time>
      </trkpt>
      <trkpt lat="43.42832" lon="6.10221">
        <ele>273.20001220703</ele>
        <time>2015-01-28T13:29:15Z</time>
      </trkpt>
      <trkpt lat="43.42832" lon="6.10221">
        <ele>273.20001220703</ele>
        <time>2015-01-28T13:29:18Z</time>
      </trkpt>
      <trkpt lat="43.42832" lon="6.10221">
        <ele>273.20001220703</ele>
        <time>2015-01-28T13:29:25Z</time>
      </trkpt>
      <trkpt lat="43.42832" lon="6.10221">
        <ele>273.39999389648</ele>
        <time>2015-01-28T13:29:27Z</time>
      </trkpt>
      <trkpt lat="43.42832" lon="6.10221">
        <ele>273</ele>
        <time>2015-01-28T13:29:36Z</time>
      </trkpt>
      <trkpt lat="43.42832" lon="6.10221">
        <ele>273.20001220703</ele>
        <time>2015-01-28T13:29:37Z</time>
      </trkpt>
      <trkpt lat="43.42832" lon="6.10221">
        <ele>273.39999389648</ele>
        <time>2015-01-28T13:29:47Z</time>
      </trkpt>
      <trkpt lat="43.42832" lon="6.10221">
        <ele>273.39999389648</ele>
        <time>2015-01-28T13:29:55Z</time>
      </trkpt>
      <trkpt lat="43.42833" lon="6.1022">
        <ele>273.60000610352</ele>
        <time>2015-01-28T13:30:07Z</time>
      </trkpt>
      <trkpt lat="43.42833" lon="6.1022">
        <ele>273.60000610352</ele>
        <time>2015-01-28T13:30:18Z</time>
      </trkpt>
      <trkpt lat="43.42833" lon="6.1022">
        <ele>273.60000610352</ele>
        <time>2015-01-28T13:30:29Z</time>
      </trkpt>
      <trkpt lat="43.42833" lon="6.1022">
        <ele>274</ele>
        <time>2015-01-28T13:30:36Z</time>
      </trkpt>
      <trkpt lat="43.42833" lon="6.1022">
        <ele>274</ele>
        <time>2015-01-28T13:30:37Z</time>
      </trkpt>
      <trkpt lat="43.42833" lon="6.1022">
        <ele>273.79998779297</ele>
        <time>2015-01-28T13:30:45Z</time>
      </trkpt>
      <trkpt lat="43.42833" lon="6.1022">
        <ele>274</ele>
        <time>2015-01-28T13:30:48Z</time>
      </trkpt>
      <trkpt lat="43.42833" lon="6.1022">
        <ele>273.79998779297</ele>
        <time>2015-01-28T13:30:53Z</time>
      </trkpt>
      <trkpt lat="43.42833" lon="6.1022">
        <ele>273.79998779297</ele>
        <time>2015-01-28T13:30:54Z</time>
      </trkpt>
      <trkpt lat="43.42833" lon="6.1022">
        <ele>273.79998779297</ele>
        <time>2015-01-28T13:31:06Z</time>
      </trkpt>
      <trkpt lat="43.42833" lon="6.1022">
        <ele>273.60000610352</ele>
        <time>2015-01-28T13:31:16Z</time>
      </trkpt>
      <trkpt lat="43.42832" lon="6.1022">
        <ele>273.79998779297</ele>
        <time>2015-01-28T13:31:21Z</time>
      </trkpt>
      <trkpt lat="43.42832" lon="6.10219">
        <ele>273.79998779297</ele>
        <time>2015-01-28T13:31:32Z</time>
      </trkpt>
      <trkpt lat="43.42831" lon="6.10218">
        <ele>273.79998779297</ele>
        <time>2015-01-28T13:31:33Z</time>
      </trkpt>
      <trkpt lat="43.4283" lon="6.1021">
        <ele>272.60000610352</ele>
        <time>2015-01-28T13:31:36Z</time>
      </trkpt>
      <trkpt lat="43.42829" lon="6.10206">
        <ele>272.20001220703</ele>
        <time>2015-01-28T13:31:37Z</time>
      </trkpt>
      <trkpt lat="43.42831" lon="6.10198">
        <ele>271.60000610352</ele>
        <time>2015-01-28T13:31:40Z</time>
      </trkpt>
      <trkpt lat="43.42833" lon="6.10193">
        <ele>271.39999389648</ele>
        <time>2015-01-28T13:31:42Z</time>
      </trkpt>
      <trkpt lat="43.42835" lon="6.10187">
        <ele>271.60000610352</ele>
        <time>2015-01-28T13:31:48Z</time>
      </trkpt>
      <trkpt lat="43.42834" lon="6.10185">
        <ele>271.60000610352</ele>
        <time>2015-01-28T13:31:51Z</time>
      </trkpt>
      <trkpt lat="43.42833" lon="6.10186">
        <ele>271.79998779297</ele>
        <time>2015-01-28T13:31:53Z</time>
      </trkpt>
      <trkpt lat="43.42833" lon="6.10186">
        <ele>271.79998779297</ele>
        <time>2015-01-28T13:31:59Z</time>
      </trkpt>
      <trkpt lat="43.42833" lon="6.10191">
        <ele>271.20001220703</ele>
        <time>2015-01-28T13:32:09Z</time>
      </trkpt>
      <trkpt lat="43.42832" lon="6.10191">
        <ele>271</ele>
        <time>2015-01-28T13:32:10Z</time>
      </trkpt>
      <trkpt lat="43.4283" lon="6.10204">
        <ele>271.20001220703</ele>
        <time>2015-01-28T13:32:15Z</time>
      </trkpt>
      <trkpt lat="43.42831" lon="6.10212">
        <ele>271.60000610352</ele>
        <time>2015-01-28T13:32:17Z</time>
      </trkpt>
      <trkpt lat="43.42833" lon="6.10216">
        <ele>272.39999389648</ele>
        <time>2015-01-28T13:32:19Z</time>
      </trkpt>
      <trkpt lat="43.42833" lon="6.10217">
        <ele>272.60000610352</ele>
        <time>2015-01-28T13:32:20Z</time>
      </trkpt>
      <trkpt lat="43.42833" lon="6.10216">
        <ele>273.20001220703</ele>
        <time>2015-01-28T13:32:22Z</time>
      </trkpt>
      <trkpt lat="43.42833" lon="6.10216">
        <ele>273.39999389648</ele>
        <time>2015-01-28T13:32:24Z</time>
      </trkpt>
      <trkpt lat="43.42834" lon="6.10216">
        <ele>273.20001220703</ele>
        <time>2015-01-28T13:32:26Z</time>
      </trkpt>
      <trkpt lat="43.42833" lon="6.10216">
        <ele>273.39999389648</ele>
        <time>2015-01-28T13:32:33Z</time>
      </trkpt>
      <trkpt lat="43.42834" lon="6.10218">
        <ele>273.60000610352</ele>
        <time>2015-01-28T13:32:38Z</time>
      </trkpt>
      <trkpt lat="43.42834" lon="6.10219">
        <ele>273.60000610352</ele>
        <time>2015-01-28T13:32:39Z</time>
      </trkpt>
      <trkpt lat="43.42834" lon="6.10219">
        <ele>273.79998779297</ele>
        <time>2015-01-28T13:32:45Z</time>
      </trkpt>
      <trkpt lat="43.42834" lon="6.10219">
        <ele>273.79998779297</ele>
        <time>2015-01-28T13:32:47Z</time>
      </trkpt>
      <trkpt lat="43.42834" lon="6.10218">
        <ele>274</ele>
        <time>2015-01-28T13:32:52Z</time>
      </trkpt>
      <trkpt lat="43.42834" lon="6.10217">
        <ele>273.39999389648</ele>
        <time>2015-01-28T13:32:57Z</time>
      </trkpt>
      <trkpt lat="43.42834" lon="6.10218">
        <ele>273.60000610352</ele>
        <time>2015-01-28T13:32:58Z</time>
      </trkpt>
      <trkpt lat="43.42834" lon="6.10218">
        <ele>273.79998779297</ele>
        <time>2015-01-28T13:33:05Z</time>
      </trkpt>
      <trkpt lat="43.42834" lon="6.10218">
        <ele>274</ele>
        <time>2015-01-28T13:33:09Z</time>
      </trkpt>
      <trkpt lat="43.42834" lon="6.10209">
        <ele>272.20001220703</ele>
        <time>2015-01-28T13:33:14Z</time>
      </trkpt>
      <trkpt lat="43.42835" lon="6.10208">
        <ele>271.79998779297</ele>
        <time>2015-01-28T13:33:15Z</time>
      </trkpt>
      <trkpt lat="43.42835" lon="6.10202">
        <ele>271.39999389648</ele>
        <time>2015-01-28T13:33:18Z</time>
      </trkpt>
      <trkpt lat="43.42837" lon="6.10194">
        <ele>271.20001220703</ele>
        <time>2015-01-28T13:33:21Z</time>
      </trkpt>
      <trkpt lat="43.42838" lon="6.10192">
        <ele>271</ele>
        <time>2015-01-28T13:33:22Z</time>
      </trkpt>
      <trkpt lat="43.42838" lon="6.1019">
        <ele>271</ele>
        <time>2015-01-28T13:33:23Z</time>
      </trkpt>
      <trkpt lat="43.42839" lon="6.10185">
        <ele>271.39999389648</ele>
        <time>2015-01-28T13:33:29Z</time>
      </trkpt>
      <trkpt lat="43.4284" lon="6.10182">
        <ele>271.79998779297</ele>
        <time>2015-01-28T13:33:32Z</time>
      </trkpt>
      <trkpt lat="43.42842" lon="6.10182">
        <ele>271.60000610352</ele>
        <time>2015-01-28T13:33:34Z</time>
      </trkpt>
      <trkpt lat="43.42841" lon="6.10179">
        <ele>271.60000610352</ele>
        <time>2015-01-28T13:33:37Z</time>
      </trkpt>
      <trkpt lat="43.4284" lon="6.1018">
        <ele>271.79998779297</ele>
        <time>2015-01-28T13:33:38Z</time>
      </trkpt>
      <trkpt lat="43.42838" lon="6.10184">
        <ele>271.60000610352</ele>
        <time>2015-01-28T13:33:42Z</time>
      </trkpt>
      <trkpt lat="43.42838" lon="6.10185">
        <ele>271.39999389648</ele>
        <time>2015-01-28T13:33:44Z</time>
      </trkpt>
      <trkpt lat="43.42838" lon="6.10188">
        <ele>271.20001220703</ele>
        <time>2015-01-28T13:33:50Z</time>
      </trkpt>
      <trkpt lat="43.42838" lon="6.10188">
        <ele>271</ele>
        <time>2015-01-28T13:33:56Z</time>
      </trkpt>
      <trkpt lat="43.42837" lon="6.10188">
        <ele>271</ele>
        <time>2015-01-28T13:34:01Z</time>
      </trkpt>
      <trkpt lat="43.42837" lon="6.10188">
        <ele>270.79998779297</ele>
        <time>2015-01-28T13:34:12Z</time>
      </trkpt>
      <trkpt lat="43.42837" lon="6.10188">
        <ele>270.20001220703</ele>
        <time>2015-01-28T13:34:22Z</time>
      </trkpt>
      <trkpt lat="43.42837" lon="6.10188">
        <ele>270.60000610352</ele>
        <time>2015-01-28T13:34:28Z</time>
      </trkpt>
      <trkpt lat="43.42837" lon="6.10188">
        <ele>270.39999389648</ele>
        <time>2015-01-28T13:34:33Z</time>
      </trkpt>
      <trkpt lat="43.42837" lon="6.10188">
        <ele>270.20001220703</ele>
        <time>2015-01-28T13:34:55Z</time>
      </trkpt>
      <trkpt lat="43.42836" lon="6.10191">
        <ele>270.20001220703</ele>
        <time>2015-01-28T13:34:59Z</time>
      </trkpt>
      <trkpt lat="43.42835" lon="6.10192">
        <ele>270.20001220703</ele>
        <time>2015-01-28T13:35:00Z</time>
      </trkpt>
      <trkpt lat="43.42834" lon="6.10198">
        <ele>270.20001220703</ele>
        <time>2015-01-28T13:35:03Z</time>
      </trkpt>
      <trkpt lat="43.42833" lon="6.10206">
        <ele>270</ele>
        <time>2015-01-28T13:35:05Z</time>
      </trkpt>
      <trkpt lat="43.42834" lon="6.10217">
        <ele>271.39999389648</ele>
        <time>2015-01-28T13:35:09Z</time>
      </trkpt>
      <trkpt lat="43.42834" lon="6.10218">
        <ele>271.79998779297</ele>
        <time>2015-01-28T13:35:10Z</time>
      </trkpt>
      <trkpt lat="43.42834" lon="6.10217">
        <ele>271.79998779297</ele>
        <time>2015-01-28T13:35:12Z</time>
      </trkpt>
      <trkpt lat="43.42834" lon="6.10217">
        <ele>271.60000610352</ele>
        <time>2015-01-28T13:35:14Z</time>
      </trkpt>
      <trkpt lat="43.42834" lon="6.10217">
        <ele>271.79998779297</ele>
        <time>2015-01-28T13:35:16Z</time>
      </trkpt>
      <trkpt lat="43.42834" lon="6.10215">
        <ele>271.39999389648</ele>
        <time>2015-01-28T13:35:17Z</time>
      </trkpt>
      <trkpt lat="43.4283" lon="6.10211">
        <ele>270.39999389648</ele>
        <time>2015-01-28T13:35:23Z</time>
      </trkpt>
      <trkpt lat="43.4283" lon="6.1021">
        <ele>270.20001220703</ele>
        <time>2015-01-28T13:35:27Z</time>
      </trkpt>
      <trkpt lat="43.4283" lon="6.1021">
        <ele>270.20001220703</ele>
        <time>2015-01-28T13:35:30Z</time>
      </trkpt>
      <trkpt lat="43.4283" lon="6.1021">
        <ele>270.20001220703</ele>
        <time>2015-01-28T13:35:41Z</time>
      </trkpt>
      <trkpt lat="43.4283" lon="6.10204">
        <ele>269.79998779297</ele>
        <time>2015-01-28T13:35:47Z</time>
      </trkpt>
      <trkpt lat="43.42831" lon="6.10201">
        <ele>270</ele>
        <time>2015-01-28T13:35:53Z</time>
      </trkpt>
      <trkpt lat="43.42831" lon="6.102">
        <ele>269.79998779297</ele>
        <time>2015-01-28T13:35:57Z</time>
      </trkpt>
      <trkpt lat="43.42831" lon="6.102">
        <ele>269.60000610352</ele>
        <time>2015-01-28T13:36:04Z</time>
      </trkpt>
      <trkpt lat="43.42835" lon="6.10193">
        <ele>269.79998779297</ele>
        <time>2015-01-28T13:36:10Z</time>
      </trkpt>
      <trkpt lat="43.42837" lon="6.10187">
        <ele>270.20001220703</ele>
        <time>2015-01-28T13:36:14Z</time>
      </trkpt>
      <trkpt lat="43.42835" lon="6.10186">
        <ele>270.39999389648</ele>
        <time>2015-01-28T13:36:17Z</time>
      </trkpt>
      <trkpt lat="43.42834" lon="6.10186">
        <ele>270.39999389648</ele>
        <time>2015-01-28T13:36:21Z</time>
      </trkpt>
      <trkpt lat="43.42834" lon="6.10186">
        <ele>270.20001220703</ele>
        <time>2015-01-28T13:36:36Z</time>
      </trkpt>
      <trkpt lat="43.42833" lon="6.10192">
        <ele>270</ele>
        <time>2015-01-28T13:36:47Z</time>
      </trkpt>
      <trkpt lat="43.42831" lon="6.10205">
        <ele>270</ele>
        <time>2015-01-28T13:36:51Z</time>
      </trkpt>
      <trkpt lat="43.42834" lon="6.10218">
        <ele>271.39999389648</ele>
        <time>2015-01-28T13:36:55Z</time>
      </trkpt>
      <trkpt lat="43.42834" lon="6.10219">
        <ele>271.79998779297</ele>
        <time>2015-01-28T13:36:56Z</time>
      </trkpt>
      <trkpt lat="43.42835" lon="6.10222">
        <ele>272.20001220703</ele>
        <time>2015-01-28T13:36:58Z</time>
      </trkpt>
      <trkpt lat="43.42835" lon="6.10226">
        <ele>272.20001220703</ele>
        <time>2015-01-28T13:37:00Z</time>
      </trkpt>
      <trkpt lat="43.42836" lon="6.10228">
        <ele>272.20001220703</ele>
        <time>2015-01-28T13:37:01Z</time>
      </trkpt>
      <trkpt lat="43.42838" lon="6.10234">
        <ele>271.79998779297</ele>
        <time>2015-01-28T13:37:05Z</time>
      </trkpt>
      <trkpt lat="43.4284" lon="6.10232">
        <ele>272</ele>
        <time>2015-01-28T13:37:07Z</time>
      </trkpt>
      <trkpt lat="43.42838" lon="6.10229">
        <ele>272</ele>
        <time>2015-01-28T13:37:10Z</time>
      </trkpt>
      <trkpt lat="43.42836" lon="6.10228">
        <ele>271.79998779297</ele>
        <time>2015-01-28T13:37:11Z</time>
      </trkpt>
      <trkpt lat="43.42835" lon="6.10223">
        <ele>272.20001220703</ele>
        <time>2015-01-28T13:37:14Z</time>
      </trkpt>
      <trkpt lat="43.42835" lon="6.10221">
        <ele>272.39999389648</ele>
        <time>2015-01-28T13:37:16Z</time>
      </trkpt>
      <trkpt lat="43.42836" lon="6.10221">
        <ele>271.39999389648</ele>
        <time>2015-01-28T13:37:22Z</time>
      </trkpt>
      <trkpt lat="43.42835" lon="6.1022">
        <ele>271.60000610352</ele>
        <time>2015-01-28T13:37:34Z</time>
      </trkpt>
      <trkpt lat="43.42835" lon="6.1022">
        <ele>272</ele>
        <time>2015-01-28T13:37:37Z</time>
      </trkpt>
      <trkpt lat="43.42836" lon="6.10221">
        <ele>271.79998779297</ele>
        <time>2015-01-28T13:37:46Z</time>
      </trkpt>
      <trkpt lat="43.42836" lon="6.1022">
        <ele>271.79998779297</ele>
        <time>2015-01-28T13:37:51Z</time>
      </trkpt>
      <trkpt lat="43.42835" lon="6.10221">
        <ele>271.79998779297</ele>
        <time>2015-01-28T13:37:52Z</time>
      </trkpt>
      <trkpt lat="43.42835" lon="6.10221">
        <ele>272</ele>
        <time>2015-01-28T13:37:58Z</time>
      </trkpt>
      <trkpt lat="43.42835" lon="6.1022">
        <ele>272</ele>
        <time>2015-01-28T13:38:04Z</time>
      </trkpt>
      <trkpt lat="43.42836" lon="6.10221">
        <ele>272</ele>
        <time>2015-01-28T13:38:08Z</time>
      </trkpt>
      <trkpt lat="43.42836" lon="6.1022">
        <ele>272.20001220703</ele>
        <time>2015-01-28T13:38:11Z</time>
      </trkpt>
      <trkpt lat="43.42836" lon="6.1022">
        <ele>272</ele>
        <time>2015-01-28T13:38:14Z</time>
      </trkpt>
      <trkpt lat="43.42836" lon="6.1022">
        <ele>271.79998779297</ele>
        <time>2015-01-28T13:38:17Z</time>
      </trkpt>
      <trkpt lat="43.42836" lon="6.1022">
        <ele>271.20001220703</ele>
        <time>2015-01-28T13:38:22Z</time>
      </trkpt>
      <trkpt lat="43.42836" lon="6.1022">
        <ele>271.79998779297</ele>
        <time>2015-01-28T13:38:26Z</time>
      </trkpt>
      <trkpt lat="43.42836" lon="6.1022">
        <ele>272</ele>
        <time>2015-01-28T13:38:36Z</time>
      </trkpt>
      <trkpt lat="43.42836" lon="6.1022">
        <ele>271.79998779297</ele>
        <time>2015-01-28T13:38:41Z</time>
      </trkpt>
      <trkpt lat="43.42836" lon="6.1022">
        <ele>271.60000610352</ele>
        <time>2015-01-28T13:38:48Z</time>
      </trkpt>
      <trkpt lat="43.42835" lon="6.1022">
        <ele>271.79998779297</ele>
        <time>2015-01-28T13:38:58Z</time>
      </trkpt>
      <trkpt lat="43.42835" lon="6.1022">
        <ele>271.79998779297</ele>
        <time>2015-01-28T13:39:03Z</time>
      </trkpt>
      <trkpt lat="43.42834" lon="6.10217">
        <ele>271.79998779297</ele>
        <time>2015-01-28T13:39:07Z</time>
      </trkpt>
      <trkpt lat="43.42834" lon="6.10215">
        <ele>271.20001220703</ele>
        <time>2015-01-28T13:39:08Z</time>
      </trkpt>
      <trkpt lat="43.42832" lon="6.10207">
        <ele>270</ele>
        <time>2015-01-28T13:39:11Z</time>
      </trkpt>
      <trkpt lat="43.42832" lon="6.10206">
        <ele>269.79998779297</ele>
        <time>2015-01-28T13:39:12Z</time>
      </trkpt>
      <trkpt lat="43.42832" lon="6.10199">
        <ele>269</ele>
        <time>2015-01-28T13:39:17Z</time>
      </trkpt>
      <trkpt lat="43.42831" lon="6.10199">
        <ele>269</ele>
        <time>2015-01-28T13:39:18Z</time>
      </trkpt>
      <trkpt lat="43.42831" lon="6.102">
        <ele>269</ele>
        <time>2015-01-28T13:39:19Z</time>
      </trkpt>
      <trkpt lat="43.4283" lon="6.102">
        <ele>268.79998779297</ele>
        <time>2015-01-28T13:39:22Z</time>
      </trkpt>
      <trkpt lat="43.42831" lon="6.102">
        <ele>268.79998779297</ele>
        <time>2015-01-28T13:39:25Z</time>
      </trkpt>
      <trkpt lat="43.4283" lon="6.10201">
        <ele>269.20001220703</ele>
        <time>2015-01-28T13:39:35Z</time>
      </trkpt>
      <trkpt lat="43.42827" lon="6.10208">
        <ele>269</ele>
        <time>2015-01-28T13:39:41Z</time>
      </trkpt>
      <trkpt lat="43.42826" lon="6.1021">
        <ele>269</ele>
        <time>2015-01-28T13:39:42Z</time>
      </trkpt>
      <trkpt lat="43.42823" lon="6.10214">
        <ele>269.20001220703</ele>
        <time>2015-01-28T13:39:45Z</time>
      </trkpt>
      <trkpt lat="43.42819" lon="6.10223">
        <ele>269.39999389648</ele>
        <time>2015-01-28T13:39:50Z</time>
      </trkpt>
      <trkpt lat="43.42818" lon="6.10224">
        <ele>269.39999389648</ele>
        <time>2015-01-28T13:39:51Z</time>
      </trkpt>
      <trkpt lat="43.4281" lon="6.10233">
        <ele>269.39999389648</ele>
        <time>2015-01-28T13:39:56Z</time>
      </trkpt>
      <trkpt lat="43.42804" lon="6.10244">
        <ele>270</ele>
        <time>2015-01-28T13:40:01Z</time>
      </trkpt>
      <trkpt lat="43.42803" lon="6.10246">
        <ele>270.20001220703</ele>
        <time>2015-01-28T13:40:02Z</time>
      </trkpt>
      <trkpt lat="43.42802" lon="6.10248">
        <ele>270.39999389648</ele>
        <time>2015-01-28T13:40:03Z</time>
      </trkpt>
      <trkpt lat="43.42798" lon="6.10262">
        <ele>270.39999389648</ele>
        <time>2015-01-28T13:40:08Z</time>
      </trkpt>
      <trkpt lat="43.42796" lon="6.10286">
        <ele>270.20001220703</ele>
        <time>2015-01-28T13:40:15Z</time>
      </trkpt>
      <trkpt lat="43.42787" lon="6.10304">
        <ele>270.39999389648</ele>
        <time>2015-01-28T13:40:22Z</time>
      </trkpt>
      <trkpt lat="43.4278" lon="6.10315">
        <ele>270.60000610352</ele>
        <time>2015-01-28T13:40:27Z</time>
      </trkpt>
      <trkpt lat="43.42775" lon="6.10323">
        <ele>271.79998779297</ele>
        <time>2015-01-28T13:40:31Z</time>
      </trkpt>
      <trkpt lat="43.42773" lon="6.10331">
        <ele>272.60000610352</ele>
        <time>2015-01-28T13:40:35Z</time>
      </trkpt>
      <trkpt lat="43.42773" lon="6.10338">
        <ele>273</ele>
        <time>2015-01-28T13:40:38Z</time>
      </trkpt>
      <trkpt lat="43.42774" lon="6.10347">
        <ele>274.39999389648</ele>
        <time>2015-01-28T13:40:42Z</time>
      </trkpt>
      <trkpt lat="43.42774" lon="6.1036">
        <ele>274.60000610352</ele>
        <time>2015-01-28T13:40:47Z</time>
      </trkpt>
      <trkpt lat="43.42776" lon="6.10377">
        <ele>275</ele>
        <time>2015-01-28T13:40:54Z</time>
      </trkpt>
      <trkpt lat="43.42779" lon="6.10384">
        <ele>275.39999389648</ele>
        <time>2015-01-28T13:40:57Z</time>
      </trkpt>
      <trkpt lat="43.42785" lon="6.10395">
        <ele>275.60000610352</ele>
        <time>2015-01-28T13:41:02Z</time>
      </trkpt>
      <trkpt lat="43.42791" lon="6.10409">
        <ele>276.60000610352</ele>
        <time>2015-01-28T13:41:08Z</time>
      </trkpt>
      <trkpt lat="43.42791" lon="6.10411">
        <ele>276.79998779297</ele>
        <time>2015-01-28T13:41:09Z</time>
      </trkpt>
      <trkpt lat="43.42794" lon="6.10423">
        <ele>277.79998779297</ele>
        <time>2015-01-28T13:41:14Z</time>
      </trkpt>
      <trkpt lat="43.42795" lon="6.10431">
        <ele>278.39999389648</ele>
        <time>2015-01-28T13:41:18Z</time>
      </trkpt>
      <trkpt lat="43.42797" lon="6.10441">
        <ele>278.79998779297</ele>
        <time>2015-01-28T13:41:22Z</time>
      </trkpt>
      <trkpt lat="43.42799" lon="6.1045">
        <ele>279.39999389648</ele>
        <time>2015-01-28T13:41:26Z</time>
      </trkpt>
      <trkpt lat="43.42801" lon="6.10459">
        <ele>280</ele>
        <time>2015-01-28T13:41:30Z</time>
      </trkpt>
      <trkpt lat="43.42803" lon="6.10467">
        <ele>280</ele>
        <time>2015-01-28T13:41:33Z</time>
      </trkpt>
      <trkpt lat="43.42804" lon="6.10476">
        <ele>279.79998779297</ele>
        <time>2015-01-28T13:41:36Z</time>
      </trkpt>
      <trkpt lat="43.42805" lon="6.10483">
        <ele>279.39999389648</ele>
        <time>2015-01-28T13:41:39Z</time>
      </trkpt>
      <trkpt lat="43.42805" lon="6.10485">
        <ele>279.20001220703</ele>
        <time>2015-01-28T13:41:40Z</time>
      </trkpt>
      <trkpt lat="43.42805" lon="6.10486">
        <ele>278.79998779297</ele>
        <time>2015-01-28T13:41:43Z</time>
      </trkpt>
      <trkpt lat="43.42805" lon="6.10486">
        <ele>279</ele>
        <time>2015-01-28T13:41:46Z</time>
      </trkpt>
      <trkpt lat="43.42805" lon="6.10486">
        <ele>279</ele>
        <time>2015-01-28T13:41:51Z</time>
      </trkpt>
      <trkpt lat="43.42805" lon="6.10486">
        <ele>279</ele>
        <time>2015-01-28T13:41:57Z</time>
      </trkpt>
      <trkpt lat="43.42805" lon="6.10486">
        <ele>279.20001220703</ele>
        <time>2015-01-28T13:41:59Z</time>
      </trkpt>
      <trkpt lat="43.42805" lon="6.10486">
        <ele>278.79998779297</ele>
        <time>2015-01-28T13:42:06Z</time>
      </trkpt>
      <trkpt lat="43.42805" lon="6.10486">
        <ele>278.79998779297</ele>
        <time>2015-01-28T13:42:15Z</time>
      </trkpt>
      <trkpt lat="43.42807" lon="6.10488">
        <ele>279</ele>
        <time>2015-01-28T13:42:19Z</time>
      </trkpt>
      <trkpt lat="43.42809" lon="6.10489">
        <ele>278.79998779297</ele>
        <time>2015-01-28T13:42:20Z</time>
      </trkpt>
      <trkpt lat="43.42822" lon="6.10497">
        <ele>277.79998779297</ele>
        <time>2015-01-28T13:42:24Z</time>
      </trkpt>
      <trkpt lat="43.42826" lon="6.10498">
        <ele>277.20001220703</ele>
        <time>2015-01-28T13:42:25Z</time>
      </trkpt>
      <trkpt lat="43.42831" lon="6.10499">
        <ele>276.60000610352</ele>
        <time>2015-01-28T13:42:26Z</time>
      </trkpt>
      <trkpt lat="43.42835" lon="6.10502">
        <ele>276.60000610352</ele>
        <time>2015-01-28T13:42:27Z</time>
      </trkpt>
      <trkpt lat="43.42839" lon="6.10506">
        <ele>276.60000610352</ele>
        <time>2015-01-28T13:42:28Z</time>
      </trkpt>
      <trkpt lat="43.42848" lon="6.10515">
        <ele>275.60000610352</ele>
        <time>2015-01-28T13:42:30Z</time>
      </trkpt>
      <trkpt lat="43.42856" lon="6.10528">
        <ele>274.60000610352</ele>
        <time>2015-01-28T13:42:32Z</time>
      </trkpt>
      <trkpt lat="43.42859" lon="6.10535">
        <ele>273.79998779297</ele>
        <time>2015-01-28T13:42:33Z</time>
      </trkpt>
      <trkpt lat="43.42864" lon="6.10549">
        <ele>273</ele>
        <time>2015-01-28T13:42:35Z</time>
      </trkpt>
      <trkpt lat="43.42866" lon="6.10556">
        <ele>271.79998779297</ele>
        <time>2015-01-28T13:42:36Z</time>
      </trkpt>
      <trkpt lat="43.42868" lon="6.10564">
        <ele>271.39999389648</ele>
        <time>2015-01-28T13:42:37Z</time>
      </trkpt>
      <trkpt lat="43.42869" lon="6.10571">
        <ele>271.39999389648</ele>
        <time>2015-01-28T13:42:38Z</time>
      </trkpt>
      <trkpt lat="43.42873" lon="6.106">
        <ele>270</ele>
        <time>2015-01-28T13:42:42Z</time>
      </trkpt>
      <trkpt lat="43.42875" lon="6.10607">
        <ele>269.79998779297</ele>
        <time>2015-01-28T13:42:43Z</time>
      </trkpt>
      <trkpt lat="43.42876" lon="6.10613">
        <ele>270.20001220703</ele>
        <time>2015-01-28T13:42:44Z</time>
      </trkpt>
      <trkpt lat="43.42888" lon="6.10632">
        <ele>269.60000610352</ele>
        <time>2015-01-28T13:42:48Z</time>
      </trkpt>
      <trkpt lat="43.42892" lon="6.10636">
        <ele>269.39999389648</ele>
        <time>2015-01-28T13:42:49Z</time>
      </trkpt>
      <trkpt lat="43.42911" lon="6.10649">
        <ele>269.20001220703</ele>
        <time>2015-01-28T13:42:54Z</time>
      </trkpt>
      <trkpt lat="43.42915" lon="6.10651">
        <ele>269.20001220703</ele>
        <time>2015-01-28T13:42:55Z</time>
      </trkpt>
      <trkpt lat="43.4292" lon="6.10652">
        <ele>269</ele>
        <time>2015-01-28T13:42:56Z</time>
      </trkpt>
      <trkpt lat="43.4293" lon="6.10653">
        <ele>269</ele>
        <time>2015-01-28T13:42:59Z</time>
      </trkpt>
      <trkpt lat="43.42937" lon="6.10653">
        <ele>270</ele>
        <time>2015-01-28T13:43:01Z</time>
      </trkpt>
      <trkpt lat="43.42958" lon="6.10652">
        <ele>270.39999389648</ele>
        <time>2015-01-28T13:43:09Z</time>
      </trkpt>
      <trkpt lat="43.42966" lon="6.10652">
        <ele>270.79998779297</ele>
        <time>2015-01-28T13:43:12Z</time>
      </trkpt>
      <trkpt lat="43.42979" lon="6.10653">
        <ele>270.79998779297</ele>
        <time>2015-01-28T13:43:17Z</time>
      </trkpt>
      <trkpt lat="43.42984" lon="6.10653">
        <ele>271.20001220703</ele>
        <time>2015-01-28T13:43:19Z</time>
      </trkpt>
      <trkpt lat="43.4299" lon="6.10653">
        <ele>271.60000610352</ele>
        <time>2015-01-28T13:43:22Z</time>
      </trkpt>
      <trkpt lat="43.42992" lon="6.10654">
        <ele>271.60000610352</ele>
        <time>2015-01-28T13:43:23Z</time>
      </trkpt>
      <trkpt lat="43.42994" lon="6.10653">
        <ele>271.79998779297</ele>
        <time>2015-01-28T13:43:24Z</time>
      </trkpt>
      <trkpt lat="43.42998" lon="6.10654">
        <ele>272.20001220703</ele>
        <time>2015-01-28T13:43:26Z</time>
      </trkpt>
      <trkpt lat="43.43008" lon="6.10657">
        <ele>272.60000610352</ele>
        <time>2015-01-28T13:43:31Z</time>
      </trkpt>
      <trkpt lat="43.4301" lon="6.10657">
        <ele>272.60000610352</ele>
        <time>2015-01-28T13:43:32Z</time>
      </trkpt>
      <trkpt lat="43.43027" lon="6.10665">
        <ele>273.60000610352</ele>
        <time>2015-01-28T13:43:42Z</time>
      </trkpt>
      <trkpt lat="43.43026" lon="6.10678">
        <ele>274</ele>
        <time>2015-01-28T13:43:47Z</time>
      </trkpt>
      <trkpt lat="43.43019" lon="6.10685">
        <ele>274</ele>
        <time>2015-01-28T13:43:52Z</time>
      </trkpt>
      <trkpt lat="43.43011" lon="6.10686">
        <ele>273.39999389648</ele>
        <time>2015-01-28T13:43:57Z</time>
      </trkpt>
      <trkpt lat="43.43009" lon="6.10684">
        <ele>273.39999389648</ele>
        <time>2015-01-28T13:43:58Z</time>
      </trkpt>
      <trkpt lat="43.43007" lon="6.1067">
        <ele>273.39999389648</ele>
        <time>2015-01-28T13:44:01Z</time>
      </trkpt>
      <trkpt lat="43.43004" lon="6.10667">
        <ele>272.79998779297</ele>
        <time>2015-01-28T13:44:02Z</time>
      </trkpt>
      <trkpt lat="43.43001" lon="6.10667">
        <ele>272.39999389648</ele>
        <time>2015-01-28T13:44:03Z</time>
      </trkpt>
      <trkpt lat="43.42998" lon="6.1067">
        <ele>272.39999389648</ele>
        <time>2015-01-28T13:44:04Z</time>
      </trkpt>
      <trkpt lat="43.42997" lon="6.10685">
        <ele>272</ele>
        <time>2015-01-28T13:44:07Z</time>
      </trkpt>
      <trkpt lat="43.43" lon="6.10701">
        <ele>272.60000610352</ele>
        <time>2015-01-28T13:44:10Z</time>
      </trkpt>
      <trkpt lat="43.43001" lon="6.10712">
        <ele>271.79998779297</ele>
        <time>2015-01-28T13:44:12Z</time>
      </trkpt>
      <trkpt lat="43.42999" lon="6.10717">
        <ele>271.60000610352</ele>
        <time>2015-01-28T13:44:13Z</time>
      </trkpt>
      <trkpt lat="43.42986" lon="6.10718">
        <ele>271.39999389648</ele>
        <time>2015-01-28T13:44:16Z</time>
      </trkpt>
      <trkpt lat="43.42974" lon="6.10716">
        <ele>271.39999389648</ele>
        <time>2015-01-28T13:44:19Z</time>
      </trkpt>
      <trkpt lat="43.42971" lon="6.10712">
        <ele>271.20001220703</ele>
        <time>2015-01-28T13:44:20Z</time>
      </trkpt>
      <trkpt lat="43.4297" lon="6.10708">
        <ele>271</ele>
        <time>2015-01-28T13:44:21Z</time>
      </trkpt>
      <trkpt lat="43.4297" lon="6.10704">
        <ele>270.39999389648</ele>
        <time>2015-01-28T13:44:24Z</time>
      </trkpt>
      <trkpt lat="43.4297" lon="6.10702">
        <ele>270.39999389648</ele>
        <time>2015-01-28T13:44:26Z</time>
      </trkpt>
      <trkpt lat="43.42973" lon="6.10696">
        <ele>270.79998779297</ele>
        <time>2015-01-28T13:44:29Z</time>
      </trkpt>
      <trkpt lat="43.42971" lon="6.10686">
        <ele>271.39999389648</ele>
        <time>2015-01-28T13:44:33Z</time>
      </trkpt>
      <trkpt lat="43.4296" lon="6.1069">
        <ele>270.60000610352</ele>
        <time>2015-01-28T13:44:36Z</time>
      </trkpt>
      <trkpt lat="43.42947" lon="6.10684">
        <ele>271</ele>
        <time>2015-01-28T13:44:40Z</time>
      </trkpt>
      <trkpt lat="43.42949" lon="6.10676">
        <ele>270.79998779297</ele>
        <time>2015-01-28T13:44:43Z</time>
      </trkpt>
      <trkpt lat="43.42957" lon="6.10668">
        <ele>270.39999389648</ele>
        <time>2015-01-28T13:44:47Z</time>
      </trkpt>
      <trkpt lat="43.42959" lon="6.10666">
        <ele>270.20001220703</ele>
        <time>2015-01-28T13:44:48Z</time>
      </trkpt>
      <trkpt lat="43.4297" lon="6.10663">
        <ele>271</ele>
        <time>2015-01-28T13:44:53Z</time>
      </trkpt>
      <trkpt lat="43.42977" lon="6.1066">
        <ele>271.60000610352</ele>
        <time>2015-01-28T13:44:57Z</time>
      </trkpt>
      <trkpt lat="43.42978" lon="6.10658">
        <ele>271.79998779297</ele>
        <time>2015-01-28T13:44:58Z</time>
      </trkpt>
      <trkpt lat="43.42979" lon="6.10656">
        <ele>271.60000610352</ele>
        <time>2015-01-28T13:44:59Z</time>
      </trkpt>
      <trkpt lat="43.42982" lon="6.10652">
        <ele>272.20001220703</ele>
        <time>2015-01-28T13:45:02Z</time>
      </trkpt>
      <trkpt lat="43.42984" lon="6.10652">
        <ele>272</ele>
        <time>2015-01-28T13:45:04Z</time>
      </trkpt>
      <trkpt lat="43.42987" lon="6.10653">
        <ele>272.39999389648</ele>
        <time>2015-01-28T13:45:07Z</time>
      </trkpt>
      <trkpt lat="43.42994" lon="6.10655">
        <ele>273</ele>
        <time>2015-01-28T13:45:12Z</time>
      </trkpt>
      <trkpt lat="43.43002" lon="6.10654">
        <ele>273</ele>
        <time>2015-01-28T13:45:19Z</time>
      </trkpt>
      <trkpt lat="43.4301" lon="6.10654">
        <ele>273.20001220703</ele>
        <time>2015-01-28T13:45:25Z</time>
      </trkpt>
      <trkpt lat="43.43012" lon="6.10655">
        <ele>273.39999389648</ele>
        <time>2015-01-28T13:45:27Z</time>
      </trkpt>
      <trkpt lat="43.4302" lon="6.10656">
        <ele>274</ele>
        <time>2015-01-28T13:45:34Z</time>
      </trkpt>
      <trkpt lat="43.43021" lon="6.10656">
        <ele>274.20001220703</ele>
        <time>2015-01-28T13:45:35Z</time>
      </trkpt>
      <trkpt lat="43.43023" lon="6.10657">
        <ele>274.20001220703</ele>
        <time>2015-01-28T13:45:37Z</time>
      </trkpt>
      <trkpt lat="43.43025" lon="6.10658">
        <ele>274.60000610352</ele>
        <time>2015-01-28T13:45:41Z</time>
      </trkpt>
      <trkpt lat="43.43025" lon="6.10658">
        <ele>274.20001220703</ele>
        <time>2015-01-28T13:45:45Z</time>
      </trkpt>
      <trkpt lat="43.43025" lon="6.10657">
        <ele>274.20001220703</ele>
        <time>2015-01-28T13:45:49Z</time>
      </trkpt>
      <trkpt lat="43.43025" lon="6.10657">
        <ele>274.20001220703</ele>
        <time>2015-01-28T13:45:52Z</time>
      </trkpt>
      <trkpt lat="43.43025" lon="6.10658">
        <ele>274</ele>
        <time>2015-01-28T13:46:05Z</time>
      </trkpt>
      <trkpt lat="43.43025" lon="6.10658">
        <ele>274.20001220703</ele>
        <time>2015-01-28T13:46:07Z</time>
      </trkpt>
      <trkpt lat="43.43025" lon="6.10658">
        <ele>274.39999389648</ele>
        <time>2015-01-28T13:46:11Z</time>
      </trkpt>
      <trkpt lat="43.43025" lon="6.10658">
        <ele>274.20001220703</ele>
        <time>2015-01-28T13:46:15Z</time>
      </trkpt>
      <trkpt lat="43.43025" lon="6.10658">
        <ele>274.20001220703</ele>
        <time>2015-01-28T13:46:19Z</time>
      </trkpt>
      <trkpt lat="43.43025" lon="6.10658">
        <ele>274.39999389648</ele>
        <time>2015-01-28T13:46:23Z</time>
      </trkpt>
      <trkpt lat="43.43025" lon="6.10657">
        <ele>274.20001220703</ele>
        <time>2015-01-28T13:46:34Z</time>
      </trkpt>
      <trkpt lat="43.43025" lon="6.10657">
        <ele>274.60000610352</ele>
        <time>2015-01-28T13:46:52Z</time>
      </trkpt>
      <trkpt lat="43.43025" lon="6.10657">
        <ele>274.60000610352</ele>
        <time>2015-01-28T13:46:58Z</time>
      </trkpt>
      <trkpt lat="43.43025" lon="6.10657">
        <ele>274.60000610352</ele>
        <time>2015-01-28T13:47:23Z</time>
      </trkpt>
      <trkpt lat="43.43026" lon="6.10658">
        <ele>274.20001220703</ele>
        <time>2015-01-28T13:47:32Z</time>
      </trkpt>
      <trkpt lat="43.43029" lon="6.10661">
        <ele>274.39999389648</ele>
        <time>2015-01-28T13:47:35Z</time>
      </trkpt>
      <trkpt lat="43.43032" lon="6.10666">
        <ele>275</ele>
        <time>2015-01-28T13:47:38Z</time>
      </trkpt>
      <trkpt lat="43.43033" lon="6.10671">
        <ele>275.39999389648</ele>
        <time>2015-01-28T13:47:40Z</time>
      </trkpt>
      <trkpt lat="43.4303" lon="6.10678">
        <ele>275.39999389648</ele>
        <time>2015-01-28T13:47:43Z</time>
      </trkpt>
      <trkpt lat="43.4302" lon="6.10684">
        <ele>275.39999389648</ele>
        <time>2015-01-28T13:47:47Z</time>
      </trkpt>
      <trkpt lat="43.43008" lon="6.10681">
        <ele>274.20001220703</ele>
        <time>2015-01-28T13:47:51Z</time>
      </trkpt>
      <trkpt lat="43.43007" lon="6.10676">
        <ele>273.79998779297</ele>
        <time>2015-01-28T13:47:52Z</time>
      </trkpt>
      <trkpt lat="43.43005" lon="6.10667">
        <ele>273.60000610352</ele>
        <time>2015-01-28T13:47:54Z</time>
      </trkpt>
      <trkpt lat="43.42998" lon="6.10667">
        <ele>273.20001220703</ele>
        <time>2015-01-28T13:47:56Z</time>
      </trkpt>
      <trkpt lat="43.42996" lon="6.10683">
        <ele>273.39999389648</ele>
        <time>2015-01-28T13:47:59Z</time>
      </trkpt>
      <trkpt lat="43.42998" lon="6.10694">
        <ele>273.39999389648</ele>
        <time>2015-01-28T13:48:01Z</time>
      </trkpt>
      <trkpt lat="43.43001" lon="6.10706">
        <ele>273</ele>
        <time>2015-01-28T13:48:03Z</time>
      </trkpt>
      <trkpt lat="43.43" lon="6.10711">
        <ele>272.79998779297</ele>
        <time>2015-01-28T13:48:04Z</time>
      </trkpt>
      <trkpt lat="43.42989" lon="6.10718">
        <ele>272.60000610352</ele>
        <time>2015-01-28T13:48:07Z</time>
      </trkpt>
      <trkpt lat="43.42974" lon="6.10716">
        <ele>271.79998779297</ele>
        <time>2015-01-28T13:48:10Z</time>
      </trkpt>
      <trkpt lat="43.4297" lon="6.10713">
        <ele>271.79998779297</ele>
        <time>2015-01-28T13:48:11Z</time>
      </trkpt>
      <trkpt lat="43.42969" lon="6.10708">
        <ele>272</ele>
        <time>2015-01-28T13:48:12Z</time>
      </trkpt>
      <trkpt lat="43.42974" lon="6.10696">
        <ele>272.60000610352</ele>
        <time>2015-01-28T13:48:15Z</time>
      </trkpt>
      <trkpt lat="43.4297" lon="6.10687">
        <ele>272.39999389648</ele>
        <time>2015-01-28T13:48:18Z</time>
      </trkpt>
      <trkpt lat="43.42957" lon="6.10691">
        <ele>271.79998779297</ele>
        <time>2015-01-28T13:48:21Z</time>
      </trkpt>
      <trkpt lat="43.42947" lon="6.10687">
        <ele>272.20001220703</ele>
        <time>2015-01-28T13:48:23Z</time>
      </trkpt>
      <trkpt lat="43.42946" lon="6.10682">
        <ele>272.39999389648</ele>
        <time>2015-01-28T13:48:24Z</time>
      </trkpt>
      <trkpt lat="43.4295" lon="6.10674">
        <ele>272.39999389648</ele>
        <time>2015-01-28T13:48:26Z</time>
      </trkpt>
      <trkpt lat="43.42963" lon="6.10665">
        <ele>272.20001220703</ele>
        <time>2015-01-28T13:48:30Z</time>
      </trkpt>
      <trkpt lat="43.42971" lon="6.10663">
        <ele>272.39999389648</ele>
        <time>2015-01-28T13:48:32Z</time>
      </trkpt>
      <trkpt lat="43.42979" lon="6.10657">
        <ele>272.39999389648</ele>
        <time>2015-01-28T13:48:35Z</time>
      </trkpt>
      <trkpt lat="43.4298" lon="6.10656">
        <ele>272.79998779297</ele>
        <time>2015-01-28T13:48:36Z</time>
      </trkpt>
      <trkpt lat="43.42988" lon="6.10652">
        <ele>273</ele>
        <time>2015-01-28T13:48:41Z</time>
      </trkpt>
      <trkpt lat="43.42991" lon="6.10652">
        <ele>273.60000610352</ele>
        <time>2015-01-28T13:48:43Z</time>
      </trkpt>
      <trkpt lat="43.43" lon="6.10654">
        <ele>274</ele>
        <time>2015-01-28T13:48:48Z</time>
      </trkpt>
      <trkpt lat="43.43002" lon="6.10654">
        <ele>274</ele>
        <time>2015-01-28T13:48:49Z</time>
      </trkpt>
      <trkpt lat="43.43013" lon="6.10655">
        <ele>274.39999389648</ele>
        <time>2015-01-28T13:48:56Z</time>
      </trkpt>
      <trkpt lat="43.4302" lon="6.10654">
        <ele>274.79998779297</ele>
        <time>2015-01-28T13:49:03Z</time>
      </trkpt>
      <trkpt lat="43.4302" lon="6.10653">
        <ele>275</ele>
        <time>2015-01-28T13:49:08Z</time>
      </trkpt>
      <trkpt lat="43.4302" lon="6.10653">
        <ele>275.20001220703</ele>
        <time>2015-01-28T13:49:13Z</time>
      </trkpt>
      <trkpt lat="43.4302" lon="6.10653">
        <ele>274.39999389648</ele>
        <time>2015-01-28T13:49:23Z</time>
      </trkpt>
      <trkpt lat="43.4302" lon="6.10653">
        <ele>274.39999389648</ele>
        <time>2015-01-28T13:49:31Z</time>
      </trkpt>
      <trkpt lat="43.4302" lon="6.10653">
        <ele>274.39999389648</ele>
        <time>2015-01-28T13:49:38Z</time>
      </trkpt>
      <trkpt lat="43.4302" lon="6.10653">
        <ele>274.39999389648</ele>
        <time>2015-01-28T13:49:40Z</time>
      </trkpt>
      <trkpt lat="43.4302" lon="6.10653">
        <ele>274.39999389648</ele>
        <time>2015-01-28T13:49:42Z</time>
      </trkpt>
      <trkpt lat="43.4302" lon="6.10653">
        <ele>274.79998779297</ele>
        <time>2015-01-28T13:49:46Z</time>
      </trkpt>
      <trkpt lat="43.4302" lon="6.10653">
        <ele>274.79998779297</ele>
        <time>2015-01-28T13:49:48Z</time>
      </trkpt>
      <trkpt lat="43.4302" lon="6.10652">
        <ele>274.79998779297</ele>
        <time>2015-01-28T13:49:56Z</time>
      </trkpt>
      <trkpt lat="43.4302" lon="6.10652">
        <ele>274.60000610352</ele>
        <time>2015-01-28T13:50:01Z</time>
      </trkpt>
      <trkpt lat="43.4302" lon="6.10652">
        <ele>274.60000610352</ele>
        <time>2015-01-28T13:50:06Z</time>
      </trkpt>
      <trkpt lat="43.4302" lon="6.10653">
        <ele>274.39999389648</ele>
        <time>2015-01-28T13:50:09Z</time>
      </trkpt>
      <trkpt lat="43.4302" lon="6.10653">
        <ele>274.60000610352</ele>
        <time>2015-01-28T13:50:16Z</time>
      </trkpt>
      <trkpt lat="43.4302" lon="6.10653">
        <ele>274.20001220703</ele>
        <time>2015-01-28T13:50:31Z</time>
      </trkpt>
      <trkpt lat="43.4302" lon="6.10653">
        <ele>274.39999389648</ele>
        <time>2015-01-28T13:50:41Z</time>
      </trkpt>
      <trkpt lat="43.4302" lon="6.10653">
        <ele>273.79998779297</ele>
        <time>2015-01-28T13:51:15Z</time>
      </trkpt>
      <trkpt lat="43.4302" lon="6.10653">
        <ele>274.20001220703</ele>
        <time>2015-01-28T13:51:45Z</time>
      </trkpt>
      <trkpt lat="43.4302" lon="6.10653">
        <ele>274</ele>
        <time>2015-01-28T13:51:55Z</time>
      </trkpt>
      <trkpt lat="43.4302" lon="6.10653">
        <ele>274.39999389648</ele>
        <time>2015-01-28T13:52:03Z</time>
      </trkpt>
      <trkpt lat="43.4302" lon="6.10653">
        <ele>274.20001220703</ele>
        <time>2015-01-28T13:52:13Z</time>
      </trkpt>
      <trkpt lat="43.4302" lon="6.10653">
        <ele>273.79998779297</ele>
        <time>2015-01-28T13:52:19Z</time>
      </trkpt>
      <trkpt lat="43.43021" lon="6.10652">
        <ele>274.79998779297</ele>
        <time>2015-01-28T13:52:25Z</time>
      </trkpt>
      <trkpt lat="43.4302" lon="6.10652">
        <ele>274.60000610352</ele>
        <time>2015-01-28T13:52:32Z</time>
      </trkpt>
      <trkpt lat="43.4302" lon="6.10652">
        <ele>274.60000610352</ele>
        <time>2015-01-28T13:52:35Z</time>
      </trkpt>
      <trkpt lat="43.4302" lon="6.10652">
        <ele>275</ele>
        <time>2015-01-28T13:52:46Z</time>
      </trkpt>
      <trkpt lat="43.4302" lon="6.10652">
        <ele>275</ele>
        <time>2015-01-28T13:52:56Z</time>
      </trkpt>
      <trkpt lat="43.4302" lon="6.10652">
        <ele>275.20001220703</ele>
        <time>2015-01-28T13:53:02Z</time>
      </trkpt>
      <trkpt lat="43.4302" lon="6.10652">
        <ele>275.39999389648</ele>
        <time>2015-01-28T13:53:09Z</time>
      </trkpt>
      <trkpt lat="43.43021" lon="6.10653">
        <ele>275.60000610352</ele>
        <time>2015-01-28T13:53:25Z</time>
      </trkpt>
      <trkpt lat="43.43022" lon="6.10654">
        <ele>275.79998779297</ele>
        <time>2015-01-28T13:53:26Z</time>
      </trkpt>
      <trkpt lat="43.43024" lon="6.10656">
        <ele>276</ele>
        <time>2015-01-28T13:53:28Z</time>
      </trkpt>
      <trkpt lat="43.43026" lon="6.10657">
        <ele>276</ele>
        <time>2015-01-28T13:53:29Z</time>
      </trkpt>
      <trkpt lat="43.43029" lon="6.10664">
        <ele>276</ele>
        <time>2015-01-28T13:53:33Z</time>
      </trkpt>
      <trkpt lat="43.43031" lon="6.1067">
        <ele>276</ele>
        <time>2015-01-28T13:53:37Z</time>
      </trkpt>
      <trkpt lat="43.43031" lon="6.10675">
        <ele>276.20001220703</ele>
        <time>2015-01-28T13:53:40Z</time>
      </trkpt>
      <trkpt lat="43.4303" lon="6.1068">
        <ele>276.39999389648</ele>
        <time>2015-01-28T13:53:43Z</time>
      </trkpt>
      <trkpt lat="43.43027" lon="6.10682">
        <ele>276.39999389648</ele>
        <time>2015-01-28T13:53:45Z</time>
      </trkpt>
      <trkpt lat="43.43026" lon="6.10683">
        <ele>276.20001220703</ele>
        <time>2015-01-28T13:53:46Z</time>
      </trkpt>
      <trkpt lat="43.43018" lon="6.1069">
        <ele>276</ele>
        <time>2015-01-28T13:53:50Z</time>
      </trkpt>
      <trkpt lat="43.43015" lon="6.1069">
        <ele>275.79998779297</ele>
        <time>2015-01-28T13:53:51Z</time>
      </trkpt>
      <trkpt lat="43.43009" lon="6.10693">
        <ele>275.60000610352</ele>
        <time>2015-01-28T13:53:53Z</time>
      </trkpt>
      <trkpt lat="43.43006" lon="6.10695">
        <ele>274.60000610352</ele>
        <time>2015-01-28T13:53:54Z</time>
      </trkpt>
      <trkpt lat="43.43002" lon="6.10703">
        <ele>273.60000610352</ele>
        <time>2015-01-28T13:53:56Z</time>
      </trkpt>
      <trkpt lat="43.42992" lon="6.10725">
        <ele>272.79998779297</ele>
        <time>2015-01-28T13:54:02Z</time>
      </trkpt>
      <trkpt lat="43.42985" lon="6.10738">
        <ele>272.39999389648</ele>
        <time>2015-01-28T13:54:06Z</time>
      </trkpt>
      <trkpt lat="43.42982" lon="6.10745">
        <ele>272</ele>
        <time>2015-01-28T13:54:08Z</time>
      </trkpt>
      <trkpt lat="43.42976" lon="6.10756">
        <ele>271.39999389648</ele>
        <time>2015-01-28T13:54:13Z</time>
      </trkpt>
      <trkpt lat="43.42972" lon="6.10771">
        <ele>270.39999389648</ele>
        <time>2015-01-28T13:54:18Z</time>
      </trkpt>
      <trkpt lat="43.42972" lon="6.10774">
        <ele>270.20001220703</ele>
        <time>2015-01-28T13:54:19Z</time>
      </trkpt>
      <trkpt lat="43.42974" lon="6.1079">
        <ele>270.20001220703</ele>
        <time>2015-01-28T13:54:23Z</time>
      </trkpt>
      <trkpt lat="43.42978" lon="6.10808">
        <ele>270</ele>
        <time>2015-01-28T13:54:27Z</time>
      </trkpt>
      <trkpt lat="43.42978" lon="6.10812">
        <ele>269.60000610352</ele>
        <time>2015-01-28T13:54:28Z</time>
      </trkpt>
      <trkpt lat="43.42979" lon="6.1082">
        <ele>269.20001220703</ele>
        <time>2015-01-28T13:54:30Z</time>
      </trkpt>
      <trkpt lat="43.42983" lon="6.10844">
        <ele>269.79998779297</ele>
        <time>2015-01-28T13:54:36Z</time>
      </trkpt>
      <trkpt lat="43.42981" lon="6.10862">
        <ele>269.60000610352</ele>
        <time>2015-01-28T13:54:40Z</time>
      </trkpt>
      <trkpt lat="43.42984" lon="6.10885">
        <ele>269.79998779297</ele>
        <time>2015-01-28T13:54:45Z</time>
      </trkpt>
      <trkpt lat="43.42987" lon="6.10895">
        <ele>270.20001220703</ele>
        <time>2015-01-28T13:54:47Z</time>
      </trkpt>
      <trkpt lat="43.4299" lon="6.10909">
        <ele>270.60000610352</ele>
        <time>2015-01-28T13:54:50Z</time>
      </trkpt>
      <trkpt lat="43.42994" lon="6.10918">
        <ele>270.60000610352</ele>
        <time>2015-01-28T13:54:52Z</time>
      </trkpt>
      <trkpt lat="43.42999" lon="6.10927">
        <ele>270.79998779297</ele>
        <time>2015-01-28T13:54:54Z</time>
      </trkpt>
      <trkpt lat="43.43005" lon="6.10936">
        <ele>271.39999389648</ele>
        <time>2015-01-28T13:54:56Z</time>
      </trkpt>
      <trkpt lat="43.4301" lon="6.10943">
        <ele>271.39999389648</ele>
        <time>2015-01-28T13:54:58Z</time>
      </trkpt>
      <trkpt lat="43.43016" lon="6.10963">
        <ele>271.79998779297</ele>
        <time>2015-01-28T13:55:03Z</time>
      </trkpt>
      <trkpt lat="43.43015" lon="6.10982">
        <ele>270.20001220703</ele>
        <time>2015-01-28T13:55:07Z</time>
      </trkpt>
      <trkpt lat="43.43012" lon="6.10991">
        <ele>269.20001220703</ele>
        <time>2015-01-28T13:55:09Z</time>
      </trkpt>
      <trkpt lat="43.4301" lon="6.10995">
        <ele>269</ele>
        <time>2015-01-28T13:55:10Z</time>
      </trkpt>
      <trkpt lat="43.42998" lon="6.11012">
        <ele>268.60000610352</ele>
        <time>2015-01-28T13:55:14Z</time>
      </trkpt>
      <trkpt lat="43.42992" lon="6.11022">
        <ele>267.79998779297</ele>
        <time>2015-01-28T13:55:16Z</time>
      </trkpt>
      <trkpt lat="43.42989" lon="6.11027">
        <ele>267.60000610352</ele>
        <time>2015-01-28T13:55:17Z</time>
      </trkpt>
      <trkpt lat="43.42982" lon="6.11042">
        <ele>267.20001220703</ele>
        <time>2015-01-28T13:55:20Z</time>
      </trkpt>
      <trkpt lat="43.42971" lon="6.11066">
        <ele>267.20001220703</ele>
        <time>2015-01-28T13:55:25Z</time>
      </trkpt>
      <trkpt lat="43.42968" lon="6.11071">
        <ele>267.39999389648</ele>
        <time>2015-01-28T13:55:26Z</time>
      </trkpt>
      <trkpt lat="43.42966" lon="6.11076">
        <ele>267.39999389648</ele>
        <time>2015-01-28T13:55:27Z</time>
      </trkpt>
      <trkpt lat="43.42964" lon="6.11082">
        <ele>266.60000610352</ele>
        <time>2015-01-28T13:55:28Z</time>
      </trkpt>
      <trkpt lat="43.4296" lon="6.11093">
        <ele>266.20001220703</ele>
        <time>2015-01-28T13:55:30Z</time>
      </trkpt>
      <trkpt lat="43.42952" lon="6.11112">
        <ele>266</ele>
        <time>2015-01-28T13:55:33Z</time>
      </trkpt>
      <trkpt lat="43.42947" lon="6.11124">
        <ele>265.39999389648</ele>
        <time>2015-01-28T13:55:35Z</time>
      </trkpt>
      <trkpt lat="43.42939" lon="6.11147">
        <ele>264.60000610352</ele>
        <time>2015-01-28T13:55:39Z</time>
      </trkpt>
      <trkpt lat="43.42937" lon="6.11159">
        <ele>264.79998779297</ele>
        <time>2015-01-28T13:55:41Z</time>
      </trkpt>
      <trkpt lat="43.42936" lon="6.11171">
        <ele>264.20001220703</ele>
        <time>2015-01-28T13:55:43Z</time>
      </trkpt>
      <trkpt lat="43.42932" lon="6.11178">
        <ele>264</ele>
        <time>2015-01-28T13:55:45Z</time>
      </trkpt>
      <trkpt lat="43.42924" lon="6.11174">
        <ele>264.39999389648</ele>
        <time>2015-01-28T13:55:48Z</time>
      </trkpt>
      <trkpt lat="43.42918" lon="6.1116">
        <ele>264.79998779297</ele>
        <time>2015-01-28T13:55:52Z</time>
      </trkpt>
      <trkpt lat="43.42917" lon="6.11156">
        <ele>264.79998779297</ele>
        <time>2015-01-28T13:55:53Z</time>
      </trkpt>
      <trkpt lat="43.42912" lon="6.11142">
        <ele>265.20001220703</ele>
        <time>2015-01-28T13:55:57Z</time>
      </trkpt>
      <trkpt lat="43.42905" lon="6.11128">
        <ele>265.79998779297</ele>
        <time>2015-01-28T13:56:02Z</time>
      </trkpt>
      <trkpt lat="43.42902" lon="6.11121">
        <ele>266.39999389648</ele>
        <time>2015-01-28T13:56:05Z</time>
      </trkpt>
      <trkpt lat="43.42899" lon="6.11116">
        <ele>266.60000610352</ele>
        <time>2015-01-28T13:56:08Z</time>
      </trkpt>
      <trkpt lat="43.42894" lon="6.11108">
        <ele>267</ele>
        <time>2015-01-28T13:56:13Z</time>
      </trkpt>
      <trkpt lat="43.42893" lon="6.11105">
        <ele>267.20001220703</ele>
        <time>2015-01-28T13:56:15Z</time>
      </trkpt>
      <trkpt lat="43.42892" lon="6.11104">
        <ele>267.39999389648</ele>
        <time>2015-01-28T13:56:16Z</time>
      </trkpt>
      <trkpt lat="43.42891" lon="6.11101">
        <ele>267.39999389648</ele>
        <time>2015-01-28T13:56:18Z</time>
      </trkpt>
      <trkpt lat="43.42886" lon="6.11094">
        <ele>268.20001220703</ele>
        <time>2015-01-28T13:56:23Z</time>
      </trkpt>
      <trkpt lat="43.42884" lon="6.11092">
        <ele>268.60000610352</ele>
        <time>2015-01-28T13:56:25Z</time>
      </trkpt>
      <trkpt lat="43.42879" lon="6.11083">
        <ele>269.20001220703</ele>
        <time>2015-01-28T13:56:31Z</time>
      </trkpt>
      <trkpt lat="43.42873" lon="6.11073">
        <ele>269.20001220703</ele>
        <time>2015-01-28T13:56:38Z</time>
      </trkpt>
      <trkpt lat="43.42867" lon="6.1107">
        <ele>269.79998779297</ele>
        <time>2015-01-28T13:56:42Z</time>
      </trkpt>
      <trkpt lat="43.42865" lon="6.1107">
        <ele>270</ele>
        <time>2015-01-28T13:56:43Z</time>
      </trkpt>
      <trkpt lat="43.42862" lon="6.11073">
        <ele>270</ele>
        <time>2015-01-28T13:56:46Z</time>
      </trkpt>
      <trkpt lat="43.42861" lon="6.11078">
        <ele>271</ele>
        <time>2015-01-28T13:56:49Z</time>
      </trkpt>
      <trkpt lat="43.42857" lon="6.11087">
        <ele>272.20001220703</ele>
        <time>2015-01-28T13:56:55Z</time>
      </trkpt>
      <trkpt lat="43.42855" lon="6.1109">
        <ele>272.39999389648</ele>
        <time>2015-01-28T13:56:57Z</time>
      </trkpt>
      <trkpt lat="43.42853" lon="6.11096">
        <ele>272.39999389648</ele>
        <time>2015-01-28T13:57:03Z</time>
      </trkpt>
      <trkpt lat="43.42853" lon="6.11097">
        <ele>272.39999389648</ele>
        <time>2015-01-28T13:57:07Z</time>
      </trkpt>
      <trkpt lat="43.42853" lon="6.11097">
        <ele>272.39999389648</ele>
        <time>2015-01-28T13:57:09Z</time>
      </trkpt>
      <trkpt lat="43.42853" lon="6.11097">
        <ele>272.39999389648</ele>
        <time>2015-01-28T13:57:11Z</time>
      </trkpt>
      <trkpt lat="43.42853" lon="6.11097">
        <ele>272.60000610352</ele>
        <time>2015-01-28T13:57:16Z</time>
      </trkpt>
      <trkpt lat="43.42853" lon="6.11097">
        <ele>272.60000610352</ele>
        <time>2015-01-28T13:57:24Z</time>
      </trkpt>
      <trkpt lat="43.42853" lon="6.11097">
        <ele>272.60000610352</ele>
        <time>2015-01-28T13:57:27Z</time>
      </trkpt>
      <trkpt lat="43.42853" lon="6.11097">
        <ele>272.20001220703</ele>
        <time>2015-01-28T13:57:32Z</time>
      </trkpt>
      <trkpt lat="43.42852" lon="6.11097">
        <ele>272.39999389648</ele>
        <time>2015-01-28T13:57:37Z</time>
      </trkpt>
      <trkpt lat="43.42852" lon="6.11097">
        <ele>272.39999389648</ele>
        <time>2015-01-28T13:57:43Z</time>
      </trkpt>
      <trkpt lat="43.42852" lon="6.11097">
        <ele>272</ele>
        <time>2015-01-28T13:57:46Z</time>
      </trkpt>
      <trkpt lat="43.42852" lon="6.11097">
        <ele>272.20001220703</ele>
        <time>2015-01-28T13:57:58Z</time>
      </trkpt>
      <trkpt lat="43.42852" lon="6.11096">
        <ele>272.20001220703</ele>
        <time>2015-01-28T13:58:06Z</time>
      </trkpt>
      <trkpt lat="43.42852" lon="6.11097">
        <ele>272</ele>
        <time>2015-01-28T13:58:22Z</time>
      </trkpt>
      <trkpt lat="43.42852" lon="6.11097">
        <ele>272</ele>
        <time>2015-01-28T13:58:40Z</time>
      </trkpt>
      <trkpt lat="43.42852" lon="6.11097">
        <ele>272</ele>
        <time>2015-01-28T13:58:44Z</time>
      </trkpt>
      <trkpt lat="43.42851" lon="6.11097">
        <ele>271.79998779297</ele>
        <time>2015-01-28T13:58:45Z</time>
      </trkpt>
      <trkpt lat="43.4285" lon="6.11099">
        <ele>271.60000610352</ele>
        <time>2015-01-28T13:58:46Z</time>
      </trkpt>
      <trkpt lat="43.42853" lon="6.11107">
        <ele>271.60000610352</ele>
        <time>2015-01-28T13:58:49Z</time>
      </trkpt>
      <trkpt lat="43.42859" lon="6.11122">
        <ele>272</ele>
        <time>2015-01-28T13:58:55Z</time>
      </trkpt>
      <trkpt lat="43.42875" lon="6.11141">
        <ele>271.39999389648</ele>
        <time>2015-01-28T13:59:00Z</time>
      </trkpt>
      <trkpt lat="43.42877" lon="6.11146">
        <ele>271.20001220703</ele>
        <time>2015-01-28T13:59:01Z</time>
      </trkpt>
      <trkpt lat="43.42887" lon="6.11167">
        <ele>270.79998779297</ele>
        <time>2015-01-28T13:59:05Z</time>
      </trkpt>
      <trkpt lat="43.4289" lon="6.11172">
        <ele>270.79998779297</ele>
        <time>2015-01-28T13:59:06Z</time>
      </trkpt>
      <trkpt lat="43.42897" lon="6.11189">
        <ele>270</ele>
        <time>2015-01-28T13:59:09Z</time>
      </trkpt>
      <trkpt lat="43.42898" lon="6.11195">
        <ele>268.60000610352</ele>
        <time>2015-01-28T13:59:10Z</time>
      </trkpt>
      <trkpt lat="43.429" lon="6.11202">
        <ele>268</ele>
        <time>2015-01-28T13:59:11Z</time>
      </trkpt>
      <trkpt lat="43.429" lon="6.1121">
        <ele>267.60000610352</ele>
        <time>2015-01-28T13:59:13Z</time>
      </trkpt>
      <trkpt lat="43.429" lon="6.1121">
        <ele>267.60000610352</ele>
        <time>2015-01-28T13:59:14Z</time>
      </trkpt>
      <trkpt lat="43.429" lon="6.1121">
        <ele>267.39999389648</ele>
        <time>2015-01-28T13:59:16Z</time>
      </trkpt>
      <trkpt lat="43.429" lon="6.11209">
        <ele>267.39999389648</ele>
        <time>2015-01-28T13:59:21Z</time>
      </trkpt>
      <trkpt lat="43.42898" lon="6.11212">
        <ele>267</ele>
        <time>2015-01-28T13:59:32Z</time>
      </trkpt>
      <trkpt lat="43.42897" lon="6.11214">
        <ele>267.39999389648</ele>
        <time>2015-01-28T13:59:40Z</time>
      </trkpt>
      <trkpt lat="43.42895" lon="6.11216">
        <ele>267.39999389648</ele>
        <time>2015-01-28T13:59:41Z</time>
      </trkpt>
      <trkpt lat="43.42894" lon="6.11217">
        <ele>267.39999389648</ele>
        <time>2015-01-28T13:59:42Z</time>
      </trkpt>
      <trkpt lat="43.42891" lon="6.11219">
        <ele>268</ele>
        <time>2015-01-28T13:59:44Z</time>
      </trkpt>
      <trkpt lat="43.4289" lon="6.11221">
        <ele>268</ele>
        <time>2015-01-28T13:59:45Z</time>
      </trkpt>
      <trkpt lat="43.42879" lon="6.11232">
        <ele>267.79998779297</ele>
        <time>2015-01-28T13:59:49Z</time>
      </trkpt>
      <trkpt lat="43.4287" lon="6.11244">
        <ele>269</ele>
        <time>2015-01-28T13:59:53Z</time>
      </trkpt>
      <trkpt lat="43.42864" lon="6.1125">
        <ele>270</ele>
        <time>2015-01-28T13:59:55Z</time>
      </trkpt>
      <trkpt lat="43.42862" lon="6.11253">
        <ele>270.20001220703</ele>
        <time>2015-01-28T13:59:56Z</time>
      </trkpt>
      <trkpt lat="43.42853" lon="6.11263">
        <ele>269</ele>
        <time>2015-01-28T13:59:59Z</time>
      </trkpt>
      <trkpt lat="43.42849" lon="6.11276">
        <ele>269</ele>
        <time>2015-01-28T14:00:02Z</time>
      </trkpt>
      <trkpt lat="43.4284" lon="6.11297">
        <ele>268</ele>
        <time>2015-01-28T14:00:06Z</time>
      </trkpt>
      <trkpt lat="43.42837" lon="6.11302">
        <ele>268.60000610352</ele>
        <time>2015-01-28T14:00:07Z</time>
      </trkpt>
      <trkpt lat="43.42829" lon="6.11326">
        <ele>268.20001220703</ele>
        <time>2015-01-28T14:00:11Z</time>
      </trkpt>
      <trkpt lat="43.42824" lon="6.11338">
        <ele>268.39999389648</ele>
        <time>2015-01-28T14:00:13Z</time>
      </trkpt>
      <trkpt lat="43.42818" lon="6.11349">
        <ele>267.79998779297</ele>
        <time>2015-01-28T14:00:15Z</time>
      </trkpt>
      <trkpt lat="43.42815" lon="6.11354">
        <ele>267.60000610352</ele>
        <time>2015-01-28T14:00:16Z</time>
      </trkpt>
      <trkpt lat="43.42812" lon="6.11357">
        <ele>267.60000610352</ele>
        <time>2015-01-28T14:00:17Z</time>
      </trkpt>
      <trkpt lat="43.42803" lon="6.11367">
        <ele>268</ele>
        <time>2015-01-28T14:00:20Z</time>
      </trkpt>
      <trkpt lat="43.42791" lon="6.11377">
        <ele>266.60000610352</ele>
        <time>2015-01-28T14:00:23Z</time>
      </trkpt>
      <trkpt lat="43.42781" lon="6.11386">
        <ele>265.39999389648</ele>
        <time>2015-01-28T14:00:25Z</time>
      </trkpt>
      <trkpt lat="43.42773" lon="6.11396">
        <ele>266.60000610352</ele>
        <time>2015-01-28T14:00:27Z</time>
      </trkpt>
      <trkpt lat="43.4277" lon="6.11401">
        <ele>266.79998779297</ele>
        <time>2015-01-28T14:00:28Z</time>
      </trkpt>
      <trkpt lat="43.42764" lon="6.11413">
        <ele>266.20001220703</ele>
        <time>2015-01-28T14:00:30Z</time>
      </trkpt>
      <trkpt lat="43.42757" lon="6.11426">
        <ele>264.39999389648</ele>
        <time>2015-01-28T14:00:33Z</time>
      </trkpt>
      <trkpt lat="43.42756" lon="6.11431">
        <ele>263.60000610352</ele>
        <time>2015-01-28T14:00:34Z</time>
      </trkpt>
      <trkpt lat="43.42752" lon="6.11448">
        <ele>263</ele>
        <time>2015-01-28T14:00:37Z</time>
      </trkpt>
      <trkpt lat="43.42751" lon="6.11453">
        <ele>262.60000610352</ele>
        <time>2015-01-28T14:00:38Z</time>
      </trkpt>
      <trkpt lat="43.42749" lon="6.11464">
        <ele>261.60000610352</ele>
        <time>2015-01-28T14:00:40Z</time>
      </trkpt>
      <trkpt lat="43.42746" lon="6.11474">
        <ele>260</ele>
        <time>2015-01-28T14:00:42Z</time>
      </trkpt>
      <trkpt lat="43.42743" lon="6.11493">
        <ele>259</ele>
        <time>2015-01-28T14:00:46Z</time>
      </trkpt>
      <trkpt lat="43.42743" lon="6.11499">
        <ele>258.60000610352</ele>
        <time>2015-01-28T14:00:47Z</time>
      </trkpt>
      <trkpt lat="43.42747" lon="6.1151">
        <ele>258</ele>
        <time>2015-01-28T14:00:49Z</time>
      </trkpt>
      <trkpt lat="43.4275" lon="6.11517">
        <ele>257.39999389648</ele>
        <time>2015-01-28T14:00:50Z</time>
      </trkpt>
      <trkpt lat="43.42751" lon="6.11524">
        <ele>257</ele>
        <time>2015-01-28T14:00:51Z</time>
      </trkpt>
      <trkpt lat="43.42752" lon="6.11531">
        <ele>256.79998779297</ele>
        <time>2015-01-28T14:00:52Z</time>
      </trkpt>
      <trkpt lat="43.42754" lon="6.11545">
        <ele>256.79998779297</ele>
        <time>2015-01-28T14:00:54Z</time>
      </trkpt>
      <trkpt lat="43.42755" lon="6.11557">
        <ele>257.20001220703</ele>
        <time>2015-01-28T14:00:56Z</time>
      </trkpt>
      <trkpt lat="43.42757" lon="6.11575">
        <ele>257.79998779297</ele>
        <time>2015-01-28T14:00:59Z</time>
      </trkpt>
      <trkpt lat="43.42758" lon="6.11579">
        <ele>258.39999389648</ele>
        <time>2015-01-28T14:01:00Z</time>
      </trkpt>
      <trkpt lat="43.4276" lon="6.11593">
        <ele>258.20001220703</ele>
        <time>2015-01-28T14:01:03Z</time>
      </trkpt>
      <trkpt lat="43.4276" lon="6.11603">
        <ele>257.79998779297</ele>
        <time>2015-01-28T14:01:05Z</time>
      </trkpt>
      <trkpt lat="43.42757" lon="6.11617">
        <ele>256.79998779297</ele>
        <time>2015-01-28T14:01:08Z</time>
      </trkpt>
      <trkpt lat="43.42752" lon="6.11624">
        <ele>256.60000610352</ele>
        <time>2015-01-28T14:01:10Z</time>
      </trkpt>
      <trkpt lat="43.42748" lon="6.11628">
        <ele>256.60000610352</ele>
        <time>2015-01-28T14:01:11Z</time>
      </trkpt>
      <trkpt lat="43.42736" lon="6.11635">
        <ele>256.39999389648</ele>
        <time>2015-01-28T14:01:14Z</time>
      </trkpt>
      <trkpt lat="43.42735" lon="6.11637">
        <ele>255.60000610352</ele>
        <time>2015-01-28T14:01:15Z</time>
      </trkpt>
      <trkpt lat="43.42732" lon="6.11638">
        <ele>255.19999694824</ele>
        <time>2015-01-28T14:01:17Z</time>
      </trkpt>
      <trkpt lat="43.42725" lon="6.11647">
        <ele>255</ele>
        <time>2015-01-28T14:01:21Z</time>
      </trkpt>
      <trkpt lat="43.4272" lon="6.11657">
        <ele>255.19999694824</ele>
        <time>2015-01-28T14:01:24Z</time>
      </trkpt>
      <trkpt lat="43.42719" lon="6.11663">
        <ele>255.19999694824</ele>
        <time>2015-01-28T14:01:26Z</time>
      </trkpt>
      <trkpt lat="43.4272" lon="6.1167">
        <ele>254.39999389648</ele>
        <time>2015-01-28T14:01:29Z</time>
      </trkpt>
      <trkpt lat="43.42723" lon="6.11676">
        <ele>253.60000610352</ele>
        <time>2015-01-28T14:01:31Z</time>
      </trkpt>
      <trkpt lat="43.42725" lon="6.11679">
        <ele>253</ele>
        <time>2015-01-28T14:01:32Z</time>
      </trkpt>
      <trkpt lat="43.42727" lon="6.11681">
        <ele>252</ele>
        <time>2015-01-28T14:01:33Z</time>
      </trkpt>
      <trkpt lat="43.42731" lon="6.11687">
        <ele>250.39999389648</ele>
        <time>2015-01-28T14:01:35Z</time>
      </trkpt>
      <trkpt lat="43.42732" lon="6.11688">
        <ele>249.80000305176</ele>
        <time>2015-01-28T14:01:36Z</time>
      </trkpt>
      <trkpt lat="43.42733" lon="6.1169">
        <ele>249.39999389648</ele>
        <time>2015-01-28T14:01:37Z</time>
      </trkpt>
      <trkpt lat="43.42738" lon="6.11695">
        <ele>248.19999694824</ele>
        <time>2015-01-28T14:01:40Z</time>
      </trkpt>
      <trkpt lat="43.42741" lon="6.117">
        <ele>247.39999389648</ele>
        <time>2015-01-28T14:01:42Z</time>
      </trkpt>
      <trkpt lat="43.42743" lon="6.11702">
        <ele>247</ele>
        <time>2015-01-28T14:01:43Z</time>
      </trkpt>
      <trkpt lat="43.42746" lon="6.11702">
        <ele>246.39999389648</ele>
        <time>2015-01-28T14:01:44Z</time>
      </trkpt>
      <trkpt lat="43.42748" lon="6.11703">
        <ele>245.39999389648</ele>
        <time>2015-01-28T14:01:45Z</time>
      </trkpt>
      <trkpt lat="43.4275" lon="6.11705">
        <ele>245</ele>
        <time>2015-01-28T14:01:46Z</time>
      </trkpt>
      <trkpt lat="43.42754" lon="6.11706">
        <ele>244.80000305176</ele>
        <time>2015-01-28T14:01:48Z</time>
      </trkpt>
      <trkpt lat="43.42759" lon="6.11708">
        <ele>244</ele>
        <time>2015-01-28T14:01:50Z</time>
      </trkpt>
      <trkpt lat="43.4276" lon="6.11715">
        <ele>243.39999389648</ele>
        <time>2015-01-28T14:01:53Z</time>
      </trkpt>
      <trkpt lat="43.42768" lon="6.11717">
        <ele>243</ele>
        <time>2015-01-28T14:01:57Z</time>
      </trkpt>
      <trkpt lat="43.42772" lon="6.11714">
        <ele>242.39999389648</ele>
        <time>2015-01-28T14:01:58Z</time>
      </trkpt>
      <trkpt lat="43.4278" lon="6.11709">
        <ele>241</ele>
        <time>2015-01-28T14:02:00Z</time>
      </trkpt>
      <trkpt lat="43.42783" lon="6.11706">
        <ele>240.80000305176</ele>
        <time>2015-01-28T14:02:01Z</time>
      </trkpt>
      <trkpt lat="43.42787" lon="6.11702">
        <ele>240.80000305176</ele>
        <time>2015-01-28T14:02:02Z</time>
      </trkpt>
      <trkpt lat="43.4279" lon="6.11698">
        <ele>240.80000305176</ele>
        <time>2015-01-28T14:02:03Z</time>
      </trkpt>
      <trkpt lat="43.42797" lon="6.1169">
        <ele>239.60000610352</ele>
        <time>2015-01-28T14:02:05Z</time>
      </trkpt>
      <trkpt lat="43.428" lon="6.11689">
        <ele>239</ele>
        <time>2015-01-28T14:02:06Z</time>
      </trkpt>
      <trkpt lat="43.42804" lon="6.11691">
        <ele>238</ele>
        <time>2015-01-28T14:02:07Z</time>
      </trkpt>
      <trkpt lat="43.42806" lon="6.11697">
        <ele>237.19999694824</ele>
        <time>2015-01-28T14:02:08Z</time>
      </trkpt>
      <trkpt lat="43.42808" lon="6.11703">
        <ele>236.60000610352</ele>
        <time>2015-01-28T14:02:09Z</time>
      </trkpt>
      <trkpt lat="43.42813" lon="6.11718">
        <ele>235.80000305176</ele>
        <time>2015-01-28T14:02:11Z</time>
      </trkpt>
      <trkpt lat="43.42813" lon="6.11725">
        <ele>235.39999389648</ele>
        <time>2015-01-28T14:02:12Z</time>
      </trkpt>
      <trkpt lat="43.4281" lon="6.11744">
        <ele>234.60000610352</ele>
        <time>2015-01-28T14:02:15Z</time>
      </trkpt>
      <trkpt lat="43.42806" lon="6.11754">
        <ele>234.39999389648</ele>
        <time>2015-01-28T14:02:17Z</time>
      </trkpt>
      <trkpt lat="43.42799" lon="6.11765">
        <ele>234.60000610352</ele>
        <time>2015-01-28T14:02:20Z</time>
      </trkpt>
      <trkpt lat="43.428" lon="6.11777">
        <ele>235.19999694824</ele>
        <time>2015-01-28T14:02:23Z</time>
      </trkpt>
      <trkpt lat="43.428" lon="6.1178">
        <ele>235.60000610352</ele>
        <time>2015-01-28T14:02:24Z</time>
      </trkpt>
      <trkpt lat="43.42802" lon="6.11788">
        <ele>236</ele>
        <time>2015-01-28T14:02:26Z</time>
      </trkpt>
      <trkpt lat="43.42803" lon="6.11792">
        <ele>236</ele>
        <time>2015-01-28T14:02:27Z</time>
      </trkpt>
      <trkpt lat="43.42804" lon="6.11803">
        <ele>236.60000610352</ele>
        <time>2015-01-28T14:02:30Z</time>
      </trkpt>
      <trkpt lat="43.42805" lon="6.11807">
        <ele>236.80000305176</ele>
        <time>2015-01-28T14:02:31Z</time>
      </trkpt>
      <trkpt lat="43.42805" lon="6.1181">
        <ele>237</ele>
        <time>2015-01-28T14:02:32Z</time>
      </trkpt>
      <trkpt lat="43.42807" lon="6.11828">
        <ele>238</ele>
        <time>2015-01-28T14:02:37Z</time>
      </trkpt>
      <trkpt lat="43.42806" lon="6.1183">
        <ele>238.19999694824</ele>
        <time>2015-01-28T14:02:41Z</time>
      </trkpt>
      <trkpt lat="43.42807" lon="6.11831">
        <ele>238.39999389648</ele>
        <time>2015-01-28T14:02:46Z</time>
      </trkpt>
      <trkpt lat="43.42807" lon="6.11831">
        <ele>238</ele>
        <time>2015-01-28T14:02:51Z</time>
      </trkpt>
      <trkpt lat="43.42806" lon="6.11834">
        <ele>238.60000610352</ele>
        <time>2015-01-28T14:03:02Z</time>
      </trkpt>
      <trkpt lat="43.42807" lon="6.11837">
        <ele>238.60000610352</ele>
        <time>2015-01-28T14:03:03Z</time>
      </trkpt>
      <trkpt lat="43.42805" lon="6.11845">
        <ele>239.19999694824</ele>
        <time>2015-01-28T14:03:06Z</time>
      </trkpt>
      <trkpt lat="43.42802" lon="6.11851">
        <ele>239.60000610352</ele>
        <time>2015-01-28T14:03:10Z</time>
      </trkpt>
      <trkpt lat="43.42802" lon="6.11853">
        <ele>239.60000610352</ele>
        <time>2015-01-28T14:03:12Z</time>
      </trkpt>
      <trkpt lat="43.42802" lon="6.11853">
        <ele>239.39999389648</ele>
        <time>2015-01-28T14:03:15Z</time>
      </trkpt>
      <trkpt lat="43.42802" lon="6.11854">
        <ele>238.60000610352</ele>
        <time>2015-01-28T14:03:23Z</time>
      </trkpt>
      <trkpt lat="43.42803" lon="6.11853">
        <ele>238.60000610352</ele>
        <time>2015-01-28T14:03:34Z</time>
      </trkpt>
      <trkpt lat="43.42801" lon="6.11853">
        <ele>240</ele>
        <time>2015-01-28T14:03:48Z</time>
      </trkpt>
      <trkpt lat="43.42796" lon="6.11855">
        <ele>240.39999389648</ele>
        <time>2015-01-28T14:03:52Z</time>
      </trkpt>
      <trkpt lat="43.42795" lon="6.11856">
        <ele>240.19999694824</ele>
        <time>2015-01-28T14:03:53Z</time>
      </trkpt>
      <trkpt lat="43.42794" lon="6.11855">
        <ele>240.19999694824</ele>
        <time>2015-01-28T14:03:54Z</time>
      </trkpt>
      <trkpt lat="43.42789" lon="6.11854">
        <ele>240.39999389648</ele>
        <time>2015-01-28T14:03:58Z</time>
      </trkpt>
      <trkpt lat="43.42781" lon="6.1185">
        <ele>240.80000305176</ele>
        <time>2015-01-28T14:04:03Z</time>
      </trkpt>
      <trkpt lat="43.4278" lon="6.1185">
        <ele>241</ele>
        <time>2015-01-28T14:04:04Z</time>
      </trkpt>
      <trkpt lat="43.42775" lon="6.11851">
        <ele>241.60000610352</ele>
        <time>2015-01-28T14:04:06Z</time>
      </trkpt>
      <trkpt lat="43.42772" lon="6.11852">
        <ele>242.19999694824</ele>
        <time>2015-01-28T14:04:09Z</time>
      </trkpt>
      <trkpt lat="43.42772" lon="6.11852">
        <ele>242.39999389648</ele>
        <time>2015-01-28T14:04:10Z</time>
      </trkpt>
      <trkpt lat="43.42772" lon="6.11852">
        <ele>242.80000305176</ele>
        <time>2015-01-28T14:04:11Z</time>
      </trkpt>
      <trkpt lat="43.42772" lon="6.11852">
        <ele>242.80000305176</ele>
        <time>2015-01-28T14:04:13Z</time>
      </trkpt>
      <trkpt lat="43.42774" lon="6.11851">
        <ele>242.60000610352</ele>
        <time>2015-01-28T14:04:17Z</time>
      </trkpt>
      <trkpt lat="43.42775" lon="6.1185">
        <ele>242.39999389648</ele>
        <time>2015-01-28T14:04:18Z</time>
      </trkpt>
      <trkpt lat="43.42779" lon="6.1185">
        <ele>241.60000610352</ele>
        <time>2015-01-28T14:04:21Z</time>
      </trkpt>
      <trkpt lat="43.4278" lon="6.11849">
        <ele>241</ele>
        <time>2015-01-28T14:04:24Z</time>
      </trkpt>
      <trkpt lat="43.4278" lon="6.11849">
        <ele>240.80000305176</ele>
        <time>2015-01-28T14:04:31Z</time>
      </trkpt>
      <trkpt lat="43.42781" lon="6.1185">
        <ele>241.19999694824</ele>
        <time>2015-01-28T14:04:33Z</time>
      </trkpt>
      <trkpt lat="43.42785" lon="6.11853">
        <ele>240.60000610352</ele>
        <time>2015-01-28T14:04:39Z</time>
      </trkpt>
      <trkpt lat="43.42785" lon="6.11853">
        <ele>240.60000610352</ele>
        <time>2015-01-28T14:04:40Z</time>
      </trkpt>
      <trkpt lat="43.42782" lon="6.11851">
        <ele>240.80000305176</ele>
        <time>2015-01-28T14:04:48Z</time>
      </trkpt>
      <trkpt lat="43.42775" lon="6.11851">
        <ele>241.60000610352</ele>
        <time>2015-01-28T14:04:51Z</time>
      </trkpt>
      <trkpt lat="43.42773" lon="6.11852">
        <ele>242</ele>
        <time>2015-01-28T14:04:52Z</time>
      </trkpt>
      <trkpt lat="43.4277" lon="6.11853">
        <ele>242.80000305176</ele>
        <time>2015-01-28T14:04:54Z</time>
      </trkpt>
      <trkpt lat="43.42767" lon="6.11854">
        <ele>243.39999389648</ele>
        <time>2015-01-28T14:04:56Z</time>
      </trkpt>
      <trkpt lat="43.42764" lon="6.11856">
        <ele>244.19999694824</ele>
        <time>2015-01-28T14:04:58Z</time>
      </trkpt>
      <trkpt lat="43.42762" lon="6.11857">
        <ele>245.19999694824</ele>
        <time>2015-01-28T14:04:59Z</time>
      </trkpt>
      <trkpt lat="43.42762" lon="6.11857">
        <ele>246</ele>
        <time>2015-01-28T14:05:00Z</time>
      </trkpt>
      <trkpt lat="43.4276" lon="6.11857">
        <ele>246.39999389648</ele>
        <time>2015-01-28T14:05:01Z</time>
      </trkpt>
      <trkpt lat="43.42757" lon="6.11857">
        <ele>246.80000305176</ele>
        <time>2015-01-28T14:05:03Z</time>
      </trkpt>
      <trkpt lat="43.42754" lon="6.11858">
        <ele>247.19999694824</ele>
        <time>2015-01-28T14:05:05Z</time>
      </trkpt>
      <trkpt lat="43.42752" lon="6.11859">
        <ele>247.80000305176</ele>
        <time>2015-01-28T14:05:08Z</time>
      </trkpt>
      <trkpt lat="43.42749" lon="6.11861">
        <ele>248.39999389648</ele>
        <time>2015-01-28T14:05:10Z</time>
      </trkpt>
      <trkpt lat="43.42749" lon="6.11862">
        <ele>248.60000610352</ele>
        <time>2015-01-28T14:05:11Z</time>
      </trkpt>
      <trkpt lat="43.42746" lon="6.11865">
        <ele>249.39999389648</ele>
        <time>2015-01-28T14:05:14Z</time>
      </trkpt>
      <trkpt lat="43.42744" lon="6.11867">
        <ele>249.60000610352</ele>
        <time>2015-01-28T14:05:16Z</time>
      </trkpt>
      <trkpt lat="43.42743" lon="6.11868">
        <ele>249.60000610352</ele>
        <time>2015-01-28T14:05:17Z</time>
      </trkpt>
      <trkpt lat="43.42742" lon="6.11868">
        <ele>249.80000305176</ele>
        <time>2015-01-28T14:05:18Z</time>
      </trkpt>
      <trkpt lat="43.4274" lon="6.11868">
        <ele>250.19999694824</ele>
        <time>2015-01-28T14:05:20Z</time>
      </trkpt>
      <trkpt lat="43.42736" lon="6.11868">
        <ele>250.60000610352</ele>
        <time>2015-01-28T14:05:23Z</time>
      </trkpt>
      <trkpt lat="43.4273" lon="6.1187">
        <ele>250.80000305176</ele>
        <time>2015-01-28T14:05:28Z</time>
      </trkpt>
      <trkpt lat="43.42728" lon="6.11871">
        <ele>251</ele>
        <time>2015-01-28T14:05:30Z</time>
      </trkpt>
      <trkpt lat="43.42726" lon="6.11873">
        <ele>251.19999694824</ele>
        <time>2015-01-28T14:05:32Z</time>
      </trkpt>
      <trkpt lat="43.42721" lon="6.11876">
        <ele>251.39999389648</ele>
        <time>2015-01-28T14:05:37Z</time>
      </trkpt>
      <trkpt lat="43.42719" lon="6.11878">
        <ele>251.60000610352</ele>
        <time>2015-01-28T14:05:39Z</time>
      </trkpt>
      <trkpt lat="43.42715" lon="6.11881">
        <ele>252.19999694824</ele>
        <time>2015-01-28T14:05:44Z</time>
      </trkpt>
      <trkpt lat="43.42715" lon="6.11881">
        <ele>252.39999389648</ele>
        <time>2015-01-28T14:05:46Z</time>
      </trkpt>
      <trkpt lat="43.42715" lon="6.11882">
        <ele>252.39999389648</ele>
        <time>2015-01-28T14:05:48Z</time>
      </trkpt>
      <trkpt lat="43.42715" lon="6.11881">
        <ele>251.60000610352</ele>
        <time>2015-01-28T14:05:52Z</time>
      </trkpt>
      <trkpt lat="43.42715" lon="6.11882">
        <ele>252</ele>
        <time>2015-01-28T14:05:55Z</time>
      </trkpt>
      <trkpt lat="43.42715" lon="6.11881">
        <ele>251.80000305176</ele>
        <time>2015-01-28T14:05:57Z</time>
      </trkpt>
      <trkpt lat="43.42715" lon="6.11881">
        <ele>251.80000305176</ele>
        <time>2015-01-28T14:05:59Z</time>
      </trkpt>
      <trkpt lat="43.42715" lon="6.11881">
        <ele>252.19999694824</ele>
        <time>2015-01-28T14:06:02Z</time>
      </trkpt>
      <trkpt lat="43.42715" lon="6.11881">
        <ele>252.19999694824</ele>
        <time>2015-01-28T14:06:05Z</time>
      </trkpt>
      <trkpt lat="43.42715" lon="6.11881">
        <ele>252</ele>
        <time>2015-01-28T14:06:07Z</time>
      </trkpt>
      <trkpt lat="43.42715" lon="6.11881">
        <ele>252</ele>
        <time>2015-01-28T14:06:08Z</time>
      </trkpt>
      <trkpt lat="43.42715" lon="6.11881">
        <ele>252</ele>
        <time>2015-01-28T14:06:19Z</time>
      </trkpt>
      <trkpt lat="43.42715" lon="6.11881">
        <ele>252</ele>
        <time>2015-01-28T14:06:21Z</time>
      </trkpt>
      <trkpt lat="43.42715" lon="6.11881">
        <ele>252</ele>
        <time>2015-01-28T14:06:23Z</time>
      </trkpt>
      <trkpt lat="43.42715" lon="6.11881">
        <ele>252.19999694824</ele>
        <time>2015-01-28T14:06:29Z</time>
      </trkpt>
      <trkpt lat="43.42715" lon="6.11881">
        <ele>252.19999694824</ele>
        <time>2015-01-28T14:06:35Z</time>
      </trkpt>
      <trkpt lat="43.42715" lon="6.11881">
        <ele>252.39999389648</ele>
        <time>2015-01-28T14:07:03Z</time>
      </trkpt>
      <trkpt lat="43.42715" lon="6.11881">
        <ele>252.60000610352</ele>
        <time>2015-01-28T14:07:19Z</time>
      </trkpt>
      <trkpt lat="43.42715" lon="6.11881">
        <ele>252.60000610352</ele>
        <time>2015-01-28T14:07:24Z</time>
      </trkpt>
      <trkpt lat="43.42715" lon="6.11882">
        <ele>252.80000305176</ele>
        <time>2015-01-28T14:07:27Z</time>
      </trkpt>
      <trkpt lat="43.42714" lon="6.11882">
        <ele>252.60000610352</ele>
        <time>2015-01-28T14:07:36Z</time>
      </trkpt>
      <trkpt lat="43.42714" lon="6.11882">
        <ele>252.60000610352</ele>
        <time>2015-01-28T14:08:02Z</time>
      </trkpt>
      <trkpt lat="43.42714" lon="6.11882">
        <ele>252.60000610352</ele>
        <time>2015-01-28T14:08:08Z</time>
      </trkpt>
      <trkpt lat="43.42714" lon="6.11882">
        <ele>252.19999694824</ele>
        <time>2015-01-28T14:08:26Z</time>
      </trkpt>
      <trkpt lat="43.42714" lon="6.11882">
        <ele>251.80000305176</ele>
        <time>2015-01-28T14:08:32Z</time>
      </trkpt>
      <trkpt lat="43.42714" lon="6.11882">
        <ele>252.19999694824</ele>
        <time>2015-01-28T14:08:44Z</time>
      </trkpt>
      <trkpt lat="43.42714" lon="6.11882">
        <ele>252.19999694824</ele>
        <time>2015-01-28T14:08:46Z</time>
      </trkpt>
      <trkpt lat="43.42714" lon="6.11882">
        <ele>252.19999694824</ele>
        <time>2015-01-28T14:08:49Z</time>
      </trkpt>
      <trkpt lat="43.42714" lon="6.11882">
        <ele>252.19999694824</ele>
        <time>2015-01-28T14:08:53Z</time>
      </trkpt>
      <trkpt lat="43.42712" lon="6.11883">
        <ele>252.39999389648</ele>
        <time>2015-01-28T14:08:56Z</time>
      </trkpt>
      <trkpt lat="43.4271" lon="6.11884">
        <ele>252.19999694824</ele>
        <time>2015-01-28T14:08:58Z</time>
      </trkpt>
      <trkpt lat="43.42709" lon="6.11885">
        <ele>252</ele>
        <time>2015-01-28T14:08:59Z</time>
      </trkpt>
      <trkpt lat="43.42704" lon="6.1189">
        <ele>252</ele>
        <time>2015-01-28T14:09:03Z</time>
      </trkpt>
      <trkpt lat="43.427" lon="6.11899">
        <ele>251.80000305176</ele>
        <time>2015-01-28T14:09:08Z</time>
      </trkpt>
      <trkpt lat="43.42701" lon="6.11901">
        <ele>251.39999389648</ele>
        <time>2015-01-28T14:09:09Z</time>
      </trkpt>
      <trkpt lat="43.42704" lon="6.11921">
        <ele>251.60000610352</ele>
        <time>2015-01-28T14:09:14Z</time>
      </trkpt>
      <trkpt lat="43.4271" lon="6.11929">
        <ele>250.80000305176</ele>
        <time>2015-01-28T14:09:16Z</time>
      </trkpt>
      <trkpt lat="43.42718" lon="6.11937">
        <ele>251</ele>
        <time>2015-01-28T14:09:18Z</time>
      </trkpt>
      <trkpt lat="43.42726" lon="6.11946">
        <ele>249.19999694824</ele>
        <time>2015-01-28T14:09:20Z</time>
      </trkpt>
      <trkpt lat="43.42734" lon="6.11954">
        <ele>248.60000610352</ele>
        <time>2015-01-28T14:09:22Z</time>
      </trkpt>
      <trkpt lat="43.42735" lon="6.11959">
        <ele>247.39999389648</ele>
        <time>2015-01-28T14:09:23Z</time>
      </trkpt>
      <trkpt lat="43.42736" lon="6.11969">
        <ele>246.80000305176</ele>
        <time>2015-01-28T14:09:25Z</time>
      </trkpt>
      <trkpt lat="43.42736" lon="6.1198">
        <ele>246.60000610352</ele>
        <time>2015-01-28T14:09:27Z</time>
      </trkpt>
      <trkpt lat="43.42735" lon="6.11993">
        <ele>246.80000305176</ele>
        <time>2015-01-28T14:09:29Z</time>
      </trkpt>
      <trkpt lat="43.42735" lon="6.12007">
        <ele>246.80000305176</ele>
        <time>2015-01-28T14:09:31Z</time>
      </trkpt>
      <trkpt lat="43.42737" lon="6.1202">
        <ele>246.19999694824</ele>
        <time>2015-01-28T14:09:33Z</time>
      </trkpt>
      <trkpt lat="43.42736" lon="6.12025">
        <ele>246.19999694824</ele>
        <time>2015-01-28T14:09:34Z</time>
      </trkpt>
      <trkpt lat="43.42736" lon="6.12038">
        <ele>245.39999389648</ele>
        <time>2015-01-28T14:09:37Z</time>
      </trkpt>
      <trkpt lat="43.42737" lon="6.12048">
        <ele>245.19999694824</ele>
        <time>2015-01-28T14:09:39Z</time>
      </trkpt>
      <trkpt lat="43.42738" lon="6.12063">
        <ele>245.19999694824</ele>
        <time>2015-01-28T14:09:42Z</time>
      </trkpt>
      <trkpt lat="43.42742" lon="6.12081">
        <ele>245.19999694824</ele>
        <time>2015-01-28T14:09:45Z</time>
      </trkpt>
      <trkpt lat="43.42747" lon="6.12092">
        <ele>244.19999694824</ele>
        <time>2015-01-28T14:09:47Z</time>
      </trkpt>
      <trkpt lat="43.42749" lon="6.12098">
        <ele>243.60000610352</ele>
        <time>2015-01-28T14:09:48Z</time>
      </trkpt>
      <trkpt lat="43.42756" lon="6.12108">
        <ele>242.80000305176</ele>
        <time>2015-01-28T14:09:50Z</time>
      </trkpt>
      <trkpt lat="43.42758" lon="6.12111">
        <ele>242.60000610352</ele>
        <time>2015-01-28T14:09:51Z</time>
      </trkpt>
      <trkpt lat="43.42762" lon="6.12117">
        <ele>242</ele>
        <time>2015-01-28T14:09:53Z</time>
      </trkpt>
      <trkpt lat="43.42763" lon="6.1212">
        <ele>241.60000610352</ele>
        <time>2015-01-28T14:09:54Z</time>
      </trkpt>
      <trkpt lat="43.42768" lon="6.12133">
        <ele>240.80000305176</ele>
        <time>2015-01-28T14:09:57Z</time>
      </trkpt>
      <trkpt lat="43.42771" lon="6.12137">
        <ele>240.39999389648</ele>
        <time>2015-01-28T14:09:58Z</time>
      </trkpt>
      <trkpt lat="43.42774" lon="6.12142">
        <ele>240.39999389648</ele>
        <time>2015-01-28T14:09:59Z</time>
      </trkpt>
      <trkpt lat="43.42778" lon="6.12151">
        <ele>239.60000610352</ele>
        <time>2015-01-28T14:10:01Z</time>
      </trkpt>
      <trkpt lat="43.4278" lon="6.12156">
        <ele>239.19999694824</ele>
        <time>2015-01-28T14:10:02Z</time>
      </trkpt>
      <trkpt lat="43.42791" lon="6.12165">
        <ele>238.39999389648</ele>
        <time>2015-01-28T14:10:06Z</time>
      </trkpt>
      <trkpt lat="43.42797" lon="6.12167">
        <ele>238</ele>
        <time>2015-01-28T14:10:08Z</time>
      </trkpt>
      <trkpt lat="43.42806" lon="6.12168">
        <ele>237.60000610352</ele>
        <time>2015-01-28T14:10:11Z</time>
      </trkpt>
      <trkpt lat="43.42818" lon="6.12167">
        <ele>237</ele>
        <time>2015-01-28T14:10:17Z</time>
      </trkpt>
      <trkpt lat="43.4282" lon="6.12165">
        <ele>237</ele>
        <time>2015-01-28T14:10:18Z</time>
      </trkpt>
      <trkpt lat="43.42831" lon="6.12163">
        <ele>237</ele>
        <time>2015-01-28T14:10:21Z</time>
      </trkpt>
      <trkpt lat="43.42852" lon="6.12163">
        <ele>236.39999389648</ele>
        <time>2015-01-28T14:10:26Z</time>
      </trkpt>
      <trkpt lat="43.42857" lon="6.12164">
        <ele>235.80000305176</ele>
        <time>2015-01-28T14:10:27Z</time>
      </trkpt>
      <trkpt lat="43.42865" lon="6.12167">
        <ele>234.60000610352</ele>
        <time>2015-01-28T14:10:29Z</time>
      </trkpt>
      <trkpt lat="43.42869" lon="6.12165">
        <ele>234.19999694824</ele>
        <time>2015-01-28T14:10:30Z</time>
      </trkpt>
      <trkpt lat="43.42878" lon="6.12163">
        <ele>233.80000305176</ele>
        <time>2015-01-28T14:10:32Z</time>
      </trkpt>
      <trkpt lat="43.42884" lon="6.12163">
        <ele>233.39999389648</ele>
        <time>2015-01-28T14:10:33Z</time>
      </trkpt>
      <trkpt lat="43.42894" lon="6.12161">
        <ele>233.39999389648</ele>
        <time>2015-01-28T14:10:35Z</time>
      </trkpt>
      <trkpt lat="43.42899" lon="6.12159">
        <ele>233.19999694824</ele>
        <time>2015-01-28T14:10:36Z</time>
      </trkpt>
      <trkpt lat="43.42909" lon="6.12145">
        <ele>232.60000610352</ele>
        <time>2015-01-28T14:10:39Z</time>
      </trkpt>
      <trkpt lat="43.42911" lon="6.12139">
        <ele>231.80000305176</ele>
        <time>2015-01-28T14:10:40Z</time>
      </trkpt>
      <trkpt lat="43.42912" lon="6.12129">
        <ele>231</ele>
        <time>2015-01-28T14:10:42Z</time>
      </trkpt>
      <trkpt lat="43.4291" lon="6.12123">
        <ele>230.19999694824</ele>
        <time>2015-01-28T14:10:43Z</time>
      </trkpt>
      <trkpt lat="43.42912" lon="6.12117">
        <ele>229.80000305176</ele>
        <time>2015-01-28T14:10:44Z</time>
      </trkpt>
      <trkpt lat="43.42912" lon="6.12111">
        <ele>229.60000610352</ele>
        <time>2015-01-28T14:10:45Z</time>
      </trkpt>
      <trkpt lat="43.42912" lon="6.12105">
        <ele>229.39999389648</ele>
        <time>2015-01-28T14:10:46Z</time>
      </trkpt>
      <trkpt lat="43.42911" lon="6.121">
        <ele>229.19999694824</ele>
        <time>2015-01-28T14:10:47Z</time>
      </trkpt>
      <trkpt lat="43.4291" lon="6.12076">
        <ele>228.19999694824</ele>
        <time>2015-01-28T14:10:51Z</time>
      </trkpt>
      <trkpt lat="43.4291" lon="6.1207">
        <ele>227.80000305176</ele>
        <time>2015-01-28T14:10:52Z</time>
      </trkpt>
      <trkpt lat="43.42908" lon="6.12063">
        <ele>227.80000305176</ele>
        <time>2015-01-28T14:10:53Z</time>
      </trkpt>
      <trkpt lat="43.42905" lon="6.12052">
        <ele>227.39999389648</ele>
        <time>2015-01-28T14:10:55Z</time>
      </trkpt>
      <trkpt lat="43.42903" lon="6.12046">
        <ele>227</ele>
        <time>2015-01-28T14:10:56Z</time>
      </trkpt>
      <trkpt lat="43.42902" lon="6.12039">
        <ele>227</ele>
        <time>2015-01-28T14:10:57Z</time>
      </trkpt>
      <trkpt lat="43.42902" lon="6.12034">
        <ele>226.80000305176</ele>
        <time>2015-01-28T14:10:58Z</time>
      </trkpt>
      <trkpt lat="43.42901" lon="6.12021">
        <ele>226</ele>
        <time>2015-01-28T14:11:00Z</time>
      </trkpt>
      <trkpt lat="43.429" lon="6.12014">
        <ele>225.39999389648</ele>
        <time>2015-01-28T14:11:01Z</time>
      </trkpt>
      <trkpt lat="43.42897" lon="6.12001">
        <ele>224.39999389648</ele>
        <time>2015-01-28T14:11:03Z</time>
      </trkpt>
      <trkpt lat="43.42894" lon="6.1199">
        <ele>224.39999389648</ele>
        <time>2015-01-28T14:11:05Z</time>
      </trkpt>
      <trkpt lat="43.4289" lon="6.11987">
        <ele>224.19999694824</ele>
        <time>2015-01-28T14:11:06Z</time>
      </trkpt>
      <trkpt lat="43.42887" lon="6.11978">
        <ele>223.60000610352</ele>
        <time>2015-01-28T14:11:08Z</time>
      </trkpt>
      <trkpt lat="43.42886" lon="6.11973">
        <ele>223.60000610352</ele>
        <time>2015-01-28T14:11:09Z</time>
      </trkpt>
      <trkpt lat="43.42884" lon="6.1196">
        <ele>223</ele>
        <time>2015-01-28T14:11:12Z</time>
      </trkpt>
      <trkpt lat="43.42884" lon="6.11956">
        <ele>222.60000610352</ele>
        <time>2015-01-28T14:11:13Z</time>
      </trkpt>
      <trkpt lat="43.42883" lon="6.11951">
        <ele>221.80000305176</ele>
        <time>2015-01-28T14:11:15Z</time>
      </trkpt>
      <trkpt lat="43.42882" lon="6.11944">
        <ele>221.39999389648</ele>
        <time>2015-01-28T14:11:18Z</time>
      </trkpt>
      <trkpt lat="43.42881" lon="6.1194">
        <ele>220.80000305176</ele>
        <time>2015-01-28T14:11:20Z</time>
      </trkpt>
      <trkpt lat="43.42879" lon="6.11924">
        <ele>220.19999694824</ele>
        <time>2015-01-28T14:11:25Z</time>
      </trkpt>
      <trkpt lat="43.42878" lon="6.11917">
        <ele>219.80000305176</ele>
        <time>2015-01-28T14:11:27Z</time>
      </trkpt>
      <trkpt lat="43.42879" lon="6.11915">
        <ele>219.60000610352</ele>
        <time>2015-01-28T14:11:28Z</time>
      </trkpt>
      <trkpt lat="43.4288" lon="6.11911">
        <ele>219.39999389648</ele>
        <time>2015-01-28T14:11:30Z</time>
      </trkpt>
      <trkpt lat="43.4288" lon="6.1191">
        <ele>218.80000305176</ele>
        <time>2015-01-28T14:11:34Z</time>
      </trkpt>
      <trkpt lat="43.4288" lon="6.1191">
        <ele>218.60000610352</ele>
        <time>2015-01-28T14:11:35Z</time>
      </trkpt>
      <trkpt lat="43.4288" lon="6.11908">
        <ele>218.39999389648</ele>
        <time>2015-01-28T14:11:41Z</time>
      </trkpt>
      <trkpt lat="43.4288" lon="6.11905">
        <ele>218.39999389648</ele>
        <time>2015-01-28T14:11:43Z</time>
      </trkpt>
      <trkpt lat="43.4288" lon="6.11905">
        <ele>218.39999389648</ele>
        <time>2015-01-28T14:11:45Z</time>
      </trkpt>
      <trkpt lat="43.4288" lon="6.11899">
        <ele>218.39999389648</ele>
        <time>2015-01-28T14:11:50Z</time>
      </trkpt>
      <trkpt lat="43.42879" lon="6.11897">
        <ele>218.19999694824</ele>
        <time>2015-01-28T14:11:51Z</time>
      </trkpt>
      <trkpt lat="43.42879" lon="6.11895">
        <ele>217.80000305176</ele>
        <time>2015-01-28T14:11:57Z</time>
      </trkpt>
      <trkpt lat="43.42878" lon="6.11891">
        <ele>217.80000305176</ele>
        <time>2015-01-28T14:12:05Z</time>
      </trkpt>
      <trkpt lat="43.42878" lon="6.11889">
        <ele>217.80000305176</ele>
        <time>2015-01-28T14:12:06Z</time>
      </trkpt>
      <trkpt lat="43.42878" lon="6.11889">
        <ele>217.60000610352</ele>
        <time>2015-01-28T14:12:10Z</time>
      </trkpt>
      <trkpt lat="43.42877" lon="6.11886">
        <ele>217.80000305176</ele>
        <time>2015-01-28T14:12:14Z</time>
      </trkpt>
      <trkpt lat="43.42876" lon="6.11885">
        <ele>218</ele>
        <time>2015-01-28T14:12:17Z</time>
      </trkpt>
      <trkpt lat="43.42878" lon="6.11875">
        <ele>217.60000610352</ele>
        <time>2015-01-28T14:12:23Z</time>
      </trkpt>
      <trkpt lat="43.42878" lon="6.11865">
        <ele>216.39999389648</ele>
        <time>2015-01-28T14:12:28Z</time>
      </trkpt>
      <trkpt lat="43.42879" lon="6.11864">
        <ele>216.39999389648</ele>
        <time>2015-01-28T14:12:29Z</time>
      </trkpt>
      <trkpt lat="43.42878" lon="6.1186">
        <ele>216.19999694824</ele>
        <time>2015-01-28T14:12:31Z</time>
      </trkpt>
      <trkpt lat="43.42876" lon="6.11856">
        <ele>216.19999694824</ele>
        <time>2015-01-28T14:12:33Z</time>
      </trkpt>
      <trkpt lat="43.42875" lon="6.11852">
        <ele>216.39999389648</ele>
        <time>2015-01-28T14:12:35Z</time>
      </trkpt>
      <trkpt lat="43.42874" lon="6.11851">
        <ele>216.39999389648</ele>
        <time>2015-01-28T14:12:36Z</time>
      </trkpt>
      <trkpt lat="43.42873" lon="6.11846">
        <ele>216.39999389648</ele>
        <time>2015-01-28T14:12:38Z</time>
      </trkpt>
      <trkpt lat="43.42875" lon="6.11839">
        <ele>215.60000610352</ele>
        <time>2015-01-28T14:12:42Z</time>
      </trkpt>
      <trkpt lat="43.42875" lon="6.11837">
        <ele>215.60000610352</ele>
        <time>2015-01-28T14:12:43Z</time>
      </trkpt>
      <trkpt lat="43.42875" lon="6.11835">
        <ele>215.39999389648</ele>
        <time>2015-01-28T14:12:44Z</time>
      </trkpt>
      <trkpt lat="43.42875" lon="6.11831">
        <ele>215</ele>
        <time>2015-01-28T14:12:46Z</time>
      </trkpt>
      <trkpt lat="43.42876" lon="6.11823">
        <ele>214.60000610352</ele>
        <time>2015-01-28T14:12:49Z</time>
      </trkpt>
      <trkpt lat="43.42876" lon="6.11822">
        <ele>214.19999694824</ele>
        <time>2015-01-28T14:12:50Z</time>
      </trkpt>
      <trkpt lat="43.42876" lon="6.11818">
        <ele>214.19999694824</ele>
        <time>2015-01-28T14:12:52Z</time>
      </trkpt>
      <trkpt lat="43.42877" lon="6.11811">
        <ele>213.80000305176</ele>
        <time>2015-01-28T14:12:54Z</time>
      </trkpt>
      <trkpt lat="43.42878" lon="6.11807">
        <ele>213.19999694824</ele>
        <time>2015-01-28T14:12:56Z</time>
      </trkpt>
      <trkpt lat="43.42878" lon="6.11804">
        <ele>213.19999694824</ele>
        <time>2015-01-28T14:12:57Z</time>
      </trkpt>
      <trkpt lat="43.42879" lon="6.11799">
        <ele>212.60000610352</ele>
        <time>2015-01-28T14:12:59Z</time>
      </trkpt>
      <trkpt lat="43.42881" lon="6.11792">
        <ele>212.19999694824</ele>
        <time>2015-01-28T14:13:02Z</time>
      </trkpt>
      <trkpt lat="43.42881" lon="6.11787">
        <ele>211.60000610352</ele>
        <time>2015-01-28T14:13:04Z</time>
      </trkpt>
      <trkpt lat="43.42881" lon="6.11776">
        <ele>211.19999694824</ele>
        <time>2015-01-28T14:13:09Z</time>
      </trkpt>
      <trkpt lat="43.42882" lon="6.11772">
        <ele>211</ele>
        <time>2015-01-28T14:13:11Z</time>
      </trkpt>
      <trkpt lat="43.42884" lon="6.11767">
        <ele>210.19999694824</ele>
        <time>2015-01-28T14:13:15Z</time>
      </trkpt>
      <trkpt lat="43.42885" lon="6.11766">
        <ele>210</ele>
        <time>2015-01-28T14:13:16Z</time>
      </trkpt>
      <trkpt lat="43.42891" lon="6.1177">
        <ele>208.39999389648</ele>
        <time>2015-01-28T14:13:19Z</time>
      </trkpt>
      <trkpt lat="43.42891" lon="6.1177">
        <ele>208</ele>
        <time>2015-01-28T14:13:20Z</time>
      </trkpt>
      <trkpt lat="43.42892" lon="6.11772">
        <ele>208.19999694824</ele>
        <time>2015-01-28T14:13:23Z</time>
      </trkpt>
      <trkpt lat="43.42892" lon="6.11771">
        <ele>208.19999694824</ele>
        <time>2015-01-28T14:13:26Z</time>
      </trkpt>
      <trkpt lat="43.42892" lon="6.11771">
        <ele>208.19999694824</ele>
        <time>2015-01-28T14:13:35Z</time>
      </trkpt>
      <trkpt lat="43.42892" lon="6.1177">
        <ele>208.80000305176</ele>
        <time>2015-01-28T14:13:40Z</time>
      </trkpt>
      <trkpt lat="43.42891" lon="6.11769">
        <ele>208.80000305176</ele>
        <time>2015-01-28T14:13:45Z</time>
      </trkpt>
      <trkpt lat="43.42891" lon="6.11768">
        <ele>208.19999694824</ele>
        <time>2015-01-28T14:13:53Z</time>
      </trkpt>
      <trkpt lat="43.42892" lon="6.11768">
        <ele>207.80000305176</ele>
        <time>2015-01-28T14:13:58Z</time>
      </trkpt>
      <trkpt lat="43.42892" lon="6.11768">
        <ele>207.80000305176</ele>
        <time>2015-01-28T14:14:03Z</time>
      </trkpt>
      <trkpt lat="43.42892" lon="6.11769">
        <ele>208</ele>
        <time>2015-01-28T14:14:15Z</time>
      </trkpt>
      <trkpt lat="43.42892" lon="6.11769">
        <ele>208</ele>
        <time>2015-01-28T14:14:33Z</time>
      </trkpt>
      <trkpt lat="43.42892" lon="6.11769">
        <ele>208</ele>
        <time>2015-01-28T14:14:41Z</time>
      </trkpt>
      <trkpt lat="43.42892" lon="6.11769">
        <ele>208</ele>
        <time>2015-01-28T14:14:46Z</time>
      </trkpt>
      <trkpt lat="43.42892" lon="6.11769">
        <ele>208</ele>
        <time>2015-01-28T14:14:49Z</time>
      </trkpt>
      <trkpt lat="43.42892" lon="6.11769">
        <ele>207.80000305176</ele>
        <time>2015-01-28T14:15:23Z</time>
      </trkpt>
      <trkpt lat="43.42892" lon="6.11769">
        <ele>207.80000305176</ele>
        <time>2015-01-28T14:15:25Z</time>
      </trkpt>
      <trkpt lat="43.42892" lon="6.11769">
        <ele>208.19999694824</ele>
        <time>2015-01-28T14:15:38Z</time>
      </trkpt>
      <trkpt lat="43.42892" lon="6.11769">
        <ele>208.19999694824</ele>
        <time>2015-01-28T14:15:44Z</time>
      </trkpt>
      <trkpt lat="43.42892" lon="6.11769">
        <ele>208.19999694824</ele>
        <time>2015-01-28T14:16:10Z</time>
      </trkpt>
      <trkpt lat="43.42892" lon="6.1177">
        <ele>209.19999694824</ele>
        <time>2015-01-28T14:16:19Z</time>
      </trkpt>
      <trkpt lat="43.42892" lon="6.11769">
        <ele>208.80000305176</ele>
        <time>2015-01-28T14:16:32Z</time>
      </trkpt>
      <trkpt lat="43.42893" lon="6.1177">
        <ele>208.80000305176</ele>
        <time>2015-01-28T14:16:37Z</time>
      </trkpt>
      <trkpt lat="43.42896" lon="6.11776">
        <ele>208.19999694824</ele>
        <time>2015-01-28T14:16:39Z</time>
      </trkpt>
      <trkpt lat="43.42898" lon="6.1178">
        <ele>207.60000610352</ele>
        <time>2015-01-28T14:16:40Z</time>
      </trkpt>
      <trkpt lat="43.429" lon="6.11788">
        <ele>207.60000610352</ele>
        <time>2015-01-28T14:16:43Z</time>
      </trkpt>
      <trkpt lat="43.42901" lon="6.11791">
        <ele>207.19999694824</ele>
        <time>2015-01-28T14:16:48Z</time>
      </trkpt>
      <trkpt lat="43.42902" lon="6.11794">
        <ele>206.80000305176</ele>
        <time>2015-01-28T14:16:58Z</time>
      </trkpt>
      <trkpt lat="43.42902" lon="6.11796">
        <ele>207</ele>
        <time>2015-01-28T14:17:00Z</time>
      </trkpt>
      <trkpt lat="43.42902" lon="6.11805">
        <ele>207</ele>
        <time>2015-01-28T14:17:04Z</time>
      </trkpt>
      <trkpt lat="43.42907" lon="6.11826">
        <ele>206.80000305176</ele>
        <time>2015-01-28T14:17:10Z</time>
      </trkpt>
      <trkpt lat="43.42909" lon="6.1183">
        <ele>206.39999389648</ele>
        <time>2015-01-28T14:17:11Z</time>
      </trkpt>
      <trkpt lat="43.42912" lon="6.11842">
        <ele>206</ele>
        <time>2015-01-28T14:17:14Z</time>
      </trkpt>
      <trkpt lat="43.42915" lon="6.1186">
        <ele>205.80000305176</ele>
        <time>2015-01-28T14:17:18Z</time>
      </trkpt>
      <trkpt lat="43.42915" lon="6.11865">
        <ele>205.60000610352</ele>
        <time>2015-01-28T14:17:19Z</time>
      </trkpt>
      <trkpt lat="43.42916" lon="6.11869">
        <ele>205.19999694824</ele>
        <time>2015-01-28T14:17:20Z</time>
      </trkpt>
      <trkpt lat="43.42919" lon="6.11888">
        <ele>204.60000610352</ele>
        <time>2015-01-28T14:17:24Z</time>
      </trkpt>
      <trkpt lat="43.42922" lon="6.11897">
        <ele>204.19999694824</ele>
        <time>2015-01-28T14:17:26Z</time>
      </trkpt>
      <trkpt lat="43.42923" lon="6.11911">
        <ele>203.80000305176</ele>
        <time>2015-01-28T14:17:29Z</time>
      </trkpt>
      <trkpt lat="43.42923" lon="6.11919">
        <ele>203.80000305176</ele>
        <time>2015-01-28T14:17:31Z</time>
      </trkpt>
      <trkpt lat="43.42925" lon="6.11927">
        <ele>203.39999389648</ele>
        <time>2015-01-28T14:17:33Z</time>
      </trkpt>
      <trkpt lat="43.42927" lon="6.1193">
        <ele>203</ele>
        <time>2015-01-28T14:17:34Z</time>
      </trkpt>
      <trkpt lat="43.42929" lon="6.11943">
        <ele>203.19999694824</ele>
        <time>2015-01-28T14:17:37Z</time>
      </trkpt>
      <trkpt lat="43.42936" lon="6.1196">
        <ele>202</ele>
        <time>2015-01-28T14:17:41Z</time>
      </trkpt>
      <trkpt lat="43.42939" lon="6.1197">
        <ele>201.80000305176</ele>
        <time>2015-01-28T14:17:43Z</time>
      </trkpt>
      <trkpt lat="43.42942" lon="6.11988">
        <ele>201.60000610352</ele>
        <time>2015-01-28T14:17:46Z</time>
      </trkpt>
      <trkpt lat="43.42943" lon="6.12004">
        <ele>201</ele>
        <time>2015-01-28T14:17:49Z</time>
      </trkpt>
      <trkpt lat="43.42946" lon="6.12008">
        <ele>200.80000305176</ele>
        <time>2015-01-28T14:17:50Z</time>
      </trkpt>
      <trkpt lat="43.42952" lon="6.12021">
        <ele>200.39999389648</ele>
        <time>2015-01-28T14:17:53Z</time>
      </trkpt>
      <trkpt lat="43.42955" lon="6.12032">
        <ele>200.19999694824</ele>
        <time>2015-01-28T14:17:55Z</time>
      </trkpt>
      <trkpt lat="43.42959" lon="6.12044">
        <ele>199.80000305176</ele>
        <time>2015-01-28T14:17:57Z</time>
      </trkpt>
      <trkpt lat="43.42965" lon="6.12067">
        <ele>199.19999694824</ele>
        <time>2015-01-28T14:18:01Z</time>
      </trkpt>
      <trkpt lat="43.4297" lon="6.12085">
        <ele>199</ele>
        <time>2015-01-28T14:18:04Z</time>
      </trkpt>
      <trkpt lat="43.42976" lon="6.12108">
        <ele>198.39999389648</ele>
        <time>2015-01-28T14:18:08Z</time>
      </trkpt>
      <trkpt lat="43.42985" lon="6.12138">
        <ele>198</ele>
        <time>2015-01-28T14:18:13Z</time>
      </trkpt>
      <trkpt lat="43.42986" lon="6.12143">
        <ele>197.80000305176</ele>
        <time>2015-01-28T14:18:14Z</time>
      </trkpt>
      <trkpt lat="43.42992" lon="6.12164">
        <ele>196.80000305176</ele>
        <time>2015-01-28T14:18:18Z</time>
      </trkpt>
      <trkpt lat="43.42994" lon="6.12174">
        <ele>196.60000610352</ele>
        <time>2015-01-28T14:18:20Z</time>
      </trkpt>
      <trkpt lat="43.43003" lon="6.12202">
        <ele>195.80000305176</ele>
        <time>2015-01-28T14:18:25Z</time>
      </trkpt>
      <trkpt lat="43.43007" lon="6.12228">
        <ele>194.60000610352</ele>
        <time>2015-01-28T14:18:29Z</time>
      </trkpt>
      <trkpt lat="43.43011" lon="6.12241">
        <ele>194.39999389648</ele>
        <time>2015-01-28T14:18:31Z</time>
      </trkpt>
      <trkpt lat="43.43018" lon="6.12266">
        <ele>193.60000610352</ele>
        <time>2015-01-28T14:18:35Z</time>
      </trkpt>
      <trkpt lat="43.43023" lon="6.12283">
        <ele>192.19999694824</ele>
        <time>2015-01-28T14:18:38Z</time>
      </trkpt>
      <trkpt lat="43.43024" lon="6.12287">
        <ele>191.80000305176</ele>
        <time>2015-01-28T14:18:39Z</time>
      </trkpt>
      <trkpt lat="43.43024" lon="6.12293">
        <ele>191.19999694824</ele>
        <time>2015-01-28T14:18:41Z</time>
      </trkpt>
      <trkpt lat="43.43024" lon="6.12293">
        <ele>191</ele>
        <time>2015-01-28T14:18:42Z</time>
      </trkpt>
      <trkpt lat="43.43023" lon="6.12297">
        <ele>190.39999389648</ele>
        <time>2015-01-28T14:18:45Z</time>
      </trkpt>
      <trkpt lat="43.43023" lon="6.12301">
        <ele>190.19999694824</ele>
        <time>2015-01-28T14:18:48Z</time>
      </trkpt>
      <trkpt lat="43.43024" lon="6.12305">
        <ele>190</ele>
        <time>2015-01-28T14:18:50Z</time>
      </trkpt>
      <trkpt lat="43.43025" lon="6.12314">
        <ele>190.19999694824</ele>
        <time>2015-01-28T14:18:54Z</time>
      </trkpt>
      <trkpt lat="43.43027" lon="6.12333">
        <ele>189.80000305176</ele>
        <time>2015-01-28T14:18:59Z</time>
      </trkpt>
      <trkpt lat="43.43029" lon="6.12359">
        <ele>189</ele>
        <time>2015-01-28T14:19:04Z</time>
      </trkpt>
      <trkpt lat="43.43031" lon="6.12363">
        <ele>189</ele>
        <time>2015-01-28T14:19:05Z</time>
      </trkpt>
      <trkpt lat="43.43032" lon="6.12368">
        <ele>188</ele>
        <time>2015-01-28T14:19:07Z</time>
      </trkpt>
      <trkpt lat="43.43033" lon="6.12372">
        <ele>187.60000610352</ele>
        <time>2015-01-28T14:19:09Z</time>
      </trkpt>
      <trkpt lat="43.43035" lon="6.12375">
        <ele>187.19999694824</ele>
        <time>2015-01-28T14:19:11Z</time>
      </trkpt>
      <trkpt lat="43.43036" lon="6.12377">
        <ele>186.80000305176</ele>
        <time>2015-01-28T14:19:12Z</time>
      </trkpt>
      <trkpt lat="43.43036" lon="6.1238">
        <ele>186.39999389648</ele>
        <time>2015-01-28T14:19:13Z</time>
      </trkpt>
      <trkpt lat="43.43035" lon="6.12392">
        <ele>186.80000305176</ele>
        <time>2015-01-28T14:19:17Z</time>
      </trkpt>
      <trkpt lat="43.43029" lon="6.12392">
        <ele>187.39999389648</ele>
        <time>2015-01-28T14:19:21Z</time>
      </trkpt>
      <trkpt lat="43.43028" lon="6.12389">
        <ele>187.60000610352</ele>
        <time>2015-01-28T14:19:23Z</time>
      </trkpt>
      <trkpt lat="43.43026" lon="6.12388">
        <ele>187.60000610352</ele>
        <time>2015-01-28T14:19:25Z</time>
      </trkpt>
      <trkpt lat="43.43024" lon="6.12385">
        <ele>187.80000305176</ele>
        <time>2015-01-28T14:19:27Z</time>
      </trkpt>
      <trkpt lat="43.43024" lon="6.1238">
        <ele>187.39999389648</ele>
        <time>2015-01-28T14:19:30Z</time>
      </trkpt>
      <trkpt lat="43.43024" lon="6.12381">
        <ele>187.39999389648</ele>
        <time>2015-01-28T14:19:35Z</time>
      </trkpt>
      <trkpt lat="43.43024" lon="6.1238">
        <ele>187.60000610352</ele>
        <time>2015-01-28T14:19:41Z</time>
      </trkpt>
      <trkpt lat="43.43025" lon="6.1238">
        <ele>188</ele>
        <time>2015-01-28T14:19:48Z</time>
      </trkpt>
      <trkpt lat="43.43024" lon="6.1238">
        <ele>187.80000305176</ele>
        <time>2015-01-28T14:19:57Z</time>
      </trkpt>
      <trkpt lat="43.43024" lon="6.1238">
        <ele>187.80000305176</ele>
        <time>2015-01-28T14:20:01Z</time>
      </trkpt>
      <trkpt lat="43.43024" lon="6.1238">
        <ele>188.19999694824</ele>
        <time>2015-01-28T14:20:25Z</time>
      </trkpt>
      <trkpt lat="43.43024" lon="6.1238">
        <ele>188.19999694824</ele>
        <time>2015-01-28T14:20:29Z</time>
      </trkpt>
      <trkpt lat="43.43024" lon="6.1238">
        <ele>188.19999694824</ele>
        <time>2015-01-28T14:20:42Z</time>
      </trkpt>
      <trkpt lat="43.43024" lon="6.1238">
        <ele>188.60000610352</ele>
        <time>2015-01-28T14:20:47Z</time>
      </trkpt>
      <trkpt lat="43.43024" lon="6.1238">
        <ele>188.60000610352</ele>
        <time>2015-01-28T14:20:57Z</time>
      </trkpt>
      <trkpt lat="43.43024" lon="6.1238">
        <ele>188.60000610352</ele>
        <time>2015-01-28T14:21:00Z</time>
      </trkpt>
      <trkpt lat="43.43024" lon="6.12379">
        <ele>188.60000610352</ele>
        <time>2015-01-28T14:21:09Z</time>
      </trkpt>
      <trkpt lat="43.43024" lon="6.12379">
        <ele>188.80000305176</ele>
        <time>2015-01-28T14:21:17Z</time>
      </trkpt>
      <trkpt lat="43.43024" lon="6.12379">
        <ele>189</ele>
        <time>2015-01-28T14:21:18Z</time>
      </trkpt>
      <trkpt lat="43.43024" lon="6.12379">
        <ele>188.60000610352</ele>
        <time>2015-01-28T14:21:29Z</time>
      </trkpt>
      <trkpt lat="43.43024" lon="6.12379">
        <ele>188.60000610352</ele>
        <time>2015-01-28T14:21:37Z</time>
      </trkpt>
      <trkpt lat="43.43024" lon="6.1238">
        <ele>188.60000610352</ele>
        <time>2015-01-28T14:21:44Z</time>
      </trkpt>
      <trkpt lat="43.43024" lon="6.1238">
        <ele>188.60000610352</ele>
        <time>2015-01-28T14:21:51Z</time>
      </trkpt>
      <trkpt lat="43.43024" lon="6.1238">
        <ele>189</ele>
        <time>2015-01-28T14:21:54Z</time>
      </trkpt>
      <trkpt lat="43.43024" lon="6.1238">
        <ele>189</ele>
        <time>2015-01-28T14:21:59Z</time>
      </trkpt>
      <trkpt lat="43.43024" lon="6.1238">
        <ele>188.80000305176</ele>
        <time>2015-01-28T14:22:06Z</time>
      </trkpt>
      <trkpt lat="43.43024" lon="6.1238">
        <ele>188.80000305176</ele>
        <time>2015-01-28T14:22:12Z</time>
      </trkpt>
      <trkpt lat="43.43025" lon="6.1238">
        <ele>188.80000305176</ele>
        <time>2015-01-28T14:22:21Z</time>
      </trkpt>
      <trkpt lat="43.43025" lon="6.1238">
        <ele>188.60000610352</ele>
        <time>2015-01-28T14:22:22Z</time>
      </trkpt>
      <trkpt lat="43.43026" lon="6.12379">
        <ele>188.60000610352</ele>
        <time>2015-01-28T14:22:23Z</time>
      </trkpt>
      <trkpt lat="43.43031" lon="6.12379">
        <ele>188.19999694824</ele>
        <time>2015-01-28T14:22:27Z</time>
      </trkpt>
      <trkpt lat="43.43033" lon="6.12377">
        <ele>187.80000305176</ele>
        <time>2015-01-28T14:22:29Z</time>
      </trkpt>
      <trkpt lat="43.43034" lon="6.12372">
        <ele>187.80000305176</ele>
        <time>2015-01-28T14:22:32Z</time>
      </trkpt>
      <trkpt lat="43.43032" lon="6.12363">
        <ele>188.80000305176</ele>
        <time>2015-01-28T14:22:37Z</time>
      </trkpt>
      <trkpt lat="43.43032" lon="6.12362">
        <ele>189</ele>
        <time>2015-01-28T14:22:38Z</time>
      </trkpt>
      <trkpt lat="43.43031" lon="6.12358">
        <ele>189.19999694824</ele>
        <time>2015-01-28T14:22:40Z</time>
      </trkpt>
      <trkpt lat="43.4303" lon="6.12352">
        <ele>189.39999389648</ele>
        <time>2015-01-28T14:22:43Z</time>
      </trkpt>
      <trkpt lat="43.43029" lon="6.12349">
        <ele>189.60000610352</ele>
        <time>2015-01-28T14:22:44Z</time>
      </trkpt>
      <trkpt lat="43.43027" lon="6.12338">
        <ele>189.80000305176</ele>
        <time>2015-01-28T14:22:48Z</time>
      </trkpt>
      <trkpt lat="43.43027" lon="6.12333">
        <ele>189.80000305176</ele>
        <time>2015-01-28T14:22:50Z</time>
      </trkpt>
      <trkpt lat="43.43026" lon="6.12321">
        <ele>190.39999389648</ele>
        <time>2015-01-28T14:22:56Z</time>
      </trkpt>
      <trkpt lat="43.43026" lon="6.12319">
        <ele>190.60000610352</ele>
        <time>2015-01-28T14:22:57Z</time>
      </trkpt>
      <trkpt lat="43.43025" lon="6.12305">
        <ele>190.60000610352</ele>
        <time>2015-01-28T14:23:05Z</time>
      </trkpt>
      <trkpt lat="43.43025" lon="6.123">
        <ele>191</ele>
        <time>2015-01-28T14:23:09Z</time>
      </trkpt>
      <trkpt lat="43.43025" lon="6.12298">
        <ele>191</ele>
        <time>2015-01-28T14:23:10Z</time>
      </trkpt>
      <trkpt lat="43.43026" lon="6.12297">
        <ele>190.80000305176</ele>
        <time>2015-01-28T14:23:11Z</time>
      </trkpt>
      <trkpt lat="43.43026" lon="6.12296">
        <ele>190.80000305176</ele>
        <time>2015-01-28T14:23:12Z</time>
      </trkpt>
      <trkpt lat="43.43027" lon="6.12292">
        <ele>191.60000610352</ele>
        <time>2015-01-28T14:23:14Z</time>
      </trkpt>
      <trkpt lat="43.43027" lon="6.12287">
        <ele>192.19999694824</ele>
        <time>2015-01-28T14:23:17Z</time>
      </trkpt>
      <trkpt lat="43.43026" lon="6.12283">
        <ele>192.80000305176</ele>
        <time>2015-01-28T14:23:19Z</time>
      </trkpt>
      <trkpt lat="43.43022" lon="6.1227">
        <ele>193</ele>
        <time>2015-01-28T14:23:25Z</time>
      </trkpt>
      <trkpt lat="43.43017" lon="6.12254">
        <ele>193.60000610352</ele>
        <time>2015-01-28T14:23:32Z</time>
      </trkpt>
      <trkpt lat="43.43016" lon="6.12252">
        <ele>193.80000305176</ele>
        <time>2015-01-28T14:23:33Z</time>
      </trkpt>
      <trkpt lat="43.43012" lon="6.12236">
        <ele>194.60000610352</ele>
        <time>2015-01-28T14:23:40Z</time>
      </trkpt>
      <trkpt lat="43.43011" lon="6.12232">
        <ele>194.80000305176</ele>
        <time>2015-01-28T14:23:42Z</time>
      </trkpt>
      <trkpt lat="43.43008" lon="6.12221">
        <ele>195.39999389648</ele>
        <time>2015-01-28T14:23:47Z</time>
      </trkpt>
      <trkpt lat="43.43007" lon="6.12212">
        <ele>196</ele>
        <time>2015-01-28T14:23:52Z</time>
      </trkpt>
      <trkpt lat="43.43004" lon="6.12197">
        <ele>196.19999694824</ele>
        <time>2015-01-28T14:23:59Z</time>
      </trkpt>
      <trkpt lat="43.43003" lon="6.12196">
        <ele>196.19999694824</ele>
        <time>2015-01-28T14:24:00Z</time>
      </trkpt>
      <trkpt lat="43.43" lon="6.12188">
        <ele>196.39999389648</ele>
        <time>2015-01-28T14:24:04Z</time>
      </trkpt>
      <trkpt lat="43.43" lon="6.12186">
        <ele>196.60000610352</ele>
        <time>2015-01-28T14:24:05Z</time>
      </trkpt>
      <trkpt lat="43.42999" lon="6.12182">
        <ele>197</ele>
        <time>2015-01-28T14:24:07Z</time>
      </trkpt>
      <trkpt lat="43.42995" lon="6.12169">
        <ele>197.60000610352</ele>
        <time>2015-01-28T14:24:13Z</time>
      </trkpt>
      <trkpt lat="43.42992" lon="6.12156">
        <ele>197.80000305176</ele>
        <time>2015-01-28T14:24:20Z</time>
      </trkpt>
      <trkpt lat="43.42991" lon="6.12154">
        <ele>198</ele>
        <time>2015-01-28T14:24:21Z</time>
      </trkpt>
      <trkpt lat="43.42987" lon="6.12138">
        <ele>198.19999694824</ele>
        <time>2015-01-28T14:24:29Z</time>
      </trkpt>
      <trkpt lat="43.42981" lon="6.12115">
        <ele>198.60000610352</ele>
        <time>2015-01-28T14:24:40Z</time>
      </trkpt>
      <trkpt lat="43.42977" lon="6.12102">
        <ele>199</ele>
        <time>2015-01-28T14:24:47Z</time>
      </trkpt>
      <trkpt lat="43.42973" lon="6.12087">
        <ele>199.39999389648</ele>
        <time>2015-01-28T14:24:55Z</time>
      </trkpt>
      <trkpt lat="43.42969" lon="6.12072">
        <ele>200.39999389648</ele>
        <time>2015-01-28T14:25:02Z</time>
      </trkpt>
      <trkpt lat="43.42967" lon="6.12065">
        <ele>200.39999389648</ele>
        <time>2015-01-28T14:25:05Z</time>
      </trkpt>
      <trkpt lat="43.42961" lon="6.12046">
        <ele>200.80000305176</ele>
        <time>2015-01-28T14:25:14Z</time>
      </trkpt>
      <trkpt lat="43.42958" lon="6.12031">
        <ele>201</ele>
        <time>2015-01-28T14:25:21Z</time>
      </trkpt>
      <trkpt lat="43.42955" lon="6.12023">
        <ele>201.39999389648</ele>
        <time>2015-01-28T14:25:25Z</time>
      </trkpt>
      <trkpt lat="43.42952" lon="6.12015">
        <ele>201.60000610352</ele>
        <time>2015-01-28T14:25:29Z</time>
      </trkpt>
      <trkpt lat="43.42945" lon="6.12002">
        <ele>202</ele>
        <time>2015-01-28T14:25:37Z</time>
      </trkpt>
      <trkpt lat="43.42945" lon="6.11988">
        <ele>202</ele>
        <time>2015-01-28T14:25:43Z</time>
      </trkpt>
      <trkpt lat="43.42944" lon="6.11982">
        <ele>202.60000610352</ele>
        <time>2015-01-28T14:25:46Z</time>
      </trkpt>
      <trkpt lat="43.42942" lon="6.11973">
        <ele>202.60000610352</ele>
        <time>2015-01-28T14:25:50Z</time>
      </trkpt>
      <trkpt lat="43.42939" lon="6.11959">
        <ele>203.60000610352</ele>
        <time>2015-01-28T14:25:56Z</time>
      </trkpt>
      <trkpt lat="43.42938" lon="6.11957">
        <ele>203.39999389648</ele>
        <time>2015-01-28T14:25:57Z</time>
      </trkpt>
      <trkpt lat="43.42931" lon="6.11943">
        <ele>204.19999694824</ele>
        <time>2015-01-28T14:26:05Z</time>
      </trkpt>
      <trkpt lat="43.4293" lon="6.11936">
        <ele>204.60000610352</ele>
        <time>2015-01-28T14:26:08Z</time>
      </trkpt>
      <trkpt lat="43.42929" lon="6.11932">
        <ele>204.80000305176</ele>
        <time>2015-01-28T14:26:10Z</time>
      </trkpt>
      <trkpt lat="43.42925" lon="6.11919">
        <ele>205.39999389648</ele>
        <time>2015-01-28T14:26:17Z</time>
      </trkpt>
      <trkpt lat="43.42927" lon="6.11915">
        <ele>205.80000305176</ele>
        <time>2015-01-28T14:26:19Z</time>
      </trkpt>
      <trkpt lat="43.42926" lon="6.11908">
        <ele>206</ele>
        <time>2015-01-28T14:26:22Z</time>
      </trkpt>
      <trkpt lat="43.42926" lon="6.11905">
        <ele>206</ele>
        <time>2015-01-28T14:26:23Z</time>
      </trkpt>
      <trkpt lat="43.42925" lon="6.11903">
        <ele>206.19999694824</ele>
        <time>2015-01-28T14:26:24Z</time>
      </trkpt>
      <trkpt lat="43.42921" lon="6.1189">
        <ele>206.19999694824</ele>
        <time>2015-01-28T14:26:30Z</time>
      </trkpt>
      <trkpt lat="43.4292" lon="6.11883">
        <ele>207</ele>
        <time>2015-01-28T14:26:33Z</time>
      </trkpt>
      <trkpt lat="43.42918" lon="6.11873">
        <ele>207.19999694824</ele>
        <time>2015-01-28T14:26:38Z</time>
      </trkpt>
      <trkpt lat="43.42915" lon="6.11861">
        <ele>207.39999389648</ele>
        <time>2015-01-28T14:26:44Z</time>
      </trkpt>
      <trkpt lat="43.42913" lon="6.11848">
        <ele>208.19999694824</ele>
        <time>2015-01-28T14:26:50Z</time>
      </trkpt>
      <trkpt lat="43.42913" lon="6.11846">
        <ele>208</ele>
        <time>2015-01-28T14:26:51Z</time>
      </trkpt>
      <trkpt lat="43.42909" lon="6.1183">
        <ele>208.80000305176</ele>
        <time>2015-01-28T14:26:59Z</time>
      </trkpt>
      <trkpt lat="43.42905" lon="6.11818">
        <ele>209</ele>
        <time>2015-01-28T14:27:05Z</time>
      </trkpt>
      <trkpt lat="43.42904" lon="6.11813">
        <ele>209</ele>
        <time>2015-01-28T14:27:07Z</time>
      </trkpt>
      <trkpt lat="43.42904" lon="6.11811">
        <ele>209.19999694824</ele>
        <time>2015-01-28T14:27:08Z</time>
      </trkpt>
      <trkpt lat="43.42903" lon="6.11799">
        <ele>210</ele>
        <time>2015-01-28T14:27:13Z</time>
      </trkpt>
      <trkpt lat="43.42899" lon="6.11785">
        <ele>210.19999694824</ele>
        <time>2015-01-28T14:27:20Z</time>
      </trkpt>
      <trkpt lat="43.42896" lon="6.11781">
        <ele>210.19999694824</ele>
        <time>2015-01-28T14:27:23Z</time>
      </trkpt>
      <trkpt lat="43.42895" lon="6.11778">
        <ele>211</ele>
        <time>2015-01-28T14:27:26Z</time>
      </trkpt>
      <trkpt lat="43.42894" lon="6.11776">
        <ele>211</ele>
        <time>2015-01-28T14:27:34Z</time>
      </trkpt>
      <trkpt lat="43.42894" lon="6.11776">
        <ele>211.19999694824</ele>
        <time>2015-01-28T14:27:35Z</time>
      </trkpt>
      <trkpt lat="43.42894" lon="6.11775">
        <ele>211.39999389648</ele>
        <time>2015-01-28T14:27:40Z</time>
      </trkpt>
      <trkpt lat="43.42894" lon="6.11775">
        <ele>211.60000610352</ele>
        <time>2015-01-28T14:27:49Z</time>
      </trkpt>
      <trkpt lat="43.42894" lon="6.11774">
        <ele>212</ele>
        <time>2015-01-28T14:27:58Z</time>
      </trkpt>
      <trkpt lat="43.42893" lon="6.11773">
        <ele>212.19999694824</ele>
        <time>2015-01-28T14:28:09Z</time>
      </trkpt>
      <trkpt lat="43.42893" lon="6.11772">
        <ele>212.19999694824</ele>
        <time>2015-01-28T14:28:18Z</time>
      </trkpt>
      <trkpt lat="43.42892" lon="6.11771">
        <ele>212.39999389648</ele>
        <time>2015-01-28T14:28:22Z</time>
      </trkpt>
      <trkpt lat="43.42892" lon="6.11771">
        <ele>212.39999389648</ele>
        <time>2015-01-28T14:28:27Z</time>
      </trkpt>
      <trkpt lat="43.42888" lon="6.11768">
        <ele>212.39999389648</ele>
        <time>2015-01-28T14:28:32Z</time>
      </trkpt>
      <trkpt lat="43.42887" lon="6.11768">
        <ele>212</ele>
        <time>2015-01-28T14:28:37Z</time>
      </trkpt>
      <trkpt lat="43.42884" lon="6.11766">
        <ele>213</ele>
        <time>2015-01-28T14:28:45Z</time>
      </trkpt>
      <trkpt lat="43.42883" lon="6.11766">
        <ele>213.60000610352</ele>
        <time>2015-01-28T14:28:47Z</time>
      </trkpt>
      <trkpt lat="43.42882" lon="6.11767">
        <ele>214</ele>
        <time>2015-01-28T14:28:52Z</time>
      </trkpt>
      <trkpt lat="43.42882" lon="6.1177">
        <ele>214</ele>
        <time>2015-01-28T14:29:00Z</time>
      </trkpt>
      <trkpt lat="43.42882" lon="6.1177">
        <ele>214.19999694824</ele>
        <time>2015-01-28T14:29:01Z</time>
      </trkpt>
      <trkpt lat="43.4288" lon="6.11774">
        <ele>214.60000610352</ele>
        <time>2015-01-28T14:29:08Z</time>
      </trkpt>
      <trkpt lat="43.42879" lon="6.11775">
        <ele>214.80000305176</ele>
        <time>2015-01-28T14:29:16Z</time>
      </trkpt>
      <trkpt lat="43.42879" lon="6.11778">
        <ele>215.39999389648</ele>
        <time>2015-01-28T14:29:24Z</time>
      </trkpt>
      <trkpt lat="43.42879" lon="6.11779">
        <ele>215.39999389648</ele>
        <time>2015-01-28T14:29:25Z</time>
      </trkpt>
      <trkpt lat="43.42879" lon="6.11787">
        <ele>215.39999389648</ele>
        <time>2015-01-28T14:29:29Z</time>
      </trkpt>
      <trkpt lat="43.4288" lon="6.11791">
        <ele>215.60000610352</ele>
        <time>2015-01-28T14:29:33Z</time>
      </trkpt>
      <trkpt lat="43.4288" lon="6.11791">
        <ele>215.60000610352</ele>
        <time>2015-01-28T14:29:34Z</time>
      </trkpt>
      <trkpt lat="43.42879" lon="6.11797">
        <ele>216</ele>
        <time>2015-01-28T14:29:39Z</time>
      </trkpt>
      <trkpt lat="43.42878" lon="6.11798">
        <ele>216</ele>
        <time>2015-01-28T14:29:40Z</time>
      </trkpt>
      <trkpt lat="43.42877" lon="6.11799">
        <ele>216.60000610352</ele>
        <time>2015-01-28T14:29:46Z</time>
      </trkpt>
      <trkpt lat="43.42877" lon="6.118">
        <ele>217</ele>
        <time>2015-01-28T14:29:52Z</time>
      </trkpt>
      <trkpt lat="43.42876" lon="6.11803">
        <ele>217.39999389648</ele>
        <time>2015-01-28T14:29:54Z</time>
      </trkpt>
      <trkpt lat="43.42875" lon="6.11813">
        <ele>217.19999694824</ele>
        <time>2015-01-28T14:29:59Z</time>
      </trkpt>
      <trkpt lat="43.42875" lon="6.11818">
        <ele>217.60000610352</ele>
        <time>2015-01-28T14:30:02Z</time>
      </trkpt>
      <trkpt lat="43.42875" lon="6.11819">
        <ele>217.80000305176</ele>
        <time>2015-01-28T14:30:06Z</time>
      </trkpt>
      <trkpt lat="43.42874" lon="6.11818">
        <ele>218</ele>
        <time>2015-01-28T14:30:08Z</time>
      </trkpt>
      <trkpt lat="43.42874" lon="6.1182">
        <ele>217.80000305176</ele>
        <time>2015-01-28T14:30:13Z</time>
      </trkpt>
      <trkpt lat="43.42873" lon="6.11822">
        <ele>218</ele>
        <time>2015-01-28T14:30:19Z</time>
      </trkpt>
      <trkpt lat="43.42873" lon="6.11824">
        <ele>218</ele>
        <time>2015-01-28T14:30:26Z</time>
      </trkpt>
      <trkpt lat="43.42873" lon="6.11825">
        <ele>218.19999694824</ele>
        <time>2015-01-28T14:30:29Z</time>
      </trkpt>
      <trkpt lat="43.42873" lon="6.11825">
        <ele>218.39999389648</ele>
        <time>2015-01-28T14:30:36Z</time>
      </trkpt>
      <trkpt lat="43.42873" lon="6.11827">
        <ele>218.39999389648</ele>
        <time>2015-01-28T14:30:46Z</time>
      </trkpt>
      <trkpt lat="43.42873" lon="6.11831">
        <ele>218.80000305176</ele>
        <time>2015-01-28T14:30:52Z</time>
      </trkpt>
      <trkpt lat="43.42873" lon="6.11832">
        <ele>218.80000305176</ele>
        <time>2015-01-28T14:30:53Z</time>
      </trkpt>
      <trkpt lat="43.42872" lon="6.11837">
        <ele>219.19999694824</ele>
        <time>2015-01-28T14:30:57Z</time>
      </trkpt>
      <trkpt lat="43.42872" lon="6.11842">
        <ele>219.39999389648</ele>
        <time>2015-01-28T14:31:02Z</time>
      </trkpt>
      <trkpt lat="43.42873" lon="6.11847">
        <ele>219.80000305176</ele>
        <time>2015-01-28T14:31:08Z</time>
      </trkpt>
      <trkpt lat="43.42876" lon="6.11851">
        <ele>219.80000305176</ele>
        <time>2015-01-28T14:31:16Z</time>
      </trkpt>
      <trkpt lat="43.42877" lon="6.1185">
        <ele>219.60000610352</ele>
        <time>2015-01-28T14:31:24Z</time>
      </trkpt>
      <trkpt lat="43.42881" lon="6.11856">
        <ele>219.80000305176</ele>
        <time>2015-01-28T14:31:31Z</time>
      </trkpt>
      <trkpt lat="43.42884" lon="6.11864">
        <ele>220.39999389648</ele>
        <time>2015-01-28T14:31:39Z</time>
      </trkpt>
      <trkpt lat="43.42884" lon="6.11865">
        <ele>220.39999389648</ele>
        <time>2015-01-28T14:31:40Z</time>
      </trkpt>
      <trkpt lat="43.42885" lon="6.11873">
        <ele>220.60000610352</ele>
        <time>2015-01-28T14:31:46Z</time>
      </trkpt>
      <trkpt lat="43.42886" lon="6.11874">
        <ele>220.60000610352</ele>
        <time>2015-01-28T14:31:47Z</time>
      </trkpt>
      <trkpt lat="43.42886" lon="6.11879">
        <ele>221</ele>
        <time>2015-01-28T14:31:53Z</time>
      </trkpt>
      <trkpt lat="43.42888" lon="6.11882">
        <ele>220.60000610352</ele>
        <time>2015-01-28T14:32:00Z</time>
      </trkpt>
      <trkpt lat="43.42887" lon="6.11888">
        <ele>221</ele>
        <time>2015-01-28T14:32:07Z</time>
      </trkpt>
      <trkpt lat="43.42887" lon="6.11892">
        <ele>221.60000610352</ele>
        <time>2015-01-28T14:32:10Z</time>
      </trkpt>
      <trkpt lat="43.42886" lon="6.11894">
        <ele>221.80000305176</ele>
        <time>2015-01-28T14:32:12Z</time>
      </trkpt>
      <trkpt lat="43.42887" lon="6.11897">
        <ele>222</ele>
        <time>2015-01-28T14:32:14Z</time>
      </trkpt>
      <trkpt lat="43.42886" lon="6.11904">
        <ele>222.60000610352</ele>
        <time>2015-01-28T14:32:20Z</time>
      </trkpt>
      <trkpt lat="43.42885" lon="6.11906">
        <ele>222.60000610352</ele>
        <time>2015-01-28T14:32:21Z</time>
      </trkpt>
      <trkpt lat="43.42884" lon="6.11911">
        <ele>223.19999694824</ele>
        <time>2015-01-28T14:32:29Z</time>
      </trkpt>
      <trkpt lat="43.42881" lon="6.11915">
        <ele>223.60000610352</ele>
        <time>2015-01-28T14:32:35Z</time>
      </trkpt>
      <trkpt lat="43.42879" lon="6.1192">
        <ele>224.19999694824</ele>
        <time>2015-01-28T14:32:43Z</time>
      </trkpt>
      <trkpt lat="43.42878" lon="6.11922">
        <ele>224.60000610352</ele>
        <time>2015-01-28T14:32:50Z</time>
      </trkpt>
      <trkpt lat="43.42877" lon="6.11924">
        <ele>224.39999389648</ele>
        <time>2015-01-28T14:32:56Z</time>
      </trkpt>
      <trkpt lat="43.42876" lon="6.11927">
        <ele>224.60000610352</ele>
        <time>2015-01-28T14:32:59Z</time>
      </trkpt>
      <trkpt lat="43.42876" lon="6.11927">
        <ele>224.80000305176</ele>
        <time>2015-01-28T14:33:03Z</time>
      </trkpt>
      <trkpt lat="43.42876" lon="6.11928">
        <ele>225.19999694824</ele>
        <time>2015-01-28T14:33:06Z</time>
      </trkpt>
      <trkpt lat="43.42877" lon="6.11932">
        <ele>225.19999694824</ele>
        <time>2015-01-28T14:33:11Z</time>
      </trkpt>
      <trkpt lat="43.42877" lon="6.11938">
        <ele>225.39999389648</ele>
        <time>2015-01-28T14:33:18Z</time>
      </trkpt>
      <trkpt lat="43.42876" lon="6.11939">
        <ele>225.60000610352</ele>
        <time>2015-01-28T14:33:19Z</time>
      </trkpt>
      <trkpt lat="43.42877" lon="6.11942">
        <ele>226.39999389648</ele>
        <time>2015-01-28T14:33:22Z</time>
      </trkpt>
      <trkpt lat="43.42879" lon="6.11943">
        <ele>226.19999694824</ele>
        <time>2015-01-28T14:33:24Z</time>
      </trkpt>
      <trkpt lat="43.42882" lon="6.11946">
        <ele>225.80000305176</ele>
        <time>2015-01-28T14:33:29Z</time>
      </trkpt>
      <trkpt lat="43.42882" lon="6.11947">
        <ele>225.80000305176</ele>
        <time>2015-01-28T14:33:30Z</time>
      </trkpt>
      <trkpt lat="43.42883" lon="6.11954">
        <ele>226.19999694824</ele>
        <time>2015-01-28T14:33:38Z</time>
      </trkpt>
      <trkpt lat="43.42883" lon="6.11959">
        <ele>226.80000305176</ele>
        <time>2015-01-28T14:33:45Z</time>
      </trkpt>
      <trkpt lat="43.42883" lon="6.11967">
        <ele>227.39999389648</ele>
        <time>2015-01-28T14:33:52Z</time>
      </trkpt>
      <trkpt lat="43.42884" lon="6.1197">
        <ele>227.60000610352</ele>
        <time>2015-01-28T14:34:00Z</time>
      </trkpt>
      <trkpt lat="43.42886" lon="6.11975">
        <ele>227.60000610352</ele>
        <time>2015-01-28T14:34:03Z</time>
      </trkpt>
      <trkpt lat="43.42886" lon="6.11976">
        <ele>227.80000305176</ele>
        <time>2015-01-28T14:34:04Z</time>
      </trkpt>
      <trkpt lat="43.42887" lon="6.1198">
        <ele>227.80000305176</ele>
        <time>2015-01-28T14:34:06Z</time>
      </trkpt>
      <trkpt lat="43.42895" lon="6.11993">
        <ele>228</ele>
        <time>2015-01-28T14:34:14Z</time>
      </trkpt>
      <trkpt lat="43.42899" lon="6.1201">
        <ele>228.80000305176</ele>
        <time>2015-01-28T14:34:22Z</time>
      </trkpt>
      <trkpt lat="43.42899" lon="6.12012">
        <ele>229</ele>
        <time>2015-01-28T14:34:23Z</time>
      </trkpt>
      <trkpt lat="43.42901" lon="6.12029">
        <ele>230</ele>
        <time>2015-01-28T14:34:31Z</time>
      </trkpt>
      <trkpt lat="43.42901" lon="6.12031">
        <ele>230.19999694824</ele>
        <time>2015-01-28T14:34:32Z</time>
      </trkpt>
      <trkpt lat="43.42902" lon="6.12033">
        <ele>230.39999389648</ele>
        <time>2015-01-28T14:34:33Z</time>
      </trkpt>
      <trkpt lat="43.42902" lon="6.12039">
        <ele>230.60000610352</ele>
        <time>2015-01-28T14:34:36Z</time>
      </trkpt>
      <trkpt lat="43.42902" lon="6.12042">
        <ele>230.80000305176</ele>
        <time>2015-01-28T14:34:37Z</time>
      </trkpt>
      <trkpt lat="43.42904" lon="6.12051">
        <ele>231.39999389648</ele>
        <time>2015-01-28T14:34:42Z</time>
      </trkpt>
      <trkpt lat="43.42905" lon="6.12054">
        <ele>231.80000305176</ele>
        <time>2015-01-28T14:34:44Z</time>
      </trkpt>
      <trkpt lat="43.42907" lon="6.12061">
        <ele>231.39999389648</ele>
        <time>2015-01-28T14:34:50Z</time>
      </trkpt>
      <trkpt lat="43.42907" lon="6.12061">
        <ele>231.80000305176</ele>
        <time>2015-01-28T14:34:57Z</time>
      </trkpt>
      <trkpt lat="43.42907" lon="6.12061">
        <ele>231.80000305176</ele>
        <time>2015-01-28T14:35:02Z</time>
      </trkpt>
      <trkpt lat="43.42907" lon="6.12061">
        <ele>231.80000305176</ele>
        <time>2015-01-28T14:35:06Z</time>
      </trkpt>
      <trkpt lat="43.42907" lon="6.12061">
        <ele>232</ele>
        <time>2015-01-28T14:35:07Z</time>
      </trkpt>
      <trkpt lat="43.42907" lon="6.12061">
        <ele>232</ele>
        <time>2015-01-28T14:35:14Z</time>
      </trkpt>
      <trkpt lat="43.42907" lon="6.12061">
        <ele>232.19999694824</ele>
        <time>2015-01-28T14:35:19Z</time>
      </trkpt>
      <trkpt lat="43.42908" lon="6.12065">
        <ele>232.39999389648</ele>
        <time>2015-01-28T14:35:25Z</time>
      </trkpt>
      <trkpt lat="43.42908" lon="6.12067">
        <ele>232.39999389648</ele>
        <time>2015-01-28T14:35:26Z</time>
      </trkpt>
      <trkpt lat="43.42908" lon="6.1207">
        <ele>232.60000610352</ele>
        <time>2015-01-28T14:35:27Z</time>
      </trkpt>
      <trkpt lat="43.42908" lon="6.12079">
        <ele>232.80000305176</ele>
        <time>2015-01-28T14:35:31Z</time>
      </trkpt>
      <trkpt lat="43.42909" lon="6.12093">
        <ele>233.39999389648</ele>
        <time>2015-01-28T14:35:37Z</time>
      </trkpt>
      <trkpt lat="43.42909" lon="6.12095">
        <ele>233.80000305176</ele>
        <time>2015-01-28T14:35:38Z</time>
      </trkpt>
      <trkpt lat="43.4291" lon="6.121">
        <ele>234.19999694824</ele>
        <time>2015-01-28T14:35:40Z</time>
      </trkpt>
      <trkpt lat="43.42911" lon="6.1211">
        <ele>234.60000610352</ele>
        <time>2015-01-28T14:35:44Z</time>
      </trkpt>
      <trkpt lat="43.42911" lon="6.12114">
        <ele>235</ele>
        <time>2015-01-28T14:35:46Z</time>
      </trkpt>
      <trkpt lat="43.4291" lon="6.12118">
        <ele>235.19999694824</ele>
        <time>2015-01-28T14:35:48Z</time>
      </trkpt>
      <trkpt lat="43.42912" lon="6.12131">
        <ele>235.80000305176</ele>
        <time>2015-01-28T14:35:54Z</time>
      </trkpt>
      <trkpt lat="43.42911" lon="6.12135">
        <ele>236</ele>
        <time>2015-01-28T14:35:56Z</time>
      </trkpt>
      <trkpt lat="43.42908" lon="6.12142">
        <ele>236.60000610352</ele>
        <time>2015-01-28T14:36:00Z</time>
      </trkpt>
      <trkpt lat="43.42904" lon="6.12152">
        <ele>237.39999389648</ele>
        <time>2015-01-28T14:36:05Z</time>
      </trkpt>
      <trkpt lat="43.42902" lon="6.12155">
        <ele>237.60000610352</ele>
        <time>2015-01-28T14:36:07Z</time>
      </trkpt>
      <trkpt lat="43.42888" lon="6.1216">
        <ele>238.19999694824</ele>
        <time>2015-01-28T14:36:16Z</time>
      </trkpt>
      <trkpt lat="43.42886" lon="6.12161">
        <ele>238.39999389648</ele>
        <time>2015-01-28T14:36:17Z</time>
      </trkpt>
      <trkpt lat="43.42874" lon="6.12164">
        <ele>238.60000610352</ele>
        <time>2015-01-28T14:36:24Z</time>
      </trkpt>
      <trkpt lat="43.42865" lon="6.12163">
        <ele>239</ele>
        <time>2015-01-28T14:36:30Z</time>
      </trkpt>
      <trkpt lat="43.42856" lon="6.1216">
        <ele>239.39999389648</ele>
        <time>2015-01-28T14:36:35Z</time>
      </trkpt>
      <trkpt lat="43.42855" lon="6.12161">
        <ele>239.39999389648</ele>
        <time>2015-01-28T14:36:36Z</time>
      </trkpt>
      <trkpt lat="43.42853" lon="6.12161">
        <ele>239.80000305176</ele>
        <time>2015-01-28T14:36:37Z</time>
      </trkpt>
      <trkpt lat="43.42847" lon="6.12161">
        <ele>240.60000610352</ele>
        <time>2015-01-28T14:36:42Z</time>
      </trkpt>
      <trkpt lat="43.42846" lon="6.12162">
        <ele>240.60000610352</ele>
        <time>2015-01-28T14:36:43Z</time>
      </trkpt>
      <trkpt lat="43.42837" lon="6.12162">
        <ele>241</ele>
        <time>2015-01-28T14:36:49Z</time>
      </trkpt>
      <trkpt lat="43.42831" lon="6.12163">
        <ele>241.60000610352</ele>
        <time>2015-01-28T14:36:53Z</time>
      </trkpt>
      <trkpt lat="43.42827" lon="6.12163">
        <ele>241.80000305176</ele>
        <time>2015-01-28T14:36:55Z</time>
      </trkpt>
      <trkpt lat="43.42818" lon="6.12163">
        <ele>242</ele>
        <time>2015-01-28T14:37:01Z</time>
      </trkpt>
      <trkpt lat="43.42813" lon="6.12163">
        <ele>242.60000610352</ele>
        <time>2015-01-28T14:37:04Z</time>
      </trkpt>
      <trkpt lat="43.42806" lon="6.12163">
        <ele>242.19999694824</ele>
        <time>2015-01-28T14:37:07Z</time>
      </trkpt>
      <trkpt lat="43.42799" lon="6.12162">
        <ele>242.80000305176</ele>
        <time>2015-01-28T14:37:12Z</time>
      </trkpt>
      <trkpt lat="43.42792" lon="6.12159">
        <ele>243.60000610352</ele>
        <time>2015-01-28T14:37:18Z</time>
      </trkpt>
      <trkpt lat="43.4279" lon="6.12157">
        <ele>243.80000305176</ele>
        <time>2015-01-28T14:37:20Z</time>
      </trkpt>
      <trkpt lat="43.42788" lon="6.12155">
        <ele>244.19999694824</ele>
        <time>2015-01-28T14:37:23Z</time>
      </trkpt>
      <trkpt lat="43.42785" lon="6.12151">
        <ele>244.39999389648</ele>
        <time>2015-01-28T14:37:26Z</time>
      </trkpt>
      <trkpt lat="43.42778" lon="6.12141">
        <ele>245</ele>
        <time>2015-01-28T14:37:33Z</time>
      </trkpt>
      <trkpt lat="43.42777" lon="6.12139">
        <ele>245.19999694824</ele>
        <time>2015-01-28T14:37:34Z</time>
      </trkpt>
      <trkpt lat="43.42773" lon="6.12133">
        <ele>245.39999389648</ele>
        <time>2015-01-28T14:37:38Z</time>
      </trkpt>
      <trkpt lat="43.42771" lon="6.12129">
        <ele>245.80000305176</ele>
        <time>2015-01-28T14:37:40Z</time>
      </trkpt>
      <trkpt lat="43.42767" lon="6.12117">
        <ele>246.60000610352</ele>
        <time>2015-01-28T14:37:47Z</time>
      </trkpt>
      <trkpt lat="43.42766" lon="6.12116">
        <ele>246.80000305176</ele>
        <time>2015-01-28T14:37:48Z</time>
      </trkpt>
      <trkpt lat="43.42759" lon="6.12109">
        <ele>247.60000610352</ele>
        <time>2015-01-28T14:37:54Z</time>
      </trkpt>
      <trkpt lat="43.42757" lon="6.12107">
        <ele>247.80000305176</ele>
        <time>2015-01-28T14:37:55Z</time>
      </trkpt>
      <trkpt lat="43.42751" lon="6.12097">
        <ele>248.80000305176</ele>
        <time>2015-01-28T14:38:02Z</time>
      </trkpt>
      <trkpt lat="43.42744" lon="6.12083">
        <ele>249.39999389648</ele>
        <time>2015-01-28T14:38:10Z</time>
      </trkpt>
      <trkpt lat="43.42741" lon="6.12072">
        <ele>249.80000305176</ele>
        <time>2015-01-28T14:38:16Z</time>
      </trkpt>
      <trkpt lat="43.4274" lon="6.12065">
        <ele>250</ele>
        <time>2015-01-28T14:38:20Z</time>
      </trkpt>
      <trkpt lat="43.42739" lon="6.1205">
        <ele>250.60000610352</ele>
        <time>2015-01-28T14:38:27Z</time>
      </trkpt>
      <trkpt lat="43.42739" lon="6.12041">
        <ele>251</ele>
        <time>2015-01-28T14:38:32Z</time>
      </trkpt>
      <trkpt lat="43.42739" lon="6.12039">
        <ele>251</ele>
        <time>2015-01-28T14:38:33Z</time>
      </trkpt>
      <trkpt lat="43.42738" lon="6.1203">
        <ele>251.19999694824</ele>
        <time>2015-01-28T14:38:38Z</time>
      </trkpt>
      <trkpt lat="43.42738" lon="6.12028">
        <ele>251.19999694824</ele>
        <time>2015-01-28T14:38:39Z</time>
      </trkpt>
      <trkpt lat="43.42739" lon="6.12016">
        <ele>251.80000305176</ele>
        <time>2015-01-28T14:38:46Z</time>
      </trkpt>
      <trkpt lat="43.42738" lon="6.12014">
        <ele>252</ele>
        <time>2015-01-28T14:38:47Z</time>
      </trkpt>
      <trkpt lat="43.42737" lon="6.12004">
        <ele>252</ele>
        <time>2015-01-28T14:38:51Z</time>
      </trkpt>
      <trkpt lat="43.42737" lon="6.12002">
        <ele>252</ele>
        <time>2015-01-28T14:38:52Z</time>
      </trkpt>
      <trkpt lat="43.42738" lon="6.11984">
        <ele>252.39999389648</ele>
        <time>2015-01-28T14:38:59Z</time>
      </trkpt>
      <trkpt lat="43.42738" lon="6.11982">
        <ele>252.39999389648</ele>
        <time>2015-01-28T14:39:00Z</time>
      </trkpt>
      <trkpt lat="43.42738" lon="6.1197">
        <ele>252</ele>
        <time>2015-01-28T14:39:05Z</time>
      </trkpt>
      <trkpt lat="43.42738" lon="6.11966">
        <ele>252.19999694824</ele>
        <time>2015-01-28T14:39:07Z</time>
      </trkpt>
      <trkpt lat="43.42735" lon="6.11953">
        <ele>252.60000610352</ele>
        <time>2015-01-28T14:39:13Z</time>
      </trkpt>
      <trkpt lat="43.42728" lon="6.11947">
        <ele>253.19999694824</ele>
        <time>2015-01-28T14:39:19Z</time>
      </trkpt>
      <trkpt lat="43.42723" lon="6.11942">
        <ele>254.19999694824</ele>
        <time>2015-01-28T14:39:23Z</time>
      </trkpt>
      <trkpt lat="43.4272" lon="6.11938">
        <ele>254.60000610352</ele>
        <time>2015-01-28T14:39:26Z</time>
      </trkpt>
      <trkpt lat="43.42713" lon="6.11932">
        <ele>255.19999694824</ele>
        <time>2015-01-28T14:39:32Z</time>
      </trkpt>
      <trkpt lat="43.42712" lon="6.11931">
        <ele>255.39999389648</ele>
        <time>2015-01-28T14:39:33Z</time>
      </trkpt>
      <trkpt lat="43.42705" lon="6.11921">
        <ele>256.39999389648</ele>
        <time>2015-01-28T14:39:40Z</time>
      </trkpt>
      <trkpt lat="43.42702" lon="6.1191">
        <ele>256.79998779297</ele>
        <time>2015-01-28T14:39:46Z</time>
      </trkpt>
      <trkpt lat="43.42702" lon="6.11907">
        <ele>257.20001220703</ele>
        <time>2015-01-28T14:39:48Z</time>
      </trkpt>
      <trkpt lat="43.42702" lon="6.11902">
        <ele>257.20001220703</ele>
        <time>2015-01-28T14:39:50Z</time>
      </trkpt>
      <trkpt lat="43.42701" lon="6.11899">
        <ele>257.60000610352</ele>
        <time>2015-01-28T14:39:52Z</time>
      </trkpt>
      <trkpt lat="43.42704" lon="6.11891">
        <ele>257.60000610352</ele>
        <time>2015-01-28T14:39:56Z</time>
      </trkpt>
      <trkpt lat="43.42715" lon="6.11882">
        <ele>258</ele>
        <time>2015-01-28T14:40:03Z</time>
      </trkpt>
      <trkpt lat="43.42728" lon="6.11873">
        <ele>257.79998779297</ele>
        <time>2015-01-28T14:40:09Z</time>
      </trkpt>
      <trkpt lat="43.42743" lon="6.11869">
        <ele>256.79998779297</ele>
        <time>2015-01-28T14:40:14Z</time>
      </trkpt>
      <trkpt lat="43.42746" lon="6.11866">
        <ele>256.60000610352</ele>
        <time>2015-01-28T14:40:16Z</time>
      </trkpt>
      <trkpt lat="43.42749" lon="6.11862">
        <ele>255.80000305176</ele>
        <time>2015-01-28T14:40:18Z</time>
      </trkpt>
      <trkpt lat="43.42752" lon="6.11859">
        <ele>255</ele>
        <time>2015-01-28T14:40:20Z</time>
      </trkpt>
      <trkpt lat="43.42757" lon="6.11859">
        <ele>254</ele>
        <time>2015-01-28T14:40:22Z</time>
      </trkpt>
      <trkpt lat="43.42759" lon="6.11858">
        <ele>253.60000610352</ele>
        <time>2015-01-28T14:40:23Z</time>
      </trkpt>
      <trkpt lat="43.42762" lon="6.11857">
        <ele>252.80000305176</ele>
        <time>2015-01-28T14:40:24Z</time>
      </trkpt>
      <trkpt lat="43.42765" lon="6.11855">
        <ele>252.19999694824</ele>
        <time>2015-01-28T14:40:25Z</time>
      </trkpt>
      <trkpt lat="43.42769" lon="6.11853">
        <ele>250.80000305176</ele>
        <time>2015-01-28T14:40:26Z</time>
      </trkpt>
      <trkpt lat="43.42773" lon="6.11852">
        <ele>250</ele>
        <time>2015-01-28T14:40:27Z</time>
      </trkpt>
      <trkpt lat="43.42777" lon="6.1185">
        <ele>248.19999694824</ele>
        <time>2015-01-28T14:40:29Z</time>
      </trkpt>
      <trkpt lat="43.42776" lon="6.1185">
        <ele>247.80000305176</ele>
        <time>2015-01-28T14:40:30Z</time>
      </trkpt>
      <trkpt lat="43.42777" lon="6.11849">
        <ele>247.60000610352</ele>
        <time>2015-01-28T14:40:40Z</time>
      </trkpt>
      <trkpt lat="43.42776" lon="6.11849">
        <ele>247.39999389648</ele>
        <time>2015-01-28T14:40:49Z</time>
      </trkpt>
      <trkpt lat="43.42776" lon="6.11849">
        <ele>247.60000610352</ele>
        <time>2015-01-28T14:40:55Z</time>
      </trkpt>
      <trkpt lat="43.42776" lon="6.11849">
        <ele>247.60000610352</ele>
        <time>2015-01-28T14:41:08Z</time>
      </trkpt>
      <trkpt lat="43.42776" lon="6.11849">
        <ele>247.39999389648</ele>
        <time>2015-01-28T14:41:17Z</time>
      </trkpt>
      <trkpt lat="43.42776" lon="6.11849">
        <ele>247.39999389648</ele>
        <time>2015-01-28T14:41:24Z</time>
      </trkpt>
      <trkpt lat="43.42776" lon="6.11849">
        <ele>247.39999389648</ele>
        <time>2015-01-28T14:41:29Z</time>
      </trkpt>
      <trkpt lat="43.42776" lon="6.11849">
        <ele>247.60000610352</ele>
        <time>2015-01-28T14:41:35Z</time>
      </trkpt>
      <trkpt lat="43.42776" lon="6.11849">
        <ele>247.39999389648</ele>
        <time>2015-01-28T14:41:44Z</time>
      </trkpt>
      <trkpt lat="43.42776" lon="6.11849">
        <ele>247.39999389648</ele>
        <time>2015-01-28T14:41:53Z</time>
      </trkpt>
      <trkpt lat="43.42776" lon="6.11849">
        <ele>247.19999694824</ele>
        <time>2015-01-28T14:42:12Z</time>
      </trkpt>
      <trkpt lat="43.42776" lon="6.11849">
        <ele>247.39999389648</ele>
        <time>2015-01-28T14:42:27Z</time>
      </trkpt>
      <trkpt lat="43.42776" lon="6.11849">
        <ele>247.39999389648</ele>
        <time>2015-01-28T14:42:55Z</time>
      </trkpt>
      <trkpt lat="43.42776" lon="6.11849">
        <ele>247.80000305176</ele>
        <time>2015-01-28T14:43:21Z</time>
      </trkpt>
      <trkpt lat="43.42776" lon="6.11849">
        <ele>247.60000610352</ele>
        <time>2015-01-28T14:43:26Z</time>
      </trkpt>
      <trkpt lat="43.42776" lon="6.11849">
        <ele>247.60000610352</ele>
        <time>2015-01-28T14:43:34Z</time>
      </trkpt>
      <trkpt lat="43.42776" lon="6.11849">
        <ele>248</ele>
        <time>2015-01-28T14:43:51Z</time>
      </trkpt>
      <trkpt lat="43.42777" lon="6.11849">
        <ele>247.80000305176</ele>
        <time>2015-01-28T14:43:59Z</time>
      </trkpt>
      <trkpt lat="43.42778" lon="6.1185">
        <ele>247.80000305176</ele>
        <time>2015-01-28T14:44:00Z</time>
      </trkpt>
      <trkpt lat="43.42784" lon="6.11855">
        <ele>247.80000305176</ele>
        <time>2015-01-28T14:44:04Z</time>
      </trkpt>
      <trkpt lat="43.42797" lon="6.11855">
        <ele>247.19999694824</ele>
        <time>2015-01-28T14:44:10Z</time>
      </trkpt>
      <trkpt lat="43.42801" lon="6.11848">
        <ele>247</ele>
        <time>2015-01-28T14:44:12Z</time>
      </trkpt>
      <trkpt lat="43.42802" lon="6.11838">
        <ele>247</ele>
        <time>2015-01-28T14:44:14Z</time>
      </trkpt>
      <trkpt lat="43.42804" lon="6.11833">
        <ele>246.80000305176</ele>
        <time>2015-01-28T14:44:15Z</time>
      </trkpt>
      <trkpt lat="43.42805" lon="6.11829">
        <ele>246.39999389648</ele>
        <time>2015-01-28T14:44:16Z</time>
      </trkpt>
      <trkpt lat="43.42804" lon="6.11812">
        <ele>245.19999694824</ele>
        <time>2015-01-28T14:44:19Z</time>
      </trkpt>
      <trkpt lat="43.42802" lon="6.11795">
        <ele>244.80000305176</ele>
        <time>2015-01-28T14:44:22Z</time>
      </trkpt>
      <trkpt lat="43.428" lon="6.11779">
        <ele>244.60000610352</ele>
        <time>2015-01-28T14:44:25Z</time>
      </trkpt>
      <trkpt lat="43.42801" lon="6.11773">
        <ele>244</ele>
        <time>2015-01-28T14:44:26Z</time>
      </trkpt>
      <trkpt lat="43.42802" lon="6.11768">
        <ele>243.19999694824</ele>
        <time>2015-01-28T14:44:27Z</time>
      </trkpt>
      <trkpt lat="43.42804" lon="6.11762">
        <ele>243</ele>
        <time>2015-01-28T14:44:28Z</time>
      </trkpt>
      <trkpt lat="43.42807" lon="6.11759">
        <ele>242.80000305176</ele>
        <time>2015-01-28T14:44:29Z</time>
      </trkpt>
      <trkpt lat="43.42812" lon="6.11746">
        <ele>242</ele>
        <time>2015-01-28T14:44:32Z</time>
      </trkpt>
      <trkpt lat="43.42818" lon="6.11732">
        <ele>242.19999694824</ele>
        <time>2015-01-28T14:44:37Z</time>
      </trkpt>
      <trkpt lat="43.42817" lon="6.11722">
        <ele>242.60000610352</ele>
        <time>2015-01-28T14:44:40Z</time>
      </trkpt>
      <trkpt lat="43.42816" lon="6.11714">
        <ele>243</ele>
        <time>2015-01-28T14:44:43Z</time>
      </trkpt>
      <trkpt lat="43.42813" lon="6.11708">
        <ele>243.39999389648</ele>
        <time>2015-01-28T14:44:46Z</time>
      </trkpt>
      <trkpt lat="43.42813" lon="6.11706">
        <ele>243.39999389648</ele>
        <time>2015-01-28T14:44:47Z</time>
      </trkpt>
      <trkpt lat="43.42812" lon="6.11702">
        <ele>243.39999389648</ele>
        <time>2015-01-28T14:44:49Z</time>
      </trkpt>
      <trkpt lat="43.42812" lon="6.117">
        <ele>243.80000305176</ele>
        <time>2015-01-28T14:44:50Z</time>
      </trkpt>
      <trkpt lat="43.42812" lon="6.11698">
        <ele>244.19999694824</ele>
        <time>2015-01-28T14:44:51Z</time>
      </trkpt>
      <trkpt lat="43.42809" lon="6.11694">
        <ele>244.80000305176</ele>
        <time>2015-01-28T14:44:54Z</time>
      </trkpt>
      <trkpt lat="43.42808" lon="6.11692">
        <ele>245</ele>
        <time>2015-01-28T14:44:55Z</time>
      </trkpt>
      <trkpt lat="43.42806" lon="6.11691">
        <ele>245.19999694824</ele>
        <time>2015-01-28T14:44:56Z</time>
      </trkpt>
      <trkpt lat="43.42805" lon="6.11691">
        <ele>245.80000305176</ele>
        <time>2015-01-28T14:44:58Z</time>
      </trkpt>
      <trkpt lat="43.42801" lon="6.1169">
        <ele>246.19999694824</ele>
        <time>2015-01-28T14:45:01Z</time>
      </trkpt>
      <trkpt lat="43.428" lon="6.1169">
        <ele>246.60000610352</ele>
        <time>2015-01-28T14:45:02Z</time>
      </trkpt>
      <trkpt lat="43.42797" lon="6.11694">
        <ele>247.39999389648</ele>
        <time>2015-01-28T14:45:05Z</time>
      </trkpt>
      <trkpt lat="43.42796" lon="6.11695">
        <ele>247.60000610352</ele>
        <time>2015-01-28T14:45:06Z</time>
      </trkpt>
      <trkpt lat="43.42794" lon="6.11697">
        <ele>247.80000305176</ele>
        <time>2015-01-28T14:45:07Z</time>
      </trkpt>
      <trkpt lat="43.42786" lon="6.11704">
        <ele>248.60000610352</ele>
        <time>2015-01-28T14:45:13Z</time>
      </trkpt>
      <trkpt lat="43.42783" lon="6.11705">
        <ele>249.19999694824</ele>
        <time>2015-01-28T14:45:16Z</time>
      </trkpt>
      <trkpt lat="43.42782" lon="6.11707">
        <ele>249.80000305176</ele>
        <time>2015-01-28T14:45:18Z</time>
      </trkpt>
      <trkpt lat="43.42781" lon="6.11708">
        <ele>250</ele>
        <time>2015-01-28T14:45:19Z</time>
      </trkpt>
      <trkpt lat="43.4278" lon="6.11709">
        <ele>250</ele>
        <time>2015-01-28T14:45:20Z</time>
      </trkpt>
      <trkpt lat="43.42776" lon="6.1171">
        <ele>250.39999389648</ele>
        <time>2015-01-28T14:45:24Z</time>
      </trkpt>
      <trkpt lat="43.42774" lon="6.11711">
        <ele>250.39999389648</ele>
        <time>2015-01-28T14:45:25Z</time>
      </trkpt>
      <trkpt lat="43.42772" lon="6.11712">
        <ele>251.19999694824</ele>
        <time>2015-01-28T14:45:27Z</time>
      </trkpt>
      <trkpt lat="43.4277" lon="6.11714">
        <ele>251.39999389648</ele>
        <time>2015-01-28T14:45:29Z</time>
      </trkpt>
      <trkpt lat="43.42768" lon="6.11713">
        <ele>251.60000610352</ele>
        <time>2015-01-28T14:45:30Z</time>
      </trkpt>
      <trkpt lat="43.42766" lon="6.11709">
        <ele>252</ele>
        <time>2015-01-28T14:45:33Z</time>
      </trkpt>
      <trkpt lat="43.42762" lon="6.11705">
        <ele>252.19999694824</ele>
        <time>2015-01-28T14:45:38Z</time>
      </trkpt>
      <trkpt lat="43.42762" lon="6.11704">
        <ele>252.39999389648</ele>
        <time>2015-01-28T14:45:39Z</time>
      </trkpt>
      <trkpt lat="43.42756" lon="6.11704">
        <ele>252.80000305176</ele>
        <time>2015-01-28T14:45:44Z</time>
      </trkpt>
      <trkpt lat="43.42754" lon="6.11702">
        <ele>253.39999389648</ele>
        <time>2015-01-28T14:45:46Z</time>
      </trkpt>
      <trkpt lat="43.42753" lon="6.11701">
        <ele>253.19999694824</ele>
        <time>2015-01-28T14:45:48Z</time>
      </trkpt>
      <trkpt lat="43.42751" lon="6.117">
        <ele>253.60000610352</ele>
        <time>2015-01-28T14:45:51Z</time>
      </trkpt>
      <trkpt lat="43.42748" lon="6.11701">
        <ele>254.60000610352</ele>
        <time>2015-01-28T14:45:58Z</time>
      </trkpt>
      <trkpt lat="43.42747" lon="6.11701">
        <ele>254.80000305176</ele>
        <time>2015-01-28T14:45:59Z</time>
      </trkpt>
      <trkpt lat="43.42746" lon="6.117">
        <ele>255.19999694824</ele>
        <time>2015-01-28T14:46:04Z</time>
      </trkpt>
      <trkpt lat="43.42746" lon="6.117">
        <ele>255.19999694824</ele>
        <time>2015-01-28T14:46:06Z</time>
      </trkpt>
      <trkpt lat="43.42745" lon="6.11699">
        <ele>255.60000610352</ele>
        <time>2015-01-28T14:46:08Z</time>
      </trkpt>
      <trkpt lat="43.42742" lon="6.11695">
        <ele>256.39999389648</ele>
        <time>2015-01-28T14:46:16Z</time>
      </trkpt>
      <trkpt lat="43.42742" lon="6.11694">
        <ele>256.79998779297</ele>
        <time>2015-01-28T14:46:17Z</time>
      </trkpt>
      <trkpt lat="43.4274" lon="6.11693">
        <ele>257.39999389648</ele>
        <time>2015-01-28T14:46:22Z</time>
      </trkpt>
      <trkpt lat="43.42738" lon="6.11692">
        <ele>258</ele>
        <time>2015-01-28T14:46:25Z</time>
      </trkpt>
      <trkpt lat="43.42736" lon="6.11691">
        <ele>258.39999389648</ele>
        <time>2015-01-28T14:46:30Z</time>
      </trkpt>
      <trkpt lat="43.42736" lon="6.11691">
        <ele>258.20001220703</ele>
        <time>2015-01-28T14:46:37Z</time>
      </trkpt>
      <trkpt lat="43.42736" lon="6.11691">
        <ele>258.39999389648</ele>
        <time>2015-01-28T14:46:43Z</time>
      </trkpt>
      <trkpt lat="43.42734" lon="6.11689">
        <ele>258.79998779297</ele>
        <time>2015-01-28T14:46:52Z</time>
      </trkpt>
      <trkpt lat="43.42733" lon="6.11689">
        <ele>259</ele>
        <time>2015-01-28T14:46:55Z</time>
      </trkpt>
      <trkpt lat="43.42733" lon="6.11689">
        <ele>258.79998779297</ele>
        <time>2015-01-28T14:46:58Z</time>
      </trkpt>
      <trkpt lat="43.42733" lon="6.11689">
        <ele>259</ele>
        <time>2015-01-28T14:47:03Z</time>
      </trkpt>
      <trkpt lat="43.42733" lon="6.11689">
        <ele>259.20001220703</ele>
        <time>2015-01-28T14:47:05Z</time>
      </trkpt>
      <trkpt lat="43.42733" lon="6.11689">
        <ele>259.20001220703</ele>
        <time>2015-01-28T14:47:11Z</time>
      </trkpt>
      <trkpt lat="43.42733" lon="6.11687">
        <ele>259.39999389648</ele>
        <time>2015-01-28T14:47:15Z</time>
      </trkpt>
      <trkpt lat="43.42731" lon="6.11685">
        <ele>259.39999389648</ele>
        <time>2015-01-28T14:47:17Z</time>
      </trkpt>
      <trkpt lat="43.4273" lon="6.11684">
        <ele>259.79998779297</ele>
        <time>2015-01-28T14:47:20Z</time>
      </trkpt>
      <trkpt lat="43.4273" lon="6.11682">
        <ele>260.20001220703</ele>
        <time>2015-01-28T14:47:23Z</time>
      </trkpt>
      <trkpt lat="43.42728" lon="6.11681">
        <ele>260.60000610352</ele>
        <time>2015-01-28T14:47:25Z</time>
      </trkpt>
      <trkpt lat="43.42726" lon="6.11679">
        <ele>261.39999389648</ele>
        <time>2015-01-28T14:47:30Z</time>
      </trkpt>
      <trkpt lat="43.42724" lon="6.11676">
        <ele>262.60000610352</ele>
        <time>2015-01-28T14:47:35Z</time>
      </trkpt>
      <trkpt lat="43.42723" lon="6.11675">
        <ele>262.60000610352</ele>
        <time>2015-01-28T14:47:37Z</time>
      </trkpt>
      <trkpt lat="43.4272" lon="6.1167">
        <ele>263.60000610352</ele>
        <time>2015-01-28T14:47:45Z</time>
      </trkpt>
      <trkpt lat="43.4272" lon="6.1167">
        <ele>263.60000610352</ele>
        <time>2015-01-28T14:47:46Z</time>
      </trkpt>
      <trkpt lat="43.42719" lon="6.11665">
        <ele>264.39999389648</ele>
        <time>2015-01-28T14:47:54Z</time>
      </trkpt>
      <trkpt lat="43.42719" lon="6.1166">
        <ele>264.39999389648</ele>
        <time>2015-01-28T14:48:02Z</time>
      </trkpt>
      <trkpt lat="43.4272" lon="6.11659">
        <ele>264.39999389648</ele>
        <time>2015-01-28T14:48:06Z</time>
      </trkpt>
      <trkpt lat="43.4272" lon="6.11658">
        <ele>264.60000610352</ele>
        <time>2015-01-28T14:48:07Z</time>
      </trkpt>
      <trkpt lat="43.42722" lon="6.11655">
        <ele>264.60000610352</ele>
        <time>2015-01-28T14:48:09Z</time>
      </trkpt>
      <trkpt lat="43.42723" lon="6.11652">
        <ele>265</ele>
        <time>2015-01-28T14:48:11Z</time>
      </trkpt>
      <trkpt lat="43.42723" lon="6.11649">
        <ele>265</ele>
        <time>2015-01-28T14:48:13Z</time>
      </trkpt>
      <trkpt lat="43.42729" lon="6.1164">
        <ele>265</ele>
        <time>2015-01-28T14:48:19Z</time>
      </trkpt>
      <trkpt lat="43.42737" lon="6.11636">
        <ele>265.39999389648</ele>
        <time>2015-01-28T14:48:24Z</time>
      </trkpt>
      <trkpt lat="43.42745" lon="6.11631">
        <ele>265.39999389648</ele>
        <time>2015-01-28T14:48:30Z</time>
      </trkpt>
      <trkpt lat="43.42749" lon="6.11629">
        <ele>265.60000610352</ele>
        <time>2015-01-28T14:48:33Z</time>
      </trkpt>
      <trkpt lat="43.4275" lon="6.11628">
        <ele>266.20001220703</ele>
        <time>2015-01-28T14:48:34Z</time>
      </trkpt>
      <trkpt lat="43.42751" lon="6.11628">
        <ele>266.39999389648</ele>
        <time>2015-01-28T14:48:35Z</time>
      </trkpt>
      <trkpt lat="43.42754" lon="6.11624">
        <ele>266.39999389648</ele>
        <time>2015-01-28T14:48:38Z</time>
      </trkpt>
      <trkpt lat="43.42756" lon="6.11621">
        <ele>266.60000610352</ele>
        <time>2015-01-28T14:48:40Z</time>
      </trkpt>
      <trkpt lat="43.42756" lon="6.11619">
        <ele>266.79998779297</ele>
        <time>2015-01-28T14:48:43Z</time>
      </trkpt>
      <trkpt lat="43.42757" lon="6.11619">
        <ele>267.39999389648</ele>
        <time>2015-01-28T14:48:45Z</time>
      </trkpt>
      <trkpt lat="43.42758" lon="6.11614">
        <ele>267.79998779297</ele>
        <time>2015-01-28T14:48:50Z</time>
      </trkpt>
      <trkpt lat="43.42758" lon="6.11612">
        <ele>267.79998779297</ele>
        <time>2015-01-28T14:48:52Z</time>
      </trkpt>
      <trkpt lat="43.42759" lon="6.11612">
        <ele>267.79998779297</ele>
        <time>2015-01-28T14:48:58Z</time>
      </trkpt>
      <trkpt lat="43.4276" lon="6.11611">
        <ele>267.79998779297</ele>
        <time>2015-01-28T14:48:59Z</time>
      </trkpt>
      <trkpt lat="43.4276" lon="6.11607">
        <ele>268.39999389648</ele>
        <time>2015-01-28T14:49:01Z</time>
      </trkpt>
      <trkpt lat="43.42761" lon="6.11602">
        <ele>268.60000610352</ele>
        <time>2015-01-28T14:49:04Z</time>
      </trkpt>
      <trkpt lat="43.42761" lon="6.116">
        <ele>268.60000610352</ele>
        <time>2015-01-28T14:49:05Z</time>
      </trkpt>
      <trkpt lat="43.4276" lon="6.11586">
        <ele>268.79998779297</ele>
        <time>2015-01-28T14:49:10Z</time>
      </trkpt>
      <trkpt lat="43.42758" lon="6.11571">
        <ele>269</ele>
        <time>2015-01-28T14:49:15Z</time>
      </trkpt>
      <trkpt lat="43.42757" lon="6.11563">
        <ele>268</ele>
        <time>2015-01-28T14:49:17Z</time>
      </trkpt>
      <trkpt lat="43.42756" lon="6.11554">
        <ele>267.60000610352</ele>
        <time>2015-01-28T14:49:19Z</time>
      </trkpt>
      <trkpt lat="43.42754" lon="6.11533">
        <ele>267.60000610352</ele>
        <time>2015-01-28T14:49:24Z</time>
      </trkpt>
      <trkpt lat="43.42749" lon="6.11514">
        <ele>267.79998779297</ele>
        <time>2015-01-28T14:49:30Z</time>
      </trkpt>
      <trkpt lat="43.42744" lon="6.11498">
        <ele>268.60000610352</ele>
        <time>2015-01-28T14:49:36Z</time>
      </trkpt>
      <trkpt lat="43.42744" lon="6.11487">
        <ele>269.60000610352</ele>
        <time>2015-01-28T14:49:41Z</time>
      </trkpt>
      <trkpt lat="43.42744" lon="6.11484">
        <ele>269.79998779297</ele>
        <time>2015-01-28T14:49:42Z</time>
      </trkpt>
      <trkpt lat="43.42744" lon="6.11482">
        <ele>270</ele>
        <time>2015-01-28T14:49:43Z</time>
      </trkpt>
      <trkpt lat="43.42749" lon="6.11475">
        <ele>271</ele>
        <time>2015-01-28T14:49:47Z</time>
      </trkpt>
      <trkpt lat="43.4275" lon="6.11471">
        <ele>271</ele>
        <time>2015-01-28T14:49:49Z</time>
      </trkpt>
      <trkpt lat="43.42752" lon="6.1146">
        <ele>272</ele>
        <time>2015-01-28T14:49:54Z</time>
      </trkpt>
      <trkpt lat="43.42752" lon="6.11458">
        <ele>272.20001220703</ele>
        <time>2015-01-28T14:49:55Z</time>
      </trkpt>
      <trkpt lat="43.42752" lon="6.11456">
        <ele>272.39999389648</ele>
        <time>2015-01-28T14:49:56Z</time>
      </trkpt>
      <trkpt lat="43.42756" lon="6.11449">
        <ele>273.39999389648</ele>
        <time>2015-01-28T14:50:00Z</time>
      </trkpt>
      <trkpt lat="43.42757" lon="6.11444">
        <ele>273.79998779297</ele>
        <time>2015-01-28T14:50:03Z</time>
      </trkpt>
      <trkpt lat="43.42758" lon="6.11439">
        <ele>274.39999389648</ele>
        <time>2015-01-28T14:50:06Z</time>
      </trkpt>
      <trkpt lat="43.42762" lon="6.1143">
        <ele>275.20001220703</ele>
        <time>2015-01-28T14:50:11Z</time>
      </trkpt>
      <trkpt lat="43.42763" lon="6.11427">
        <ele>275.79998779297</ele>
        <time>2015-01-28T14:50:13Z</time>
      </trkpt>
      <trkpt lat="43.42768" lon="6.11416">
        <ele>276.39999389648</ele>
        <time>2015-01-28T14:50:20Z</time>
      </trkpt>
      <trkpt lat="43.42772" lon="6.11405">
        <ele>276.79998779297</ele>
        <time>2015-01-28T14:50:26Z</time>
      </trkpt>
      <trkpt lat="43.42774" lon="6.11402">
        <ele>277</ele>
        <time>2015-01-28T14:50:28Z</time>
      </trkpt>
      <trkpt lat="43.42783" lon="6.11391">
        <ele>277.39999389648</ele>
        <time>2015-01-28T14:50:35Z</time>
      </trkpt>
      <trkpt lat="43.42792" lon="6.11382">
        <ele>278</ele>
        <time>2015-01-28T14:50:41Z</time>
      </trkpt>
      <trkpt lat="43.42803" lon="6.11373">
        <ele>278</ele>
        <time>2015-01-28T14:50:48Z</time>
      </trkpt>
      <trkpt lat="43.42812" lon="6.11365">
        <ele>278.39999389648</ele>
        <time>2015-01-28T14:50:54Z</time>
      </trkpt>
      <trkpt lat="43.42814" lon="6.11363">
        <ele>278.79998779297</ele>
        <time>2015-01-28T14:50:55Z</time>
      </trkpt>
      <trkpt lat="43.42822" lon="6.11351">
        <ele>278.79998779297</ele>
        <time>2015-01-28T14:51:00Z</time>
      </trkpt>
      <trkpt lat="43.42823" lon="6.11349">
        <ele>278.60000610352</ele>
        <time>2015-01-28T14:51:01Z</time>
      </trkpt>
      <trkpt lat="43.42826" lon="6.11342">
        <ele>279.20001220703</ele>
        <time>2015-01-28T14:51:04Z</time>
      </trkpt>
      <trkpt lat="43.42829" lon="6.11333">
        <ele>279.60000610352</ele>
        <time>2015-01-28T14:51:08Z</time>
      </trkpt>
      <trkpt lat="43.42834" lon="6.11318">
        <ele>280.20001220703</ele>
        <time>2015-01-28T14:51:14Z</time>
      </trkpt>
      <trkpt lat="43.42837" lon="6.11313">
        <ele>280.39999389648</ele>
        <time>2015-01-28T14:51:16Z</time>
      </trkpt>
      <trkpt lat="43.42847" lon="6.11295">
        <ele>280.79998779297</ele>
        <time>2015-01-28T14:51:23Z</time>
      </trkpt>
      <trkpt lat="43.42852" lon="6.11279">
        <ele>281</ele>
        <time>2015-01-28T14:51:29Z</time>
      </trkpt>
      <trkpt lat="43.4286" lon="6.11266">
        <ele>280.79998779297</ele>
        <time>2015-01-28T14:51:35Z</time>
      </trkpt>
      <trkpt lat="43.4287" lon="6.11251">
        <ele>281</ele>
        <time>2015-01-28T14:51:42Z</time>
      </trkpt>
      <trkpt lat="43.42876" lon="6.11244">
        <ele>280.79998779297</ele>
        <time>2015-01-28T14:51:45Z</time>
      </trkpt>
      <trkpt lat="43.42881" lon="6.11236">
        <ele>280.39999389648</ele>
        <time>2015-01-28T14:51:48Z</time>
      </trkpt>
      <trkpt lat="43.42893" lon="6.11221">
        <ele>279.79998779297</ele>
        <time>2015-01-28T14:51:55Z</time>
      </trkpt>
      <trkpt lat="43.42899" lon="6.11211">
        <ele>279.39999389648</ele>
        <time>2015-01-28T14:51:58Z</time>
      </trkpt>
      <trkpt lat="43.429" lon="6.11208">
        <ele>279.20001220703</ele>
        <time>2015-01-28T14:51:59Z</time>
      </trkpt>
      <trkpt lat="43.42898" lon="6.11197">
        <ele>279.79998779297</ele>
        <time>2015-01-28T14:52:03Z</time>
      </trkpt>
      <trkpt lat="43.42896" lon="6.1119">
        <ele>280.39999389648</ele>
        <time>2015-01-28T14:52:06Z</time>
      </trkpt>
      <trkpt lat="43.42896" lon="6.11188">
        <ele>280.39999389648</ele>
        <time>2015-01-28T14:52:07Z</time>
      </trkpt>
      <trkpt lat="43.42893" lon="6.1118">
        <ele>280.79998779297</ele>
        <time>2015-01-28T14:52:10Z</time>
      </trkpt>
      <trkpt lat="43.42889" lon="6.11172">
        <ele>281.39999389648</ele>
        <time>2015-01-28T14:52:14Z</time>
      </trkpt>
      <trkpt lat="43.42887" lon="6.11167">
        <ele>281.79998779297</ele>
        <time>2015-01-28T14:52:16Z</time>
      </trkpt>
      <trkpt lat="43.42886" lon="6.11165">
        <ele>282</ele>
        <time>2015-01-28T14:52:17Z</time>
      </trkpt>
      <trkpt lat="43.42878" lon="6.1115">
        <ele>282.39999389648</ele>
        <time>2015-01-28T14:52:24Z</time>
      </trkpt>
      <trkpt lat="43.42877" lon="6.11147">
        <ele>282.60000610352</ele>
        <time>2015-01-28T14:52:25Z</time>
      </trkpt>
      <trkpt lat="43.42873" lon="6.1114">
        <ele>282.79998779297</ele>
        <time>2015-01-28T14:52:28Z</time>
      </trkpt>
      <trkpt lat="43.42867" lon="6.11132">
        <ele>283</ele>
        <time>2015-01-28T14:52:32Z</time>
      </trkpt>
      <trkpt lat="43.42856" lon="6.11119">
        <ele>283</ele>
        <time>2015-01-28T14:52:39Z</time>
      </trkpt>
      <trkpt lat="43.42852" lon="6.11104">
        <ele>283.60000610352</ele>
        <time>2015-01-28T14:52:45Z</time>
      </trkpt>
      <trkpt lat="43.42853" lon="6.11098">
        <ele>283.39999389648</ele>
        <time>2015-01-28T14:52:48Z</time>
      </trkpt>
      <trkpt lat="43.42854" lon="6.11096">
        <ele>283.20001220703</ele>
        <time>2015-01-28T14:52:51Z</time>
      </trkpt>
      <trkpt lat="43.42855" lon="6.11097">
        <ele>283.39999389648</ele>
        <time>2015-01-28T14:52:59Z</time>
      </trkpt>
      <trkpt lat="43.42856" lon="6.11098">
        <ele>283.20001220703</ele>
        <time>2015-01-28T14:53:01Z</time>
      </trkpt>
      <trkpt lat="43.42857" lon="6.11098">
        <ele>283.20001220703</ele>
        <time>2015-01-28T14:53:05Z</time>
      </trkpt>
      <trkpt lat="43.42857" lon="6.11098">
        <ele>283</ele>
        <time>2015-01-28T14:53:07Z</time>
      </trkpt>
      <trkpt lat="43.42857" lon="6.11098">
        <ele>283</ele>
        <time>2015-01-28T14:53:10Z</time>
      </trkpt>
      <trkpt lat="43.42856" lon="6.11098">
        <ele>283.60000610352</ele>
        <time>2015-01-28T14:53:24Z</time>
      </trkpt>
      <trkpt lat="43.42855" lon="6.11098">
        <ele>283.39999389648</ele>
        <time>2015-01-28T14:53:31Z</time>
      </trkpt>
      <trkpt lat="43.42855" lon="6.11098">
        <ele>283.39999389648</ele>
        <time>2015-01-28T14:53:33Z</time>
      </trkpt>
      <trkpt lat="43.42855" lon="6.11098">
        <ele>283.79998779297</ele>
        <time>2015-01-28T14:53:57Z</time>
      </trkpt>
      <trkpt lat="43.42855" lon="6.11098">
        <ele>284</ele>
        <time>2015-01-28T14:54:06Z</time>
      </trkpt>
      <trkpt lat="43.42855" lon="6.11098">
        <ele>284.39999389648</ele>
        <time>2015-01-28T14:54:10Z</time>
      </trkpt>
      <trkpt lat="43.42855" lon="6.11097">
        <ele>284</ele>
        <time>2015-01-28T14:54:23Z</time>
      </trkpt>
      <trkpt lat="43.42854" lon="6.11097">
        <ele>284.20001220703</ele>
        <time>2015-01-28T14:54:32Z</time>
      </trkpt>
      <trkpt lat="43.42854" lon="6.11096">
        <ele>284</ele>
        <time>2015-01-28T14:54:39Z</time>
      </trkpt>
      <trkpt lat="43.42854" lon="6.11096">
        <ele>284.39999389648</ele>
        <time>2015-01-28T14:54:54Z</time>
      </trkpt>
      <trkpt lat="43.42854" lon="6.11097">
        <ele>284.20001220703</ele>
        <time>2015-01-28T14:55:03Z</time>
      </trkpt>
      <trkpt lat="43.42854" lon="6.11097">
        <ele>284.20001220703</ele>
        <time>2015-01-28T14:55:18Z</time>
      </trkpt>
      <trkpt lat="43.42854" lon="6.11097">
        <ele>284.20001220703</ele>
        <time>2015-01-28T14:55:27Z</time>
      </trkpt>
      <trkpt lat="43.42854" lon="6.11097">
        <ele>284.60000610352</ele>
        <time>2015-01-28T14:55:45Z</time>
      </trkpt>
      <trkpt lat="43.42854" lon="6.11097">
        <ele>284.39999389648</ele>
        <time>2015-01-28T14:55:50Z</time>
      </trkpt>
      <trkpt lat="43.42854" lon="6.11097">
        <ele>284.39999389648</ele>
        <time>2015-01-28T14:56:17Z</time>
      </trkpt>
      <trkpt lat="43.42854" lon="6.11097">
        <ele>284.39999389648</ele>
        <time>2015-01-28T14:56:48Z</time>
      </trkpt>
      <trkpt lat="43.42854" lon="6.11097">
        <ele>284.60000610352</ele>
        <time>2015-01-28T14:56:53Z</time>
      </trkpt>
      <trkpt lat="43.42854" lon="6.11097">
        <ele>284.60000610352</ele>
        <time>2015-01-28T14:57:14Z</time>
      </trkpt>
      <trkpt lat="43.42854" lon="6.11097">
        <ele>284.20001220703</ele>
        <time>2015-01-28T14:57:45Z</time>
      </trkpt>
      <trkpt lat="43.42854" lon="6.11097">
        <ele>284.39999389648</ele>
        <time>2015-01-28T14:57:50Z</time>
      </trkpt>
      <trkpt lat="43.42854" lon="6.11097">
        <ele>284.39999389648</ele>
        <time>2015-01-28T14:58:08Z</time>
      </trkpt>
      <trkpt lat="43.42854" lon="6.11097">
        <ele>284.79998779297</ele>
        <time>2015-01-28T14:58:21Z</time>
      </trkpt>
      <trkpt lat="43.42854" lon="6.11097">
        <ele>284.60000610352</ele>
        <time>2015-01-28T14:58:56Z</time>
      </trkpt>
      <trkpt lat="43.42854" lon="6.11097">
        <ele>285</ele>
        <time>2015-01-28T14:59:08Z</time>
      </trkpt>
      <trkpt lat="43.42854" lon="6.11097">
        <ele>285</ele>
        <time>2015-01-28T14:59:17Z</time>
      </trkpt>
      <trkpt lat="43.42855" lon="6.11096">
        <ele>285</ele>
        <time>2015-01-28T14:59:23Z</time>
      </trkpt>
      <trkpt lat="43.42855" lon="6.11096">
        <ele>285</ele>
        <time>2015-01-28T14:59:24Z</time>
      </trkpt>
      <trkpt lat="43.42856" lon="6.11091">
        <ele>284.79998779297</ele>
        <time>2015-01-28T14:59:27Z</time>
      </trkpt>
      <trkpt lat="43.4286" lon="6.11086">
        <ele>284.60000610352</ele>
        <time>2015-01-28T14:59:30Z</time>
      </trkpt>
      <trkpt lat="43.42865" lon="6.11066">
        <ele>283.79998779297</ele>
        <time>2015-01-28T14:59:35Z</time>
      </trkpt>
      <trkpt lat="43.42865" lon="6.1106">
        <ele>283.39999389648</ele>
        <time>2015-01-28T14:59:36Z</time>
      </trkpt>
      <trkpt lat="43.42862" lon="6.11047">
        <ele>282.39999389648</ele>
        <time>2015-01-28T14:59:38Z</time>
      </trkpt>
      <trkpt lat="43.4286" lon="6.11042">
        <ele>282</ele>
        <time>2015-01-28T14:59:39Z</time>
      </trkpt>
      <trkpt lat="43.42859" lon="6.11036">
        <ele>281.79998779297</ele>
        <time>2015-01-28T14:59:40Z</time>
      </trkpt>
      <trkpt lat="43.42852" lon="6.11017">
        <ele>281</ele>
        <time>2015-01-28T14:59:43Z</time>
      </trkpt>
      <trkpt lat="43.42849" lon="6.11011">
        <ele>280.39999389648</ele>
        <time>2015-01-28T14:59:44Z</time>
      </trkpt>
      <trkpt lat="43.42842" lon="6.10998">
        <ele>279.79998779297</ele>
        <time>2015-01-28T14:59:46Z</time>
      </trkpt>
      <trkpt lat="43.42838" lon="6.10992">
        <ele>279.20001220703</ele>
        <time>2015-01-28T14:59:47Z</time>
      </trkpt>
      <trkpt lat="43.42834" lon="6.10986">
        <ele>278.79998779297</ele>
        <time>2015-01-28T14:59:48Z</time>
      </trkpt>
      <trkpt lat="43.42827" lon="6.10977">
        <ele>277.60000610352</ele>
        <time>2015-01-28T14:59:50Z</time>
      </trkpt>
      <trkpt lat="43.42821" lon="6.10969">
        <ele>277</ele>
        <time>2015-01-28T14:59:52Z</time>
      </trkpt>
      <trkpt lat="43.42815" lon="6.10954">
        <ele>277.39999389648</ele>
        <time>2015-01-28T14:59:55Z</time>
      </trkpt>
      <trkpt lat="43.42815" lon="6.10943">
        <ele>277.39999389648</ele>
        <time>2015-01-28T14:59:57Z</time>
      </trkpt>
      <trkpt lat="43.42815" lon="6.1093">
        <ele>278</ele>
        <time>2015-01-28T14:59:59Z</time>
      </trkpt>
      <trkpt lat="43.42815" lon="6.10923">
        <ele>278</ele>
        <time>2015-01-28T15:00:00Z</time>
      </trkpt>
      <trkpt lat="43.42815" lon="6.10916">
        <ele>278</ele>
        <time>2015-01-28T15:00:01Z</time>
      </trkpt>
      <trkpt lat="43.42815" lon="6.1091">
        <ele>277.79998779297</ele>
        <time>2015-01-28T15:00:02Z</time>
      </trkpt>
      <trkpt lat="43.42815" lon="6.10903">
        <ele>278</ele>
        <time>2015-01-28T15:00:03Z</time>
      </trkpt>
      <trkpt lat="43.42816" lon="6.10897">
        <ele>278.20001220703</ele>
        <time>2015-01-28T15:00:04Z</time>
      </trkpt>
      <trkpt lat="43.42818" lon="6.1088">
        <ele>279</ele>
        <time>2015-01-28T15:00:07Z</time>
      </trkpt>
      <trkpt lat="43.42823" lon="6.10866">
        <ele>280.20001220703</ele>
        <time>2015-01-28T15:00:10Z</time>
      </trkpt>
      <trkpt lat="43.42826" lon="6.10858">
        <ele>280.79998779297</ele>
        <time>2015-01-28T15:00:12Z</time>
      </trkpt>
      <trkpt lat="43.4283" lon="6.10845">
        <ele>281.20001220703</ele>
        <time>2015-01-28T15:00:15Z</time>
      </trkpt>
      <trkpt lat="43.42833" lon="6.10821">
        <ele>281.60000610352</ele>
        <time>2015-01-28T15:00:20Z</time>
      </trkpt>
      <trkpt lat="43.42837" lon="6.1079">
        <ele>281.79998779297</ele>
        <time>2015-01-28T15:00:27Z</time>
      </trkpt>
      <trkpt lat="43.42839" lon="6.10768">
        <ele>282.20001220703</ele>
        <time>2015-01-28T15:00:32Z</time>
      </trkpt>
      <trkpt lat="43.4284" lon="6.10755">
        <ele>282</ele>
        <time>2015-01-28T15:00:35Z</time>
      </trkpt>
      <trkpt lat="43.4284" lon="6.10743">
        <ele>282.39999389648</ele>
        <time>2015-01-28T15:00:38Z</time>
      </trkpt>
      <trkpt lat="43.42838" lon="6.10725">
        <ele>282.79998779297</ele>
        <time>2015-01-28T15:00:43Z</time>
      </trkpt>
      <trkpt lat="43.42838" lon="6.10699">
        <ele>282.39999389648</ele>
        <time>2015-01-28T15:00:50Z</time>
      </trkpt>
      <trkpt lat="43.42839" lon="6.10665">
        <ele>283</ele>
        <time>2015-01-28T15:00:59Z</time>
      </trkpt>
      <trkpt lat="43.4284" lon="6.10652">
        <ele>283.79998779297</ele>
        <time>2015-01-28T15:01:03Z</time>
      </trkpt>
      <trkpt lat="43.42842" lon="6.10642">
        <ele>284.39999389648</ele>
        <time>2015-01-28T15:01:07Z</time>
      </trkpt>
      <trkpt lat="43.42842" lon="6.10634">
        <ele>285</ele>
        <time>2015-01-28T15:01:11Z</time>
      </trkpt>
      <trkpt lat="43.42842" lon="6.10628">
        <ele>285.60000610352</ele>
        <time>2015-01-28T15:01:14Z</time>
      </trkpt>
      <trkpt lat="43.42841" lon="6.10626">
        <ele>285.60000610352</ele>
        <time>2015-01-28T15:01:15Z</time>
      </trkpt>
      <trkpt lat="43.42841" lon="6.10625">
        <ele>285.79998779297</ele>
        <time>2015-01-28T15:01:16Z</time>
      </trkpt>
      <trkpt lat="43.42839" lon="6.10619">
        <ele>285.79998779297</ele>
        <time>2015-01-28T15:01:19Z</time>
      </trkpt>
      <trkpt lat="43.42839" lon="6.10617">
        <ele>286</ele>
        <time>2015-01-28T15:01:20Z</time>
      </trkpt>
      <trkpt lat="43.42837" lon="6.10611">
        <ele>286.60000610352</ele>
        <time>2015-01-28T15:01:23Z</time>
      </trkpt>
      <trkpt lat="43.42836" lon="6.10607">
        <ele>287.20001220703</ele>
        <time>2015-01-28T15:01:25Z</time>
      </trkpt>
      <trkpt lat="43.42834" lon="6.10595">
        <ele>287.79998779297</ele>
        <time>2015-01-28T15:01:31Z</time>
      </trkpt>
      <trkpt lat="43.42833" lon="6.10589">
        <ele>288.20001220703</ele>
        <time>2015-01-28T15:01:34Z</time>
      </trkpt>
      <trkpt lat="43.4283" lon="6.10573">
        <ele>289</ele>
        <time>2015-01-28T15:01:40Z</time>
      </trkpt>
      <trkpt lat="43.42827" lon="6.10566">
        <ele>289.39999389648</ele>
        <time>2015-01-28T15:01:43Z</time>
      </trkpt>
      <trkpt lat="43.42824" lon="6.10557">
        <ele>289.79998779297</ele>
        <time>2015-01-28T15:01:47Z</time>
      </trkpt>
      <trkpt lat="43.42817" lon="6.10538">
        <ele>290.20001220703</ele>
        <time>2015-01-28T15:01:55Z</time>
      </trkpt>
      <trkpt lat="43.42815" lon="6.10534">
        <ele>290.60000610352</ele>
        <time>2015-01-28T15:01:57Z</time>
      </trkpt>
      <trkpt lat="43.42812" lon="6.10523">
        <ele>291</ele>
        <time>2015-01-28T15:02:02Z</time>
      </trkpt>
      <trkpt lat="43.42809" lon="6.10509">
        <ele>291.79998779297</ele>
        <time>2015-01-28T15:02:08Z</time>
      </trkpt>
      <trkpt lat="43.42807" lon="6.10501">
        <ele>292</ele>
        <time>2015-01-28T15:02:12Z</time>
      </trkpt>
      <trkpt lat="43.42802" lon="6.10474">
        <ele>292.60000610352</ele>
        <time>2015-01-28T15:02:22Z</time>
      </trkpt>
      <trkpt lat="43.42801" lon="6.10464">
        <ele>293</ele>
        <time>2015-01-28T15:02:26Z</time>
      </trkpt>
      <trkpt lat="43.42799" lon="6.10458">
        <ele>293.20001220703</ele>
        <time>2015-01-28T15:02:29Z</time>
      </trkpt>
      <trkpt lat="43.42799" lon="6.10454">
        <ele>293</ele>
        <time>2015-01-28T15:02:32Z</time>
      </trkpt>
      <trkpt lat="43.42799" lon="6.10453">
        <ele>293</ele>
        <time>2015-01-28T15:02:35Z</time>
      </trkpt>
      <trkpt lat="43.42799" lon="6.10453">
        <ele>293.39999389648</ele>
        <time>2015-01-28T15:02:40Z</time>
      </trkpt>
      <trkpt lat="43.42799" lon="6.10453">
        <ele>293.20001220703</ele>
        <time>2015-01-28T15:02:44Z</time>
      </trkpt>
      <trkpt lat="43.42799" lon="6.10453">
        <ele>293</ele>
        <time>2015-01-28T15:02:45Z</time>
      </trkpt>
      <trkpt lat="43.42799" lon="6.10453">
        <ele>293.20001220703</ele>
        <time>2015-01-28T15:02:47Z</time>
      </trkpt>
      <trkpt lat="43.42799" lon="6.10453">
        <ele>293.20001220703</ele>
        <time>2015-01-28T15:02:50Z</time>
      </trkpt>
      <trkpt lat="43.42799" lon="6.10453">
        <ele>292.79998779297</ele>
        <time>2015-01-28T15:02:56Z</time>
      </trkpt>
      <trkpt lat="43.42799" lon="6.10453">
        <ele>292.79998779297</ele>
        <time>2015-01-28T15:02:58Z</time>
      </trkpt>
      <trkpt lat="43.42799" lon="6.10453">
        <ele>293.20001220703</ele>
        <time>2015-01-28T15:03:04Z</time>
      </trkpt>
      <trkpt lat="43.42799" lon="6.10453">
        <ele>293.20001220703</ele>
        <time>2015-01-28T15:03:08Z</time>
      </trkpt>
      <trkpt lat="43.42799" lon="6.10453">
        <ele>293</ele>
        <time>2015-01-28T15:03:17Z</time>
      </trkpt>
      <trkpt lat="43.42799" lon="6.10453">
        <ele>293</ele>
        <time>2015-01-28T15:03:20Z</time>
      </trkpt>
      <trkpt lat="43.42799" lon="6.10453">
        <ele>293</ele>
        <time>2015-01-28T15:03:29Z</time>
      </trkpt>
      <trkpt lat="43.42799" lon="6.10453">
        <ele>293</ele>
        <time>2015-01-28T15:03:30Z</time>
      </trkpt>
      <trkpt lat="43.42799" lon="6.10453">
        <ele>293</ele>
        <time>2015-01-28T15:03:41Z</time>
      </trkpt>
      <trkpt lat="43.42799" lon="6.10453">
        <ele>293</ele>
        <time>2015-01-28T15:03:46Z</time>
      </trkpt>
      <trkpt lat="43.42799" lon="6.10453">
        <ele>293</ele>
        <time>2015-01-28T15:03:52Z</time>
      </trkpt>
      <trkpt lat="43.42799" lon="6.10452">
        <ele>293.20001220703</ele>
        <time>2015-01-28T15:03:54Z</time>
      </trkpt>
      <trkpt lat="43.42798" lon="6.10445">
        <ele>293</ele>
        <time>2015-01-28T15:03:57Z</time>
      </trkpt>
      <trkpt lat="43.42794" lon="6.10426">
        <ele>292.20001220703</ele>
        <time>2015-01-28T15:04:01Z</time>
      </trkpt>
      <trkpt lat="43.42789" lon="6.10403">
        <ele>291.39999389648</ele>
        <time>2015-01-28T15:04:05Z</time>
      </trkpt>
      <trkpt lat="43.42787" lon="6.10398">
        <ele>291</ele>
        <time>2015-01-28T15:04:06Z</time>
      </trkpt>
      <trkpt lat="43.42784" lon="6.10393">
        <ele>290.79998779297</ele>
        <time>2015-01-28T15:04:07Z</time>
      </trkpt>
      <trkpt lat="43.42778" lon="6.10381">
        <ele>290.39999389648</ele>
        <time>2015-01-28T15:04:09Z</time>
      </trkpt>
      <trkpt lat="43.42776" lon="6.10375">
        <ele>290.20001220703</ele>
        <time>2015-01-28T15:04:10Z</time>
      </trkpt>
      <trkpt lat="43.42775" lon="6.10368">
        <ele>289.79998779297</ele>
        <time>2015-01-28T15:04:11Z</time>
      </trkpt>
      <trkpt lat="43.42775" lon="6.10361">
        <ele>289.39999389648</ele>
        <time>2015-01-28T15:04:12Z</time>
      </trkpt>
      <trkpt lat="43.42776" lon="6.10346">
        <ele>289.20001220703</ele>
        <time>2015-01-28T15:04:14Z</time>
      </trkpt>
      <trkpt lat="43.42776" lon="6.10339">
        <ele>288.79998779297</ele>
        <time>2015-01-28T15:04:15Z</time>
      </trkpt>
      <trkpt lat="43.42777" lon="6.10326">
        <ele>287.20001220703</ele>
        <time>2015-01-28T15:04:17Z</time>
      </trkpt>
      <trkpt lat="43.42786" lon="6.10308">
        <ele>286</ele>
        <time>2015-01-28T15:04:20Z</time>
      </trkpt>
      <trkpt lat="43.42792" lon="6.10295">
        <ele>285.39999389648</ele>
        <time>2015-01-28T15:04:22Z</time>
      </trkpt>
      <trkpt lat="43.42797" lon="6.10275">
        <ele>285.39999389648</ele>
        <time>2015-01-28T15:04:25Z</time>
      </trkpt>
      <trkpt lat="43.42799" lon="6.10269">
        <ele>285.20001220703</ele>
        <time>2015-01-28T15:04:26Z</time>
      </trkpt>
      <trkpt lat="43.42801" lon="6.10253">
        <ele>285.20001220703</ele>
        <time>2015-01-28T15:04:29Z</time>
      </trkpt>
      <trkpt lat="43.42802" lon="6.10248">
        <ele>284.79998779297</ele>
        <time>2015-01-28T15:04:30Z</time>
      </trkpt>
      <trkpt lat="43.42805" lon="6.10243">
        <ele>284.79998779297</ele>
        <time>2015-01-28T15:04:31Z</time>
      </trkpt>
      <trkpt lat="43.42814" lon="6.10229">
        <ele>283.79998779297</ele>
        <time>2015-01-28T15:04:34Z</time>
      </trkpt>
      <trkpt lat="43.42829" lon="6.10202">
        <ele>283</ele>
        <time>2015-01-28T15:04:40Z</time>
      </trkpt>
      <trkpt lat="43.42834" lon="6.10192">
        <ele>283.60000610352</ele>
        <time>2015-01-28T15:04:43Z</time>
      </trkpt>
      <trkpt lat="43.42836" lon="6.10185">
        <ele>284</ele>
        <time>2015-01-28T15:04:45Z</time>
      </trkpt>
      <trkpt lat="43.42839" lon="6.10178">
        <ele>284.20001220703</ele>
        <time>2015-01-28T15:04:47Z</time>
      </trkpt>
      <trkpt lat="43.42848" lon="6.10167">
        <ele>284.60000610352</ele>
        <time>2015-01-28T15:04:52Z</time>
      </trkpt>
      <trkpt lat="43.4285" lon="6.10164">
        <ele>284.79998779297</ele>
        <time>2015-01-28T15:04:53Z</time>
      </trkpt>
      <trkpt lat="43.42858" lon="6.10151">
        <ele>285</ele>
        <time>2015-01-28T15:04:58Z</time>
      </trkpt>
      <trkpt lat="43.42861" lon="6.10146">
        <ele>285.60000610352</ele>
        <time>2015-01-28T15:05:00Z</time>
      </trkpt>
      <trkpt lat="43.42868" lon="6.10133">
        <ele>286</ele>
        <time>2015-01-28T15:05:07Z</time>
      </trkpt>
      <trkpt lat="43.42868" lon="6.10131">
        <ele>286.20001220703</ele>
        <time>2015-01-28T15:05:08Z</time>
      </trkpt>
      <trkpt lat="43.42869" lon="6.10121">
        <ele>286.60000610352</ele>
        <time>2015-01-28T15:05:12Z</time>
      </trkpt>
      <trkpt lat="43.4287" lon="6.10115">
        <ele>287.20001220703</ele>
        <time>2015-01-28T15:05:15Z</time>
      </trkpt>
      <trkpt lat="43.4287" lon="6.10113">
        <ele>287.39999389648</ele>
        <time>2015-01-28T15:05:16Z</time>
      </trkpt>
      <trkpt lat="43.4287" lon="6.10109">
        <ele>287.39999389648</ele>
        <time>2015-01-28T15:05:18Z</time>
      </trkpt>
      <trkpt lat="43.4287" lon="6.10105">
        <ele>288</ele>
        <time>2015-01-28T15:05:20Z</time>
      </trkpt>
      <trkpt lat="43.4287" lon="6.101">
        <ele>288.39999389648</ele>
        <time>2015-01-28T15:05:22Z</time>
      </trkpt>
      <trkpt lat="43.4287" lon="6.10096">
        <ele>289</ele>
        <time>2015-01-28T15:05:24Z</time>
      </trkpt>
      <trkpt lat="43.42871" lon="6.10089">
        <ele>289</ele>
        <time>2015-01-28T15:05:27Z</time>
      </trkpt>
      <trkpt lat="43.42871" lon="6.10083">
        <ele>289.39999389648</ele>
        <time>2015-01-28T15:05:30Z</time>
      </trkpt>
      <trkpt lat="43.42871" lon="6.10079">
        <ele>290</ele>
        <time>2015-01-28T15:05:32Z</time>
      </trkpt>
      <trkpt lat="43.42871" lon="6.10073">
        <ele>290.39999389648</ele>
        <time>2015-01-28T15:05:35Z</time>
      </trkpt>
      <trkpt lat="43.42871" lon="6.10072">
        <ele>291</ele>
        <time>2015-01-28T15:05:36Z</time>
      </trkpt>
      <trkpt lat="43.42872" lon="6.10061">
        <ele>291.79998779297</ele>
        <time>2015-01-28T15:05:41Z</time>
      </trkpt>
      <trkpt lat="43.42872" lon="6.10058">
        <ele>292.20001220703</ele>
        <time>2015-01-28T15:05:43Z</time>
      </trkpt>
      <trkpt lat="43.42871" lon="6.10049">
        <ele>293.20001220703</ele>
        <time>2015-01-28T15:05:48Z</time>
      </trkpt>
      <trkpt lat="43.42872" lon="6.10047">
        <ele>293.39999389648</ele>
        <time>2015-01-28T15:05:49Z</time>
      </trkpt>
      <trkpt lat="43.42873" lon="6.10037">
        <ele>294.39999389648</ele>
        <time>2015-01-28T15:05:55Z</time>
      </trkpt>
      <trkpt lat="43.42874" lon="6.10036">
        <ele>294.39999389648</ele>
        <time>2015-01-28T15:05:56Z</time>
      </trkpt>
      <trkpt lat="43.42875" lon="6.10032">
        <ele>294.60000610352</ele>
        <time>2015-01-28T15:05:59Z</time>
      </trkpt>
      <trkpt lat="43.42875" lon="6.10031">
        <ele>294.79998779297</ele>
        <time>2015-01-28T15:06:01Z</time>
      </trkpt>
      <trkpt lat="43.42875" lon="6.10031">
        <ele>295</ele>
        <time>2015-01-28T15:06:04Z</time>
      </trkpt>
      <trkpt lat="43.42876" lon="6.10031">
        <ele>294.60000610352</ele>
        <time>2015-01-28T15:06:07Z</time>
      </trkpt>
      <trkpt lat="43.42876" lon="6.10031">
        <ele>294.39999389648</ele>
        <time>2015-01-28T15:06:10Z</time>
      </trkpt>
      <trkpt lat="43.42876" lon="6.10031">
        <ele>294.60000610352</ele>
        <time>2015-01-28T15:06:11Z</time>
      </trkpt>
      <trkpt lat="43.42876" lon="6.10031">
        <ele>294.79998779297</ele>
        <time>2015-01-28T15:06:16Z</time>
      </trkpt>
      <trkpt lat="43.42876" lon="6.10031">
        <ele>295</ele>
        <time>2015-01-28T15:06:24Z</time>
      </trkpt>
      <trkpt lat="43.42876" lon="6.1003">
        <ele>294.79998779297</ele>
        <time>2015-01-28T15:06:27Z</time>
      </trkpt>
      <trkpt lat="43.42876" lon="6.10031">
        <ele>295</ele>
        <time>2015-01-28T15:06:30Z</time>
      </trkpt>
      <trkpt lat="43.42876" lon="6.10031">
        <ele>295</ele>
        <time>2015-01-28T15:06:32Z</time>
      </trkpt>
      <trkpt lat="43.42876" lon="6.10031">
        <ele>295</ele>
        <time>2015-01-28T15:06:34Z</time>
      </trkpt>
      <trkpt lat="43.42876" lon="6.10031">
        <ele>294.79998779297</ele>
        <time>2015-01-28T15:06:38Z</time>
      </trkpt>
      <trkpt lat="43.42876" lon="6.10031">
        <ele>294.79998779297</ele>
        <time>2015-01-28T15:06:41Z</time>
      </trkpt>
      <trkpt lat="43.42876" lon="6.10031">
        <ele>295</ele>
        <time>2015-01-28T15:06:46Z</time>
      </trkpt>
      <trkpt lat="43.42876" lon="6.10031">
        <ele>294.60000610352</ele>
        <time>2015-01-28T15:06:52Z</time>
      </trkpt>
      <trkpt lat="43.42876" lon="6.1003">
        <ele>295</ele>
        <time>2015-01-28T15:06:58Z</time>
      </trkpt>
      <trkpt lat="43.42878" lon="6.10029">
        <ele>295.20001220703</ele>
        <time>2015-01-28T15:07:02Z</time>
      </trkpt>
      <trkpt lat="43.4288" lon="6.10027">
        <ele>295.20001220703</ele>
        <time>2015-01-28T15:07:03Z</time>
      </trkpt>
      <trkpt lat="43.42883" lon="6.10024">
        <ele>295.20001220703</ele>
        <time>2015-01-28T15:07:04Z</time>
      </trkpt>
      <trkpt lat="43.42886" lon="6.10021">
        <ele>295</ele>
        <time>2015-01-28T15:07:05Z</time>
      </trkpt>
      <trkpt lat="43.42889" lon="6.10017">
        <ele>294.60000610352</ele>
        <time>2015-01-28T15:07:06Z</time>
      </trkpt>
      <trkpt lat="43.42895" lon="6.10005">
        <ele>294.20001220703</ele>
        <time>2015-01-28T15:07:08Z</time>
      </trkpt>
      <trkpt lat="43.42897" lon="6.09998">
        <ele>293.60000610352</ele>
        <time>2015-01-28T15:07:09Z</time>
      </trkpt>
      <trkpt lat="43.42903" lon="6.09983">
        <ele>292.20001220703</ele>
        <time>2015-01-28T15:07:11Z</time>
      </trkpt>
      <trkpt lat="43.42906" lon="6.09976">
        <ele>292</ele>
        <time>2015-01-28T15:07:12Z</time>
      </trkpt>
      <trkpt lat="43.4291" lon="6.0997">
        <ele>291.39999389648</ele>
        <time>2015-01-28T15:07:13Z</time>
      </trkpt>
      <trkpt lat="43.42914" lon="6.09965">
        <ele>291</ele>
        <time>2015-01-28T15:07:14Z</time>
      </trkpt>
      <trkpt lat="43.42924" lon="6.09958">
        <ele>290.79998779297</ele>
        <time>2015-01-28T15:07:16Z</time>
      </trkpt>
      <trkpt lat="43.42941" lon="6.09949">
        <ele>291</ele>
        <time>2015-01-28T15:07:19Z</time>
      </trkpt>
      <trkpt lat="43.4295" lon="6.09944">
        <ele>289.39999389648</ele>
        <time>2015-01-28T15:07:21Z</time>
      </trkpt>
      <trkpt lat="43.42955" lon="6.0993">
        <ele>288</ele>
        <time>2015-01-28T15:07:23Z</time>
      </trkpt>
      <trkpt lat="43.42955" lon="6.0992">
        <ele>288</ele>
        <time>2015-01-28T15:07:24Z</time>
      </trkpt>
      <trkpt lat="43.42957" lon="6.099">
        <ele>287</ele>
        <time>2015-01-28T15:07:26Z</time>
      </trkpt>
      <trkpt lat="43.42958" lon="6.09891">
        <ele>286.39999389648</ele>
        <time>2015-01-28T15:07:27Z</time>
      </trkpt>
      <trkpt lat="43.42959" lon="6.09881">
        <ele>286</ele>
        <time>2015-01-28T15:07:28Z</time>
      </trkpt>
      <trkpt lat="43.4296" lon="6.0986">
        <ele>285.60000610352</ele>
        <time>2015-01-28T15:07:30Z</time>
      </trkpt>
      <trkpt lat="43.42959" lon="6.0983">
        <ele>285.60000610352</ele>
        <time>2015-01-28T15:07:33Z</time>
      </trkpt>
      <trkpt lat="43.4296" lon="6.09821">
        <ele>285.39999389648</ele>
        <time>2015-01-28T15:07:34Z</time>
      </trkpt>
      <trkpt lat="43.4296" lon="6.09811">
        <ele>284.79998779297</ele>
        <time>2015-01-28T15:07:35Z</time>
      </trkpt>
      <trkpt lat="43.42965" lon="6.09794">
        <ele>284.39999389648</ele>
        <time>2015-01-28T15:07:37Z</time>
      </trkpt>
      <trkpt lat="43.42966" lon="6.09785">
        <ele>283.60000610352</ele>
        <time>2015-01-28T15:07:38Z</time>
      </trkpt>
      <trkpt lat="43.42967" lon="6.09776">
        <ele>282.60000610352</ele>
        <time>2015-01-28T15:07:39Z</time>
      </trkpt>
      <trkpt lat="43.42967" lon="6.09748">
        <ele>281.39999389648</ele>
        <time>2015-01-28T15:07:42Z</time>
      </trkpt>
      <trkpt lat="43.42969" lon="6.09739">
        <ele>281.20001220703</ele>
        <time>2015-01-28T15:07:43Z</time>
      </trkpt>
      <trkpt lat="43.42973" lon="6.09716">
        <ele>279.79998779297</ele>
        <time>2015-01-28T15:07:46Z</time>
      </trkpt>
      <trkpt lat="43.42972" lon="6.09689">
        <ele>279</ele>
        <time>2015-01-28T15:07:49Z</time>
      </trkpt>
      <trkpt lat="43.42973" lon="6.0968">
        <ele>278.20001220703</ele>
        <time>2015-01-28T15:07:50Z</time>
      </trkpt>
      <trkpt lat="43.42974" lon="6.09654">
        <ele>276.79998779297</ele>
        <time>2015-01-28T15:07:53Z</time>
      </trkpt>
      <trkpt lat="43.42975" lon="6.09636">
        <ele>276.20001220703</ele>
        <time>2015-01-28T15:07:55Z</time>
      </trkpt>
      <trkpt lat="43.42979" lon="6.09583">
        <ele>275.60000610352</ele>
        <time>2015-01-28T15:08:01Z</time>
      </trkpt>
      <trkpt lat="43.42981" lon="6.09575">
        <ele>275.20001220703</ele>
        <time>2015-01-28T15:08:02Z</time>
      </trkpt>
      <trkpt lat="43.42985" lon="6.09559">
        <ele>274.60000610352</ele>
        <time>2015-01-28T15:08:04Z</time>
      </trkpt>
      <trkpt lat="43.42989" lon="6.09548">
        <ele>275</ele>
        <time>2015-01-28T15:08:06Z</time>
      </trkpt>
      <trkpt lat="43.4299" lon="6.09544">
        <ele>275.79998779297</ele>
        <time>2015-01-28T15:08:07Z</time>
      </trkpt>
      <trkpt lat="43.42992" lon="6.09536">
        <ele>277.20001220703</ele>
        <time>2015-01-28T15:08:10Z</time>
      </trkpt>
      <trkpt lat="43.42993" lon="6.09529">
        <ele>278.20001220703</ele>
        <time>2015-01-28T15:08:13Z</time>
      </trkpt>
      <trkpt lat="43.42992" lon="6.09518">
        <ele>278.60000610352</ele>
        <time>2015-01-28T15:08:16Z</time>
      </trkpt>
      <trkpt lat="43.42989" lon="6.09502">
        <ele>277.60000610352</ele>
        <time>2015-01-28T15:08:19Z</time>
      </trkpt>
      <trkpt lat="43.42988" lon="6.09489">
        <ele>277.39999389648</ele>
        <time>2015-01-28T15:08:21Z</time>
      </trkpt>
      <trkpt lat="43.42989" lon="6.09483">
        <ele>276.79998779297</ele>
        <time>2015-01-28T15:08:22Z</time>
      </trkpt>
      <trkpt lat="43.42989" lon="6.09477">
        <ele>276.60000610352</ele>
        <time>2015-01-28T15:08:23Z</time>
      </trkpt>
      <trkpt lat="43.42989" lon="6.0945">
        <ele>275.39999389648</ele>
        <time>2015-01-28T15:08:27Z</time>
      </trkpt>
      <trkpt lat="43.42989" lon="6.09444">
        <ele>275</ele>
        <time>2015-01-28T15:08:28Z</time>
      </trkpt>
      <trkpt lat="43.42991" lon="6.09431">
        <ele>274.39999389648</ele>
        <time>2015-01-28T15:08:32Z</time>
      </trkpt>
      <trkpt lat="43.42991" lon="6.09427">
        <ele>274.60000610352</ele>
        <time>2015-01-28T15:08:37Z</time>
      </trkpt>
      <trkpt lat="43.42991" lon="6.09427">
        <ele>274.60000610352</ele>
        <time>2015-01-28T15:08:39Z</time>
      </trkpt>
      <trkpt lat="43.42991" lon="6.09427">
        <ele>274.60000610352</ele>
        <time>2015-01-28T15:08:43Z</time>
      </trkpt>
      <trkpt lat="43.42991" lon="6.09426">
        <ele>274.60000610352</ele>
        <time>2015-01-28T15:08:46Z</time>
      </trkpt>
      <trkpt lat="43.42991" lon="6.09426">
        <ele>274.60000610352</ele>
        <time>2015-01-28T15:08:49Z</time>
      </trkpt>
      <trkpt lat="43.42991" lon="6.09426">
        <ele>274.60000610352</ele>
        <time>2015-01-28T15:08:52Z</time>
      </trkpt>
      <trkpt lat="43.42991" lon="6.09426">
        <ele>274.79998779297</ele>
        <time>2015-01-28T15:08:55Z</time>
      </trkpt>
      <trkpt lat="43.42991" lon="6.09426">
        <ele>274.60000610352</ele>
        <time>2015-01-28T15:08:57Z</time>
      </trkpt>
      <trkpt lat="43.42991" lon="6.09426">
        <ele>274.60000610352</ele>
        <time>2015-01-28T15:09:00Z</time>
      </trkpt>
      <trkpt lat="43.42991" lon="6.09426">
        <ele>274.60000610352</ele>
        <time>2015-01-28T15:09:01Z</time>
      </trkpt>
      <trkpt lat="43.42991" lon="6.09426">
        <ele>274.39999389648</ele>
        <time>2015-01-28T15:09:07Z</time>
      </trkpt>
      <trkpt lat="43.42992" lon="6.09426">
        <ele>274.39999389648</ele>
        <time>2015-01-28T15:09:15Z</time>
      </trkpt>
      <trkpt lat="43.42992" lon="6.09426">
        <ele>274.20001220703</ele>
        <time>2015-01-28T15:09:16Z</time>
      </trkpt>
      <trkpt lat="43.42992" lon="6.09428">
        <ele>274.60000610352</ele>
        <time>2015-01-28T15:09:24Z</time>
      </trkpt>
      <trkpt lat="43.42991" lon="6.09428">
        <ele>274.39999389648</ele>
        <time>2015-01-28T15:09:39Z</time>
      </trkpt>
      <trkpt lat="43.4299" lon="6.09429">
        <ele>274.60000610352</ele>
        <time>2015-01-28T15:09:49Z</time>
      </trkpt>
      <trkpt lat="43.4299" lon="6.09429">
        <ele>274.60000610352</ele>
        <time>2015-01-28T15:09:55Z</time>
      </trkpt>
      <trkpt lat="43.4299" lon="6.09429">
        <ele>274.20001220703</ele>
        <time>2015-01-28T15:10:09Z</time>
      </trkpt>
      <trkpt lat="43.4299" lon="6.09429">
        <ele>274.60000610352</ele>
        <time>2015-01-28T15:10:18Z</time>
      </trkpt>
      <trkpt lat="43.4299" lon="6.09429">
        <ele>274.39999389648</ele>
        <time>2015-01-28T15:10:29Z</time>
      </trkpt>
      <trkpt lat="43.4299" lon="6.09429">
        <ele>274.60000610352</ele>
        <time>2015-01-28T15:10:35Z</time>
      </trkpt>
      <trkpt lat="43.4299" lon="6.09429">
        <ele>274.60000610352</ele>
        <time>2015-01-28T15:10:39Z</time>
      </trkpt>
      <trkpt lat="43.4299" lon="6.09429">
        <ele>274.79998779297</ele>
        <time>2015-01-28T15:10:43Z</time>
      </trkpt>
      <trkpt lat="43.4299" lon="6.09429">
        <ele>274.79998779297</ele>
        <time>2015-01-28T15:11:01Z</time>
      </trkpt>
      <trkpt lat="43.4299" lon="6.09429">
        <ele>274.79998779297</ele>
        <time>2015-01-28T15:11:04Z</time>
      </trkpt>
      <trkpt lat="43.4299" lon="6.09429">
        <ele>274.60000610352</ele>
        <time>2015-01-28T15:11:11Z</time>
      </trkpt>
      <trkpt lat="43.4299" lon="6.09429">
        <ele>274.79998779297</ele>
        <time>2015-01-28T15:11:19Z</time>
      </trkpt>
      <trkpt lat="43.4299" lon="6.09429">
        <ele>275.20001220703</ele>
        <time>2015-01-28T15:11:28Z</time>
      </trkpt>
      <trkpt lat="43.4299" lon="6.09429">
        <ele>275</ele>
        <time>2015-01-28T15:11:31Z</time>
      </trkpt>
      <trkpt lat="43.4299" lon="6.09429">
        <ele>275.39999389648</ele>
        <time>2015-01-28T15:11:34Z</time>
      </trkpt>
      <trkpt lat="43.4299" lon="6.09429">
        <ele>274.79998779297</ele>
        <time>2015-01-28T15:11:51Z</time>
      </trkpt>
      <trkpt lat="43.42991" lon="6.09429">
        <ele>275.20001220703</ele>
        <time>2015-01-28T15:12:00Z</time>
      </trkpt>
      <trkpt lat="43.42991" lon="6.09429">
        <ele>275</ele>
        <time>2015-01-28T15:12:12Z</time>
      </trkpt>
      <trkpt lat="43.42991" lon="6.09429">
        <ele>275</ele>
        <time>2015-01-28T15:12:13Z</time>
      </trkpt>
      <trkpt lat="43.42991" lon="6.09431">
        <ele>275</ele>
        <time>2015-01-28T15:12:36Z</time>
      </trkpt>
      <trkpt lat="43.4299" lon="6.09433">
        <ele>275</ele>
        <time>2015-01-28T15:12:37Z</time>
      </trkpt>
      <trkpt lat="43.42989" lon="6.09445">
        <ele>275</ele>
        <time>2015-01-28T15:12:42Z</time>
      </trkpt>
      <trkpt lat="43.42989" lon="6.09464">
        <ele>275.20001220703</ele>
        <time>2015-01-28T15:12:49Z</time>
      </trkpt>
      <trkpt lat="43.42989" lon="6.09478">
        <ele>276</ele>
        <time>2015-01-28T15:12:54Z</time>
      </trkpt>
      <trkpt lat="43.42988" lon="6.09484">
        <ele>276.39999389648</ele>
        <time>2015-01-28T15:12:56Z</time>
      </trkpt>
      <trkpt lat="43.42988" lon="6.09492">
        <ele>277</ele>
        <time>2015-01-28T15:12:59Z</time>
      </trkpt>
      <trkpt lat="43.42988" lon="6.09501">
        <ele>277.39999389648</ele>
        <time>2015-01-28T15:13:02Z</time>
      </trkpt>
      <trkpt lat="43.42988" lon="6.09507">
        <ele>277.60000610352</ele>
        <time>2015-01-28T15:13:04Z</time>
      </trkpt>
      <trkpt lat="43.42991" lon="6.09516">
        <ele>278.20001220703</ele>
        <time>2015-01-28T15:13:08Z</time>
      </trkpt>
      <trkpt lat="43.42992" lon="6.0952">
        <ele>278.60000610352</ele>
        <time>2015-01-28T15:13:10Z</time>
      </trkpt>
      <trkpt lat="43.42993" lon="6.09528">
        <ele>278.60000610352</ele>
        <time>2015-01-28T15:13:14Z</time>
      </trkpt>
      <trkpt lat="43.42993" lon="6.09528">
        <ele>279</ele>
        <time>2015-01-28T15:13:16Z</time>
      </trkpt>
      <trkpt lat="43.42992" lon="6.09529">
        <ele>279</ele>
        <time>2015-01-28T15:13:23Z</time>
      </trkpt>
      <trkpt lat="43.42992" lon="6.0953">
        <ele>278.79998779297</ele>
        <time>2015-01-28T15:13:25Z</time>
      </trkpt>
      <trkpt lat="43.42992" lon="6.0953">
        <ele>279</ele>
        <time>2015-01-28T15:13:32Z</time>
      </trkpt>
      <trkpt lat="43.42992" lon="6.0953">
        <ele>278.60000610352</ele>
        <time>2015-01-28T15:13:40Z</time>
      </trkpt>
      <trkpt lat="43.42992" lon="6.09529">
        <ele>278</ele>
        <time>2015-01-28T15:13:47Z</time>
      </trkpt>
      <trkpt lat="43.42992" lon="6.09529">
        <ele>278.20001220703</ele>
        <time>2015-01-28T15:13:49Z</time>
      </trkpt>
      <trkpt lat="43.42992" lon="6.09529">
        <ele>278.20001220703</ele>
        <time>2015-01-28T15:13:52Z</time>
      </trkpt>
      <trkpt lat="43.42992" lon="6.09529">
        <ele>278.20001220703</ele>
        <time>2015-01-28T15:13:57Z</time>
      </trkpt>
      <trkpt lat="43.42992" lon="6.09529">
        <ele>278.20001220703</ele>
        <time>2015-01-28T15:14:03Z</time>
      </trkpt>
      <trkpt lat="43.42992" lon="6.09529">
        <ele>278.20001220703</ele>
        <time>2015-01-28T15:14:04Z</time>
      </trkpt>
      <trkpt lat="43.42992" lon="6.09529">
        <ele>278.20001220703</ele>
        <time>2015-01-28T15:14:16Z</time>
      </trkpt>
      <trkpt lat="43.42992" lon="6.09529">
        <ele>278</ele>
        <time>2015-01-28T15:14:22Z</time>
      </trkpt>
      <trkpt lat="43.42992" lon="6.09529">
        <ele>277.79998779297</ele>
        <time>2015-01-28T15:14:40Z</time>
      </trkpt>
      <trkpt lat="43.42992" lon="6.09529">
        <ele>277.79998779297</ele>
        <time>2015-01-28T15:14:41Z</time>
      </trkpt>
      <trkpt lat="43.42992" lon="6.09529">
        <ele>278.20001220703</ele>
        <time>2015-01-28T15:15:23Z</time>
      </trkpt>
      <trkpt lat="43.42992" lon="6.09529">
        <ele>278</ele>
        <time>2015-01-28T15:15:40Z</time>
      </trkpt>
      <trkpt lat="43.42992" lon="6.09529">
        <ele>278.20001220703</ele>
        <time>2015-01-28T15:16:20Z</time>
      </trkpt>
      <trkpt lat="43.42992" lon="6.09529">
        <ele>278</ele>
        <time>2015-01-28T15:16:48Z</time>
      </trkpt>
      <trkpt lat="43.42992" lon="6.09529">
        <ele>278</ele>
        <time>2015-01-28T15:17:06Z</time>
      </trkpt>
      <trkpt lat="43.42992" lon="6.09529">
        <ele>278.20001220703</ele>
        <time>2015-01-28T15:17:50Z</time>
      </trkpt>
      <trkpt lat="43.42992" lon="6.09529">
        <ele>278.20001220703</ele>
        <time>2015-01-28T15:18:33Z</time>
      </trkpt>
      <trkpt lat="43.42992" lon="6.09529">
        <ele>278</ele>
        <time>2015-01-28T15:19:07Z</time>
      </trkpt>
      <trkpt lat="43.42992" lon="6.09529">
        <ele>277.79998779297</ele>
        <time>2015-01-28T15:19:09Z</time>
      </trkpt>
      <trkpt lat="43.42992" lon="6.09529">
        <ele>277.79998779297</ele>
        <time>2015-01-28T15:19:15Z</time>
      </trkpt>
      <trkpt lat="43.42992" lon="6.09529">
        <ele>278</ele>
        <time>2015-01-28T15:19:18Z</time>
      </trkpt>
      <trkpt lat="43.42992" lon="6.09529">
        <ele>278</ele>
        <time>2015-01-28T15:19:22Z</time>
      </trkpt>
      <trkpt lat="43.42992" lon="6.09529">
        <ele>278</ele>
        <time>2015-01-28T15:19:40Z</time>
      </trkpt>
      <trkpt lat="43.42992" lon="6.09529">
        <ele>277.79998779297</ele>
        <time>2015-01-28T15:19:58Z</time>
      </trkpt>
      <trkpt lat="43.42992" lon="6.09529">
        <ele>277.79998779297</ele>
        <time>2015-01-28T15:20:06Z</time>
      </trkpt>
      <trkpt lat="43.42992" lon="6.09529">
        <ele>277.79998779297</ele>
        <time>2015-01-28T15:20:27Z</time>
      </trkpt>
      <trkpt lat="43.42992" lon="6.09529">
        <ele>277.60000610352</ele>
        <time>2015-01-28T15:20:57Z</time>
      </trkpt>
      <trkpt lat="43.42992" lon="6.09529">
        <ele>277.79998779297</ele>
        <time>2015-01-28T15:21:09Z</time>
      </trkpt>
      <trkpt lat="43.42992" lon="6.09529">
        <ele>278</ele>
        <time>2015-01-28T15:21:19Z</time>
      </trkpt>
      <trkpt lat="43.42992" lon="6.09529">
        <ele>278.20001220703</ele>
        <time>2015-01-28T15:21:20Z</time>
      </trkpt>
      <trkpt lat="43.42992" lon="6.09529">
        <ele>278</ele>
        <time>2015-01-28T15:21:22Z</time>
      </trkpt>
      <trkpt lat="43.42992" lon="6.09529">
        <ele>278</ele>
        <time>2015-01-28T15:21:23Z</time>
      </trkpt>
      <trkpt lat="43.42992" lon="6.09529">
        <ele>278.20001220703</ele>
        <time>2015-01-28T15:21:26Z</time>
      </trkpt>
      <trkpt lat="43.42992" lon="6.09529">
        <ele>278</ele>
        <time>2015-01-28T15:21:27Z</time>
      </trkpt>
      <trkpt lat="43.42992" lon="6.09529">
        <ele>278</ele>
        <time>2015-01-28T15:21:40Z</time>
      </trkpt>
      <trkpt lat="43.42992" lon="6.09529">
        <ele>278.20001220703</ele>
        <time>2015-01-28T15:21:42Z</time>
      </trkpt>
      <trkpt lat="43.42992" lon="6.09529">
        <ele>278</ele>
        <time>2015-01-28T15:21:44Z</time>
      </trkpt>
      <trkpt lat="43.42992" lon="6.09529">
        <ele>278</ele>
        <time>2015-01-28T15:21:46Z</time>
      </trkpt>
      <trkpt lat="43.42992" lon="6.09529">
        <ele>277.79998779297</ele>
        <time>2015-01-28T15:21:49Z</time>
      </trkpt>
      <trkpt lat="43.42992" lon="6.09529">
        <ele>277.79998779297</ele>
        <time>2015-01-28T15:21:53Z</time>
      </trkpt>
      <trkpt lat="43.42992" lon="6.09529">
        <ele>278.20001220703</ele>
        <time>2015-01-28T15:22:00Z</time>
      </trkpt>
      <trkpt lat="43.42992" lon="6.09529">
        <ele>278</ele>
        <time>2015-01-28T15:22:22Z</time>
      </trkpt>
      <trkpt lat="43.42992" lon="6.09529">
        <ele>277.79998779297</ele>
        <time>2015-01-28T15:22:28Z</time>
      </trkpt>
      <trkpt lat="43.42992" lon="6.09529">
        <ele>277.79998779297</ele>
        <time>2015-01-28T15:23:04Z</time>
      </trkpt>
      <trkpt lat="43.42992" lon="6.09529">
        <ele>278</ele>
        <time>2015-01-28T15:24:05Z</time>
      </trkpt>
      <trkpt lat="43.42992" lon="6.09529">
        <ele>278</ele>
        <time>2015-01-28T15:24:32Z</time>
      </trkpt>
      <trkpt lat="43.42992" lon="6.09529">
        <ele>277.60000610352</ele>
        <time>2015-01-28T15:24:45Z</time>
      </trkpt>
      <trkpt lat="43.42992" lon="6.09529">
        <ele>277.20001220703</ele>
        <time>2015-01-28T15:24:52Z</time>
      </trkpt>
      <trkpt lat="43.42992" lon="6.09529">
        <ele>277.60000610352</ele>
        <time>2015-01-28T15:24:57Z</time>
      </trkpt>
      <trkpt lat="43.42993" lon="6.09528">
        <ele>278.39999389648</ele>
        <time>2015-01-28T15:25:13Z</time>
      </trkpt>
      <trkpt lat="43.42993" lon="6.09525">
        <ele>278.39999389648</ele>
        <time>2015-01-28T15:25:21Z</time>
      </trkpt>
      <trkpt lat="43.42989" lon="6.0951">
        <ele>278</ele>
        <time>2015-01-28T15:25:27Z</time>
      </trkpt>
      <trkpt lat="43.42989" lon="6.09486">
        <ele>277.79998779297</ele>
        <time>2015-01-28T15:25:32Z</time>
      </trkpt>
      <trkpt lat="43.42989" lon="6.09477">
        <ele>277</ele>
        <time>2015-01-28T15:25:34Z</time>
      </trkpt>
      <trkpt lat="43.42988" lon="6.09454">
        <ele>276.39999389648</ele>
        <time>2015-01-28T15:25:38Z</time>
      </trkpt>
      <trkpt lat="43.42988" lon="6.09449">
        <ele>275.79998779297</ele>
        <time>2015-01-28T15:25:39Z</time>
      </trkpt>
      <trkpt lat="43.42988" lon="6.09432">
        <ele>274.79998779297</ele>
        <time>2015-01-28T15:25:43Z</time>
      </trkpt>
      <trkpt lat="43.42986" lon="6.0943">
        <ele>274.60000610352</ele>
        <time>2015-01-28T15:25:44Z</time>
      </trkpt>
      <trkpt lat="43.4298" lon="6.09431">
        <ele>274.39999389648</ele>
        <time>2015-01-28T15:25:46Z</time>
      </trkpt>
      <trkpt lat="43.42971" lon="6.09436">
        <ele>273.79998779297</ele>
        <time>2015-01-28T15:25:49Z</time>
      </trkpt>
      <trkpt lat="43.42965" lon="6.0944">
        <ele>273.60000610352</ele>
        <time>2015-01-28T15:25:51Z</time>
      </trkpt>
      <trkpt lat="43.42947" lon="6.09441">
        <ele>273</ele>
        <time>2015-01-28T15:25:56Z</time>
      </trkpt>
      <trkpt lat="43.42933" lon="6.09433">
        <ele>272.39999389648</ele>
        <time>2015-01-28T15:26:00Z</time>
      </trkpt>
      <trkpt lat="43.42929" lon="6.09431">
        <ele>272.20001220703</ele>
        <time>2015-01-28T15:26:01Z</time>
      </trkpt>
      <trkpt lat="43.42925" lon="6.09429">
        <ele>272.20001220703</ele>
        <time>2015-01-28T15:26:02Z</time>
      </trkpt>
      <trkpt lat="43.42913" lon="6.09418">
        <ele>272.79998779297</ele>
        <time>2015-01-28T15:26:06Z</time>
      </trkpt>
      <trkpt lat="43.42901" lon="6.09398">
        <ele>272.79998779297</ele>
        <time>2015-01-28T15:26:12Z</time>
      </trkpt>
      <trkpt lat="43.42902" lon="6.09386">
        <ele>273.20001220703</ele>
        <time>2015-01-28T15:26:15Z</time>
      </trkpt>
      <trkpt lat="43.42904" lon="6.09378">
        <ele>273.39999389648</ele>
        <time>2015-01-28T15:26:17Z</time>
      </trkpt>
      <trkpt lat="43.42904" lon="6.09358">
        <ele>273.39999389648</ele>
        <time>2015-01-28T15:26:22Z</time>
      </trkpt>
      <trkpt lat="43.42904" lon="6.09354">
        <ele>273.60000610352</ele>
        <time>2015-01-28T15:26:23Z</time>
      </trkpt>
      <trkpt lat="43.42904" lon="6.09352">
        <ele>273.79998779297</ele>
        <time>2015-01-28T15:26:24Z</time>
      </trkpt>
      <trkpt lat="43.42906" lon="6.09342">
        <ele>274.39999389648</ele>
        <time>2015-01-28T15:26:28Z</time>
      </trkpt>
      <trkpt lat="43.42907" lon="6.09329">
        <ele>274.20001220703</ele>
        <time>2015-01-28T15:26:33Z</time>
      </trkpt>
      <trkpt lat="43.42907" lon="6.09328">
        <ele>274.39999389648</ele>
        <time>2015-01-28T15:26:34Z</time>
      </trkpt>
      <trkpt lat="43.42908" lon="6.09324">
        <ele>274.39999389648</ele>
        <time>2015-01-28T15:26:40Z</time>
      </trkpt>
      <trkpt lat="43.42909" lon="6.09314">
        <ele>274.60000610352</ele>
        <time>2015-01-28T15:26:44Z</time>
      </trkpt>
      <trkpt lat="43.42909" lon="6.09311">
        <ele>274.60000610352</ele>
        <time>2015-01-28T15:26:45Z</time>
      </trkpt>
      <trkpt lat="43.4291" lon="6.09294">
        <ele>275.20001220703</ele>
        <time>2015-01-28T15:26:50Z</time>
      </trkpt>
      <trkpt lat="43.4291" lon="6.09287">
        <ele>275.20001220703</ele>
        <time>2015-01-28T15:26:52Z</time>
      </trkpt>
      <trkpt lat="43.42907" lon="6.09272">
        <ele>275.60000610352</ele>
        <time>2015-01-28T15:26:57Z</time>
      </trkpt>
      <trkpt lat="43.42906" lon="6.09266">
        <ele>276.20001220703</ele>
        <time>2015-01-28T15:26:59Z</time>
      </trkpt>
      <trkpt lat="43.42905" lon="6.09264">
        <ele>276.20001220703</ele>
        <time>2015-01-28T15:27:00Z</time>
      </trkpt>
      <trkpt lat="43.42904" lon="6.09249">
        <ele>277.20001220703</ele>
        <time>2015-01-28T15:27:05Z</time>
      </trkpt>
      <trkpt lat="43.42904" lon="6.09244">
        <ele>277.60000610352</ele>
        <time>2015-01-28T15:27:07Z</time>
      </trkpt>
      <trkpt lat="43.42904" lon="6.09227">
        <ele>278</ele>
        <time>2015-01-28T15:27:13Z</time>
      </trkpt>
      <trkpt lat="43.42907" lon="6.09218">
        <ele>278.39999389648</ele>
        <time>2015-01-28T15:27:16Z</time>
      </trkpt>
      <trkpt lat="43.42914" lon="6.09206">
        <ele>279.20001220703</ele>
        <time>2015-01-28T15:27:21Z</time>
      </trkpt>
      <trkpt lat="43.42926" lon="6.09195">
        <ele>279</ele>
        <time>2015-01-28T15:27:27Z</time>
      </trkpt>
      <trkpt lat="43.4293" lon="6.09189">
        <ele>279.39999389648</ele>
        <time>2015-01-28T15:27:30Z</time>
      </trkpt>
      <trkpt lat="43.42932" lon="6.09182">
        <ele>280</ele>
        <time>2015-01-28T15:27:33Z</time>
      </trkpt>
      <trkpt lat="43.42933" lon="6.09177">
        <ele>280.60000610352</ele>
        <time>2015-01-28T15:27:35Z</time>
      </trkpt>
      <trkpt lat="43.42932" lon="6.09163">
        <ele>281.60000610352</ele>
        <time>2015-01-28T15:27:41Z</time>
      </trkpt>
      <trkpt lat="43.42933" lon="6.09149">
        <ele>282.79998779297</ele>
        <time>2015-01-28T15:27:47Z</time>
      </trkpt>
      <trkpt lat="43.42933" lon="6.09147">
        <ele>283</ele>
        <time>2015-01-28T15:27:48Z</time>
      </trkpt>
      <trkpt lat="43.42934" lon="6.09132">
        <ele>284</ele>
        <time>2015-01-28T15:27:55Z</time>
      </trkpt>
      <trkpt lat="43.42934" lon="6.09129">
        <ele>284</ele>
        <time>2015-01-28T15:27:56Z</time>
      </trkpt>
      <trkpt lat="43.42939" lon="6.09121">
        <ele>285</ele>
        <time>2015-01-28T15:28:02Z</time>
      </trkpt>
      <trkpt lat="43.4294" lon="6.09119">
        <ele>285.20001220703</ele>
        <time>2015-01-28T15:28:03Z</time>
      </trkpt>
      <trkpt lat="43.42944" lon="6.09112">
        <ele>286.20001220703</ele>
        <time>2015-01-28T15:28:08Z</time>
      </trkpt>
      <trkpt lat="43.42946" lon="6.09111">
        <ele>286.79998779297</ele>
        <time>2015-01-28T15:28:10Z</time>
      </trkpt>
      <trkpt lat="43.42949" lon="6.09107">
        <ele>287.20001220703</ele>
        <time>2015-01-28T15:28:13Z</time>
      </trkpt>
      <trkpt lat="43.42951" lon="6.09103">
        <ele>288.39999389648</ele>
        <time>2015-01-28T15:28:17Z</time>
      </trkpt>
      <trkpt lat="43.42954" lon="6.09098">
        <ele>289.39999389648</ele>
        <time>2015-01-28T15:28:22Z</time>
      </trkpt>
      <trkpt lat="43.42955" lon="6.09097">
        <ele>289.60000610352</ele>
        <time>2015-01-28T15:28:23Z</time>
      </trkpt>
      <trkpt lat="43.42958" lon="6.09094">
        <ele>290.39999389648</ele>
        <time>2015-01-28T15:28:27Z</time>
      </trkpt>
      <trkpt lat="43.42962" lon="6.09094">
        <ele>291</ele>
        <time>2015-01-28T15:28:31Z</time>
      </trkpt>
      <trkpt lat="43.42965" lon="6.09093">
        <ele>291.39999389648</ele>
        <time>2015-01-28T15:28:34Z</time>
      </trkpt>
      <trkpt lat="43.4297" lon="6.09089">
        <ele>292</ele>
        <time>2015-01-28T15:28:38Z</time>
      </trkpt>
      <trkpt lat="43.42973" lon="6.09087">
        <ele>292.60000610352</ele>
        <time>2015-01-28T15:28:41Z</time>
      </trkpt>
      <trkpt lat="43.42974" lon="6.09086">
        <ele>292.79998779297</ele>
        <time>2015-01-28T15:28:42Z</time>
      </trkpt>
      <trkpt lat="43.42976" lon="6.09085">
        <ele>293</ele>
        <time>2015-01-28T15:28:44Z</time>
      </trkpt>
      <trkpt lat="43.42981" lon="6.0908">
        <ele>293.20001220703</ele>
        <time>2015-01-28T15:28:48Z</time>
      </trkpt>
      <trkpt lat="43.42986" lon="6.09073">
        <ele>293</ele>
        <time>2015-01-28T15:28:51Z</time>
      </trkpt>
      <trkpt lat="43.42995" lon="6.09063">
        <ele>292.60000610352</ele>
        <time>2015-01-28T15:28:55Z</time>
      </trkpt>
      <trkpt lat="43.42998" lon="6.09061">
        <ele>292.20001220703</ele>
        <time>2015-01-28T15:28:56Z</time>
      </trkpt>
      <trkpt lat="43.43003" lon="6.09056">
        <ele>292</ele>
        <time>2015-01-28T15:28:58Z</time>
      </trkpt>
      <trkpt lat="43.43012" lon="6.09047">
        <ele>291.79998779297</ele>
        <time>2015-01-28T15:29:02Z</time>
      </trkpt>
      <trkpt lat="43.43021" lon="6.09025">
        <ele>291.79998779297</ele>
        <time>2015-01-28T15:29:09Z</time>
      </trkpt>
      <trkpt lat="43.43022" lon="6.09021">
        <ele>291.60000610352</ele>
        <time>2015-01-28T15:29:10Z</time>
      </trkpt>
      <trkpt lat="43.43022" lon="6.09016">
        <ele>291.39999389648</ele>
        <time>2015-01-28T15:29:11Z</time>
      </trkpt>
      <trkpt lat="43.43023" lon="6.09008">
        <ele>291.20001220703</ele>
        <time>2015-01-28T15:29:13Z</time>
      </trkpt>
      <trkpt lat="43.43023" lon="6.08998">
        <ele>290.60000610352</ele>
        <time>2015-01-28T15:29:15Z</time>
      </trkpt>
      <trkpt lat="43.43024" lon="6.08992">
        <ele>290.60000610352</ele>
        <time>2015-01-28T15:29:16Z</time>
      </trkpt>
      <trkpt lat="43.43024" lon="6.08975">
        <ele>291.20001220703</ele>
        <time>2015-01-28T15:29:19Z</time>
      </trkpt>
      <trkpt lat="43.43024" lon="6.08969">
        <ele>290.79998779297</ele>
        <time>2015-01-28T15:29:20Z</time>
      </trkpt>
      <trkpt lat="43.43024" lon="6.08957">
        <ele>289.79998779297</ele>
        <time>2015-01-28T15:29:22Z</time>
      </trkpt>
      <trkpt lat="43.43023" lon="6.08953">
        <ele>289</ele>
        <time>2015-01-28T15:29:23Z</time>
      </trkpt>
      <trkpt lat="43.43022" lon="6.08949">
        <ele>288.60000610352</ele>
        <time>2015-01-28T15:29:25Z</time>
      </trkpt>
      <trkpt lat="43.43021" lon="6.08948">
        <ele>288.39999389648</ele>
        <time>2015-01-28T15:29:26Z</time>
      </trkpt>
      <trkpt lat="43.43022" lon="6.08947">
        <ele>288.20001220703</ele>
        <time>2015-01-28T15:29:32Z</time>
      </trkpt>
      <trkpt lat="43.43022" lon="6.08947">
        <ele>288.20001220703</ele>
        <time>2015-01-28T15:29:34Z</time>
      </trkpt>
      <trkpt lat="43.43022" lon="6.08947">
        <ele>288.20001220703</ele>
        <time>2015-01-28T15:29:36Z</time>
      </trkpt>
      <trkpt lat="43.43022" lon="6.08947">
        <ele>288.20001220703</ele>
        <time>2015-01-28T15:29:38Z</time>
      </trkpt>
      <trkpt lat="43.43022" lon="6.08947">
        <ele>288.20001220703</ele>
        <time>2015-01-28T15:29:40Z</time>
      </trkpt>
      <trkpt lat="43.43022" lon="6.08947">
        <ele>288.20001220703</ele>
        <time>2015-01-28T15:29:43Z</time>
      </trkpt>
      <trkpt lat="43.43022" lon="6.08947">
        <ele>288.20001220703</ele>
        <time>2015-01-28T15:29:46Z</time>
      </trkpt>
      <trkpt lat="43.43022" lon="6.08947">
        <ele>288.39999389648</ele>
        <time>2015-01-28T15:29:48Z</time>
      </trkpt>
      <trkpt lat="43.43022" lon="6.08946">
        <ele>288.20001220703</ele>
        <time>2015-01-28T15:29:53Z</time>
      </trkpt>
      <trkpt lat="43.43022" lon="6.08946">
        <ele>288.39999389648</ele>
        <time>2015-01-28T15:30:02Z</time>
      </trkpt>
      <trkpt lat="43.43022" lon="6.08947">
        <ele>288.39999389648</ele>
        <time>2015-01-28T15:30:10Z</time>
      </trkpt>
      <trkpt lat="43.43022" lon="6.08946">
        <ele>288.20001220703</ele>
        <time>2015-01-28T15:30:17Z</time>
      </trkpt>
      <trkpt lat="43.43022" lon="6.08946">
        <ele>288.39999389648</ele>
        <time>2015-01-28T15:30:27Z</time>
      </trkpt>
      <trkpt lat="43.43022" lon="6.08946">
        <ele>288.79998779297</ele>
        <time>2015-01-28T15:30:38Z</time>
      </trkpt>
      <trkpt lat="43.43022" lon="6.08946">
        <ele>288.60000610352</ele>
        <time>2015-01-28T15:30:40Z</time>
      </trkpt>
      <trkpt lat="43.43022" lon="6.08946">
        <ele>288.60000610352</ele>
        <time>2015-01-28T15:30:48Z</time>
      </trkpt>
      <trkpt lat="43.43022" lon="6.08946">
        <ele>288.79998779297</ele>
        <time>2015-01-28T15:30:57Z</time>
      </trkpt>
      <trkpt lat="43.43022" lon="6.08946">
        <ele>288.79998779297</ele>
        <time>2015-01-28T15:30:59Z</time>
      </trkpt>
      <trkpt lat="43.43022" lon="6.08946">
        <ele>289</ele>
        <time>2015-01-28T15:31:05Z</time>
      </trkpt>
      <trkpt lat="43.43022" lon="6.08941">
        <ele>288.79998779297</ele>
        <time>2015-01-28T15:31:17Z</time>
      </trkpt>
      <trkpt lat="43.43021" lon="6.08935">
        <ele>289.20001220703</ele>
        <time>2015-01-28T15:31:19Z</time>
      </trkpt>
      <trkpt lat="43.4302" lon="6.08932">
        <ele>289.20001220703</ele>
        <time>2015-01-28T15:31:20Z</time>
      </trkpt>
      <trkpt lat="43.43017" lon="6.08925">
        <ele>289.39999389648</ele>
        <time>2015-01-28T15:31:22Z</time>
      </trkpt>
      <trkpt lat="43.43019" lon="6.08907">
        <ele>289.20001220703</ele>
        <time>2015-01-28T15:31:26Z</time>
      </trkpt>
      <trkpt lat="43.43023" lon="6.08889">
        <ele>288.60000610352</ele>
        <time>2015-01-28T15:31:31Z</time>
      </trkpt>
      <trkpt lat="43.4302" lon="6.0887">
        <ele>288.39999389648</ele>
        <time>2015-01-28T15:31:35Z</time>
      </trkpt>
      <trkpt lat="43.43023" lon="6.08848">
        <ele>287.20001220703</ele>
        <time>2015-01-28T15:31:39Z</time>
      </trkpt>
      <trkpt lat="43.43024" lon="6.08843">
        <ele>287.20001220703</ele>
        <time>2015-01-28T15:31:40Z</time>
      </trkpt>
      <trkpt lat="43.43019" lon="6.08816">
        <ele>286.60000610352</ele>
        <time>2015-01-28T15:31:45Z</time>
      </trkpt>
      <trkpt lat="43.43017" lon="6.08804">
        <ele>286.20001220703</ele>
        <time>2015-01-28T15:31:47Z</time>
      </trkpt>
      <trkpt lat="43.43016" lon="6.08786">
        <ele>286</ele>
        <time>2015-01-28T15:31:50Z</time>
      </trkpt>
      <trkpt lat="43.43016" lon="6.08774">
        <ele>285.79998779297</ele>
        <time>2015-01-28T15:31:52Z</time>
      </trkpt>
      <trkpt lat="43.43015" lon="6.08761">
        <ele>285.79998779297</ele>
        <time>2015-01-28T15:31:54Z</time>
      </trkpt>
      <trkpt lat="43.43011" lon="6.08748">
        <ele>285.60000610352</ele>
        <time>2015-01-28T15:31:56Z</time>
      </trkpt>
      <trkpt lat="43.43002" lon="6.08725">
        <ele>285.39999389648</ele>
        <time>2015-01-28T15:32:00Z</time>
      </trkpt>
      <trkpt lat="43.42997" lon="6.08714">
        <ele>285</ele>
        <time>2015-01-28T15:32:02Z</time>
      </trkpt>
      <trkpt lat="43.4299" lon="6.08697">
        <ele>285.20001220703</ele>
        <time>2015-01-28T15:32:05Z</time>
      </trkpt>
      <trkpt lat="43.42985" lon="6.08676">
        <ele>284.39999389648</ele>
        <time>2015-01-28T15:32:08Z</time>
      </trkpt>
      <trkpt lat="43.42978" lon="6.08649">
        <ele>284</ele>
        <time>2015-01-28T15:32:12Z</time>
      </trkpt>
      <trkpt lat="43.42971" lon="6.08622">
        <ele>283</ele>
        <time>2015-01-28T15:32:16Z</time>
      </trkpt>
      <trkpt lat="43.42966" lon="6.08601">
        <ele>283</ele>
        <time>2015-01-28T15:32:19Z</time>
      </trkpt>
      <trkpt lat="43.42958" lon="6.08573">
        <ele>281.79998779297</ele>
        <time>2015-01-28T15:32:23Z</time>
      </trkpt>
      <trkpt lat="43.42952" lon="6.08546">
        <ele>281.79998779297</ele>
        <time>2015-01-28T15:32:27Z</time>
      </trkpt>
      <trkpt lat="43.42945" lon="6.08527">
        <ele>281.39999389648</ele>
        <time>2015-01-28T15:32:30Z</time>
      </trkpt>
      <trkpt lat="43.42935" lon="6.08504">
        <ele>281.20001220703</ele>
        <time>2015-01-28T15:32:34Z</time>
      </trkpt>
      <trkpt lat="43.42928" lon="6.08496">
        <ele>281.20001220703</ele>
        <time>2015-01-28T15:32:36Z</time>
      </trkpt>
      <trkpt lat="43.42917" lon="6.08487">
        <ele>281.60000610352</ele>
        <time>2015-01-28T15:32:39Z</time>
      </trkpt>
      <trkpt lat="43.4291" lon="6.08479">
        <ele>281.79998779297</ele>
        <time>2015-01-28T15:32:41Z</time>
      </trkpt>
      <trkpt lat="43.42901" lon="6.08465">
        <ele>281.39999389648</ele>
        <time>2015-01-28T15:32:44Z</time>
      </trkpt>
      <trkpt lat="43.42881" lon="6.08434">
        <ele>280.20001220703</ele>
        <time>2015-01-28T15:32:50Z</time>
      </trkpt>
      <trkpt lat="43.42862" lon="6.08409">
        <ele>280.60000610352</ele>
        <time>2015-01-28T15:32:55Z</time>
      </trkpt>
      <trkpt lat="43.42859" lon="6.08403">
        <ele>280.39999389648</ele>
        <time>2015-01-28T15:32:56Z</time>
      </trkpt>
      <trkpt lat="43.42854" lon="6.08377">
        <ele>279.60000610352</ele>
        <time>2015-01-28T15:33:00Z</time>
      </trkpt>
      <trkpt lat="43.42852" lon="6.0837">
        <ele>279.60000610352</ele>
        <time>2015-01-28T15:33:01Z</time>
      </trkpt>
      <trkpt lat="43.42847" lon="6.08351">
        <ele>280</ele>
        <time>2015-01-28T15:33:04Z</time>
      </trkpt>
      <trkpt lat="43.42844" lon="6.08332">
        <ele>279.60000610352</ele>
        <time>2015-01-28T15:33:07Z</time>
      </trkpt>
      <trkpt lat="43.4284" lon="6.08311">
        <ele>278.79998779297</ele>
        <time>2015-01-28T15:33:10Z</time>
      </trkpt>
      <trkpt lat="43.42837" lon="6.0829">
        <ele>278.39999389648</ele>
        <time>2015-01-28T15:33:13Z</time>
      </trkpt>
      <trkpt lat="43.42836" lon="6.08283">
        <ele>278.20001220703</ele>
        <time>2015-01-28T15:33:14Z</time>
      </trkpt>
      <trkpt lat="43.42826" lon="6.08262">
        <ele>278.20001220703</ele>
        <time>2015-01-28T15:33:18Z</time>
      </trkpt>
      <trkpt lat="43.42815" lon="6.08253">
        <ele>279</ele>
        <time>2015-01-28T15:33:22Z</time>
      </trkpt>
      <trkpt lat="43.42794" lon="6.0825">
        <ele>278.60000610352</ele>
        <time>2015-01-28T15:33:27Z</time>
      </trkpt>
      <trkpt lat="43.4279" lon="6.08234">
        <ele>277.60000610352</ele>
        <time>2015-01-28T15:33:30Z</time>
      </trkpt>
      <trkpt lat="43.42788" lon="6.08228">
        <ele>277.39999389648</ele>
        <time>2015-01-28T15:33:31Z</time>
      </trkpt>
      <trkpt lat="43.42785" lon="6.08208">
        <ele>276.20001220703</ele>
        <time>2015-01-28T15:33:34Z</time>
      </trkpt>
      <trkpt lat="43.42785" lon="6.08201">
        <ele>276</ele>
        <time>2015-01-28T15:33:35Z</time>
      </trkpt>
      <trkpt lat="43.42782" lon="6.08187">
        <ele>275.39999389648</ele>
        <time>2015-01-28T15:33:37Z</time>
      </trkpt>
      <trkpt lat="43.42781" lon="6.08181">
        <ele>274.79998779297</ele>
        <time>2015-01-28T15:33:38Z</time>
      </trkpt>
      <trkpt lat="43.42778" lon="6.08175">
        <ele>274.79998779297</ele>
        <time>2015-01-28T15:33:39Z</time>
      </trkpt>
      <trkpt lat="43.42775" lon="6.0817">
        <ele>274.60000610352</ele>
        <time>2015-01-28T15:33:40Z</time>
      </trkpt>
      <trkpt lat="43.42764" lon="6.08155">
        <ele>273.79998779297</ele>
        <time>2015-01-28T15:33:43Z</time>
      </trkpt>
      <trkpt lat="43.4276" lon="6.0815">
        <ele>273.79998779297</ele>
        <time>2015-01-28T15:33:44Z</time>
      </trkpt>
      <trkpt lat="43.42757" lon="6.08144">
        <ele>273.39999389648</ele>
        <time>2015-01-28T15:33:45Z</time>
      </trkpt>
      <trkpt lat="43.42752" lon="6.0814">
        <ele>272.79998779297</ele>
        <time>2015-01-28T15:33:46Z</time>
      </trkpt>
      <trkpt lat="43.42743" lon="6.08139">
        <ele>272.79998779297</ele>
        <time>2015-01-28T15:33:48Z</time>
      </trkpt>
      <trkpt lat="43.42734" lon="6.08128">
        <ele>272</ele>
        <time>2015-01-28T15:33:51Z</time>
      </trkpt>
      <trkpt lat="43.42725" lon="6.08116">
        <ele>271.79998779297</ele>
        <time>2015-01-28T15:33:54Z</time>
      </trkpt>
      <trkpt lat="43.42721" lon="6.08113">
        <ele>271.60000610352</ele>
        <time>2015-01-28T15:33:55Z</time>
      </trkpt>
      <trkpt lat="43.42717" lon="6.0811">
        <ele>271.39999389648</ele>
        <time>2015-01-28T15:33:56Z</time>
      </trkpt>
      <trkpt lat="43.42687" lon="6.08088">
        <ele>271.20001220703</ele>
        <time>2015-01-28T15:34:03Z</time>
      </trkpt>
      <trkpt lat="43.42683" lon="6.08084">
        <ele>271</ele>
        <time>2015-01-28T15:34:04Z</time>
      </trkpt>
      <trkpt lat="43.42679" lon="6.08079">
        <ele>270.60000610352</ele>
        <time>2015-01-28T15:34:05Z</time>
      </trkpt>
      <trkpt lat="43.42667" lon="6.08069">
        <ele>269.60000610352</ele>
        <time>2015-01-28T15:34:08Z</time>
      </trkpt>
      <trkpt lat="43.42651" lon="6.08073">
        <ele>269.79998779297</ele>
        <time>2015-01-28T15:34:12Z</time>
      </trkpt>
      <trkpt lat="43.42643" lon="6.08081">
        <ele>269.39999389648</ele>
        <time>2015-01-28T15:34:14Z</time>
      </trkpt>
      <trkpt lat="43.42635" lon="6.08083">
        <ele>269.39999389648</ele>
        <time>2015-01-28T15:34:16Z</time>
      </trkpt>
      <trkpt lat="43.42624" lon="6.08074">
        <ele>269</ele>
        <time>2015-01-28T15:34:19Z</time>
      </trkpt>
      <trkpt lat="43.4262" lon="6.08055">
        <ele>268.20001220703</ele>
        <time>2015-01-28T15:34:22Z</time>
      </trkpt>
      <trkpt lat="43.42621" lon="6.08041">
        <ele>267</ele>
        <time>2015-01-28T15:34:24Z</time>
      </trkpt>
      <trkpt lat="43.4262" lon="6.0802">
        <ele>266.60000610352</ele>
        <time>2015-01-28T15:34:27Z</time>
      </trkpt>
      <trkpt lat="43.42616" lon="6.0799">
        <ele>266</ele>
        <time>2015-01-28T15:34:31Z</time>
      </trkpt>
      <trkpt lat="43.42612" lon="6.07984">
        <ele>265.79998779297</ele>
        <time>2015-01-28T15:34:32Z</time>
      </trkpt>
      <trkpt lat="43.42597" lon="6.07966">
        <ele>265</ele>
        <time>2015-01-28T15:34:36Z</time>
      </trkpt>
      <trkpt lat="43.42576" lon="6.07945">
        <ele>264</ele>
        <time>2015-01-28T15:34:41Z</time>
      </trkpt>
      <trkpt lat="43.42566" lon="6.07935">
        <ele>263.39999389648</ele>
        <time>2015-01-28T15:34:43Z</time>
      </trkpt>
      <trkpt lat="43.42563" lon="6.07928">
        <ele>262.79998779297</ele>
        <time>2015-01-28T15:34:44Z</time>
      </trkpt>
      <trkpt lat="43.42561" lon="6.0792">
        <ele>262.39999389648</ele>
        <time>2015-01-28T15:34:45Z</time>
      </trkpt>
      <trkpt lat="43.42556" lon="6.07906">
        <ele>261</ele>
        <time>2015-01-28T15:34:47Z</time>
      </trkpt>
      <trkpt lat="43.42553" lon="6.079">
        <ele>260.60000610352</ele>
        <time>2015-01-28T15:34:48Z</time>
      </trkpt>
      <trkpt lat="43.42548" lon="6.07896">
        <ele>260.60000610352</ele>
        <time>2015-01-28T15:34:49Z</time>
      </trkpt>
      <trkpt lat="43.42542" lon="6.07893">
        <ele>259.79998779297</ele>
        <time>2015-01-28T15:34:50Z</time>
      </trkpt>
      <trkpt lat="43.42525" lon="6.07891">
        <ele>259</ele>
        <time>2015-01-28T15:34:53Z</time>
      </trkpt>
      <trkpt lat="43.42513" lon="6.07893">
        <ele>258.60000610352</ele>
        <time>2015-01-28T15:34:55Z</time>
      </trkpt>
      <trkpt lat="43.42493" lon="6.07896">
        <ele>257.39999389648</ele>
        <time>2015-01-28T15:34:58Z</time>
      </trkpt>
      <trkpt lat="43.42487" lon="6.07897">
        <ele>256.79998779297</ele>
        <time>2015-01-28T15:34:59Z</time>
      </trkpt>
      <trkpt lat="43.42482" lon="6.07899">
        <ele>256.20001220703</ele>
        <time>2015-01-28T15:35:00Z</time>
      </trkpt>
      <trkpt lat="43.42477" lon="6.07902">
        <ele>256.20001220703</ele>
        <time>2015-01-28T15:35:01Z</time>
      </trkpt>
      <trkpt lat="43.42467" lon="6.0791">
        <ele>255.60000610352</ele>
        <time>2015-01-28T15:35:03Z</time>
      </trkpt>
      <trkpt lat="43.42459" lon="6.07917">
        <ele>255.60000610352</ele>
        <time>2015-01-28T15:35:05Z</time>
      </trkpt>
      <trkpt lat="43.42451" lon="6.07914">
        <ele>255</ele>
        <time>2015-01-28T15:35:07Z</time>
      </trkpt>
      <trkpt lat="43.42437" lon="6.0791">
        <ele>254.80000305176</ele>
        <time>2015-01-28T15:35:10Z</time>
      </trkpt>
      <trkpt lat="43.42432" lon="6.07908">
        <ele>255</ele>
        <time>2015-01-28T15:35:11Z</time>
      </trkpt>
      <trkpt lat="43.42427" lon="6.07908">
        <ele>255.19999694824</ele>
        <time>2015-01-28T15:35:12Z</time>
      </trkpt>
      <trkpt lat="43.42418" lon="6.07908">
        <ele>255.60000610352</ele>
        <time>2015-01-28T15:35:14Z</time>
      </trkpt>
      <trkpt lat="43.42413" lon="6.0791">
        <ele>255.60000610352</ele>
        <time>2015-01-28T15:35:15Z</time>
      </trkpt>
      <trkpt lat="43.42397" lon="6.07915">
        <ele>255.60000610352</ele>
        <time>2015-01-28T15:35:18Z</time>
      </trkpt>
      <trkpt lat="43.42393" lon="6.07918">
        <ele>255.60000610352</ele>
        <time>2015-01-28T15:35:19Z</time>
      </trkpt>
      <trkpt lat="43.42389" lon="6.07922">
        <ele>255.60000610352</ele>
        <time>2015-01-28T15:35:20Z</time>
      </trkpt>
      <trkpt lat="43.42374" lon="6.07942">
        <ele>255</ele>
        <time>2015-01-28T15:35:24Z</time>
      </trkpt>
      <trkpt lat="43.42357" lon="6.07961">
        <ele>254.80000305176</ele>
        <time>2015-01-28T15:35:29Z</time>
      </trkpt>
      <trkpt lat="43.42346" lon="6.0798">
        <ele>253.80000305176</ele>
        <time>2015-01-28T15:35:33Z</time>
      </trkpt>
      <trkpt lat="43.42344" lon="6.07985">
        <ele>253</ele>
        <time>2015-01-28T15:35:34Z</time>
      </trkpt>
      <trkpt lat="43.42341" lon="6.07991">
        <ele>252.39999389648</ele>
        <time>2015-01-28T15:35:35Z</time>
      </trkpt>
      <trkpt lat="43.42338" lon="6.07996">
        <ele>251.80000305176</ele>
        <time>2015-01-28T15:35:36Z</time>
      </trkpt>
      <trkpt lat="43.42331" lon="6.07997">
        <ele>251</ele>
        <time>2015-01-28T15:35:38Z</time>
      </trkpt>
      <trkpt lat="43.42326" lon="6.07994">
        <ele>250</ele>
        <time>2015-01-28T15:35:41Z</time>
      </trkpt>
      <trkpt lat="43.42325" lon="6.07994">
        <ele>249.80000305176</ele>
        <time>2015-01-28T15:35:42Z</time>
      </trkpt>
      <trkpt lat="43.42325" lon="6.07995">
        <ele>249.60000610352</ele>
        <time>2015-01-28T15:35:47Z</time>
      </trkpt>
      <trkpt lat="43.42324" lon="6.07995">
        <ele>249.60000610352</ele>
        <time>2015-01-28T15:35:53Z</time>
      </trkpt>
      <trkpt lat="43.42325" lon="6.07995">
        <ele>249.60000610352</ele>
        <time>2015-01-28T15:36:01Z</time>
      </trkpt>
      <trkpt lat="43.42325" lon="6.07995">
        <ele>249.60000610352</ele>
        <time>2015-01-28T15:36:07Z</time>
      </trkpt>
      <trkpt lat="43.42325" lon="6.07995">
        <ele>249.60000610352</ele>
        <time>2015-01-28T15:36:16Z</time>
      </trkpt>
      <trkpt lat="43.42325" lon="6.07995">
        <ele>249.60000610352</ele>
        <time>2015-01-28T15:36:26Z</time>
      </trkpt>
      <trkpt lat="43.42325" lon="6.07995">
        <ele>249.39999389648</ele>
        <time>2015-01-28T15:36:29Z</time>
      </trkpt>
      <trkpt lat="43.42325" lon="6.07995">
        <ele>249.19999694824</ele>
        <time>2015-01-28T15:36:39Z</time>
      </trkpt>
      <trkpt lat="43.42325" lon="6.07995">
        <ele>249.60000610352</ele>
        <time>2015-01-28T15:36:47Z</time>
      </trkpt>
      <trkpt lat="43.42325" lon="6.07996">
        <ele>249.80000305176</ele>
        <time>2015-01-28T15:36:51Z</time>
      </trkpt>
      <trkpt lat="43.42325" lon="6.07996">
        <ele>250</ele>
        <time>2015-01-28T15:36:58Z</time>
      </trkpt>
      <trkpt lat="43.42325" lon="6.07996">
        <ele>250</ele>
        <time>2015-01-28T15:37:11Z</time>
      </trkpt>
      <trkpt lat="43.42325" lon="6.07996">
        <ele>250</ele>
        <time>2015-01-28T15:37:13Z</time>
      </trkpt>
      <trkpt lat="43.42325" lon="6.07996">
        <ele>249.80000305176</ele>
        <time>2015-01-28T15:37:29Z</time>
      </trkpt>
      <trkpt lat="43.42325" lon="6.07996">
        <ele>249.80000305176</ele>
        <time>2015-01-28T15:37:44Z</time>
      </trkpt>
      <trkpt lat="43.42322" lon="6.07994">
        <ele>249.60000610352</ele>
        <time>2015-01-28T15:37:54Z</time>
      </trkpt>
      <trkpt lat="43.42321" lon="6.07992">
        <ele>249.60000610352</ele>
        <time>2015-01-28T15:37:55Z</time>
      </trkpt>
      <trkpt lat="43.42317" lon="6.07988">
        <ele>249.80000305176</ele>
        <time>2015-01-28T15:37:57Z</time>
      </trkpt>
      <trkpt lat="43.42315" lon="6.07985">
        <ele>249.39999389648</ele>
        <time>2015-01-28T15:37:58Z</time>
      </trkpt>
      <trkpt lat="43.42309" lon="6.07979">
        <ele>248.80000305176</ele>
        <time>2015-01-28T15:38:00Z</time>
      </trkpt>
      <trkpt lat="43.42292" lon="6.07964">
        <ele>249.19999694824</ele>
        <time>2015-01-28T15:38:06Z</time>
      </trkpt>
      <trkpt lat="43.42279" lon="6.07964">
        <ele>249</ele>
        <time>2015-01-28T15:38:09Z</time>
      </trkpt>
      <trkpt lat="43.42274" lon="6.07967">
        <ele>248.39999389648</ele>
        <time>2015-01-28T15:38:10Z</time>
      </trkpt>
      <trkpt lat="43.4227" lon="6.07969">
        <ele>248</ele>
        <time>2015-01-28T15:38:11Z</time>
      </trkpt>
      <trkpt lat="43.42265" lon="6.07969">
        <ele>247.80000305176</ele>
        <time>2015-01-28T15:38:12Z</time>
      </trkpt>
      <trkpt lat="43.42256" lon="6.07964">
        <ele>248</ele>
        <time>2015-01-28T15:38:14Z</time>
      </trkpt>
      <trkpt lat="43.42251" lon="6.0795">
        <ele>248.19999694824</ele>
        <time>2015-01-28T15:38:17Z</time>
      </trkpt>
      <trkpt lat="43.42251" lon="6.07947">
        <ele>249.19999694824</ele>
        <time>2015-01-28T15:38:18Z</time>
      </trkpt>
      <trkpt lat="43.4225" lon="6.07942">
        <ele>249.60000610352</ele>
        <time>2015-01-28T15:38:19Z</time>
      </trkpt>
      <trkpt lat="43.42249" lon="6.07937">
        <ele>249.60000610352</ele>
        <time>2015-01-28T15:38:20Z</time>
      </trkpt>
      <trkpt lat="43.42247" lon="6.07929">
        <ele>249.60000610352</ele>
        <time>2015-01-28T15:38:22Z</time>
      </trkpt>
      <trkpt lat="43.42246" lon="6.07914">
        <ele>250</ele>
        <time>2015-01-28T15:38:25Z</time>
      </trkpt>
      <trkpt lat="43.42244" lon="6.07904">
        <ele>249.60000610352</ele>
        <time>2015-01-28T15:38:27Z</time>
      </trkpt>
      <trkpt lat="43.42241" lon="6.07898">
        <ele>249</ele>
        <time>2015-01-28T15:38:29Z</time>
      </trkpt>
      <trkpt lat="43.42236" lon="6.07894">
        <ele>249</ele>
        <time>2015-01-28T15:38:31Z</time>
      </trkpt>
      <trkpt lat="43.42228" lon="6.0789">
        <ele>248.19999694824</ele>
        <time>2015-01-28T15:38:33Z</time>
      </trkpt>
      <trkpt lat="43.42223" lon="6.07888">
        <ele>247.80000305176</ele>
        <time>2015-01-28T15:38:34Z</time>
      </trkpt>
      <trkpt lat="43.42218" lon="6.07886">
        <ele>247.60000610352</ele>
        <time>2015-01-28T15:38:35Z</time>
      </trkpt>
      <trkpt lat="43.4221" lon="6.07881">
        <ele>247.19999694824</ele>
        <time>2015-01-28T15:38:37Z</time>
      </trkpt>
      <trkpt lat="43.422" lon="6.07878">
        <ele>246.80000305176</ele>
        <time>2015-01-28T15:38:39Z</time>
      </trkpt>
      <trkpt lat="43.42196" lon="6.07877">
        <ele>247</ele>
        <time>2015-01-28T15:38:40Z</time>
      </trkpt>
      <trkpt lat="43.4217" lon="6.07878">
        <ele>247.39999389648</ele>
        <time>2015-01-28T15:38:45Z</time>
      </trkpt>
      <trkpt lat="43.42155" lon="6.07879">
        <ele>248</ele>
        <time>2015-01-28T15:38:49Z</time>
      </trkpt>
      <trkpt lat="43.42151" lon="6.07879">
        <ele>248.39999389648</ele>
        <time>2015-01-28T15:38:50Z</time>
      </trkpt>
      <trkpt lat="43.42145" lon="6.0788">
        <ele>249</ele>
        <time>2015-01-28T15:38:52Z</time>
      </trkpt>
      <trkpt lat="43.42139" lon="6.07881">
        <ele>249.39999389648</ele>
        <time>2015-01-28T15:38:54Z</time>
      </trkpt>
      <trkpt lat="43.42136" lon="6.07882">
        <ele>249.60000610352</ele>
        <time>2015-01-28T15:38:55Z</time>
      </trkpt>
      <trkpt lat="43.42131" lon="6.07883">
        <ele>250</ele>
        <time>2015-01-28T15:38:57Z</time>
      </trkpt>
      <trkpt lat="43.42128" lon="6.07884">
        <ele>250.60000610352</ele>
        <time>2015-01-28T15:38:58Z</time>
      </trkpt>
      <trkpt lat="43.42121" lon="6.07882">
        <ele>251.39999389648</ele>
        <time>2015-01-28T15:39:01Z</time>
      </trkpt>
      <trkpt lat="43.42119" lon="6.07881">
        <ele>252</ele>
        <time>2015-01-28T15:39:02Z</time>
      </trkpt>
      <trkpt lat="43.4211" lon="6.07877">
        <ele>252.60000610352</ele>
        <time>2015-01-28T15:39:05Z</time>
      </trkpt>
      <trkpt lat="43.42109" lon="6.07876">
        <ele>252.80000305176</ele>
        <time>2015-01-28T15:39:06Z</time>
      </trkpt>
      <trkpt lat="43.42107" lon="6.07873">
        <ele>253.19999694824</ele>
        <time>2015-01-28T15:39:07Z</time>
      </trkpt>
      <trkpt lat="43.42102" lon="6.07862">
        <ele>254.39999389648</ele>
        <time>2015-01-28T15:39:12Z</time>
      </trkpt>
      <trkpt lat="43.42099" lon="6.07846">
        <ele>254.80000305176</ele>
        <time>2015-01-28T15:39:18Z</time>
      </trkpt>
      <trkpt lat="43.421" lon="6.07834">
        <ele>254.80000305176</ele>
        <time>2015-01-28T15:39:22Z</time>
      </trkpt>
      <trkpt lat="43.42102" lon="6.07825">
        <ele>254.39999389648</ele>
        <time>2015-01-28T15:39:24Z</time>
      </trkpt>
      <trkpt lat="43.42106" lon="6.07807">
        <ele>253.19999694824</ele>
        <time>2015-01-28T15:39:27Z</time>
      </trkpt>
      <trkpt lat="43.4211" lon="6.07795">
        <ele>252.80000305176</ele>
        <time>2015-01-28T15:39:29Z</time>
      </trkpt>
      <trkpt lat="43.42112" lon="6.07788">
        <ele>252.19999694824</ele>
        <time>2015-01-28T15:39:30Z</time>
      </trkpt>
      <trkpt lat="43.42116" lon="6.07773">
        <ele>251.60000610352</ele>
        <time>2015-01-28T15:39:32Z</time>
      </trkpt>
      <trkpt lat="43.4212" lon="6.07758">
        <ele>251.19999694824</ele>
        <time>2015-01-28T15:39:34Z</time>
      </trkpt>
      <trkpt lat="43.42122" lon="6.07749">
        <ele>250.80000305176</ele>
        <time>2015-01-28T15:39:35Z</time>
      </trkpt>
      <trkpt lat="43.42126" lon="6.07733">
        <ele>249.39999389648</ele>
        <time>2015-01-28T15:39:37Z</time>
      </trkpt>
      <trkpt lat="43.42138" lon="6.07697">
        <ele>248.19999694824</ele>
        <time>2015-01-28T15:39:41Z</time>
      </trkpt>
      <trkpt lat="43.4214" lon="6.07688">
        <ele>247.80000305176</ele>
        <time>2015-01-28T15:39:42Z</time>
      </trkpt>
      <trkpt lat="43.42146" lon="6.07669">
        <ele>246.80000305176</ele>
        <time>2015-01-28T15:39:44Z</time>
      </trkpt>
      <trkpt lat="43.42151" lon="6.0765">
        <ele>245.80000305176</ele>
        <time>2015-01-28T15:39:46Z</time>
      </trkpt>
      <trkpt lat="43.42156" lon="6.07631">
        <ele>245.39999389648</ele>
        <time>2015-01-28T15:39:48Z</time>
      </trkpt>
      <trkpt lat="43.42161" lon="6.07612">
        <ele>244.80000305176</ele>
        <time>2015-01-28T15:39:50Z</time>
      </trkpt>
      <trkpt lat="43.42163" lon="6.07603">
        <ele>244.19999694824</ele>
        <time>2015-01-28T15:39:51Z</time>
      </trkpt>
      <trkpt lat="43.42165" lon="6.07594">
        <ele>243.60000610352</ele>
        <time>2015-01-28T15:39:52Z</time>
      </trkpt>
      <trkpt lat="43.42173" lon="6.07553">
        <ele>243.19999694824</ele>
        <time>2015-01-28T15:39:57Z</time>
      </trkpt>
      <trkpt lat="43.42176" lon="6.07528">
        <ele>242.39999389648</ele>
        <time>2015-01-28T15:40:00Z</time>
      </trkpt>
      <trkpt lat="43.42181" lon="6.07504">
        <ele>242.39999389648</ele>
        <time>2015-01-28T15:40:03Z</time>
      </trkpt>
      <trkpt lat="43.42184" lon="6.07496">
        <ele>242.19999694824</ele>
        <time>2015-01-28T15:40:04Z</time>
      </trkpt>
      <trkpt lat="43.42189" lon="6.07471">
        <ele>242</ele>
        <time>2015-01-28T15:40:07Z</time>
      </trkpt>
      <trkpt lat="43.42196" lon="6.0744">
        <ele>241.80000305176</ele>
        <time>2015-01-28T15:40:11Z</time>
      </trkpt>
      <trkpt lat="43.42199" lon="6.07417">
        <ele>241.39999389648</ele>
        <time>2015-01-28T15:40:14Z</time>
      </trkpt>
      <trkpt lat="43.42202" lon="6.07392">
        <ele>240.80000305176</ele>
        <time>2015-01-28T15:40:17Z</time>
      </trkpt>
      <trkpt lat="43.42207" lon="6.07361">
        <ele>241</ele>
        <time>2015-01-28T15:40:21Z</time>
      </trkpt>
      <trkpt lat="43.42209" lon="6.07346">
        <ele>241.39999389648</ele>
        <time>2015-01-28T15:40:23Z</time>
      </trkpt>
      <trkpt lat="43.42215" lon="6.07295">
        <ele>241</ele>
        <time>2015-01-28T15:40:30Z</time>
      </trkpt>
      <trkpt lat="43.42224" lon="6.07239">
        <ele>241.19999694824</ele>
        <time>2015-01-28T15:40:37Z</time>
      </trkpt>
      <trkpt lat="43.42229" lon="6.07193">
        <ele>241.39999389648</ele>
        <time>2015-01-28T15:40:43Z</time>
      </trkpt>
      <trkpt lat="43.42237" lon="6.07145">
        <ele>240.80000305176</ele>
        <time>2015-01-28T15:40:49Z</time>
      </trkpt>
      <trkpt lat="43.42238" lon="6.07131">
        <ele>240.39999389648</ele>
        <time>2015-01-28T15:40:51Z</time>
      </trkpt>
      <trkpt lat="43.42239" lon="6.07124">
        <ele>240.39999389648</ele>
        <time>2015-01-28T15:40:52Z</time>
      </trkpt>
      <trkpt lat="43.4224" lon="6.0711">
        <ele>240.39999389648</ele>
        <time>2015-01-28T15:40:54Z</time>
      </trkpt>
      <trkpt lat="43.42241" lon="6.07104">
        <ele>240.60000610352</ele>
        <time>2015-01-28T15:40:55Z</time>
      </trkpt>
      <trkpt lat="43.42239" lon="6.07076">
        <ele>241.60000610352</ele>
        <time>2015-01-28T15:41:00Z</time>
      </trkpt>
      <trkpt lat="43.42231" lon="6.07069">
        <ele>242.19999694824</ele>
        <time>2015-01-28T15:41:04Z</time>
      </trkpt>
      <trkpt lat="43.42228" lon="6.07068">
        <ele>242.19999694824</ele>
        <time>2015-01-28T15:41:05Z</time>
      </trkpt>
      <trkpt lat="43.42212" lon="6.07064">
        <ele>241.39999389648</ele>
        <time>2015-01-28T15:41:11Z</time>
      </trkpt>
      <trkpt lat="43.42202" lon="6.07061">
        <ele>241.19999694824</ele>
        <time>2015-01-28T15:41:14Z</time>
      </trkpt>
      <trkpt lat="43.42194" lon="6.07059">
        <ele>241</ele>
        <time>2015-01-28T15:41:16Z</time>
      </trkpt>
      <trkpt lat="43.42188" lon="6.0706">
        <ele>240.80000305176</ele>
        <time>2015-01-28T15:41:17Z</time>
      </trkpt>
      <trkpt lat="43.42181" lon="6.0706">
        <ele>240.60000610352</ele>
        <time>2015-01-28T15:41:18Z</time>
      </trkpt>
      <trkpt lat="43.4217" lon="6.07063">
        <ele>240.19999694824</ele>
        <time>2015-01-28T15:41:20Z</time>
      </trkpt>
      <trkpt lat="43.42164" lon="6.07072">
        <ele>239.39999389648</ele>
        <time>2015-01-28T15:41:22Z</time>
      </trkpt>
      <trkpt lat="43.42164" lon="6.07076">
        <ele>239.19999694824</ele>
        <time>2015-01-28T15:41:23Z</time>
      </trkpt>
      <trkpt lat="43.42165" lon="6.07084">
        <ele>238.60000610352</ele>
        <time>2015-01-28T15:41:26Z</time>
      </trkpt>
      <trkpt lat="43.42166" lon="6.07085">
        <ele>238.19999694824</ele>
        <time>2015-01-28T15:41:27Z</time>
      </trkpt>
      <trkpt lat="43.42165" lon="6.07088">
        <ele>238</ele>
        <time>2015-01-28T15:41:29Z</time>
      </trkpt>
      <trkpt lat="43.42167" lon="6.07095">
        <ele>237.80000305176</ele>
        <time>2015-01-28T15:41:32Z</time>
      </trkpt>
      <trkpt lat="43.42168" lon="6.07106">
        <ele>238</ele>
        <time>2015-01-28T15:41:36Z</time>
      </trkpt>
      <trkpt lat="43.42168" lon="6.07107">
        <ele>238</ele>
        <time>2015-01-28T15:41:39Z</time>
      </trkpt>
      <trkpt lat="43.42168" lon="6.07107">
        <ele>237.60000610352</ele>
        <time>2015-01-28T15:41:48Z</time>
      </trkpt>
      <trkpt lat="43.42168" lon="6.07108">
        <ele>237.80000305176</ele>
        <time>2015-01-28T15:41:56Z</time>
      </trkpt>
      <trkpt lat="43.42168" lon="6.07108">
        <ele>237.60000610352</ele>
        <time>2015-01-28T15:42:11Z</time>
      </trkpt>
      <trkpt lat="43.42168" lon="6.07107">
        <ele>237.80000305176</ele>
        <time>2015-01-28T15:42:20Z</time>
      </trkpt>
      <trkpt lat="43.42168" lon="6.07112">
        <ele>238</ele>
        <time>2015-01-28T15:42:23Z</time>
      </trkpt>
      <trkpt lat="43.42169" lon="6.07122">
        <ele>238</ele>
        <time>2015-01-28T15:42:27Z</time>
      </trkpt>
      <trkpt lat="43.4217" lon="6.0713">
        <ele>237.80000305176</ele>
        <time>2015-01-28T15:42:33Z</time>
      </trkpt>
      <trkpt lat="43.42171" lon="6.0713">
        <ele>237.60000610352</ele>
        <time>2015-01-28T15:42:42Z</time>
      </trkpt>
      <trkpt lat="43.42171" lon="6.0713">
        <ele>237.80000305176</ele>
        <time>2015-01-28T15:42:51Z</time>
      </trkpt>
      <trkpt lat="43.42171" lon="6.0713">
        <ele>237.80000305176</ele>
        <time>2015-01-28T15:43:04Z</time>
      </trkpt>
      <trkpt lat="43.42171" lon="6.0713">
        <ele>238</ele>
        <time>2015-01-28T15:43:22Z</time>
      </trkpt>
      <trkpt lat="43.4217" lon="6.0713">
        <ele>237.80000305176</ele>
        <time>2015-01-28T15:43:30Z</time>
      </trkpt>
      <trkpt lat="43.42171" lon="6.0713">
        <ele>238</ele>
        <time>2015-01-28T15:43:48Z</time>
      </trkpt>
      <trkpt lat="43.4217" lon="6.07131">
        <ele>238.19999694824</ele>
        <time>2015-01-28T15:44:01Z</time>
      </trkpt>
      <trkpt lat="43.4217" lon="6.07131">
        <ele>237.39999389648</ele>
        <time>2015-01-28T15:44:08Z</time>
      </trkpt>
      <trkpt lat="43.4217" lon="6.07131">
        <ele>237.39999389648</ele>
        <time>2015-01-28T15:44:20Z</time>
      </trkpt>
      <trkpt lat="43.4217" lon="6.07131">
        <ele>237.39999389648</ele>
        <time>2015-01-28T15:44:35Z</time>
      </trkpt>
      <trkpt lat="43.4217" lon="6.07131">
        <ele>237</ele>
        <time>2015-01-28T15:44:48Z</time>
      </trkpt>
      <trkpt lat="43.4217" lon="6.07132">
        <ele>236.80000305176</ele>
        <time>2015-01-28T15:44:54Z</time>
      </trkpt>
      <trkpt lat="43.4217" lon="6.07132">
        <ele>237.19999694824</ele>
        <time>2015-01-28T15:45:07Z</time>
      </trkpt>
      <trkpt lat="43.4217" lon="6.07132">
        <ele>237.19999694824</ele>
        <time>2015-01-28T15:45:13Z</time>
      </trkpt>
      <trkpt lat="43.4217" lon="6.07132">
        <ele>237</ele>
        <time>2015-01-28T15:45:16Z</time>
      </trkpt>
      <trkpt lat="43.4217" lon="6.07131">
        <ele>237</ele>
        <time>2015-01-28T15:45:20Z</time>
      </trkpt>
      <trkpt lat="43.4217" lon="6.07131">
        <ele>237.19999694824</ele>
        <time>2015-01-28T15:45:30Z</time>
      </trkpt>
      <trkpt lat="43.4217" lon="6.0713">
        <ele>237.19999694824</ele>
        <time>2015-01-28T15:45:34Z</time>
      </trkpt>
      <trkpt lat="43.4217" lon="6.0713">
        <ele>237.39999389648</ele>
        <time>2015-01-28T15:45:39Z</time>
      </trkpt>
      <trkpt lat="43.4217" lon="6.0713">
        <ele>237.19999694824</ele>
        <time>2015-01-28T15:45:48Z</time>
      </trkpt>
      <trkpt lat="43.4217" lon="6.0713">
        <ele>237.60000610352</ele>
        <time>2015-01-28T15:46:17Z</time>
      </trkpt>
      <trkpt lat="43.4217" lon="6.0713">
        <ele>237.60000610352</ele>
        <time>2015-01-28T15:46:45Z</time>
      </trkpt>
      <trkpt lat="43.4217" lon="6.0713">
        <ele>237.80000305176</ele>
        <time>2015-01-28T15:46:48Z</time>
      </trkpt>
      <trkpt lat="43.4217" lon="6.0713">
        <ele>237.60000610352</ele>
        <time>2015-01-28T15:47:19Z</time>
      </trkpt>
      <trkpt lat="43.4217" lon="6.0713">
        <ele>237.60000610352</ele>
        <time>2015-01-28T15:47:40Z</time>
      </trkpt>
      <trkpt lat="43.42169" lon="6.07129">
        <ele>237.60000610352</ele>
        <time>2015-01-28T15:47:50Z</time>
      </trkpt>
      <trkpt lat="43.42169" lon="6.0713">
        <ele>237.60000610352</ele>
        <time>2015-01-28T15:47:54Z</time>
      </trkpt>
      <trkpt lat="43.42169" lon="6.07129">
        <ele>237.39999389648</ele>
        <time>2015-01-28T15:47:58Z</time>
      </trkpt>
      <trkpt lat="43.42169" lon="6.07129">
        <ele>237.39999389648</ele>
        <time>2015-01-28T15:48:11Z</time>
      </trkpt>
      <trkpt lat="43.42169" lon="6.07129">
        <ele>237.39999389648</ele>
        <time>2015-01-28T15:48:16Z</time>
      </trkpt>
      <trkpt lat="43.42169" lon="6.0713">
        <ele>237.60000610352</ele>
        <time>2015-01-28T15:48:17Z</time>
      </trkpt>
      <trkpt lat="43.42169" lon="6.0713">
        <ele>237.60000610352</ele>
        <time>2015-01-28T15:48:18Z</time>
      </trkpt>
      <trkpt lat="43.42169" lon="6.0713">
        <ele>237.60000610352</ele>
        <time>2015-01-28T15:48:21Z</time>
      </trkpt>
      <trkpt lat="43.42168" lon="6.0713">
        <ele>237.39999389648</ele>
        <time>2015-01-28T15:48:25Z</time>
      </trkpt>
      <trkpt lat="43.42168" lon="6.0713">
        <ele>237.60000610352</ele>
        <time>2015-01-28T15:48:27Z</time>
      </trkpt>
      <trkpt lat="43.42168" lon="6.07129">
        <ele>237.80000305176</ele>
        <time>2015-01-28T15:48:31Z</time>
      </trkpt>
      <trkpt lat="43.42168" lon="6.07129">
        <ele>237.60000610352</ele>
        <time>2015-01-28T15:48:36Z</time>
      </trkpt>
      <trkpt lat="43.42168" lon="6.07129">
        <ele>237.60000610352</ele>
        <time>2015-01-28T15:48:39Z</time>
      </trkpt>
      <trkpt lat="43.42168" lon="6.07129">
        <ele>237.80000305176</ele>
        <time>2015-01-28T15:48:42Z</time>
      </trkpt>
      <trkpt lat="43.42168" lon="6.07129">
        <ele>237.60000610352</ele>
        <time>2015-01-28T15:48:45Z</time>
      </trkpt>
      <trkpt lat="43.42167" lon="6.07129">
        <ele>237.80000305176</ele>
        <time>2015-01-28T15:49:03Z</time>
      </trkpt>
      <trkpt lat="43.42167" lon="6.07129">
        <ele>237.60000610352</ele>
        <time>2015-01-28T15:49:18Z</time>
      </trkpt>
      <trkpt lat="43.42167" lon="6.07129">
        <ele>237.60000610352</ele>
        <time>2015-01-28T15:49:19Z</time>
      </trkpt>
      <trkpt lat="43.42167" lon="6.07129">
        <ele>238</ele>
        <time>2015-01-28T15:49:47Z</time>
      </trkpt>
      <trkpt lat="43.42167" lon="6.07129">
        <ele>237.80000305176</ele>
        <time>2015-01-28T15:50:06Z</time>
      </trkpt>
      <trkpt lat="43.42167" lon="6.07129">
        <ele>237.60000610352</ele>
        <time>2015-01-28T15:50:24Z</time>
      </trkpt>
      <trkpt lat="43.42167" lon="6.07129">
        <ele>237.80000305176</ele>
        <time>2015-01-28T15:50:25Z</time>
      </trkpt>
      <trkpt lat="43.42167" lon="6.07129">
        <ele>237.60000610352</ele>
        <time>2015-01-28T15:50:35Z</time>
      </trkpt>
      <trkpt lat="43.42167" lon="6.07129">
        <ele>237.80000305176</ele>
        <time>2015-01-28T15:51:01Z</time>
      </trkpt>
      <trkpt lat="43.42167" lon="6.07129">
        <ele>237.80000305176</ele>
        <time>2015-01-28T15:51:06Z</time>
      </trkpt>
      <trkpt lat="43.42167" lon="6.07129">
        <ele>237.60000610352</ele>
        <time>2015-01-28T15:51:16Z</time>
      </trkpt>
      <trkpt lat="43.42167" lon="6.07129">
        <ele>237.60000610352</ele>
        <time>2015-01-28T15:51:28Z</time>
      </trkpt>
      <trkpt lat="43.42167" lon="6.07129">
        <ele>237.60000610352</ele>
        <time>2015-01-28T15:51:46Z</time>
      </trkpt>
      <trkpt lat="43.42167" lon="6.07129">
        <ele>237.60000610352</ele>
        <time>2015-01-28T15:52:05Z</time>
      </trkpt>
      <trkpt lat="43.42167" lon="6.07129">
        <ele>237.39999389648</ele>
        <time>2015-01-28T15:52:11Z</time>
      </trkpt>
      <trkpt lat="43.42167" lon="6.07129">
        <ele>237.39999389648</ele>
        <time>2015-01-28T15:52:31Z</time>
      </trkpt>
      <trkpt lat="43.42167" lon="6.07129">
        <ele>237.19999694824</ele>
        <time>2015-01-28T15:52:38Z</time>
      </trkpt>
      <trkpt lat="43.42167" lon="6.07129">
        <ele>237.19999694824</ele>
        <time>2015-01-28T15:52:42Z</time>
      </trkpt>
      <trkpt lat="43.42167" lon="6.07129">
        <ele>237.19999694824</ele>
        <time>2015-01-28T15:52:49Z</time>
      </trkpt>
      <trkpt lat="43.42167" lon="6.07129">
        <ele>237.39999389648</ele>
        <time>2015-01-28T15:52:53Z</time>
      </trkpt>
      <trkpt lat="43.42167" lon="6.07129">
        <ele>237.19999694824</ele>
        <time>2015-01-28T15:53:26Z</time>
      </trkpt>
      <trkpt lat="43.42167" lon="6.07129">
        <ele>237.80000305176</ele>
        <time>2015-01-28T15:53:54Z</time>
      </trkpt>
      <trkpt lat="43.42167" lon="6.07129">
        <ele>238.19999694824</ele>
        <time>2015-01-28T15:53:56Z</time>
      </trkpt>
      <trkpt lat="43.42168" lon="6.0713">
        <ele>238.19999694824</ele>
        <time>2015-01-28T15:54:07Z</time>
      </trkpt>
      <trkpt lat="43.42168" lon="6.0713">
        <ele>238.19999694824</ele>
        <time>2015-01-28T15:54:13Z</time>
      </trkpt>
      <trkpt lat="43.42168" lon="6.0713">
        <ele>238</ele>
        <time>2015-01-28T15:54:18Z</time>
      </trkpt>
      <trkpt lat="43.42168" lon="6.07131">
        <ele>238</ele>
        <time>2015-01-28T15:54:23Z</time>
      </trkpt>
      <trkpt lat="43.42169" lon="6.07131">
        <ele>238.19999694824</ele>
        <time>2015-01-28T15:54:27Z</time>
      </trkpt>
      <trkpt lat="43.42169" lon="6.07131">
        <ele>238.19999694824</ele>
        <time>2015-01-28T15:54:29Z</time>
      </trkpt>
      <trkpt lat="43.42172" lon="6.07137">
        <ele>238.39999389648</ele>
        <time>2015-01-28T15:54:37Z</time>
      </trkpt>
      <trkpt lat="43.42174" lon="6.0715">
        <ele>238.60000610352</ele>
        <time>2015-01-28T15:54:44Z</time>
      </trkpt>
      <trkpt lat="43.42175" lon="6.07152">
        <ele>238.80000305176</ele>
        <time>2015-01-28T15:54:45Z</time>
      </trkpt>
      <trkpt lat="43.42174" lon="6.07168">
        <ele>239.39999389648</ele>
        <time>2015-01-28T15:54:51Z</time>
      </trkpt>
      <trkpt lat="43.42174" lon="6.07175">
        <ele>240</ele>
        <time>2015-01-28T15:54:53Z</time>
      </trkpt>
      <trkpt lat="43.42173" lon="6.07185">
        <ele>240.39999389648</ele>
        <time>2015-01-28T15:54:56Z</time>
      </trkpt>
      <trkpt lat="43.42172" lon="6.07192">
        <ele>240.80000305176</ele>
        <time>2015-01-28T15:54:58Z</time>
      </trkpt>
      <trkpt lat="43.42171" lon="6.072">
        <ele>241</ele>
        <time>2015-01-28T15:55:00Z</time>
      </trkpt>
      <trkpt lat="43.42171" lon="6.07207">
        <ele>241.19999694824</ele>
        <time>2015-01-28T15:55:02Z</time>
      </trkpt>
      <trkpt lat="43.4217" lon="6.07218">
        <ele>241.39999389648</ele>
        <time>2015-01-28T15:55:05Z</time>
      </trkpt>
      <trkpt lat="43.42167" lon="6.07235">
        <ele>241.19999694824</ele>
        <time>2015-01-28T15:55:09Z</time>
      </trkpt>
      <trkpt lat="43.42166" lon="6.07246">
        <ele>241</ele>
        <time>2015-01-28T15:55:11Z</time>
      </trkpt>
      <trkpt lat="43.4216" lon="6.07275">
        <ele>240</ele>
        <time>2015-01-28T15:55:16Z</time>
      </trkpt>
      <trkpt lat="43.42157" lon="6.07288">
        <ele>239.60000610352</ele>
        <time>2015-01-28T15:55:18Z</time>
      </trkpt>
      <trkpt lat="43.42153" lon="6.07313">
        <ele>238.80000305176</ele>
        <time>2015-01-28T15:55:22Z</time>
      </trkpt>
      <trkpt lat="43.4215" lon="6.07338">
        <ele>238.80000305176</ele>
        <time>2015-01-28T15:55:26Z</time>
      </trkpt>
      <trkpt lat="43.42148" lon="6.07356">
        <ele>239.39999389648</ele>
        <time>2015-01-28T15:55:29Z</time>
      </trkpt>
      <trkpt lat="43.42145" lon="6.07381">
        <ele>239.39999389648</ele>
        <time>2015-01-28T15:55:33Z</time>
      </trkpt>
      <trkpt lat="43.42138" lon="6.07429">
        <ele>239.60000610352</ele>
        <time>2015-01-28T15:55:41Z</time>
      </trkpt>
      <trkpt lat="43.42133" lon="6.07451">
        <ele>240.19999694824</ele>
        <time>2015-01-28T15:55:45Z</time>
      </trkpt>
      <trkpt lat="43.42128" lon="6.07472">
        <ele>240.80000305176</ele>
        <time>2015-01-28T15:55:49Z</time>
      </trkpt>
      <trkpt lat="43.42125" lon="6.0748">
        <ele>241.19999694824</ele>
        <time>2015-01-28T15:55:51Z</time>
      </trkpt>
      <trkpt lat="43.42118" lon="6.0749">
        <ele>241.80000305176</ele>
        <time>2015-01-28T15:55:54Z</time>
      </trkpt>
      <trkpt lat="43.42115" lon="6.07491">
        <ele>242.19999694824</ele>
        <time>2015-01-28T15:55:55Z</time>
      </trkpt>
      <trkpt lat="43.42106" lon="6.07491">
        <ele>243.19999694824</ele>
        <time>2015-01-28T15:55:58Z</time>
      </trkpt>
      <trkpt lat="43.42096" lon="6.07492">
        <ele>244.39999389648</ele>
        <time>2015-01-28T15:56:01Z</time>
      </trkpt>
      <trkpt lat="43.42086" lon="6.07493">
        <ele>244.80000305176</ele>
        <time>2015-01-28T15:56:04Z</time>
      </trkpt>
      <trkpt lat="43.42068" lon="6.07494">
        <ele>245</ele>
        <time>2015-01-28T15:56:10Z</time>
      </trkpt>
      <trkpt lat="43.4205" lon="6.07496">
        <ele>245.19999694824</ele>
        <time>2015-01-28T15:56:16Z</time>
      </trkpt>
      <trkpt lat="43.4204" lon="6.07499">
        <ele>245.19999694824</ele>
        <time>2015-01-28T15:56:19Z</time>
      </trkpt>
      <trkpt lat="43.42022" lon="6.07498">
        <ele>245.19999694824</ele>
        <time>2015-01-28T15:56:25Z</time>
      </trkpt>
      <trkpt lat="43.42013" lon="6.07482">
        <ele>245</ele>
        <time>2015-01-28T15:56:30Z</time>
      </trkpt>
      <trkpt lat="43.42007" lon="6.07455">
        <ele>244.39999389648</ele>
        <time>2015-01-28T15:56:36Z</time>
      </trkpt>
      <trkpt lat="43.42004" lon="6.07437">
        <ele>244.19999694824</ele>
        <time>2015-01-28T15:56:40Z</time>
      </trkpt>
      <trkpt lat="43.42003" lon="6.07431">
        <ele>244.19999694824</ele>
        <time>2015-01-28T15:56:42Z</time>
      </trkpt>
      <trkpt lat="43.42001" lon="6.07424">
        <ele>244</ele>
        <time>2015-01-28T15:56:45Z</time>
      </trkpt>
      <trkpt lat="43.42001" lon="6.07417">
        <ele>244.19999694824</ele>
        <time>2015-01-28T15:56:47Z</time>
      </trkpt>
      <trkpt lat="43.41999" lon="6.07389">
        <ele>244</ele>
        <time>2015-01-28T15:56:53Z</time>
      </trkpt>
      <trkpt lat="43.41996" lon="6.07371">
        <ele>244.19999694824</ele>
        <time>2015-01-28T15:56:56Z</time>
      </trkpt>
      <trkpt lat="43.41993" lon="6.07358">
        <ele>244</ele>
        <time>2015-01-28T15:56:58Z</time>
      </trkpt>
      <trkpt lat="43.4199" lon="6.07351">
        <ele>243.60000610352</ele>
        <time>2015-01-28T15:56:59Z</time>
      </trkpt>
      <trkpt lat="43.41988" lon="6.07344">
        <ele>243.39999389648</ele>
        <time>2015-01-28T15:57:00Z</time>
      </trkpt>
      <trkpt lat="43.41982" lon="6.07329">
        <ele>242.39999389648</ele>
        <time>2015-01-28T15:57:02Z</time>
      </trkpt>
      <trkpt lat="43.41978" lon="6.07321">
        <ele>242</ele>
        <time>2015-01-28T15:57:03Z</time>
      </trkpt>
      <trkpt lat="43.41972" lon="6.07306">
        <ele>241.60000610352</ele>
        <time>2015-01-28T15:57:05Z</time>
      </trkpt>
      <trkpt lat="43.41964" lon="6.0729">
        <ele>240.19999694824</ele>
        <time>2015-01-28T15:57:07Z</time>
      </trkpt>
      <trkpt lat="43.41957" lon="6.07273">
        <ele>239.19999694824</ele>
        <time>2015-01-28T15:57:09Z</time>
      </trkpt>
      <trkpt lat="43.41952" lon="6.07259">
        <ele>237.60000610352</ele>
        <time>2015-01-28T15:57:11Z</time>
      </trkpt>
      <trkpt lat="43.41946" lon="6.07245">
        <ele>236.39999389648</ele>
        <time>2015-01-28T15:57:13Z</time>
      </trkpt>
      <trkpt lat="43.4194" lon="6.07231">
        <ele>235.39999389648</ele>
        <time>2015-01-28T15:57:15Z</time>
      </trkpt>
      <trkpt lat="43.41938" lon="6.07225">
        <ele>235</ele>
        <time>2015-01-28T15:57:16Z</time>
      </trkpt>
      <trkpt lat="43.41932" lon="6.07212">
        <ele>234</ele>
        <time>2015-01-28T15:57:18Z</time>
      </trkpt>
      <trkpt lat="43.41927" lon="6.072">
        <ele>232.39999389648</ele>
        <time>2015-01-28T15:57:20Z</time>
      </trkpt>
      <trkpt lat="43.41917" lon="6.07193">
        <ele>231.80000305176</ele>
        <time>2015-01-28T15:57:22Z</time>
      </trkpt>
      <trkpt lat="43.41911" lon="6.07193">
        <ele>230.60000610352</ele>
        <time>2015-01-28T15:57:23Z</time>
      </trkpt>
      <trkpt lat="43.419" lon="6.07198">
        <ele>229.80000305176</ele>
        <time>2015-01-28T15:57:25Z</time>
      </trkpt>
      <trkpt lat="43.4189" lon="6.07205">
        <ele>229.39999389648</ele>
        <time>2015-01-28T15:57:27Z</time>
      </trkpt>
      <trkpt lat="43.41884" lon="6.07206">
        <ele>229.39999389648</ele>
        <time>2015-01-28T15:57:28Z</time>
      </trkpt>
      <trkpt lat="43.41873" lon="6.07209">
        <ele>228.80000305176</ele>
        <time>2015-01-28T15:57:30Z</time>
      </trkpt>
      <trkpt lat="43.41868" lon="6.07213">
        <ele>228.60000610352</ele>
        <time>2015-01-28T15:57:31Z</time>
      </trkpt>
      <trkpt lat="43.41865" lon="6.07228">
        <ele>228.19999694824</ele>
        <time>2015-01-28T15:57:33Z</time>
      </trkpt>
      <trkpt lat="43.41864" lon="6.07264">
        <ele>228.39999389648</ele>
        <time>2015-01-28T15:57:39Z</time>
      </trkpt>
      <trkpt lat="43.41863" lon="6.07267">
        <ele>228.39999389648</ele>
        <time>2015-01-28T15:57:40Z</time>
      </trkpt>
      <trkpt lat="43.41862" lon="6.07268">
        <ele>228.39999389648</ele>
        <time>2015-01-28T15:57:42Z</time>
      </trkpt>
      <trkpt lat="43.41862" lon="6.07268">
        <ele>228.39999389648</ele>
        <time>2015-01-28T15:57:43Z</time>
      </trkpt>
    </trkseg>
  </trk>
</gpx>